<?xml version="1.0" encoding="UTF-8" standalone="no" ?>
<gpx xmlns="http://www.topografix.com/GPX/1/1" xmlns:xsi="http://www.w3.org/2001/XMLSchema-instance" xsi:schemaLocation="http://www.topografix.com/GPX/1/1 http://www.topografix.com/GPX/1/1/gpx.xsd" version="1.1" creator="VisuGPX - https://www.visugpx.com">
  <metadata>
    <name>Hery </name>
    <desc><![CDATA[Bien ! 12 km en moins de 3h avec des arrêts ! C'est l'orage qui poussait au cul , mais pas de pluie ou le casse croute de l'arrivée ... ]]></desc>
  </metadata>
  <trk>
    <name><![CDATA[Hery _1]]></name>
    <trkseg>
      <trkpt lat="47.21586" lon="2.95314">
        <ele>165.92149353027</ele>
        <time>2016-04-13T11:55:44.000Z</time>
      </trkpt>
      <trkpt lat="47.2158" lon="2.95304">
        <ele>165.96195983887</ele>
        <time>2016-04-13T11:55:46.000Z</time>
      </trkpt>
      <trkpt lat="47.21585" lon="2.95308">
        <ele>165.95356750488</ele>
        <time>2016-04-13T11:55:48.000Z</time>
      </trkpt>
      <trkpt lat="47.21586" lon="2.95302">
        <ele>165.94664001465</ele>
        <time>2016-04-13T11:55:48.000Z</time>
      </trkpt>
      <trkpt lat="47.21586" lon="2.95297">
        <ele>165.94281005859</ele>
        <time>2016-04-13T11:55:49.000Z</time>
      </trkpt>
      <trkpt lat="47.21586" lon="2.95295">
        <ele>165.94161987305</ele>
        <time>2016-04-13T11:55:49.000Z</time>
      </trkpt>
      <trkpt lat="47.21589" lon="2.9529">
        <ele>165.91012573242</ele>
        <time>2016-04-13T11:55:50.000Z</time>
      </trkpt>
      <trkpt lat="47.2159" lon="2.95288">
        <ele>165.88496398926</ele>
        <time>2016-04-13T11:55:52.000Z</time>
      </trkpt>
      <trkpt lat="47.2159" lon="2.95281">
        <ele>165.85856628418</ele>
        <time>2016-04-13T11:55:56.000Z</time>
      </trkpt>
      <trkpt lat="47.2159" lon="2.95279">
        <ele>165.8323059082</ele>
        <time>2016-04-13T11:55:57.000Z</time>
      </trkpt>
      <trkpt lat="47.2159" lon="2.95277">
        <ele>165.80882263184</ele>
        <time>2016-04-13T11:55:59.000Z</time>
      </trkpt>
      <trkpt lat="47.21589" lon="2.95272">
        <ele>165.8070526123</ele>
        <time>2016-04-13T11:56:01.000Z</time>
      </trkpt>
      <trkpt lat="47.21587" lon="2.95269">
        <ele>165.82357788086</ele>
        <time>2016-04-13T11:56:04.000Z</time>
      </trkpt>
      <trkpt lat="47.21587" lon="2.95269">
        <ele>165.82357788086</ele>
        <time>2016-04-13T11:56:29.000Z</time>
      </trkpt>
      <trkpt lat="47.21586" lon="2.95266">
        <ele>165.85029602051</ele>
        <time>2016-04-13T11:56:30.000Z</time>
      </trkpt>
      <trkpt lat="47.21585" lon="2.9526">
        <ele>165.88319396973</ele>
        <time>2016-04-13T11:56:31.000Z</time>
      </trkpt>
      <trkpt lat="47.21584" lon="2.95256">
        <ele>165.91990661621</ele>
        <time>2016-04-13T11:56:31.000Z</time>
      </trkpt>
      <trkpt lat="47.21583" lon="2.95252">
        <ele>165.95495605469</ele>
        <time>2016-04-13T11:56:32.000Z</time>
      </trkpt>
      <trkpt lat="47.21581" lon="2.95246">
        <ele>165.98616027832</ele>
        <time>2016-04-13T11:56:33.000Z</time>
      </trkpt>
      <trkpt lat="47.21581" lon="2.95244">
        <ele>166.01045227051</ele>
        <time>2016-04-13T11:56:33.000Z</time>
      </trkpt>
      <trkpt lat="47.21582" lon="2.95239">
        <ele>166.02415466309</ele>
        <time>2016-04-13T11:56:34.000Z</time>
      </trkpt>
      <trkpt lat="47.21583" lon="2.95234">
        <ele>166.02992248535</ele>
        <time>2016-04-13T11:56:34.000Z</time>
      </trkpt>
      <trkpt lat="47.21585" lon="2.95229">
        <ele>166.01943969727</ele>
        <time>2016-04-13T11:56:34.000Z</time>
      </trkpt>
      <trkpt lat="47.21587" lon="2.95226">
        <ele>165.99478149414</ele>
        <time>2016-04-13T11:56:34.000Z</time>
      </trkpt>
      <trkpt lat="47.2159" lon="2.95224">
        <ele>165.95571899414</ele>
        <time>2016-04-13T11:56:34.000Z</time>
      </trkpt>
      <trkpt lat="47.21592" lon="2.95222">
        <ele>165.91600036621</ele>
        <time>2016-04-13T11:56:36.000Z</time>
      </trkpt>
      <trkpt lat="47.21593" lon="2.95221">
        <ele>165.8738861084</ele>
        <time>2016-04-13T11:56:37.000Z</time>
      </trkpt>
      <trkpt lat="47.21596" lon="2.95217">
        <ele>165.83236694336</ele>
        <time>2016-04-13T11:56:40.000Z</time>
      </trkpt>
      <trkpt lat="47.21598" lon="2.95214">
        <ele>165.79362487793</ele>
        <time>2016-04-13T11:56:42.000Z</time>
      </trkpt>
      <trkpt lat="47.21598" lon="2.95212">
        <ele>165.7673034668</ele>
        <time>2016-04-13T11:56:44.000Z</time>
      </trkpt>
      <trkpt lat="47.21602" lon="2.9521">
        <ele>165.73320007324</ele>
        <time>2016-04-13T11:56:47.000Z</time>
      </trkpt>
      <trkpt lat="47.21604" lon="2.95208">
        <ele>165.69892883301</ele>
        <time>2016-04-13T11:56:49.000Z</time>
      </trkpt>
      <trkpt lat="47.21607" lon="2.95206">
        <ele>165.6644744873</ele>
        <time>2016-04-13T11:56:52.000Z</time>
      </trkpt>
      <trkpt lat="47.2161" lon="2.95202">
        <ele>165.62628173828</ele>
        <time>2016-04-13T11:56:55.000Z</time>
      </trkpt>
      <trkpt lat="47.21613" lon="2.95199">
        <ele>165.58422851562</ele>
        <time>2016-04-13T11:56:57.000Z</time>
      </trkpt>
      <trkpt lat="47.21615" lon="2.95195">
        <ele>165.55033874512</ele>
        <time>2016-04-13T11:57:00.000Z</time>
      </trkpt>
      <trkpt lat="47.21618" lon="2.95191">
        <ele>165.51753234863</ele>
        <time>2016-04-13T11:57:03.000Z</time>
      </trkpt>
      <trkpt lat="47.2162" lon="2.95189">
        <ele>165.48959350586</ele>
        <time>2016-04-13T11:57:05.000Z</time>
      </trkpt>
      <trkpt lat="47.21624" lon="2.95184">
        <ele>165.46440124512</ele>
        <time>2016-04-13T11:57:08.000Z</time>
      </trkpt>
      <trkpt lat="47.21627" lon="2.9518">
        <ele>165.44123840332</ele>
        <time>2016-04-13T11:57:11.000Z</time>
      </trkpt>
      <trkpt lat="47.21629" lon="2.95175">
        <ele>165.42179870605</ele>
        <time>2016-04-13T11:57:14.000Z</time>
      </trkpt>
      <trkpt lat="47.21631" lon="2.95174">
        <ele>165.40438842773</ele>
        <time>2016-04-13T11:57:16.000Z</time>
      </trkpt>
      <trkpt lat="47.21635" lon="2.95171">
        <ele>165.38642883301</ele>
        <time>2016-04-13T11:57:20.000Z</time>
      </trkpt>
      <trkpt lat="47.21638" lon="2.95169">
        <ele>165.36907958984</ele>
        <time>2016-04-13T11:57:21.000Z</time>
      </trkpt>
      <trkpt lat="47.2164" lon="2.95167">
        <ele>165.35336303711</ele>
        <time>2016-04-13T11:57:24.000Z</time>
      </trkpt>
      <trkpt lat="47.21644" lon="2.95165">
        <ele>165.32061767578</ele>
        <time>2016-04-13T11:57:27.000Z</time>
      </trkpt>
      <trkpt lat="47.21646" lon="2.95162">
        <ele>165.27449035645</ele>
        <time>2016-04-13T11:57:30.000Z</time>
      </trkpt>
      <trkpt lat="47.21648" lon="2.95161">
        <ele>165.22489929199</ele>
        <time>2016-04-13T11:57:32.000Z</time>
      </trkpt>
      <trkpt lat="47.21651" lon="2.95158">
        <ele>165.16046142578</ele>
        <time>2016-04-13T11:57:35.000Z</time>
      </trkpt>
      <trkpt lat="47.21654" lon="2.95155">
        <ele>165.07727050781</ele>
        <time>2016-04-13T11:57:38.000Z</time>
      </trkpt>
      <trkpt lat="47.21656" lon="2.95152">
        <ele>164.99154663086</ele>
        <time>2016-04-13T11:57:41.000Z</time>
      </trkpt>
      <trkpt lat="47.2166" lon="2.95148">
        <ele>164.89387512207</ele>
        <time>2016-04-13T11:57:44.000Z</time>
      </trkpt>
      <trkpt lat="47.21664" lon="2.95145">
        <ele>164.77796936035</ele>
        <time>2016-04-13T11:57:47.000Z</time>
      </trkpt>
      <trkpt lat="47.21666" lon="2.95142">
        <ele>164.66184997559</ele>
        <time>2016-04-13T11:57:49.000Z</time>
      </trkpt>
      <trkpt lat="47.2167" lon="2.95138">
        <ele>164.5297088623</ele>
        <time>2016-04-13T11:57:52.000Z</time>
      </trkpt>
      <trkpt lat="47.21672" lon="2.95136">
        <ele>164.39334106445</ele>
        <time>2016-04-13T11:57:55.000Z</time>
      </trkpt>
      <trkpt lat="47.21675" lon="2.95131">
        <ele>164.2512512207</ele>
        <time>2016-04-13T11:57:58.000Z</time>
      </trkpt>
      <trkpt lat="47.21679" lon="2.95127">
        <ele>164.10177612305</ele>
        <time>2016-04-13T11:58:01.000Z</time>
      </trkpt>
      <trkpt lat="47.21681" lon="2.95126">
        <ele>163.95166015625</ele>
        <time>2016-04-13T11:58:03.000Z</time>
      </trkpt>
      <trkpt lat="47.21684" lon="2.95123">
        <ele>163.81042480469</ele>
        <time>2016-04-13T11:58:06.000Z</time>
      </trkpt>
      <trkpt lat="47.21688" lon="2.95121">
        <ele>163.66674804688</ele>
        <time>2016-04-13T11:58:14.000Z</time>
      </trkpt>
      <trkpt lat="47.21693" lon="2.95116">
        <ele>163.50939941406</ele>
        <time>2016-04-13T11:58:17.000Z</time>
      </trkpt>
      <trkpt lat="47.21691" lon="2.95114">
        <ele>163.38623046875</ele>
        <time>2016-04-13T11:58:20.000Z</time>
      </trkpt>
      <trkpt lat="47.21693" lon="2.95109">
        <ele>163.24768066406</ele>
        <time>2016-04-13T11:58:23.000Z</time>
      </trkpt>
      <trkpt lat="47.21695" lon="2.95103">
        <ele>163.09973144531</ele>
        <time>2016-04-13T11:58:26.000Z</time>
      </trkpt>
      <trkpt lat="47.21698" lon="2.95098">
        <ele>162.93823242188</ele>
        <time>2016-04-13T11:58:29.000Z</time>
      </trkpt>
      <trkpt lat="47.21699" lon="2.95095">
        <ele>162.80407714844</ele>
        <time>2016-04-13T11:58:31.000Z</time>
      </trkpt>
      <trkpt lat="47.21702" lon="2.9509">
        <ele>162.63659667969</ele>
        <time>2016-04-13T11:58:34.000Z</time>
      </trkpt>
      <trkpt lat="47.21704" lon="2.95085">
        <ele>162.47180175781</ele>
        <time>2016-04-13T11:58:37.000Z</time>
      </trkpt>
      <trkpt lat="47.21705" lon="2.9508">
        <ele>162.31311035156</ele>
        <time>2016-04-13T11:58:40.000Z</time>
      </trkpt>
      <trkpt lat="47.21706" lon="2.95077">
        <ele>162.17077636719</ele>
        <time>2016-04-13T11:58:42.000Z</time>
      </trkpt>
      <trkpt lat="47.21707" lon="2.95074">
        <ele>162.03369140625</ele>
        <time>2016-04-13T11:58:44.000Z</time>
      </trkpt>
      <trkpt lat="47.21709" lon="2.9507">
        <ele>161.90380859375</ele>
        <time>2016-04-13T11:58:47.000Z</time>
      </trkpt>
      <trkpt lat="47.21712" lon="2.95064">
        <ele>161.76416015625</ele>
        <time>2016-04-13T11:58:50.000Z</time>
      </trkpt>
      <trkpt lat="47.21714" lon="2.95059">
        <ele>161.62097167969</ele>
        <time>2016-04-13T11:58:53.000Z</time>
      </trkpt>
      <trkpt lat="47.21716" lon="2.95054">
        <ele>161.46325683594</ele>
        <time>2016-04-13T11:58:56.000Z</time>
      </trkpt>
      <trkpt lat="47.21718" lon="2.95049">
        <ele>161.28845214844</ele>
        <time>2016-04-13T11:58:59.000Z</time>
      </trkpt>
      <trkpt lat="47.21719" lon="2.95046">
        <ele>161.11889648438</ele>
        <time>2016-04-13T11:59:01.000Z</time>
      </trkpt>
      <trkpt lat="47.21721" lon="2.9504">
        <ele>160.958984375</ele>
        <time>2016-04-13T11:59:04.000Z</time>
      </trkpt>
      <trkpt lat="47.21723" lon="2.95034">
        <ele>160.79504394531</ele>
        <time>2016-04-13T11:59:07.000Z</time>
      </trkpt>
      <trkpt lat="47.21725" lon="2.95031">
        <ele>160.64440917969</ele>
        <time>2016-04-13T11:59:09.000Z</time>
      </trkpt>
      <trkpt lat="47.21728" lon="2.95025">
        <ele>160.48486328125</ele>
        <time>2016-04-13T11:59:12.000Z</time>
      </trkpt>
      <trkpt lat="47.2173" lon="2.9502">
        <ele>160.31262207031</ele>
        <time>2016-04-13T11:59:15.000Z</time>
      </trkpt>
      <trkpt lat="47.21731" lon="2.95018">
        <ele>160.16040039062</ele>
        <time>2016-04-13T11:59:17.000Z</time>
      </trkpt>
      <trkpt lat="47.21733" lon="2.95013">
        <ele>160.015625</ele>
        <time>2016-04-13T11:59:20.000Z</time>
      </trkpt>
      <trkpt lat="47.21735" lon="2.95009">
        <ele>159.86254882812</ele>
        <time>2016-04-13T11:59:24.000Z</time>
      </trkpt>
      <trkpt lat="47.21737" lon="2.95004">
        <ele>159.72143554688</ele>
        <time>2016-04-13T11:59:26.000Z</time>
      </trkpt>
      <trkpt lat="47.21738" lon="2.95002">
        <ele>159.5947265625</ele>
        <time>2016-04-13T11:59:28.000Z</time>
      </trkpt>
      <trkpt lat="47.2174" lon="2.94997">
        <ele>159.46951293945</ele>
        <time>2016-04-13T11:59:31.000Z</time>
      </trkpt>
      <trkpt lat="47.21743" lon="2.94992">
        <ele>159.37438964844</ele>
        <time>2016-04-13T11:59:34.000Z</time>
      </trkpt>
      <trkpt lat="47.21745" lon="2.94987">
        <ele>159.31495666504</ele>
        <time>2016-04-13T11:59:37.000Z</time>
      </trkpt>
      <trkpt lat="47.21747" lon="2.94981">
        <ele>159.2858581543</ele>
        <time>2016-04-13T11:59:40.000Z</time>
      </trkpt>
      <trkpt lat="47.2175" lon="2.94976">
        <ele>159.27922058105</ele>
        <time>2016-04-13T11:59:43.000Z</time>
      </trkpt>
      <trkpt lat="47.21751" lon="2.94973">
        <ele>159.29100036621</ele>
        <time>2016-04-13T11:59:45.000Z</time>
      </trkpt>
      <trkpt lat="47.21753" lon="2.94968">
        <ele>159.31869506836</ele>
        <time>2016-04-13T11:59:48.000Z</time>
      </trkpt>
      <trkpt lat="47.21755" lon="2.94964">
        <ele>159.36177062988</ele>
        <time>2016-04-13T11:59:51.000Z</time>
      </trkpt>
      <trkpt lat="47.21757" lon="2.94958">
        <ele>159.42205810547</ele>
        <time>2016-04-13T11:59:54.000Z</time>
      </trkpt>
      <trkpt lat="47.21759" lon="2.94954">
        <ele>159.49797058105</ele>
        <time>2016-04-13T11:59:57.000Z</time>
      </trkpt>
      <trkpt lat="47.21759" lon="2.94952">
        <ele>159.57258605957</ele>
        <time>2016-04-13T11:59:59.000Z</time>
      </trkpt>
      <trkpt lat="47.21761" lon="2.94948">
        <ele>159.65054321289</ele>
        <time>2016-04-13T12:00:02.000Z</time>
      </trkpt>
      <trkpt lat="47.21763" lon="2.94942">
        <ele>159.73335266113</ele>
        <time>2016-04-13T12:00:05.000Z</time>
      </trkpt>
      <trkpt lat="47.21765" lon="2.94937">
        <ele>159.82269287109</ele>
        <time>2016-04-13T12:00:08.000Z</time>
      </trkpt>
      <trkpt lat="47.21767" lon="2.94933">
        <ele>159.91340637207</ele>
        <time>2016-04-13T12:00:11.000Z</time>
      </trkpt>
      <trkpt lat="47.21768" lon="2.9493">
        <ele>160.01364135742</ele>
        <time>2016-04-13T12:00:13.000Z</time>
      </trkpt>
      <trkpt lat="47.2177" lon="2.94925">
        <ele>160.12139892578</ele>
        <time>2016-04-13T12:00:16.000Z</time>
      </trkpt>
      <trkpt lat="47.21772" lon="2.94922">
        <ele>160.22958374023</ele>
        <time>2016-04-13T12:00:18.000Z</time>
      </trkpt>
      <trkpt lat="47.21774" lon="2.94919">
        <ele>160.33103942871</ele>
        <time>2016-04-13T12:00:20.000Z</time>
      </trkpt>
      <trkpt lat="47.21776" lon="2.94913">
        <ele>160.44352722168</ele>
        <time>2016-04-13T12:00:23.000Z</time>
      </trkpt>
      <trkpt lat="47.21778" lon="2.9491">
        <ele>160.5632019043</ele>
        <time>2016-04-13T12:00:25.000Z</time>
      </trkpt>
      <trkpt lat="47.2178" lon="2.94905">
        <ele>160.68412780762</ele>
        <time>2016-04-13T12:00:28.000Z</time>
      </trkpt>
      <trkpt lat="47.21782" lon="2.949">
        <ele>160.80874633789</ele>
        <time>2016-04-13T12:00:31.000Z</time>
      </trkpt>
      <trkpt lat="47.21783" lon="2.94897">
        <ele>160.93237304688</ele>
        <time>2016-04-13T12:00:33.000Z</time>
      </trkpt>
      <trkpt lat="47.21785" lon="2.94893">
        <ele>161.05200195312</ele>
        <time>2016-04-13T12:00:36.000Z</time>
      </trkpt>
      <trkpt lat="47.21786" lon="2.94891">
        <ele>161.16195678711</ele>
        <time>2016-04-13T12:00:38.000Z</time>
      </trkpt>
      <trkpt lat="47.21788" lon="2.94887">
        <ele>161.26889038086</ele>
        <time>2016-04-13T12:00:41.000Z</time>
      </trkpt>
      <trkpt lat="47.2179" lon="2.94882">
        <ele>161.37170410156</ele>
        <time>2016-04-13T12:00:44.000Z</time>
      </trkpt>
      <trkpt lat="47.21791" lon="2.9488">
        <ele>161.47192382812</ele>
        <time>2016-04-13T12:00:46.000Z</time>
      </trkpt>
      <trkpt lat="47.21793" lon="2.94875">
        <ele>161.56881713867</ele>
        <time>2016-04-13T12:00:49.000Z</time>
      </trkpt>
      <trkpt lat="47.21795" lon="2.94869">
        <ele>161.6823425293</ele>
        <time>2016-04-13T12:00:52.000Z</time>
      </trkpt>
      <trkpt lat="47.21798" lon="2.94865">
        <ele>161.79545593262</ele>
        <time>2016-04-13T12:00:55.000Z</time>
      </trkpt>
      <trkpt lat="47.218" lon="2.9486">
        <ele>161.90881347656</ele>
        <time>2016-04-13T12:00:59.000Z</time>
      </trkpt>
      <trkpt lat="47.21802" lon="2.94856">
        <ele>162.02668762207</ele>
        <time>2016-04-13T12:01:00.000Z</time>
      </trkpt>
      <trkpt lat="47.21803" lon="2.94853">
        <ele>162.13212585449</ele>
        <time>2016-04-13T12:01:02.000Z</time>
      </trkpt>
      <trkpt lat="47.21804" lon="2.94849">
        <ele>162.22709655762</ele>
        <time>2016-04-13T12:01:05.000Z</time>
      </trkpt>
      <trkpt lat="47.21806" lon="2.94843">
        <ele>162.3243560791</ele>
        <time>2016-04-13T12:01:08.000Z</time>
      </trkpt>
      <trkpt lat="47.21808" lon="2.94839">
        <ele>162.41687011719</ele>
        <time>2016-04-13T12:01:11.000Z</time>
      </trkpt>
      <trkpt lat="47.2181" lon="2.94834">
        <ele>162.50802612305</ele>
        <time>2016-04-13T12:01:14.000Z</time>
      </trkpt>
      <trkpt lat="47.21811" lon="2.9483">
        <ele>162.61148071289</ele>
        <time>2016-04-13T12:01:17.000Z</time>
      </trkpt>
      <trkpt lat="47.21813" lon="2.94827">
        <ele>162.7145690918</ele>
        <time>2016-04-13T12:01:19.000Z</time>
      </trkpt>
      <trkpt lat="47.21815" lon="2.94821">
        <ele>162.82653808594</ele>
        <time>2016-04-13T12:01:22.000Z</time>
      </trkpt>
      <trkpt lat="47.21817" lon="2.94817">
        <ele>162.94436645508</ele>
        <time>2016-04-13T12:01:25.000Z</time>
      </trkpt>
      <trkpt lat="47.21819" lon="2.94814">
        <ele>163.06262207031</ele>
        <time>2016-04-13T12:01:27.000Z</time>
      </trkpt>
      <trkpt lat="47.21821" lon="2.9481">
        <ele>163.18249511719</ele>
        <time>2016-04-13T12:01:30.000Z</time>
      </trkpt>
      <trkpt lat="47.21822" lon="2.94807">
        <ele>163.29943847656</ele>
        <time>2016-04-13T12:01:32.000Z</time>
      </trkpt>
      <trkpt lat="47.21824" lon="2.94803">
        <ele>163.4072265625</ele>
        <time>2016-04-13T12:01:35.000Z</time>
      </trkpt>
      <trkpt lat="47.21827" lon="2.94798">
        <ele>163.52099609375</ele>
        <time>2016-04-13T12:01:38.000Z</time>
      </trkpt>
      <trkpt lat="47.21829" lon="2.94794">
        <ele>163.6396484375</ele>
        <time>2016-04-13T12:01:41.000Z</time>
      </trkpt>
      <trkpt lat="47.21831" lon="2.9479">
        <ele>163.759765625</ele>
        <time>2016-04-13T12:01:44.000Z</time>
      </trkpt>
      <trkpt lat="47.21833" lon="2.94785">
        <ele>163.89099121094</ele>
        <time>2016-04-13T12:01:47.000Z</time>
      </trkpt>
      <trkpt lat="47.21835" lon="2.94781">
        <ele>164.02407836914</ele>
        <time>2016-04-13T12:01:50.000Z</time>
      </trkpt>
      <trkpt lat="47.21838" lon="2.94778">
        <ele>164.15885925293</ele>
        <time>2016-04-13T12:01:53.000Z</time>
      </trkpt>
      <trkpt lat="47.2184" lon="2.94773">
        <ele>164.30317687988</ele>
        <time>2016-04-13T12:01:56.000Z</time>
      </trkpt>
      <trkpt lat="47.21843" lon="2.9477">
        <ele>164.45248413086</ele>
        <time>2016-04-13T12:02:00.000Z</time>
      </trkpt>
      <trkpt lat="47.21847" lon="2.94767">
        <ele>164.60498046875</ele>
        <time>2016-04-13T12:02:02.000Z</time>
      </trkpt>
      <trkpt lat="47.2185" lon="2.94765">
        <ele>164.7529296875</ele>
        <time>2016-04-13T12:02:05.000Z</time>
      </trkpt>
      <trkpt lat="47.21852" lon="2.94763">
        <ele>164.88757324219</ele>
        <time>2016-04-13T12:02:07.000Z</time>
      </trkpt>
      <trkpt lat="47.21853" lon="2.94761">
        <ele>165.01110839844</ele>
        <time>2016-04-13T12:02:09.000Z</time>
      </trkpt>
      <trkpt lat="47.21856" lon="2.94758">
        <ele>165.13146972656</ele>
        <time>2016-04-13T12:02:12.000Z</time>
      </trkpt>
      <trkpt lat="47.21859" lon="2.94755">
        <ele>165.24877929688</ele>
        <time>2016-04-13T12:02:15.000Z</time>
      </trkpt>
      <trkpt lat="47.21862" lon="2.94751">
        <ele>165.37548828125</ele>
        <time>2016-04-13T12:02:18.000Z</time>
      </trkpt>
      <trkpt lat="47.21865" lon="2.94747">
        <ele>165.50520324707</ele>
        <time>2016-04-13T12:02:21.000Z</time>
      </trkpt>
      <trkpt lat="47.21868" lon="2.94745">
        <ele>165.63217163086</ele>
        <time>2016-04-13T12:02:24.000Z</time>
      </trkpt>
      <trkpt lat="47.2187" lon="2.94743">
        <ele>165.74240112305</ele>
        <time>2016-04-13T12:02:26.000Z</time>
      </trkpt>
      <trkpt lat="47.21874" lon="2.94741">
        <ele>165.84635925293</ele>
        <time>2016-04-13T12:02:29.000Z</time>
      </trkpt>
      <trkpt lat="47.21877" lon="2.94738">
        <ele>165.9409942627</ele>
        <time>2016-04-13T12:02:32.000Z</time>
      </trkpt>
      <trkpt lat="47.2188" lon="2.94736">
        <ele>166.02922058105</ele>
        <time>2016-04-13T12:02:34.000Z</time>
      </trkpt>
      <trkpt lat="47.21883" lon="2.94733">
        <ele>166.11865234375</ele>
        <time>2016-04-13T12:02:37.000Z</time>
      </trkpt>
      <trkpt lat="47.21885" lon="2.94729">
        <ele>166.21467590332</ele>
        <time>2016-04-13T12:02:40.000Z</time>
      </trkpt>
      <trkpt lat="47.21887" lon="2.94727">
        <ele>166.30227661133</ele>
        <time>2016-04-13T12:02:42.000Z</time>
      </trkpt>
      <trkpt lat="47.21889" lon="2.94723">
        <ele>166.38949584961</ele>
        <time>2016-04-13T12:02:45.000Z</time>
      </trkpt>
      <trkpt lat="47.21893" lon="2.9472">
        <ele>166.48291015625</ele>
        <time>2016-04-13T12:02:48.000Z</time>
      </trkpt>
      <trkpt lat="47.21894" lon="2.94717">
        <ele>166.57260131836</ele>
        <time>2016-04-13T12:02:50.000Z</time>
      </trkpt>
      <trkpt lat="47.21898" lon="2.94715">
        <ele>166.66470336914</ele>
        <time>2016-04-13T12:02:53.000Z</time>
      </trkpt>
      <trkpt lat="47.219" lon="2.94713">
        <ele>166.76417541504</ele>
        <time>2016-04-13T12:02:56.000Z</time>
      </trkpt>
      <trkpt lat="47.21904" lon="2.9471">
        <ele>166.87199401855</ele>
        <time>2016-04-13T12:02:59.000Z</time>
      </trkpt>
      <trkpt lat="47.21908" lon="2.94706">
        <ele>166.99154663086</ele>
        <time>2016-04-13T12:03:02.000Z</time>
      </trkpt>
      <trkpt lat="47.21909" lon="2.94705">
        <ele>167.10289001465</ele>
        <time>2016-04-13T12:03:04.000Z</time>
      </trkpt>
      <trkpt lat="47.21913" lon="2.94702">
        <ele>167.22575378418</ele>
        <time>2016-04-13T12:03:07.000Z</time>
      </trkpt>
      <trkpt lat="47.21917" lon="2.94697">
        <ele>167.36090087891</ele>
        <time>2016-04-13T12:03:10.000Z</time>
      </trkpt>
      <trkpt lat="47.2192" lon="2.94695">
        <ele>167.47230529785</ele>
        <time>2016-04-13T12:03:12.000Z</time>
      </trkpt>
      <trkpt lat="47.2192" lon="2.94692">
        <ele>167.55859375</ele>
        <time>2016-04-13T12:03:14.000Z</time>
      </trkpt>
      <trkpt lat="47.21923" lon="2.94689">
        <ele>167.64781188965</ele>
        <time>2016-04-13T12:03:17.000Z</time>
      </trkpt>
      <trkpt lat="47.21926" lon="2.94686">
        <ele>167.71281433105</ele>
        <time>2016-04-13T12:03:20.000Z</time>
      </trkpt>
      <trkpt lat="47.2193" lon="2.94682">
        <ele>167.75465393066</ele>
        <time>2016-04-13T12:03:23.000Z</time>
      </trkpt>
      <trkpt lat="47.21933" lon="2.9468">
        <ele>167.79508972168</ele>
        <time>2016-04-13T12:03:25.000Z</time>
      </trkpt>
      <trkpt lat="47.21935" lon="2.94677">
        <ele>167.83503723145</ele>
        <time>2016-04-13T12:03:28.000Z</time>
      </trkpt>
      <trkpt lat="47.21938" lon="2.94675">
        <ele>167.86819458008</ele>
        <time>2016-04-13T12:03:30.000Z</time>
      </trkpt>
      <trkpt lat="47.21939" lon="2.94672">
        <ele>167.89953613281</ele>
        <time>2016-04-13T12:03:33.000Z</time>
      </trkpt>
      <trkpt lat="47.21941" lon="2.9467">
        <ele>167.92578125</ele>
        <time>2016-04-13T12:03:35.000Z</time>
      </trkpt>
      <trkpt lat="47.21944" lon="2.94666">
        <ele>167.95108032227</ele>
        <time>2016-04-13T12:03:38.000Z</time>
      </trkpt>
      <trkpt lat="47.21946" lon="2.94664">
        <ele>167.96827697754</ele>
        <time>2016-04-13T12:03:40.000Z</time>
      </trkpt>
      <trkpt lat="47.21947" lon="2.9466">
        <ele>167.97937011719</ele>
        <time>2016-04-13T12:03:42.000Z</time>
      </trkpt>
      <trkpt lat="47.2195" lon="2.94655">
        <ele>167.98251342773</ele>
        <time>2016-04-13T12:03:45.000Z</time>
      </trkpt>
      <trkpt lat="47.21951" lon="2.94651">
        <ele>167.98112487793</ele>
        <time>2016-04-13T12:03:47.000Z</time>
      </trkpt>
      <trkpt lat="47.21952" lon="2.94648">
        <ele>167.97470092773</ele>
        <time>2016-04-13T12:03:49.000Z</time>
      </trkpt>
      <trkpt lat="47.21951" lon="2.94643">
        <ele>167.96723937988</ele>
        <time>2016-04-13T12:03:52.000Z</time>
      </trkpt>
      <trkpt lat="47.21949" lon="2.94638">
        <ele>167.95576477051</ele>
        <time>2016-04-13T12:03:55.000Z</time>
      </trkpt>
      <trkpt lat="47.21947" lon="2.94634">
        <ele>167.93978881836</ele>
        <time>2016-04-13T12:03:57.000Z</time>
      </trkpt>
      <trkpt lat="47.21943" lon="2.94631">
        <ele>167.9146270752</ele>
        <time>2016-04-13T12:04:00.000Z</time>
      </trkpt>
      <trkpt lat="47.21939" lon="2.94627">
        <ele>167.87800598145</ele>
        <time>2016-04-13T12:04:03.000Z</time>
      </trkpt>
      <trkpt lat="47.21937" lon="2.94624">
        <ele>167.83493041992</ele>
        <time>2016-04-13T12:04:05.000Z</time>
      </trkpt>
      <trkpt lat="47.21935" lon="2.9462">
        <ele>167.78561401367</ele>
        <time>2016-04-13T12:04:08.000Z</time>
      </trkpt>
      <trkpt lat="47.21934" lon="2.94617">
        <ele>167.73733520508</ele>
        <time>2016-04-13T12:04:10.000Z</time>
      </trkpt>
      <trkpt lat="47.21931" lon="2.94613">
        <ele>167.68319702148</ele>
        <time>2016-04-13T12:04:13.000Z</time>
      </trkpt>
      <trkpt lat="47.21928" lon="2.94609">
        <ele>167.62435913086</ele>
        <time>2016-04-13T12:04:16.000Z</time>
      </trkpt>
      <trkpt lat="47.21925" lon="2.94604">
        <ele>167.55545043945</ele>
        <time>2016-04-13T12:04:19.000Z</time>
      </trkpt>
      <trkpt lat="47.21923" lon="2.94601">
        <ele>167.48538208008</ele>
        <time>2016-04-13T12:04:21.000Z</time>
      </trkpt>
      <trkpt lat="47.2192" lon="2.94598">
        <ele>167.40489196777</ele>
        <time>2016-04-13T12:04:23.000Z</time>
      </trkpt>
      <trkpt lat="47.21918" lon="2.94593">
        <ele>167.32119750977</ele>
        <time>2016-04-13T12:04:26.000Z</time>
      </trkpt>
      <trkpt lat="47.21916" lon="2.94589">
        <ele>167.23640441895</ele>
        <time>2016-04-13T12:04:29.000Z</time>
      </trkpt>
      <trkpt lat="47.21914" lon="2.94585">
        <ele>167.15682983398</ele>
        <time>2016-04-13T12:04:31.000Z</time>
      </trkpt>
      <trkpt lat="47.21912" lon="2.9458">
        <ele>167.09613037109</ele>
        <time>2016-04-13T12:04:34.000Z</time>
      </trkpt>
      <trkpt lat="47.2191" lon="2.94577">
        <ele>167.06021118164</ele>
        <time>2016-04-13T12:04:36.000Z</time>
      </trkpt>
      <trkpt lat="47.21908" lon="2.94573">
        <ele>167.0609588623</ele>
        <time>2016-04-13T12:04:39.000Z</time>
      </trkpt>
      <trkpt lat="47.21907" lon="2.9457">
        <ele>167.09033203125</ele>
        <time>2016-04-13T12:04:42.000Z</time>
      </trkpt>
      <trkpt lat="47.21906" lon="2.94568">
        <ele>167.13940429688</ele>
        <time>2016-04-13T12:04:44.000Z</time>
      </trkpt>
      <trkpt lat="47.21904" lon="2.94563">
        <ele>167.19995117188</ele>
        <time>2016-04-13T12:04:47.000Z</time>
      </trkpt>
      <trkpt lat="47.21901" lon="2.94558">
        <ele>167.2685546875</ele>
        <time>2016-04-13T12:04:50.000Z</time>
      </trkpt>
      <trkpt lat="47.21898" lon="2.94554">
        <ele>167.333984375</ele>
        <time>2016-04-13T12:04:53.000Z</time>
      </trkpt>
      <trkpt lat="47.21896" lon="2.94549">
        <ele>167.40637207031</ele>
        <time>2016-04-13T12:04:56.000Z</time>
      </trkpt>
      <trkpt lat="47.21895" lon="2.94546">
        <ele>167.48559570312</ele>
        <time>2016-04-13T12:04:58.000Z</time>
      </trkpt>
      <trkpt lat="47.21893" lon="2.94541">
        <ele>167.56689453125</ele>
        <time>2016-04-13T12:05:01.000Z</time>
      </trkpt>
      <trkpt lat="47.21891" lon="2.94537">
        <ele>167.64526367188</ele>
        <time>2016-04-13T12:05:03.000Z</time>
      </trkpt>
      <trkpt lat="47.21889" lon="2.94532">
        <ele>167.73059082031</ele>
        <time>2016-04-13T12:05:06.000Z</time>
      </trkpt>
      <trkpt lat="47.21887" lon="2.94529">
        <ele>167.80810546875</ele>
        <time>2016-04-13T12:05:08.000Z</time>
      </trkpt>
      <trkpt lat="47.21886" lon="2.94526">
        <ele>167.88110351562</ele>
        <time>2016-04-13T12:05:10.000Z</time>
      </trkpt>
      <trkpt lat="47.21883" lon="2.94522">
        <ele>167.94567871094</ele>
        <time>2016-04-13T12:05:13.000Z</time>
      </trkpt>
      <trkpt lat="47.2188" lon="2.9452">
        <ele>168.00341796875</ele>
        <time>2016-04-13T12:05:15.000Z</time>
      </trkpt>
      <trkpt lat="47.21878" lon="2.94516">
        <ele>168.05004882812</ele>
        <time>2016-04-13T12:05:17.000Z</time>
      </trkpt>
      <trkpt lat="47.21875" lon="2.94511">
        <ele>168.10583496094</ele>
        <time>2016-04-13T12:05:20.000Z</time>
      </trkpt>
      <trkpt lat="47.21872" lon="2.94507">
        <ele>168.16638183594</ele>
        <time>2016-04-13T12:05:23.000Z</time>
      </trkpt>
      <trkpt lat="47.2187" lon="2.94502">
        <ele>168.23583984375</ele>
        <time>2016-04-13T12:05:26.000Z</time>
      </trkpt>
      <trkpt lat="47.21869" lon="2.94498">
        <ele>168.30978393555</ele>
        <time>2016-04-13T12:05:28.000Z</time>
      </trkpt>
      <trkpt lat="47.21868" lon="2.94494">
        <ele>168.38642883301</ele>
        <time>2016-04-13T12:05:31.000Z</time>
      </trkpt>
      <trkpt lat="47.21867" lon="2.9449">
        <ele>168.45809936523</ele>
        <time>2016-04-13T12:05:33.000Z</time>
      </trkpt>
      <trkpt lat="47.21866" lon="2.94486">
        <ele>168.52912902832</ele>
        <time>2016-04-13T12:05:36.000Z</time>
      </trkpt>
      <trkpt lat="47.21865" lon="2.94484">
        <ele>168.58743286133</ele>
        <time>2016-04-13T12:05:38.000Z</time>
      </trkpt>
      <trkpt lat="47.21862" lon="2.9448">
        <ele>168.64390563965</ele>
        <time>2016-04-13T12:05:41.000Z</time>
      </trkpt>
      <trkpt lat="47.21861" lon="2.94477">
        <ele>168.6985168457</ele>
        <time>2016-04-13T12:05:43.000Z</time>
      </trkpt>
      <trkpt lat="47.21859" lon="2.94472">
        <ele>168.75628662109</ele>
        <time>2016-04-13T12:05:46.000Z</time>
      </trkpt>
      <trkpt lat="47.21858" lon="2.94469">
        <ele>168.81118774414</ele>
        <time>2016-04-13T12:05:48.000Z</time>
      </trkpt>
      <trkpt lat="47.21855" lon="2.94464">
        <ele>168.87297058105</ele>
        <time>2016-04-13T12:05:51.000Z</time>
      </trkpt>
      <trkpt lat="47.21852" lon="2.94461">
        <ele>168.93765258789</ele>
        <time>2016-04-13T12:05:54.000Z</time>
      </trkpt>
      <trkpt lat="47.21851" lon="2.94458">
        <ele>169.00102233887</ele>
        <time>2016-04-13T12:05:56.000Z</time>
      </trkpt>
      <trkpt lat="47.21848" lon="2.94454">
        <ele>169.06161499023</ele>
        <time>2016-04-13T12:05:59.000Z</time>
      </trkpt>
      <trkpt lat="47.21846" lon="2.94449">
        <ele>169.12907409668</ele>
        <time>2016-04-13T12:06:02.000Z</time>
      </trkpt>
      <trkpt lat="47.21845" lon="2.94446">
        <ele>169.1982421875</ele>
        <time>2016-04-13T12:06:05.000Z</time>
      </trkpt>
      <trkpt lat="47.21842" lon="2.9444">
        <ele>169.27963256836</ele>
        <time>2016-04-13T12:06:08.000Z</time>
      </trkpt>
      <trkpt lat="47.2184" lon="2.94433">
        <ele>169.37973022461</ele>
        <time>2016-04-13T12:06:11.000Z</time>
      </trkpt>
      <trkpt lat="47.21838" lon="2.94427">
        <ele>169.49604797363</ele>
        <time>2016-04-13T12:06:14.000Z</time>
      </trkpt>
      <trkpt lat="47.21836" lon="2.94421">
        <ele>169.62130737305</ele>
        <time>2016-04-13T12:06:17.000Z</time>
      </trkpt>
      <trkpt lat="47.21836" lon="2.94419">
        <ele>169.74197387695</ele>
        <time>2016-04-13T12:06:19.000Z</time>
      </trkpt>
      <trkpt lat="47.21834" lon="2.94415">
        <ele>169.85163879395</ele>
        <time>2016-04-13T12:06:22.000Z</time>
      </trkpt>
      <trkpt lat="47.21831" lon="2.9441">
        <ele>169.94564819336</ele>
        <time>2016-04-13T12:06:25.000Z</time>
      </trkpt>
      <trkpt lat="47.21829" lon="2.94406">
        <ele>170.01863098145</ele>
        <time>2016-04-13T12:06:27.000Z</time>
      </trkpt>
      <trkpt lat="47.21828" lon="2.94403">
        <ele>170.07626342773</ele>
        <time>2016-04-13T12:06:30.000Z</time>
      </trkpt>
      <trkpt lat="47.21827" lon="2.94401">
        <ele>170.13003540039</ele>
        <time>2016-04-13T12:06:32.000Z</time>
      </trkpt>
      <trkpt lat="47.21824" lon="2.94397">
        <ele>170.18508911133</ele>
        <time>2016-04-13T12:06:35.000Z</time>
      </trkpt>
      <trkpt lat="47.21821" lon="2.94392">
        <ele>170.24409484863</ele>
        <time>2016-04-13T12:06:38.000Z</time>
      </trkpt>
      <trkpt lat="47.2182" lon="2.94389">
        <ele>170.30390930176</ele>
        <time>2016-04-13T12:06:40.000Z</time>
      </trkpt>
      <trkpt lat="47.21817" lon="2.94385">
        <ele>170.37069702148</ele>
        <time>2016-04-13T12:06:43.000Z</time>
      </trkpt>
      <trkpt lat="47.21816" lon="2.94383">
        <ele>170.44125366211</ele>
        <time>2016-04-13T12:06:45.000Z</time>
      </trkpt>
      <trkpt lat="47.21815" lon="2.94378">
        <ele>170.51742553711</ele>
        <time>2016-04-13T12:06:48.000Z</time>
      </trkpt>
      <trkpt lat="47.21814" lon="2.94373">
        <ele>170.59437561035</ele>
        <time>2016-04-13T12:06:50.000Z</time>
      </trkpt>
      <trkpt lat="47.21812" lon="2.94368">
        <ele>170.68359375</ele>
        <time>2016-04-13T12:06:53.000Z</time>
      </trkpt>
      <trkpt lat="47.21811" lon="2.94362">
        <ele>170.78109741211</ele>
        <time>2016-04-13T12:06:56.000Z</time>
      </trkpt>
      <trkpt lat="47.21807" lon="2.94358">
        <ele>170.89526367188</ele>
        <time>2016-04-13T12:06:59.000Z</time>
      </trkpt>
      <trkpt lat="47.21804" lon="2.94354">
        <ele>171.01481628418</ele>
        <time>2016-04-13T12:07:02.000Z</time>
      </trkpt>
      <trkpt lat="47.21802" lon="2.9435">
        <ele>171.14331054688</ele>
        <time>2016-04-13T12:07:05.000Z</time>
      </trkpt>
      <trkpt lat="47.21801" lon="2.94345">
        <ele>171.27297973633</ele>
        <time>2016-04-13T12:07:08.000Z</time>
      </trkpt>
      <trkpt lat="47.21798" lon="2.94342">
        <ele>171.40013122559</ele>
        <time>2016-04-13T12:07:10.000Z</time>
      </trkpt>
      <trkpt lat="47.21798" lon="2.94338">
        <ele>171.51802062988</ele>
        <time>2016-04-13T12:07:12.000Z</time>
      </trkpt>
      <trkpt lat="47.21795" lon="2.94335">
        <ele>171.6408996582</ele>
        <time>2016-04-13T12:07:15.000Z</time>
      </trkpt>
      <trkpt lat="47.21793" lon="2.9433">
        <ele>171.75346374512</ele>
        <time>2016-04-13T12:07:18.000Z</time>
      </trkpt>
      <trkpt lat="47.21791" lon="2.94328">
        <ele>171.84831237793</ele>
        <time>2016-04-13T12:07:20.000Z</time>
      </trkpt>
      <trkpt lat="47.2179" lon="2.94324">
        <ele>171.92646789551</ele>
        <time>2016-04-13T12:07:23.000Z</time>
      </trkpt>
      <trkpt lat="47.21789" lon="2.94321">
        <ele>171.99362182617</ele>
        <time>2016-04-13T12:07:25.000Z</time>
      </trkpt>
      <trkpt lat="47.21789" lon="2.94317">
        <ele>172.03247070312</ele>
        <time>2016-04-13T12:07:28.000Z</time>
      </trkpt>
      <trkpt lat="47.21787" lon="2.94315">
        <ele>172.06489562988</ele>
        <time>2016-04-13T12:07:30.000Z</time>
      </trkpt>
      <trkpt lat="47.21786" lon="2.94311">
        <ele>172.09719848633</ele>
        <time>2016-04-13T12:07:32.000Z</time>
      </trkpt>
      <trkpt lat="47.21784" lon="2.94307">
        <ele>172.13954162598</ele>
        <time>2016-04-13T12:07:35.000Z</time>
      </trkpt>
      <trkpt lat="47.21783" lon="2.94305">
        <ele>172.18133544922</ele>
        <time>2016-04-13T12:07:37.000Z</time>
      </trkpt>
      <trkpt lat="47.21781" lon="2.943">
        <ele>172.23896789551</ele>
        <time>2016-04-13T12:07:40.000Z</time>
      </trkpt>
      <trkpt lat="47.21779" lon="2.94296">
        <ele>172.29769897461</ele>
        <time>2016-04-13T12:07:43.000Z</time>
      </trkpt>
      <trkpt lat="47.21777" lon="2.9429">
        <ele>172.37577819824</ele>
        <time>2016-04-13T12:07:46.000Z</time>
      </trkpt>
      <trkpt lat="47.21775" lon="2.94284">
        <ele>172.45152282715</ele>
        <time>2016-04-13T12:07:48.000Z</time>
      </trkpt>
      <trkpt lat="47.21773" lon="2.94277">
        <ele>172.54696655273</ele>
        <time>2016-04-13T12:07:51.000Z</time>
      </trkpt>
      <trkpt lat="47.21772" lon="2.94275">
        <ele>172.62966918945</ele>
        <time>2016-04-13T12:07:53.000Z</time>
      </trkpt>
      <trkpt lat="47.21772" lon="2.94272">
        <ele>172.71041870117</ele>
        <time>2016-04-13T12:07:55.000Z</time>
      </trkpt>
      <trkpt lat="47.2177" lon="2.94269">
        <ele>172.78332519531</ele>
        <time>2016-04-13T12:07:58.000Z</time>
      </trkpt>
      <trkpt lat="47.21769" lon="2.94266">
        <ele>172.85348510742</ele>
        <time>2016-04-13T12:08:01.000Z</time>
      </trkpt>
      <trkpt lat="47.21768" lon="2.94263">
        <ele>172.91235351562</ele>
        <time>2016-04-13T12:08:03.000Z</time>
      </trkpt>
      <trkpt lat="47.21766" lon="2.94258">
        <ele>172.98599243164</ele>
        <time>2016-04-13T12:08:05.000Z</time>
      </trkpt>
      <trkpt lat="47.21764" lon="2.94254">
        <ele>173.07565307617</ele>
        <time>2016-04-13T12:08:08.000Z</time>
      </trkpt>
      <trkpt lat="47.21762" lon="2.94249">
        <ele>173.17890930176</ele>
        <time>2016-04-13T12:08:11.000Z</time>
      </trkpt>
      <trkpt lat="47.2176" lon="2.94245">
        <ele>173.29219055176</ele>
        <time>2016-04-13T12:08:14.000Z</time>
      </trkpt>
      <trkpt lat="47.21758" lon="2.94241">
        <ele>173.41110229492</ele>
        <time>2016-04-13T12:08:16.000Z</time>
      </trkpt>
      <trkpt lat="47.21756" lon="2.94238">
        <ele>173.52529907227</ele>
        <time>2016-04-13T12:08:18.000Z</time>
      </trkpt>
      <trkpt lat="47.21754" lon="2.9423">
        <ele>173.63436889648</ele>
        <time>2016-04-13T12:08:21.000Z</time>
      </trkpt>
      <trkpt lat="47.21752" lon="2.94226">
        <ele>173.72998046875</ele>
        <time>2016-04-13T12:08:23.000Z</time>
      </trkpt>
      <trkpt lat="47.21749" lon="2.94223">
        <ele>173.82067871094</ele>
        <time>2016-04-13T12:08:26.000Z</time>
      </trkpt>
      <trkpt lat="47.21748" lon="2.9422">
        <ele>173.88610839844</ele>
        <time>2016-04-13T12:08:28.000Z</time>
      </trkpt>
      <trkpt lat="47.21746" lon="2.94217">
        <ele>173.93151855469</ele>
        <time>2016-04-13T12:08:30.000Z</time>
      </trkpt>
      <trkpt lat="47.21744" lon="2.94212">
        <ele>173.95210266113</ele>
        <time>2016-04-13T12:08:33.000Z</time>
      </trkpt>
      <trkpt lat="47.21742" lon="2.94208">
        <ele>173.951171875</ele>
        <time>2016-04-13T12:08:35.000Z</time>
      </trkpt>
      <trkpt lat="47.2174" lon="2.94202">
        <ele>173.927734375</ele>
        <time>2016-04-13T12:08:38.000Z</time>
      </trkpt>
      <trkpt lat="47.21738" lon="2.94197">
        <ele>173.9033203125</ele>
        <time>2016-04-13T12:08:41.000Z</time>
      </trkpt>
      <trkpt lat="47.21737" lon="2.94194">
        <ele>173.880859375</ele>
        <time>2016-04-13T12:08:43.000Z</time>
      </trkpt>
      <trkpt lat="47.21735" lon="2.94187">
        <ele>173.8583984375</ele>
        <time>2016-04-13T12:08:46.000Z</time>
      </trkpt>
      <trkpt lat="47.21734" lon="2.94183">
        <ele>173.837890625</ele>
        <time>2016-04-13T12:08:49.000Z</time>
      </trkpt>
      <trkpt lat="47.21733" lon="2.94179">
        <ele>173.822265625</ele>
        <time>2016-04-13T12:08:51.000Z</time>
      </trkpt>
      <trkpt lat="47.21733" lon="2.94173">
        <ele>173.810546875</ele>
        <time>2016-04-13T12:08:54.000Z</time>
      </trkpt>
      <trkpt lat="47.21732" lon="2.9417">
        <ele>173.798828125</ele>
        <time>2016-04-13T12:08:56.000Z</time>
      </trkpt>
      <trkpt lat="47.21731" lon="2.94166">
        <ele>173.79019165039</ele>
        <time>2016-04-13T12:08:58.000Z</time>
      </trkpt>
      <trkpt lat="47.2173" lon="2.9416">
        <ele>173.77685546875</ele>
        <time>2016-04-13T12:09:01.000Z</time>
      </trkpt>
      <trkpt lat="47.21728" lon="2.94155">
        <ele>173.75805664062</ele>
        <time>2016-04-13T12:09:04.000Z</time>
      </trkpt>
      <trkpt lat="47.21727" lon="2.94151">
        <ele>173.73847961426</ele>
        <time>2016-04-13T12:09:06.000Z</time>
      </trkpt>
      <trkpt lat="47.21727" lon="2.94146">
        <ele>173.7180480957</ele>
        <time>2016-04-13T12:09:09.000Z</time>
      </trkpt>
      <trkpt lat="47.21726" lon="2.94143">
        <ele>173.69819641113</ele>
        <time>2016-04-13T12:09:11.000Z</time>
      </trkpt>
      <trkpt lat="47.21726" lon="2.94139">
        <ele>173.68379211426</ele>
        <time>2016-04-13T12:09:13.000Z</time>
      </trkpt>
      <trkpt lat="47.21725" lon="2.94132">
        <ele>173.67416381836</ele>
        <time>2016-04-13T12:09:16.000Z</time>
      </trkpt>
      <trkpt lat="47.21724" lon="2.94128">
        <ele>173.6671295166</ele>
        <time>2016-04-13T12:09:18.000Z</time>
      </trkpt>
      <trkpt lat="47.21723" lon="2.94122">
        <ele>173.66375732422</ele>
        <time>2016-04-13T12:09:21.000Z</time>
      </trkpt>
      <trkpt lat="47.21722" lon="2.94117">
        <ele>173.66293334961</ele>
        <time>2016-04-13T12:09:24.000Z</time>
      </trkpt>
      <trkpt lat="47.21721" lon="2.94113">
        <ele>173.66519165039</ele>
        <time>2016-04-13T12:09:26.000Z</time>
      </trkpt>
      <trkpt lat="47.21721" lon="2.94108">
        <ele>173.67175292969</ele>
        <time>2016-04-13T12:09:29.000Z</time>
      </trkpt>
      <trkpt lat="47.2172" lon="2.94101">
        <ele>173.68222045898</ele>
        <time>2016-04-13T12:09:32.000Z</time>
      </trkpt>
      <trkpt lat="47.2172" lon="2.94097">
        <ele>173.69267272949</ele>
        <time>2016-04-13T12:09:34.000Z</time>
      </trkpt>
      <trkpt lat="47.21719" lon="2.94092">
        <ele>173.70455932617</ele>
        <time>2016-04-13T12:09:37.000Z</time>
      </trkpt>
      <trkpt lat="47.21719" lon="2.94088">
        <ele>173.71565246582</ele>
        <time>2016-04-13T12:09:39.000Z</time>
      </trkpt>
      <trkpt lat="47.21719" lon="2.94085">
        <ele>173.7269744873</ele>
        <time>2016-04-13T12:09:41.000Z</time>
      </trkpt>
      <trkpt lat="47.21719" lon="2.94078">
        <ele>173.74043273926</ele>
        <time>2016-04-13T12:09:44.000Z</time>
      </trkpt>
      <trkpt lat="47.2172" lon="2.94072">
        <ele>173.76107788086</ele>
        <time>2016-04-13T12:09:47.000Z</time>
      </trkpt>
      <trkpt lat="47.21721" lon="2.94067">
        <ele>173.7827911377</ele>
        <time>2016-04-13T12:09:50.000Z</time>
      </trkpt>
      <trkpt lat="47.2172" lon="2.94062">
        <ele>173.81278991699</ele>
        <time>2016-04-13T12:09:53.000Z</time>
      </trkpt>
      <trkpt lat="47.21721" lon="2.94056">
        <ele>173.84790039062</ele>
        <time>2016-04-13T12:09:56.000Z</time>
      </trkpt>
      <trkpt lat="47.21721" lon="2.94051">
        <ele>173.88236999512</ele>
        <time>2016-04-13T12:09:58.000Z</time>
      </trkpt>
      <trkpt lat="47.21721" lon="2.94046">
        <ele>173.91752624512</ele>
        <time>2016-04-13T12:10:01.000Z</time>
      </trkpt>
      <trkpt lat="47.21721" lon="2.94042">
        <ele>173.9548034668</ele>
        <time>2016-04-13T12:10:03.000Z</time>
      </trkpt>
      <trkpt lat="47.21722" lon="2.94036">
        <ele>173.98883056641</ele>
        <time>2016-04-13T12:10:06.000Z</time>
      </trkpt>
      <trkpt lat="47.21722" lon="2.94032">
        <ele>174.02119445801</ele>
        <time>2016-04-13T12:10:08.000Z</time>
      </trkpt>
      <trkpt lat="47.21721" lon="2.94027">
        <ele>174.05923461914</ele>
        <time>2016-04-13T12:10:11.000Z</time>
      </trkpt>
      <trkpt lat="47.21721" lon="2.94022">
        <ele>174.09687805176</ele>
        <time>2016-04-13T12:10:13.000Z</time>
      </trkpt>
      <trkpt lat="47.2172" lon="2.94016">
        <ele>174.1413269043</ele>
        <time>2016-04-13T12:10:16.000Z</time>
      </trkpt>
      <trkpt lat="47.21719" lon="2.94009">
        <ele>174.19186401367</ele>
        <time>2016-04-13T12:10:19.000Z</time>
      </trkpt>
      <trkpt lat="47.21718" lon="2.94007">
        <ele>174.24081420898</ele>
        <time>2016-04-13T12:10:21.000Z</time>
      </trkpt>
      <trkpt lat="47.21717" lon="2.94002">
        <ele>174.28732299805</ele>
        <time>2016-04-13T12:10:24.000Z</time>
      </trkpt>
      <trkpt lat="47.21717" lon="2.93999">
        <ele>174.33251953125</ele>
        <time>2016-04-13T12:10:26.000Z</time>
      </trkpt>
      <trkpt lat="47.21717" lon="2.93996">
        <ele>174.37417602539</ele>
        <time>2016-04-13T12:10:28.000Z</time>
      </trkpt>
      <trkpt lat="47.21716" lon="2.93989">
        <ele>174.42520141602</ele>
        <time>2016-04-13T12:10:31.000Z</time>
      </trkpt>
      <trkpt lat="47.21716" lon="2.93983">
        <ele>174.48948669434</ele>
        <time>2016-04-13T12:10:34.000Z</time>
      </trkpt>
      <trkpt lat="47.21715" lon="2.93978">
        <ele>174.56079101562</ele>
        <time>2016-04-13T12:10:37.000Z</time>
      </trkpt>
      <trkpt lat="47.21715" lon="2.93974">
        <ele>174.63639831543</ele>
        <time>2016-04-13T12:10:39.000Z</time>
      </trkpt>
      <trkpt lat="47.21716" lon="2.93968">
        <ele>174.7194519043</ele>
        <time>2016-04-13T12:10:42.000Z</time>
      </trkpt>
      <trkpt lat="47.21716" lon="2.93965">
        <ele>174.7896270752</ele>
        <time>2016-04-13T12:10:44.000Z</time>
      </trkpt>
      <trkpt lat="47.21715" lon="2.93958">
        <ele>174.85887145996</ele>
        <time>2016-04-13T12:10:47.000Z</time>
      </trkpt>
      <trkpt lat="47.21715" lon="2.93954">
        <ele>174.92639160156</ele>
        <time>2016-04-13T12:10:50.000Z</time>
      </trkpt>
      <trkpt lat="47.21714" lon="2.9395">
        <ele>174.9924621582</ele>
        <time>2016-04-13T12:10:52.000Z</time>
      </trkpt>
      <trkpt lat="47.21714" lon="2.93944">
        <ele>175.05685424805</ele>
        <time>2016-04-13T12:10:55.000Z</time>
      </trkpt>
      <trkpt lat="47.21714" lon="2.9394">
        <ele>175.1248626709</ele>
        <time>2016-04-13T12:10:58.000Z</time>
      </trkpt>
      <trkpt lat="47.21714" lon="2.93936">
        <ele>175.18609619141</ele>
        <time>2016-04-13T12:11:00.000Z</time>
      </trkpt>
      <trkpt lat="47.21713" lon="2.9393">
        <ele>175.24946594238</ele>
        <time>2016-04-13T12:11:03.000Z</time>
      </trkpt>
      <trkpt lat="47.21713" lon="2.93926">
        <ele>175.31340026855</ele>
        <time>2016-04-13T12:11:05.000Z</time>
      </trkpt>
      <trkpt lat="47.21714" lon="2.93922">
        <ele>175.3727722168</ele>
        <time>2016-04-13T12:11:08.000Z</time>
      </trkpt>
      <trkpt lat="47.21714" lon="2.93917">
        <ele>175.43411254883</ele>
        <time>2016-04-13T12:11:12.000Z</time>
      </trkpt>
      <trkpt lat="47.21715" lon="2.93914">
        <ele>175.49333190918</ele>
        <time>2016-04-13T12:11:13.000Z</time>
      </trkpt>
      <trkpt lat="47.21716" lon="2.93908">
        <ele>175.55087280273</ele>
        <time>2016-04-13T12:11:16.000Z</time>
      </trkpt>
      <trkpt lat="47.21716" lon="2.93904">
        <ele>175.60762023926</ele>
        <time>2016-04-13T12:11:18.000Z</time>
      </trkpt>
      <trkpt lat="47.21717" lon="2.93898">
        <ele>175.6667175293</ele>
        <time>2016-04-13T12:11:21.000Z</time>
      </trkpt>
      <trkpt lat="47.21717" lon="2.93893">
        <ele>175.72158813477</ele>
        <time>2016-04-13T12:11:24.000Z</time>
      </trkpt>
      <trkpt lat="47.21717" lon="2.93888">
        <ele>175.77754211426</ele>
        <time>2016-04-13T12:11:27.000Z</time>
      </trkpt>
      <trkpt lat="47.21716" lon="2.93883">
        <ele>175.82809448242</ele>
        <time>2016-04-13T12:11:30.000Z</time>
      </trkpt>
      <trkpt lat="47.21715" lon="2.93878">
        <ele>175.87886047363</ele>
        <time>2016-04-13T12:11:33.000Z</time>
      </trkpt>
      <trkpt lat="47.21713" lon="2.93874">
        <ele>175.92524719238</ele>
        <time>2016-04-13T12:11:36.000Z</time>
      </trkpt>
      <trkpt lat="47.21712" lon="2.93871">
        <ele>175.96704101562</ele>
        <time>2016-04-13T12:11:38.000Z</time>
      </trkpt>
      <trkpt lat="47.21711" lon="2.93867">
        <ele>176.00921630859</ele>
        <time>2016-04-13T12:11:41.000Z</time>
      </trkpt>
      <trkpt lat="47.21709" lon="2.93864">
        <ele>176.05020141602</ele>
        <time>2016-04-13T12:11:43.000Z</time>
      </trkpt>
      <trkpt lat="47.21706" lon="2.93859">
        <ele>176.09497070312</ele>
        <time>2016-04-13T12:11:46.000Z</time>
      </trkpt>
      <trkpt lat="47.21706" lon="2.93857">
        <ele>176.13648986816</ele>
        <time>2016-04-13T12:11:48.000Z</time>
      </trkpt>
      <trkpt lat="47.21704" lon="2.93852">
        <ele>176.18872070312</ele>
        <time>2016-04-13T12:11:51.000Z</time>
      </trkpt>
      <trkpt lat="47.21704" lon="2.93849">
        <ele>176.2395324707</ele>
        <time>2016-04-13T12:11:53.000Z</time>
      </trkpt>
      <trkpt lat="47.21702" lon="2.93846">
        <ele>176.29360961914</ele>
        <time>2016-04-13T12:11:56.000Z</time>
      </trkpt>
      <trkpt lat="47.217" lon="2.93843">
        <ele>176.34658813477</ele>
        <time>2016-04-13T12:11:59.000Z</time>
      </trkpt>
      <trkpt lat="47.21698" lon="2.93841">
        <ele>176.40322875977</ele>
        <time>2016-04-13T12:12:01.000Z</time>
      </trkpt>
      <trkpt lat="47.21697" lon="2.93838">
        <ele>176.45375061035</ele>
        <time>2016-04-13T12:12:03.000Z</time>
      </trkpt>
      <trkpt lat="47.21693" lon="2.93835">
        <ele>176.51708984375</ele>
        <time>2016-04-13T12:12:06.000Z</time>
      </trkpt>
      <trkpt lat="47.21691" lon="2.93832">
        <ele>176.58332824707</ele>
        <time>2016-04-13T12:12:08.000Z</time>
      </trkpt>
      <trkpt lat="47.21689" lon="2.93828">
        <ele>176.66142272949</ele>
        <time>2016-04-13T12:12:11.000Z</time>
      </trkpt>
      <trkpt lat="47.21686" lon="2.93825">
        <ele>176.74746704102</ele>
        <time>2016-04-13T12:12:14.000Z</time>
      </trkpt>
      <trkpt lat="47.21684" lon="2.93823">
        <ele>176.83843994141</ele>
        <time>2016-04-13T12:12:16.000Z</time>
      </trkpt>
      <trkpt lat="47.21682" lon="2.93818">
        <ele>176.93583679199</ele>
        <time>2016-04-13T12:12:19.000Z</time>
      </trkpt>
      <trkpt lat="47.2168" lon="2.93816">
        <ele>177.03349304199</ele>
        <time>2016-04-13T12:12:22.000Z</time>
      </trkpt>
      <trkpt lat="47.21678" lon="2.93813">
        <ele>177.12551879883</ele>
        <time>2016-04-13T12:12:24.000Z</time>
      </trkpt>
      <trkpt lat="47.21676" lon="2.9381">
        <ele>177.21810913086</ele>
        <time>2016-04-13T12:12:26.000Z</time>
      </trkpt>
      <trkpt lat="47.21673" lon="2.93806">
        <ele>177.32550048828</ele>
        <time>2016-04-13T12:12:29.000Z</time>
      </trkpt>
      <trkpt lat="47.2167" lon="2.93802">
        <ele>177.43617248535</ele>
        <time>2016-04-13T12:12:32.000Z</time>
      </trkpt>
      <trkpt lat="47.21669" lon="2.93797">
        <ele>177.55590820312</ele>
        <time>2016-04-13T12:12:35.000Z</time>
      </trkpt>
      <trkpt lat="47.21668" lon="2.93796">
        <ele>177.66888427734</ele>
        <time>2016-04-13T12:12:36.000Z</time>
      </trkpt>
      <trkpt lat="47.21667" lon="2.93794">
        <ele>177.77642822266</ele>
        <time>2016-04-13T12:12:38.000Z</time>
      </trkpt>
      <trkpt lat="47.21665" lon="2.93789">
        <ele>177.8624420166</ele>
        <time>2016-04-13T12:12:41.000Z</time>
      </trkpt>
      <trkpt lat="47.21663" lon="2.93785">
        <ele>177.92802429199</ele>
        <time>2016-04-13T12:12:44.000Z</time>
      </trkpt>
      <trkpt lat="47.21661" lon="2.9378">
        <ele>177.97380065918</ele>
        <time>2016-04-13T12:12:47.000Z</time>
      </trkpt>
      <trkpt lat="47.21658" lon="2.93775">
        <ele>178.01348876953</ele>
        <time>2016-04-13T12:12:50.000Z</time>
      </trkpt>
      <trkpt lat="47.21657" lon="2.93771">
        <ele>178.04640197754</ele>
        <time>2016-04-13T12:12:52.000Z</time>
      </trkpt>
      <trkpt lat="47.21656" lon="2.93767">
        <ele>178.07800292969</ele>
        <time>2016-04-13T12:12:55.000Z</time>
      </trkpt>
      <trkpt lat="47.21655" lon="2.93764">
        <ele>178.10362243652</ele>
        <time>2016-04-13T12:12:57.000Z</time>
      </trkpt>
      <trkpt lat="47.21653" lon="2.93759">
        <ele>178.13081359863</ele>
        <time>2016-04-13T12:13:00.000Z</time>
      </trkpt>
      <trkpt lat="47.21652" lon="2.93755">
        <ele>178.15451049805</ele>
        <time>2016-04-13T12:13:02.000Z</time>
      </trkpt>
      <trkpt lat="47.2165" lon="2.93752">
        <ele>178.16969299316</ele>
        <time>2016-04-13T12:13:04.000Z</time>
      </trkpt>
      <trkpt lat="47.21649" lon="2.9375">
        <ele>178.17715454102</ele>
        <time>2016-04-13T12:13:06.000Z</time>
      </trkpt>
      <trkpt lat="47.21648" lon="2.93748">
        <ele>178.17987060547</ele>
        <time>2016-04-13T12:13:08.000Z</time>
      </trkpt>
      <trkpt lat="47.21646" lon="2.93743">
        <ele>178.19036865234</ele>
        <time>2016-04-13T12:13:11.000Z</time>
      </trkpt>
      <trkpt lat="47.21645" lon="2.93739">
        <ele>178.21015930176</ele>
        <time>2016-04-13T12:13:14.000Z</time>
      </trkpt>
      <trkpt lat="47.21644" lon="2.93736">
        <ele>178.24189758301</ele>
        <time>2016-04-13T12:13:15.000Z</time>
      </trkpt>
      <trkpt lat="47.21643" lon="2.93733">
        <ele>178.2780456543</ele>
        <time>2016-04-13T12:13:17.000Z</time>
      </trkpt>
      <trkpt lat="47.2164" lon="2.93725">
        <ele>178.3293762207</ele>
        <time>2016-04-13T12:13:20.000Z</time>
      </trkpt>
      <trkpt lat="47.21639" lon="2.93722">
        <ele>178.37528991699</ele>
        <time>2016-04-13T12:13:22.000Z</time>
      </trkpt>
      <trkpt lat="47.21638" lon="2.93715">
        <ele>178.4351348877</ele>
        <time>2016-04-13T12:13:25.000Z</time>
      </trkpt>
      <trkpt lat="47.21637" lon="2.93713">
        <ele>178.49272155762</ele>
        <time>2016-04-13T12:13:27.000Z</time>
      </trkpt>
      <trkpt lat="47.21637" lon="2.9371">
        <ele>178.55711364746</ele>
        <time>2016-04-13T12:13:29.000Z</time>
      </trkpt>
      <trkpt lat="47.21636" lon="2.93707">
        <ele>178.61526489258</ele>
        <time>2016-04-13T12:13:32.000Z</time>
      </trkpt>
      <trkpt lat="47.21635" lon="2.93702">
        <ele>178.68089294434</ele>
        <time>2016-04-13T12:13:35.000Z</time>
      </trkpt>
      <trkpt lat="47.21634" lon="2.93696">
        <ele>178.73599243164</ele>
        <time>2016-04-13T12:13:38.000Z</time>
      </trkpt>
      <trkpt lat="47.21633" lon="2.93691">
        <ele>178.79936218262</ele>
        <time>2016-04-13T12:13:41.000Z</time>
      </trkpt>
      <trkpt lat="47.21631" lon="2.93687">
        <ele>178.85041809082</ele>
        <time>2016-04-13T12:13:43.000Z</time>
      </trkpt>
      <trkpt lat="47.2163" lon="2.93684">
        <ele>178.89668273926</ele>
        <time>2016-04-13T12:13:45.000Z</time>
      </trkpt>
      <trkpt lat="47.2163" lon="2.93679">
        <ele>178.94155883789</ele>
        <time>2016-04-13T12:13:48.000Z</time>
      </trkpt>
      <trkpt lat="47.2163" lon="2.93677">
        <ele>178.98635864258</ele>
        <time>2016-04-13T12:14:00.000Z</time>
      </trkpt>
      <trkpt lat="47.2163" lon="2.93676">
        <ele>179.01831054688</ele>
        <time>2016-04-13T12:14:02.000Z</time>
      </trkpt>
      <trkpt lat="47.21629" lon="2.93675">
        <ele>179.05307006836</ele>
        <time>2016-04-13T12:14:09.000Z</time>
      </trkpt>
      <trkpt lat="47.21629" lon="2.93672">
        <ele>179.0843963623</ele>
        <time>2016-04-13T12:14:17.000Z</time>
      </trkpt>
      <trkpt lat="47.21629" lon="2.93669">
        <ele>179.12521362305</ele>
        <time>2016-04-13T12:14:20.000Z</time>
      </trkpt>
      <trkpt lat="47.21628" lon="2.93664">
        <ele>179.15980529785</ele>
        <time>2016-04-13T12:14:24.000Z</time>
      </trkpt>
      <trkpt lat="47.21628" lon="2.93662">
        <ele>179.19445800781</ele>
        <time>2016-04-13T12:14:25.000Z</time>
      </trkpt>
      <trkpt lat="47.21627" lon="2.93656">
        <ele>179.23843383789</ele>
        <time>2016-04-13T12:14:31.000Z</time>
      </trkpt>
      <trkpt lat="47.21626" lon="2.9365">
        <ele>179.2854309082</ele>
        <time>2016-04-13T12:14:31.000Z</time>
      </trkpt>
      <trkpt lat="47.21626" lon="2.93646">
        <ele>179.3247833252</ele>
        <time>2016-04-13T12:14:31.000Z</time>
      </trkpt>
      <trkpt lat="47.21626" lon="2.93642">
        <ele>179.37002563477</ele>
        <time>2016-04-13T12:14:34.000Z</time>
      </trkpt>
      <trkpt lat="47.21625" lon="2.93638">
        <ele>179.41645812988</ele>
        <time>2016-04-13T12:14:39.000Z</time>
      </trkpt>
      <trkpt lat="47.21624" lon="2.93635">
        <ele>179.45288085938</ele>
        <time>2016-04-13T12:14:39.000Z</time>
      </trkpt>
      <trkpt lat="47.21624" lon="2.93628">
        <ele>179.5051574707</ele>
        <time>2016-04-13T12:14:43.000Z</time>
      </trkpt>
      <trkpt lat="47.21623" lon="2.93622">
        <ele>179.55630493164</ele>
        <time>2016-04-13T12:14:45.000Z</time>
      </trkpt>
      <trkpt lat="47.21622" lon="2.9362">
        <ele>179.5927734375</ele>
        <time>2016-04-13T12:14:47.000Z</time>
      </trkpt>
      <trkpt lat="47.21622" lon="2.93614">
        <ele>179.64794921875</ele>
        <time>2016-04-13T12:14:50.000Z</time>
      </trkpt>
      <trkpt lat="47.21623" lon="2.93608">
        <ele>179.72807312012</ele>
        <time>2016-04-13T12:14:53.000Z</time>
      </trkpt>
      <trkpt lat="47.21623" lon="2.93605">
        <ele>179.80014038086</ele>
        <time>2016-04-13T12:14:55.000Z</time>
      </trkpt>
      <trkpt lat="47.21623" lon="2.93601">
        <ele>179.87661743164</ele>
        <time>2016-04-13T12:14:57.000Z</time>
      </trkpt>
      <trkpt lat="47.21623" lon="2.93597">
        <ele>179.96966552734</ele>
        <time>2016-04-13T12:15:00.000Z</time>
      </trkpt>
      <trkpt lat="47.21624" lon="2.93594">
        <ele>180.05752563477</ele>
        <time>2016-04-13T12:15:02.000Z</time>
      </trkpt>
      <trkpt lat="47.21624" lon="2.93591">
        <ele>180.13124084473</ele>
        <time>2016-04-13T12:15:04.000Z</time>
      </trkpt>
      <trkpt lat="47.21623" lon="2.93585">
        <ele>180.21072387695</ele>
        <time>2016-04-13T12:15:07.000Z</time>
      </trkpt>
      <trkpt lat="47.21623" lon="2.93581">
        <ele>180.25927734375</ele>
        <time>2016-04-13T12:15:09.000Z</time>
      </trkpt>
      <trkpt lat="47.21623" lon="2.93573">
        <ele>180.26040649414</ele>
        <time>2016-04-13T12:15:12.000Z</time>
      </trkpt>
      <trkpt lat="47.21623" lon="2.9357">
        <ele>180.22744750977</ele>
        <time>2016-04-13T12:15:14.000Z</time>
      </trkpt>
      <trkpt lat="47.21623" lon="2.93565">
        <ele>180.16061401367</ele>
        <time>2016-04-13T12:15:16.000Z</time>
      </trkpt>
      <trkpt lat="47.21623" lon="2.93559">
        <ele>180.04663085938</ele>
        <time>2016-04-13T12:15:19.000Z</time>
      </trkpt>
      <trkpt lat="47.21623" lon="2.93556">
        <ele>179.92639160156</ele>
        <time>2016-04-13T12:15:22.000Z</time>
      </trkpt>
      <trkpt lat="47.21623" lon="2.93553">
        <ele>179.82385253906</ele>
        <time>2016-04-13T12:15:24.000Z</time>
      </trkpt>
      <trkpt lat="47.21623" lon="2.93549">
        <ele>179.72119140625</ele>
        <time>2016-04-13T12:15:26.000Z</time>
      </trkpt>
      <trkpt lat="47.21622" lon="2.93546">
        <ele>179.62109375</ele>
        <time>2016-04-13T12:15:28.000Z</time>
      </trkpt>
      <trkpt lat="47.21623" lon="2.93542">
        <ele>179.53662109375</ele>
        <time>2016-04-13T12:15:31.000Z</time>
      </trkpt>
      <trkpt lat="47.21623" lon="2.93536">
        <ele>179.44323730469</ele>
        <time>2016-04-13T12:15:34.000Z</time>
      </trkpt>
      <trkpt lat="47.21622" lon="2.9353">
        <ele>179.32897949219</ele>
        <time>2016-04-13T12:15:37.000Z</time>
      </trkpt>
      <trkpt lat="47.21622" lon="2.93525">
        <ele>179.20654296875</ele>
        <time>2016-04-13T12:15:40.000Z</time>
      </trkpt>
      <trkpt lat="47.21622" lon="2.93522">
        <ele>179.09057617188</ele>
        <time>2016-04-13T12:15:42.000Z</time>
      </trkpt>
      <trkpt lat="47.21622" lon="2.93518">
        <ele>178.96728515625</ele>
        <time>2016-04-13T12:15:44.000Z</time>
      </trkpt>
      <trkpt lat="47.21621" lon="2.93513">
        <ele>178.84143066406</ele>
        <time>2016-04-13T12:15:47.000Z</time>
      </trkpt>
      <trkpt lat="47.21621" lon="2.9351">
        <ele>178.72814941406</ele>
        <time>2016-04-13T12:15:49.000Z</time>
      </trkpt>
      <trkpt lat="47.21621" lon="2.93507">
        <ele>178.62243652344</ele>
        <time>2016-04-13T12:15:52.000Z</time>
      </trkpt>
      <trkpt lat="47.2162" lon="2.93501">
        <ele>178.4970703125</ele>
        <time>2016-04-13T12:15:55.000Z</time>
      </trkpt>
      <trkpt lat="47.21619" lon="2.93495">
        <ele>178.36511230469</ele>
        <time>2016-04-13T12:15:58.000Z</time>
      </trkpt>
      <trkpt lat="47.21619" lon="2.93491">
        <ele>178.25039672852</ele>
        <time>2016-04-13T12:16:01.000Z</time>
      </trkpt>
      <trkpt lat="47.21618" lon="2.93485">
        <ele>178.12637329102</ele>
        <time>2016-04-13T12:16:04.000Z</time>
      </trkpt>
      <trkpt lat="47.21618" lon="2.93482">
        <ele>178.00550842285</ele>
        <time>2016-04-13T12:16:06.000Z</time>
      </trkpt>
      <trkpt lat="47.21618" lon="2.93479">
        <ele>177.90432739258</ele>
        <time>2016-04-13T12:16:08.000Z</time>
      </trkpt>
      <trkpt lat="47.21616" lon="2.93472">
        <ele>177.79995727539</ele>
        <time>2016-04-13T12:16:11.000Z</time>
      </trkpt>
      <trkpt lat="47.21616" lon="2.93469">
        <ele>177.69706726074</ele>
        <time>2016-04-13T12:16:13.000Z</time>
      </trkpt>
      <trkpt lat="47.21614" lon="2.93463">
        <ele>177.59608459473</ele>
        <time>2016-04-13T12:16:16.000Z</time>
      </trkpt>
      <trkpt lat="47.21613" lon="2.93459">
        <ele>177.48919677734</ele>
        <time>2016-04-13T12:16:18.000Z</time>
      </trkpt>
      <trkpt lat="47.21613" lon="2.93453">
        <ele>177.37435913086</ele>
        <time>2016-04-13T12:16:21.000Z</time>
      </trkpt>
      <trkpt lat="47.21613" lon="2.93448">
        <ele>177.27987670898</ele>
        <time>2016-04-13T12:16:24.000Z</time>
      </trkpt>
      <trkpt lat="47.21612" lon="2.93445">
        <ele>177.18617248535</ele>
        <time>2016-04-13T12:16:26.000Z</time>
      </trkpt>
      <trkpt lat="47.21612" lon="2.9344">
        <ele>177.10864257812</ele>
        <time>2016-04-13T12:16:29.000Z</time>
      </trkpt>
      <trkpt lat="47.21612" lon="2.93435">
        <ele>177.03886413574</ele>
        <time>2016-04-13T12:16:32.000Z</time>
      </trkpt>
      <trkpt lat="47.21611" lon="2.93428">
        <ele>176.97047424316</ele>
        <time>2016-04-13T12:16:35.000Z</time>
      </trkpt>
      <trkpt lat="47.21611" lon="2.93425">
        <ele>176.90071105957</ele>
        <time>2016-04-13T12:16:38.000Z</time>
      </trkpt>
      <trkpt lat="47.2161" lon="2.9342">
        <ele>176.82676696777</ele>
        <time>2016-04-13T12:16:41.000Z</time>
      </trkpt>
      <trkpt lat="47.21609" lon="2.93413">
        <ele>176.76235961914</ele>
        <time>2016-04-13T12:16:44.000Z</time>
      </trkpt>
      <trkpt lat="47.21609" lon="2.9341">
        <ele>176.71476745605</ele>
        <time>2016-04-13T12:16:46.000Z</time>
      </trkpt>
      <trkpt lat="47.21608" lon="2.93405">
        <ele>176.69177246094</ele>
        <time>2016-04-13T12:16:49.000Z</time>
      </trkpt>
      <trkpt lat="47.21608" lon="2.934">
        <ele>176.68821716309</ele>
        <time>2016-04-13T12:16:53.000Z</time>
      </trkpt>
      <trkpt lat="47.21608" lon="2.93397">
        <ele>176.70317077637</ele>
        <time>2016-04-13T12:16:54.000Z</time>
      </trkpt>
      <trkpt lat="47.21606" lon="2.93391">
        <ele>176.72506713867</ele>
        <time>2016-04-13T12:16:57.000Z</time>
      </trkpt>
      <trkpt lat="47.21605" lon="2.93387">
        <ele>176.74780273438</ele>
        <time>2016-04-13T12:17:00.000Z</time>
      </trkpt>
      <trkpt lat="47.21604" lon="2.93382">
        <ele>176.76916503906</ele>
        <time>2016-04-13T12:17:03.000Z</time>
      </trkpt>
      <trkpt lat="47.21604" lon="2.93379">
        <ele>176.79077148438</ele>
        <time>2016-04-13T12:17:05.000Z</time>
      </trkpt>
      <trkpt lat="47.21604" lon="2.93372">
        <ele>176.81983947754</ele>
        <time>2016-04-13T12:17:08.000Z</time>
      </trkpt>
      <trkpt lat="47.21603" lon="2.93366">
        <ele>176.85354614258</ele>
        <time>2016-04-13T12:17:11.000Z</time>
      </trkpt>
      <trkpt lat="47.21603" lon="2.93362">
        <ele>176.88879394531</ele>
        <time>2016-04-13T12:17:13.000Z</time>
      </trkpt>
      <trkpt lat="47.21602" lon="2.93357">
        <ele>176.92880249023</ele>
        <time>2016-04-13T12:17:16.000Z</time>
      </trkpt>
      <trkpt lat="47.21601" lon="2.93351">
        <ele>176.96884155273</ele>
        <time>2016-04-13T12:17:19.000Z</time>
      </trkpt>
      <trkpt lat="47.216" lon="2.93347">
        <ele>177.00242614746</ele>
        <time>2016-04-13T12:17:21.000Z</time>
      </trkpt>
      <trkpt lat="47.21599" lon="2.93344">
        <ele>177.03268432617</ele>
        <time>2016-04-13T12:17:23.000Z</time>
      </trkpt>
      <trkpt lat="47.21598" lon="2.93338">
        <ele>177.06520080566</ele>
        <time>2016-04-13T12:17:26.000Z</time>
      </trkpt>
      <trkpt lat="47.21597" lon="2.93332">
        <ele>177.10037231445</ele>
        <time>2016-04-13T12:17:29.000Z</time>
      </trkpt>
      <trkpt lat="47.21596" lon="2.93329">
        <ele>177.13870239258</ele>
        <time>2016-04-13T12:17:31.000Z</time>
      </trkpt>
      <trkpt lat="47.21595" lon="2.93325">
        <ele>177.17956542969</ele>
        <time>2016-04-13T12:17:34.000Z</time>
      </trkpt>
      <trkpt lat="47.21594" lon="2.93322">
        <ele>177.22354125977</ele>
        <time>2016-04-13T12:17:36.000Z</time>
      </trkpt>
      <trkpt lat="47.21594" lon="2.93317">
        <ele>177.27326965332</ele>
        <time>2016-04-13T12:17:39.000Z</time>
      </trkpt>
      <trkpt lat="47.21593" lon="2.93313">
        <ele>177.31800842285</ele>
        <time>2016-04-13T12:17:42.000Z</time>
      </trkpt>
      <trkpt lat="47.21593" lon="2.93308">
        <ele>177.36924743652</ele>
        <time>2016-04-13T12:17:45.000Z</time>
      </trkpt>
      <trkpt lat="47.21593" lon="2.93304">
        <ele>177.42613220215</ele>
        <time>2016-04-13T12:17:47.000Z</time>
      </trkpt>
      <trkpt lat="47.21595" lon="2.93301">
        <ele>177.49087524414</ele>
        <time>2016-04-13T12:17:49.000Z</time>
      </trkpt>
      <trkpt lat="47.21596" lon="2.93297">
        <ele>177.5591583252</ele>
        <time>2016-04-13T12:17:51.000Z</time>
      </trkpt>
      <trkpt lat="47.21598" lon="2.93293">
        <ele>177.64335632324</ele>
        <time>2016-04-13T12:17:54.000Z</time>
      </trkpt>
      <trkpt lat="47.21601" lon="2.93289">
        <ele>177.73937988281</ele>
        <time>2016-04-13T12:17:57.000Z</time>
      </trkpt>
      <trkpt lat="47.21604" lon="2.93287">
        <ele>177.84214782715</ele>
        <time>2016-04-13T12:18:00.000Z</time>
      </trkpt>
      <trkpt lat="47.21606" lon="2.93286">
        <ele>177.94934082031</ele>
        <time>2016-04-13T12:18:03.000Z</time>
      </trkpt>
      <trkpt lat="47.21608" lon="2.93284">
        <ele>178.05406188965</ele>
        <time>2016-04-13T12:18:05.000Z</time>
      </trkpt>
      <trkpt lat="47.21611" lon="2.93282">
        <ele>178.16064453125</ele>
        <time>2016-04-13T12:18:08.000Z</time>
      </trkpt>
      <trkpt lat="47.21613" lon="2.9328">
        <ele>178.2587890625</ele>
        <time>2016-04-13T12:18:10.000Z</time>
      </trkpt>
      <trkpt lat="47.21616" lon="2.93279">
        <ele>178.35702514648</ele>
        <time>2016-04-13T12:18:12.000Z</time>
      </trkpt>
      <trkpt lat="47.21618" lon="2.93277">
        <ele>178.45352172852</ele>
        <time>2016-04-13T12:18:15.000Z</time>
      </trkpt>
      <trkpt lat="47.21621" lon="2.93276">
        <ele>178.55541992188</ele>
        <time>2016-04-13T12:18:18.000Z</time>
      </trkpt>
      <trkpt lat="47.21624" lon="2.93275">
        <ele>178.65791320801</ele>
        <time>2016-04-13T12:18:21.000Z</time>
      </trkpt>
      <trkpt lat="47.21626" lon="2.93274">
        <ele>178.75332641602</ele>
        <time>2016-04-13T12:18:23.000Z</time>
      </trkpt>
      <trkpt lat="47.21629" lon="2.93272">
        <ele>178.85652160645</ele>
        <time>2016-04-13T12:18:26.000Z</time>
      </trkpt>
      <trkpt lat="47.21631" lon="2.93272">
        <ele>178.95779418945</ele>
        <time>2016-04-13T12:18:28.000Z</time>
      </trkpt>
      <trkpt lat="47.21633" lon="2.9327">
        <ele>179.05923461914</ele>
        <time>2016-04-13T12:18:30.000Z</time>
      </trkpt>
      <trkpt lat="47.21637" lon="2.93267">
        <ele>179.17671203613</ele>
        <time>2016-04-13T12:18:33.000Z</time>
      </trkpt>
      <trkpt lat="47.21639" lon="2.93266">
        <ele>179.30513000488</ele>
        <time>2016-04-13T12:18:36.000Z</time>
      </trkpt>
      <trkpt lat="47.21643" lon="2.93264">
        <ele>179.43952941895</ele>
        <time>2016-04-13T12:18:39.000Z</time>
      </trkpt>
      <trkpt lat="47.21645" lon="2.93263">
        <ele>179.5768737793</ele>
        <time>2016-04-13T12:18:41.000Z</time>
      </trkpt>
      <trkpt lat="47.21648" lon="2.93261">
        <ele>179.71913146973</ele>
        <time>2016-04-13T12:18:44.000Z</time>
      </trkpt>
      <trkpt lat="47.2165" lon="2.93261">
        <ele>179.84155273438</ele>
        <time>2016-04-13T12:18:47.000Z</time>
      </trkpt>
      <trkpt lat="47.21655" lon="2.93258">
        <ele>179.99180603027</ele>
        <time>2016-04-13T12:18:50.000Z</time>
      </trkpt>
      <trkpt lat="47.21658" lon="2.93255">
        <ele>180.1483001709</ele>
        <time>2016-04-13T12:18:52.000Z</time>
      </trkpt>
      <trkpt lat="47.21661" lon="2.93252">
        <ele>180.32167053223</ele>
        <time>2016-04-13T12:18:55.000Z</time>
      </trkpt>
      <trkpt lat="47.21662" lon="2.9325">
        <ele>180.49620056152</ele>
        <time>2016-04-13T12:18:57.000Z</time>
      </trkpt>
      <trkpt lat="47.21664" lon="2.93245">
        <ele>180.71318054199</ele>
        <time>2016-04-13T12:19:00.000Z</time>
      </trkpt>
      <trkpt lat="47.21666" lon="2.93238">
        <ele>180.95681762695</ele>
        <time>2016-04-13T12:19:02.000Z</time>
      </trkpt>
      <trkpt lat="47.21668" lon="2.93234">
        <ele>181.21517944336</ele>
        <time>2016-04-13T12:19:05.000Z</time>
      </trkpt>
      <trkpt lat="47.21669" lon="2.9323">
        <ele>181.47998046875</ele>
        <time>2016-04-13T12:19:08.000Z</time>
      </trkpt>
      <trkpt lat="47.2167" lon="2.93227">
        <ele>181.75816345215</ele>
        <time>2016-04-13T12:19:10.000Z</time>
      </trkpt>
      <trkpt lat="47.21671" lon="2.93222">
        <ele>182.02423095703</ele>
        <time>2016-04-13T12:19:13.000Z</time>
      </trkpt>
      <trkpt lat="47.21672" lon="2.9322">
        <ele>182.24440002441</ele>
        <time>2016-04-13T12:19:16.000Z</time>
      </trkpt>
      <trkpt lat="47.21673" lon="2.93216">
        <ele>182.44396972656</ele>
        <time>2016-04-13T12:19:19.000Z</time>
      </trkpt>
      <trkpt lat="47.21673" lon="2.93214">
        <ele>182.62829589844</ele>
        <time>2016-04-13T12:19:21.000Z</time>
      </trkpt>
      <trkpt lat="47.21673" lon="2.93211">
        <ele>182.79643249512</ele>
        <time>2016-04-13T12:19:23.000Z</time>
      </trkpt>
      <trkpt lat="47.21674" lon="2.93206">
        <ele>182.96377563477</ele>
        <time>2016-04-13T12:19:26.000Z</time>
      </trkpt>
      <trkpt lat="47.21674" lon="2.93199">
        <ele>183.16604614258</ele>
        <time>2016-04-13T12:19:29.000Z</time>
      </trkpt>
      <trkpt lat="47.21674" lon="2.93192">
        <ele>183.38739013672</ele>
        <time>2016-04-13T12:19:32.000Z</time>
      </trkpt>
      <trkpt lat="47.21673" lon="2.93188">
        <ele>183.6160736084</ele>
        <time>2016-04-13T12:19:35.000Z</time>
      </trkpt>
      <trkpt lat="47.21673" lon="2.93185">
        <ele>183.84819030762</ele>
        <time>2016-04-13T12:19:39.000Z</time>
      </trkpt>
      <trkpt lat="47.21672" lon="2.93178">
        <ele>184.09107971191</ele>
        <time>2016-04-13T12:19:41.000Z</time>
      </trkpt>
      <trkpt lat="47.21672" lon="2.93174">
        <ele>184.30583190918</ele>
        <time>2016-04-13T12:19:44.000Z</time>
      </trkpt>
      <trkpt lat="47.2167" lon="2.93168">
        <ele>184.51577758789</ele>
        <time>2016-04-13T12:19:46.000Z</time>
      </trkpt>
      <trkpt lat="47.21669" lon="2.93154">
        <ele>184.7027130127</ele>
        <time>2016-04-13T12:19:49.000Z</time>
      </trkpt>
      <trkpt lat="47.21669" lon="2.93146">
        <ele>184.8623046875</ele>
        <time>2016-04-13T12:19:52.000Z</time>
      </trkpt>
      <trkpt lat="47.21669" lon="2.93143">
        <ele>184.96168518066</ele>
        <time>2016-04-13T12:19:54.000Z</time>
      </trkpt>
      <trkpt lat="47.2167" lon="2.93138">
        <ele>185.02304077148</ele>
        <time>2016-04-13T12:19:57.000Z</time>
      </trkpt>
      <trkpt lat="47.21671" lon="2.93137">
        <ele>185.0380859375</ele>
        <time>2016-04-13T12:19:59.000Z</time>
      </trkpt>
      <trkpt lat="47.21672" lon="2.93133">
        <ele>185.04296875</ele>
        <time>2016-04-13T12:20:02.000Z</time>
      </trkpt>
      <trkpt lat="47.21672" lon="2.93129">
        <ele>185.048828125</ele>
        <time>2016-04-13T12:20:05.000Z</time>
      </trkpt>
      <trkpt lat="47.21672" lon="2.93125">
        <ele>185.0556640625</ele>
        <time>2016-04-13T12:20:07.000Z</time>
      </trkpt>
      <trkpt lat="47.21674" lon="2.93118">
        <ele>185.0654296875</ele>
        <time>2016-04-13T12:20:10.000Z</time>
      </trkpt>
      <trkpt lat="47.21673" lon="2.93113">
        <ele>185.0703125</ele>
        <time>2016-04-13T12:20:13.000Z</time>
      </trkpt>
      <trkpt lat="47.21673" lon="2.93109">
        <ele>185.07421875</ele>
        <time>2016-04-13T12:20:16.000Z</time>
      </trkpt>
      <trkpt lat="47.21672" lon="2.93104">
        <ele>185.07421875</ele>
        <time>2016-04-13T12:20:19.000Z</time>
      </trkpt>
      <trkpt lat="47.21672" lon="2.93095">
        <ele>185.0732421875</ele>
        <time>2016-04-13T12:20:23.000Z</time>
      </trkpt>
      <trkpt lat="47.21674" lon="2.9309">
        <ele>185.0732421875</ele>
        <time>2016-04-13T12:20:24.000Z</time>
      </trkpt>
      <trkpt lat="47.21675" lon="2.93086">
        <ele>185.0791015625</ele>
        <time>2016-04-13T12:20:27.000Z</time>
      </trkpt>
      <trkpt lat="47.21677" lon="2.93084">
        <ele>185.0888671875</ele>
        <time>2016-04-13T12:20:29.000Z</time>
      </trkpt>
      <trkpt lat="47.21679" lon="2.9308">
        <ele>185.08514404297</ele>
        <time>2016-04-13T12:20:32.000Z</time>
      </trkpt>
      <trkpt lat="47.2168" lon="2.93077">
        <ele>185.06336975098</ele>
        <time>2016-04-13T12:20:34.000Z</time>
      </trkpt>
      <trkpt lat="47.2168" lon="2.93071">
        <ele>184.99771118164</ele>
        <time>2016-04-13T12:20:36.000Z</time>
      </trkpt>
      <trkpt lat="47.21681" lon="2.93067">
        <ele>184.89611816406</ele>
        <time>2016-04-13T12:20:39.000Z</time>
      </trkpt>
      <trkpt lat="47.21683" lon="2.93062">
        <ele>184.75961303711</ele>
        <time>2016-04-13T12:20:42.000Z</time>
      </trkpt>
      <trkpt lat="47.21684" lon="2.93056">
        <ele>184.59501647949</ele>
        <time>2016-04-13T12:20:45.000Z</time>
      </trkpt>
      <trkpt lat="47.21684" lon="2.93055">
        <ele>184.43731689453</ele>
        <time>2016-04-13T12:20:47.000Z</time>
      </trkpt>
      <trkpt lat="47.21685" lon="2.93046">
        <ele>184.25601196289</ele>
        <time>2016-04-13T12:20:50.000Z</time>
      </trkpt>
      <trkpt lat="47.21684" lon="2.93041">
        <ele>184.06893920898</ele>
        <time>2016-04-13T12:20:53.000Z</time>
      </trkpt>
      <trkpt lat="47.21684" lon="2.93039">
        <ele>183.90034484863</ele>
        <time>2016-04-13T12:20:58.000Z</time>
      </trkpt>
      <trkpt lat="47.21685" lon="2.9303">
        <ele>183.70515441895</ele>
        <time>2016-04-13T12:21:03.000Z</time>
      </trkpt>
      <trkpt lat="47.21685" lon="2.93027">
        <ele>183.49826049805</ele>
        <time>2016-04-13T12:21:05.000Z</time>
      </trkpt>
      <trkpt lat="47.21685" lon="2.93013">
        <ele>183.25506591797</ele>
        <time>2016-04-13T12:21:08.000Z</time>
      </trkpt>
      <trkpt lat="47.21684" lon="2.93001">
        <ele>182.96640014648</ele>
        <time>2016-04-13T12:21:11.000Z</time>
      </trkpt>
      <trkpt lat="47.21684" lon="2.92998">
        <ele>182.66313171387</ele>
        <time>2016-04-13T12:21:13.000Z</time>
      </trkpt>
      <trkpt lat="47.21684" lon="2.92994">
        <ele>182.40037536621</ele>
        <time>2016-04-13T12:21:16.000Z</time>
      </trkpt>
      <trkpt lat="47.21684" lon="2.92991">
        <ele>182.13204956055</ele>
        <time>2016-04-13T12:21:18.000Z</time>
      </trkpt>
      <trkpt lat="47.21685" lon="2.92987">
        <ele>181.92813110352</ele>
        <time>2016-04-13T12:21:21.000Z</time>
      </trkpt>
      <trkpt lat="47.21685" lon="2.92983">
        <ele>181.76773071289</ele>
        <time>2016-04-13T12:21:24.000Z</time>
      </trkpt>
      <trkpt lat="47.21685" lon="2.92978">
        <ele>181.59461975098</ele>
        <time>2016-04-13T12:21:27.000Z</time>
      </trkpt>
      <trkpt lat="47.21685" lon="2.92974">
        <ele>181.41967773438</ele>
        <time>2016-04-13T12:21:30.000Z</time>
      </trkpt>
      <trkpt lat="47.21686" lon="2.9297">
        <ele>181.22671508789</ele>
        <time>2016-04-13T12:21:33.000Z</time>
      </trkpt>
      <trkpt lat="47.21685" lon="2.92965">
        <ele>181.03346252441</ele>
        <time>2016-04-13T12:21:36.000Z</time>
      </trkpt>
      <trkpt lat="47.21686" lon="2.92961">
        <ele>180.83486938477</ele>
        <time>2016-04-13T12:21:39.000Z</time>
      </trkpt>
      <trkpt lat="47.21687" lon="2.92955">
        <ele>180.61534118652</ele>
        <time>2016-04-13T12:21:42.000Z</time>
      </trkpt>
      <trkpt lat="47.21689" lon="2.92952">
        <ele>180.38691711426</ele>
        <time>2016-04-13T12:21:44.000Z</time>
      </trkpt>
      <trkpt lat="47.2169" lon="2.92948">
        <ele>180.15927124023</ele>
        <time>2016-04-13T12:21:47.000Z</time>
      </trkpt>
      <trkpt lat="47.21692" lon="2.92945">
        <ele>179.90846252441</ele>
        <time>2016-04-13T12:21:50.000Z</time>
      </trkpt>
      <trkpt lat="47.21694" lon="2.9294">
        <ele>179.63357543945</ele>
        <time>2016-04-13T12:21:53.000Z</time>
      </trkpt>
      <trkpt lat="47.21695" lon="2.92935">
        <ele>179.36518859863</ele>
        <time>2016-04-13T12:21:56.000Z</time>
      </trkpt>
      <trkpt lat="47.21694" lon="2.92931">
        <ele>179.1127166748</ele>
        <time>2016-04-13T12:21:58.000Z</time>
      </trkpt>
      <trkpt lat="47.21695" lon="2.92924">
        <ele>178.83810424805</ele>
        <time>2016-04-13T12:22:01.000Z</time>
      </trkpt>
      <trkpt lat="47.21695" lon="2.92919">
        <ele>178.57009887695</ele>
        <time>2016-04-13T12:22:03.000Z</time>
      </trkpt>
      <trkpt lat="47.21695" lon="2.92916">
        <ele>178.3487701416</ele>
        <time>2016-04-13T12:22:06.000Z</time>
      </trkpt>
      <trkpt lat="47.21693" lon="2.92905">
        <ele>178.15901184082</ele>
        <time>2016-04-13T12:22:09.000Z</time>
      </trkpt>
      <trkpt lat="47.21691" lon="2.92898">
        <ele>177.99696350098</ele>
        <time>2016-04-13T12:22:11.000Z</time>
      </trkpt>
      <trkpt lat="47.21691" lon="2.92894">
        <ele>177.88101196289</ele>
        <time>2016-04-13T12:22:13.000Z</time>
      </trkpt>
      <trkpt lat="47.21691" lon="2.92888">
        <ele>177.79203796387</ele>
        <time>2016-04-13T12:22:16.000Z</time>
      </trkpt>
      <trkpt lat="47.21691" lon="2.92883">
        <ele>177.70805358887</ele>
        <time>2016-04-13T12:22:19.000Z</time>
      </trkpt>
      <trkpt lat="47.2169" lon="2.92879">
        <ele>177.63302612305</ele>
        <time>2016-04-13T12:22:22.000Z</time>
      </trkpt>
      <trkpt lat="47.2169" lon="2.92875">
        <ele>177.5386505127</ele>
        <time>2016-04-13T12:22:24.000Z</time>
      </trkpt>
      <trkpt lat="47.2169" lon="2.92872">
        <ele>177.44973754883</ele>
        <time>2016-04-13T12:22:27.000Z</time>
      </trkpt>
      <trkpt lat="47.21691" lon="2.92865">
        <ele>177.35252380371</ele>
        <time>2016-04-13T12:22:30.000Z</time>
      </trkpt>
      <trkpt lat="47.2169" lon="2.92861">
        <ele>177.26145935059</ele>
        <time>2016-04-13T12:22:32.000Z</time>
      </trkpt>
      <trkpt lat="47.2169" lon="2.92855">
        <ele>177.15823364258</ele>
        <time>2016-04-13T12:22:35.000Z</time>
      </trkpt>
      <trkpt lat="47.2169" lon="2.92851">
        <ele>177.0562286377</ele>
        <time>2016-04-13T12:22:37.000Z</time>
      </trkpt>
      <trkpt lat="47.21689" lon="2.92846">
        <ele>176.95185852051</ele>
        <time>2016-04-13T12:22:40.000Z</time>
      </trkpt>
      <trkpt lat="47.21688" lon="2.92839">
        <ele>176.84950256348</ele>
        <time>2016-04-13T12:22:43.000Z</time>
      </trkpt>
      <trkpt lat="47.21688" lon="2.92834">
        <ele>176.7339630127</ele>
        <time>2016-04-13T12:22:45.000Z</time>
      </trkpt>
      <trkpt lat="47.21688" lon="2.92826">
        <ele>176.65908813477</ele>
        <time>2016-04-13T12:22:48.000Z</time>
      </trkpt>
      <trkpt lat="47.21688" lon="2.92823">
        <ele>176.60800170898</ele>
        <time>2016-04-13T12:22:50.000Z</time>
      </trkpt>
      <trkpt lat="47.21688" lon="2.9282">
        <ele>176.58364868164</ele>
        <time>2016-04-13T12:22:53.000Z</time>
      </trkpt>
      <trkpt lat="47.21687" lon="2.92815">
        <ele>176.6046295166</ele>
        <time>2016-04-13T12:22:55.000Z</time>
      </trkpt>
      <trkpt lat="47.21688" lon="2.9281">
        <ele>176.66259765625</ele>
        <time>2016-04-13T12:22:58.000Z</time>
      </trkpt>
      <trkpt lat="47.21688" lon="2.92806">
        <ele>176.71057128906</ele>
        <time>2016-04-13T12:23:00.000Z</time>
      </trkpt>
      <trkpt lat="47.21688" lon="2.92803">
        <ele>176.75872802734</ele>
        <time>2016-04-13T12:23:02.000Z</time>
      </trkpt>
      <trkpt lat="47.21689" lon="2.92798">
        <ele>176.80792236328</ele>
        <time>2016-04-13T12:23:04.000Z</time>
      </trkpt>
      <trkpt lat="47.21688" lon="2.92794">
        <ele>176.85205078125</ele>
        <time>2016-04-13T12:23:07.000Z</time>
      </trkpt>
      <trkpt lat="47.21688" lon="2.92788">
        <ele>176.90161132812</ele>
        <time>2016-04-13T12:23:10.000Z</time>
      </trkpt>
      <trkpt lat="47.21688" lon="2.92783">
        <ele>176.95483398438</ele>
        <time>2016-04-13T12:23:13.000Z</time>
      </trkpt>
      <trkpt lat="47.21688" lon="2.9278">
        <ele>177.00732421875</ele>
        <time>2016-04-13T12:23:16.000Z</time>
      </trkpt>
      <trkpt lat="47.21688" lon="2.92778">
        <ele>177.05883789062</ele>
        <time>2016-04-13T12:23:19.000Z</time>
      </trkpt>
      <trkpt lat="47.21688" lon="2.92778">
        <ele>177.05883789062</ele>
        <time>2016-04-13T12:23:39.000Z</time>
      </trkpt>
      <trkpt lat="47.21689" lon="2.92779">
        <ele>177.09680175781</ele>
        <time>2016-04-13T12:23:42.000Z</time>
      </trkpt>
      <trkpt lat="47.2169" lon="2.9278">
        <ele>177.10961914062</ele>
        <time>2016-04-13T12:23:45.000Z</time>
      </trkpt>
      <trkpt lat="47.2169" lon="2.9278">
        <ele>177.10961914062</ele>
        <time>2016-04-13T12:24:05.000Z</time>
      </trkpt>
      <trkpt lat="47.21691" lon="2.92781">
        <ele>177.10339355469</ele>
        <time>2016-04-13T12:24:08.000Z</time>
      </trkpt>
      <trkpt lat="47.21691" lon="2.92781">
        <ele>177.10339355469</ele>
        <time>2016-04-13T12:24:28.000Z</time>
      </trkpt>
      <trkpt lat="47.21692" lon="2.92777">
        <ele>177.09368896484</ele>
        <time>2016-04-13T12:26:13.000Z</time>
      </trkpt>
      <trkpt lat="47.21692" lon="2.92777">
        <ele>177.09368896484</ele>
        <time>2016-04-13T12:26:33.000Z</time>
      </trkpt>
      <trkpt lat="47.21693" lon="2.92777">
        <ele>177.06964111328</ele>
        <time>2016-04-13T12:26:46.000Z</time>
      </trkpt>
      <trkpt lat="47.21693" lon="2.92777">
        <ele>177.06964111328</ele>
        <time>2016-04-13T12:27:06.000Z</time>
      </trkpt>
      <trkpt lat="47.21693" lon="2.92775">
        <ele>177.05810546875</ele>
        <time>2016-04-13T12:27:59.000Z</time>
      </trkpt>
      <trkpt lat="47.21692" lon="2.92771">
        <ele>177.06610107422</ele>
        <time>2016-04-13T12:28:02.000Z</time>
      </trkpt>
      <trkpt lat="47.21692" lon="2.92769">
        <ele>177.09161376953</ele>
        <time>2016-04-13T12:28:04.000Z</time>
      </trkpt>
      <trkpt lat="47.2169" lon="2.92765">
        <ele>177.13079833984</ele>
        <time>2016-04-13T12:28:07.000Z</time>
      </trkpt>
      <trkpt lat="47.2169" lon="2.92763">
        <ele>177.18292236328</ele>
        <time>2016-04-13T12:28:09.000Z</time>
      </trkpt>
      <trkpt lat="47.21691" lon="2.92761">
        <ele>177.22662353516</ele>
        <time>2016-04-13T12:28:15.000Z</time>
      </trkpt>
      <trkpt lat="47.21691" lon="2.9276">
        <ele>177.26062011719</ele>
        <time>2016-04-13T12:28:32.000Z</time>
      </trkpt>
      <trkpt lat="47.21692" lon="2.92755">
        <ele>177.29595947266</ele>
        <time>2016-04-13T12:28:35.000Z</time>
      </trkpt>
      <trkpt lat="47.21692" lon="2.92752">
        <ele>177.31616210938</ele>
        <time>2016-04-13T12:28:37.000Z</time>
      </trkpt>
      <trkpt lat="47.21695" lon="2.92748">
        <ele>177.32888793945</ele>
        <time>2016-04-13T12:28:40.000Z</time>
      </trkpt>
      <trkpt lat="47.21699" lon="2.92746">
        <ele>177.33763122559</ele>
        <time>2016-04-13T12:28:43.000Z</time>
      </trkpt>
      <trkpt lat="47.21703" lon="2.92743">
        <ele>177.33760070801</ele>
        <time>2016-04-13T12:28:46.000Z</time>
      </trkpt>
      <trkpt lat="47.21706" lon="2.92742">
        <ele>177.31985473633</ele>
        <time>2016-04-13T12:28:48.000Z</time>
      </trkpt>
      <trkpt lat="47.21709" lon="2.92741">
        <ele>177.29248046875</ele>
        <time>2016-04-13T12:28:51.000Z</time>
      </trkpt>
      <trkpt lat="47.21711" lon="2.92739">
        <ele>177.26171875</ele>
        <time>2016-04-13T12:28:54.000Z</time>
      </trkpt>
      <trkpt lat="47.21714" lon="2.92737">
        <ele>177.2265625</ele>
        <time>2016-04-13T12:28:57.000Z</time>
      </trkpt>
      <trkpt lat="47.21718" lon="2.92737">
        <ele>177.18188476562</ele>
        <time>2016-04-13T12:29:00.000Z</time>
      </trkpt>
      <trkpt lat="47.2172" lon="2.92737">
        <ele>177.13610839844</ele>
        <time>2016-04-13T12:29:02.000Z</time>
      </trkpt>
      <trkpt lat="47.21723" lon="2.92736">
        <ele>177.09057617188</ele>
        <time>2016-04-13T12:29:04.000Z</time>
      </trkpt>
      <trkpt lat="47.21725" lon="2.92735">
        <ele>177.04321289062</ele>
        <time>2016-04-13T12:29:07.000Z</time>
      </trkpt>
      <trkpt lat="47.21728" lon="2.92732">
        <ele>177.00366210938</ele>
        <time>2016-04-13T12:29:10.000Z</time>
      </trkpt>
      <trkpt lat="47.2173" lon="2.9273">
        <ele>176.98071289062</ele>
        <time>2016-04-13T12:29:12.000Z</time>
      </trkpt>
      <trkpt lat="47.21733" lon="2.92729">
        <ele>176.9599609375</ele>
        <time>2016-04-13T12:29:15.000Z</time>
      </trkpt>
      <trkpt lat="47.21736" lon="2.92727">
        <ele>176.93994140625</ele>
        <time>2016-04-13T12:29:18.000Z</time>
      </trkpt>
      <trkpt lat="47.21739" lon="2.92725">
        <ele>176.92150878906</ele>
        <time>2016-04-13T12:29:20.000Z</time>
      </trkpt>
      <trkpt lat="47.21742" lon="2.92724">
        <ele>176.89306640625</ele>
        <time>2016-04-13T12:29:23.000Z</time>
      </trkpt>
      <trkpt lat="47.21744" lon="2.92723">
        <ele>176.85815429688</ele>
        <time>2016-04-13T12:29:25.000Z</time>
      </trkpt>
      <trkpt lat="47.21747" lon="2.92722">
        <ele>176.82153320312</ele>
        <time>2016-04-13T12:29:28.000Z</time>
      </trkpt>
      <trkpt lat="47.2175" lon="2.9272">
        <ele>176.78828430176</ele>
        <time>2016-04-13T12:29:31.000Z</time>
      </trkpt>
      <trkpt lat="47.21753" lon="2.92719">
        <ele>176.75784301758</ele>
        <time>2016-04-13T12:29:33.000Z</time>
      </trkpt>
      <trkpt lat="47.21755" lon="2.92717">
        <ele>176.7380065918</ele>
        <time>2016-04-13T12:29:36.000Z</time>
      </trkpt>
      <trkpt lat="47.21758" lon="2.92715">
        <ele>176.72917175293</ele>
        <time>2016-04-13T12:29:39.000Z</time>
      </trkpt>
      <trkpt lat="47.21762" lon="2.92713">
        <ele>176.7294921875</ele>
        <time>2016-04-13T12:29:42.000Z</time>
      </trkpt>
      <trkpt lat="47.21766" lon="2.92711">
        <ele>176.73156738281</ele>
        <time>2016-04-13T12:29:45.000Z</time>
      </trkpt>
      <trkpt lat="47.21769" lon="2.9271">
        <ele>176.73400878906</ele>
        <time>2016-04-13T12:29:47.000Z</time>
      </trkpt>
      <trkpt lat="47.21773" lon="2.92708">
        <ele>176.73449707031</ele>
        <time>2016-04-13T12:29:50.000Z</time>
      </trkpt>
      <trkpt lat="47.21777" lon="2.92707">
        <ele>176.72607421875</ele>
        <time>2016-04-13T12:29:53.000Z</time>
      </trkpt>
      <trkpt lat="47.2178" lon="2.92705">
        <ele>176.72094726562</ele>
        <time>2016-04-13T12:29:56.000Z</time>
      </trkpt>
      <trkpt lat="47.21783" lon="2.92704">
        <ele>176.71459960938</ele>
        <time>2016-04-13T12:29:58.000Z</time>
      </trkpt>
      <trkpt lat="47.21785" lon="2.92704">
        <ele>176.70751953125</ele>
        <time>2016-04-13T12:30:00.000Z</time>
      </trkpt>
      <trkpt lat="47.21788" lon="2.92703">
        <ele>176.69738769531</ele>
        <time>2016-04-13T12:30:03.000Z</time>
      </trkpt>
      <trkpt lat="47.2179" lon="2.92702">
        <ele>176.69091796875</ele>
        <time>2016-04-13T12:30:05.000Z</time>
      </trkpt>
      <trkpt lat="47.21793" lon="2.92701">
        <ele>176.67785644531</ele>
        <time>2016-04-13T12:30:07.000Z</time>
      </trkpt>
      <trkpt lat="47.21796" lon="2.92701">
        <ele>176.66235351562</ele>
        <time>2016-04-13T12:30:10.000Z</time>
      </trkpt>
      <trkpt lat="47.21801" lon="2.927">
        <ele>176.64038085938</ele>
        <time>2016-04-13T12:30:13.000Z</time>
      </trkpt>
      <trkpt lat="47.21805" lon="2.92699">
        <ele>176.6181640625</ele>
        <time>2016-04-13T12:30:16.000Z</time>
      </trkpt>
      <trkpt lat="47.21807" lon="2.92699">
        <ele>176.59338378906</ele>
        <time>2016-04-13T12:30:18.000Z</time>
      </trkpt>
      <trkpt lat="47.2181" lon="2.92698">
        <ele>176.56823730469</ele>
        <time>2016-04-13T12:30:20.000Z</time>
      </trkpt>
      <trkpt lat="47.21812" lon="2.92698">
        <ele>176.54382324219</ele>
        <time>2016-04-13T12:30:22.000Z</time>
      </trkpt>
      <trkpt lat="47.21817" lon="2.92697">
        <ele>176.51818847656</ele>
        <time>2016-04-13T12:30:25.000Z</time>
      </trkpt>
      <trkpt lat="47.21821" lon="2.92698">
        <ele>176.48474121094</ele>
        <time>2016-04-13T12:30:28.000Z</time>
      </trkpt>
      <trkpt lat="47.21825" lon="2.92698">
        <ele>176.44653320312</ele>
        <time>2016-04-13T12:30:31.000Z</time>
      </trkpt>
      <trkpt lat="47.21829" lon="2.92698">
        <ele>176.40100097656</ele>
        <time>2016-04-13T12:30:33.000Z</time>
      </trkpt>
      <trkpt lat="47.21831" lon="2.92698">
        <ele>176.35778808594</ele>
        <time>2016-04-13T12:30:35.000Z</time>
      </trkpt>
      <trkpt lat="47.21833" lon="2.92696">
        <ele>176.32580566406</ele>
        <time>2016-04-13T12:30:38.000Z</time>
      </trkpt>
      <trkpt lat="47.21836" lon="2.92695">
        <ele>176.31460571289</ele>
        <time>2016-04-13T12:30:40.000Z</time>
      </trkpt>
      <trkpt lat="47.2184" lon="2.92694">
        <ele>176.3229675293</ele>
        <time>2016-04-13T12:30:42.000Z</time>
      </trkpt>
      <trkpt lat="47.21844" lon="2.92693">
        <ele>176.3531036377</ele>
        <time>2016-04-13T12:30:45.000Z</time>
      </trkpt>
      <trkpt lat="47.21847" lon="2.92692">
        <ele>176.39205932617</ele>
        <time>2016-04-13T12:30:47.000Z</time>
      </trkpt>
      <trkpt lat="47.21851" lon="2.92691">
        <ele>176.44120788574</ele>
        <time>2016-04-13T12:30:50.000Z</time>
      </trkpt>
      <trkpt lat="47.21854" lon="2.92689">
        <ele>176.49186706543</ele>
        <time>2016-04-13T12:30:53.000Z</time>
      </trkpt>
      <trkpt lat="47.21857" lon="2.92688">
        <ele>176.53939819336</ele>
        <time>2016-04-13T12:30:57.000Z</time>
      </trkpt>
      <trkpt lat="47.21859" lon="2.92687">
        <ele>176.58358764648</ele>
        <time>2016-04-13T12:30:58.000Z</time>
      </trkpt>
      <trkpt lat="47.21864" lon="2.92686">
        <ele>176.6277923584</ele>
        <time>2016-04-13T12:31:01.000Z</time>
      </trkpt>
      <trkpt lat="47.21867" lon="2.92685">
        <ele>176.66729736328</ele>
        <time>2016-04-13T12:31:04.000Z</time>
      </trkpt>
      <trkpt lat="47.2187" lon="2.92683">
        <ele>176.70669555664</ele>
        <time>2016-04-13T12:31:07.000Z</time>
      </trkpt>
      <trkpt lat="47.21872" lon="2.92681">
        <ele>176.74240112305</ele>
        <time>2016-04-13T12:31:09.000Z</time>
      </trkpt>
      <trkpt lat="47.21875" lon="2.92679">
        <ele>176.77917480469</ele>
        <time>2016-04-13T12:31:12.000Z</time>
      </trkpt>
      <trkpt lat="47.21876" lon="2.92677">
        <ele>176.81327819824</ele>
        <time>2016-04-13T12:31:14.000Z</time>
      </trkpt>
      <trkpt lat="47.21879" lon="2.92674">
        <ele>176.84951782227</ele>
        <time>2016-04-13T12:31:17.000Z</time>
      </trkpt>
      <trkpt lat="47.21881" lon="2.92672">
        <ele>176.88081359863</ele>
        <time>2016-04-13T12:31:19.000Z</time>
      </trkpt>
      <trkpt lat="47.21884" lon="2.9267">
        <ele>176.91276550293</ele>
        <time>2016-04-13T12:31:22.000Z</time>
      </trkpt>
      <trkpt lat="47.21886" lon="2.92668">
        <ele>176.94013977051</ele>
        <time>2016-04-13T12:31:24.000Z</time>
      </trkpt>
      <trkpt lat="47.21887" lon="2.92666">
        <ele>176.96548461914</ele>
        <time>2016-04-13T12:31:26.000Z</time>
      </trkpt>
      <trkpt lat="47.2189" lon="2.92662">
        <ele>176.9849395752</ele>
        <time>2016-04-13T12:31:29.000Z</time>
      </trkpt>
      <trkpt lat="47.21893" lon="2.9266">
        <ele>177.00086975098</ele>
        <time>2016-04-13T12:31:32.000Z</time>
      </trkpt>
      <trkpt lat="47.21895" lon="2.92658">
        <ele>177.01245117188</ele>
        <time>2016-04-13T12:31:35.000Z</time>
      </trkpt>
      <trkpt lat="47.21898" lon="2.92655">
        <ele>177.02079772949</ele>
        <time>2016-04-13T12:31:38.000Z</time>
      </trkpt>
      <trkpt lat="47.219" lon="2.92654">
        <ele>177.02642822266</ele>
        <time>2016-04-13T12:31:40.000Z</time>
      </trkpt>
      <trkpt lat="47.21902" lon="2.92653">
        <ele>177.0285949707</ele>
        <time>2016-04-13T12:31:42.000Z</time>
      </trkpt>
      <trkpt lat="47.21906" lon="2.92649">
        <ele>177.02952575684</ele>
        <time>2016-04-13T12:31:45.000Z</time>
      </trkpt>
      <trkpt lat="47.21908" lon="2.92647">
        <ele>177.02870178223</ele>
        <time>2016-04-13T12:31:47.000Z</time>
      </trkpt>
      <trkpt lat="47.21911" lon="2.92644">
        <ele>177.02612304688</ele>
        <time>2016-04-13T12:31:50.000Z</time>
      </trkpt>
      <trkpt lat="47.21914" lon="2.92641">
        <ele>177.02226257324</ele>
        <time>2016-04-13T12:31:53.000Z</time>
      </trkpt>
      <trkpt lat="47.21916" lon="2.92639">
        <ele>177.01708984375</ele>
        <time>2016-04-13T12:31:55.000Z</time>
      </trkpt>
      <trkpt lat="47.21918" lon="2.92638">
        <ele>177.00857543945</ele>
        <time>2016-04-13T12:31:57.000Z</time>
      </trkpt>
      <trkpt lat="47.21921" lon="2.92634">
        <ele>176.9974822998</ele>
        <time>2016-04-13T12:32:00.000Z</time>
      </trkpt>
      <trkpt lat="47.21924" lon="2.92631">
        <ele>176.98385620117</ele>
        <time>2016-04-13T12:32:03.000Z</time>
      </trkpt>
      <trkpt lat="47.21928" lon="2.92629">
        <ele>176.96733093262</ele>
        <time>2016-04-13T12:32:06.000Z</time>
      </trkpt>
      <trkpt lat="47.21931" lon="2.92627">
        <ele>176.94790649414</ele>
        <time>2016-04-13T12:32:09.000Z</time>
      </trkpt>
      <trkpt lat="47.21934" lon="2.92625">
        <ele>176.93061828613</ele>
        <time>2016-04-13T12:32:11.000Z</time>
      </trkpt>
      <trkpt lat="47.21936" lon="2.92623">
        <ele>176.91441345215</ele>
        <time>2016-04-13T12:32:13.000Z</time>
      </trkpt>
      <trkpt lat="47.21939" lon="2.92621">
        <ele>176.89988708496</ele>
        <time>2016-04-13T12:32:16.000Z</time>
      </trkpt>
      <trkpt lat="47.21942" lon="2.92618">
        <ele>176.88928222656</ele>
        <time>2016-04-13T12:32:19.000Z</time>
      </trkpt>
      <trkpt lat="47.21945" lon="2.92614">
        <ele>176.88269042969</ele>
        <time>2016-04-13T12:32:22.000Z</time>
      </trkpt>
      <trkpt lat="47.21947" lon="2.92611">
        <ele>176.87832641602</ele>
        <time>2016-04-13T12:32:24.000Z</time>
      </trkpt>
      <trkpt lat="47.2195" lon="2.92608">
        <ele>176.876953125</ele>
        <time>2016-04-13T12:32:27.000Z</time>
      </trkpt>
      <trkpt lat="47.21953" lon="2.92605">
        <ele>176.87879943848</ele>
        <time>2016-04-13T12:32:30.000Z</time>
      </trkpt>
      <trkpt lat="47.21956" lon="2.92603">
        <ele>176.88153076172</ele>
        <time>2016-04-13T12:32:33.000Z</time>
      </trkpt>
      <trkpt lat="47.21959" lon="2.92601">
        <ele>176.88494873047</ele>
        <time>2016-04-13T12:32:35.000Z</time>
      </trkpt>
      <trkpt lat="47.2196" lon="2.92599">
        <ele>176.8899230957</ele>
        <time>2016-04-13T12:32:37.000Z</time>
      </trkpt>
      <trkpt lat="47.21964" lon="2.92595">
        <ele>176.89785766602</ele>
        <time>2016-04-13T12:32:40.000Z</time>
      </trkpt>
      <trkpt lat="47.21967" lon="2.92592">
        <ele>176.90780639648</ele>
        <time>2016-04-13T12:32:43.000Z</time>
      </trkpt>
      <trkpt lat="47.2197" lon="2.92588">
        <ele>176.92330932617</ele>
        <time>2016-04-13T12:32:46.000Z</time>
      </trkpt>
      <trkpt lat="47.21973" lon="2.92584">
        <ele>176.94398498535</ele>
        <time>2016-04-13T12:32:49.000Z</time>
      </trkpt>
      <trkpt lat="47.21975" lon="2.92581">
        <ele>176.97984313965</ele>
        <time>2016-04-13T12:32:51.000Z</time>
      </trkpt>
      <trkpt lat="47.21979" lon="2.92577">
        <ele>177.03952026367</ele>
        <time>2016-04-13T12:32:54.000Z</time>
      </trkpt>
      <trkpt lat="47.21982" lon="2.92574">
        <ele>177.11640930176</ele>
        <time>2016-04-13T12:32:57.000Z</time>
      </trkpt>
      <trkpt lat="47.21984" lon="2.92571">
        <ele>177.20907592773</ele>
        <time>2016-04-13T12:32:59.000Z</time>
      </trkpt>
      <trkpt lat="47.21987" lon="2.92567">
        <ele>177.32775878906</ele>
        <time>2016-04-13T12:33:02.000Z</time>
      </trkpt>
      <trkpt lat="47.2199" lon="2.92565">
        <ele>177.4453125</ele>
        <time>2016-04-13T12:33:05.000Z</time>
      </trkpt>
      <trkpt lat="47.21992" lon="2.92562">
        <ele>177.556640625</ele>
        <time>2016-04-13T12:33:07.000Z</time>
      </trkpt>
      <trkpt lat="47.21995" lon="2.92559">
        <ele>177.66613769531</ele>
        <time>2016-04-13T12:33:09.000Z</time>
      </trkpt>
      <trkpt lat="47.21999" lon="2.92557">
        <ele>177.76867675781</ele>
        <time>2016-04-13T12:33:12.000Z</time>
      </trkpt>
      <trkpt lat="47.22001" lon="2.92555">
        <ele>177.8542175293</ele>
        <time>2016-04-13T12:33:14.000Z</time>
      </trkpt>
      <trkpt lat="47.22004" lon="2.92553">
        <ele>177.94291687012</ele>
        <time>2016-04-13T12:33:17.000Z</time>
      </trkpt>
      <trkpt lat="47.22006" lon="2.92551">
        <ele>178.02380371094</ele>
        <time>2016-04-13T12:33:19.000Z</time>
      </trkpt>
      <trkpt lat="47.22009" lon="2.92548">
        <ele>178.10758972168</ele>
        <time>2016-04-13T12:33:22.000Z</time>
      </trkpt>
      <trkpt lat="47.22011" lon="2.92547">
        <ele>178.1826171875</ele>
        <time>2016-04-13T12:33:24.000Z</time>
      </trkpt>
      <trkpt lat="47.22014" lon="2.92544">
        <ele>178.26599121094</ele>
        <time>2016-04-13T12:33:27.000Z</time>
      </trkpt>
      <trkpt lat="47.22018" lon="2.92541">
        <ele>178.34872436523</ele>
        <time>2016-04-13T12:33:30.000Z</time>
      </trkpt>
      <trkpt lat="47.22021" lon="2.92539">
        <ele>178.42921447754</ele>
        <time>2016-04-13T12:33:33.000Z</time>
      </trkpt>
      <trkpt lat="47.22022" lon="2.92537">
        <ele>178.50077819824</ele>
        <time>2016-04-13T12:33:35.000Z</time>
      </trkpt>
      <trkpt lat="47.22024" lon="2.92535">
        <ele>178.57601928711</ele>
        <time>2016-04-13T12:33:38.000Z</time>
      </trkpt>
      <trkpt lat="47.22028" lon="2.92533">
        <ele>178.63832092285</ele>
        <time>2016-04-13T12:33:41.000Z</time>
      </trkpt>
      <trkpt lat="47.22032" lon="2.92531">
        <ele>178.69149780273</ele>
        <time>2016-04-13T12:33:44.000Z</time>
      </trkpt>
      <trkpt lat="47.22036" lon="2.92527">
        <ele>178.74848937988</ele>
        <time>2016-04-13T12:33:47.000Z</time>
      </trkpt>
      <trkpt lat="47.22039" lon="2.92525">
        <ele>178.80297851562</ele>
        <time>2016-04-13T12:33:49.000Z</time>
      </trkpt>
      <trkpt lat="47.22041" lon="2.92522">
        <ele>178.85697937012</ele>
        <time>2016-04-13T12:33:51.000Z</time>
      </trkpt>
      <trkpt lat="47.22043" lon="2.92521">
        <ele>178.90701293945</ele>
        <time>2016-04-13T12:33:53.000Z</time>
      </trkpt>
      <trkpt lat="47.22046" lon="2.92519">
        <ele>178.95166015625</ele>
        <time>2016-04-13T12:33:55.000Z</time>
      </trkpt>
      <trkpt lat="47.22049" lon="2.92517">
        <ele>178.98588562012</ele>
        <time>2016-04-13T12:33:58.000Z</time>
      </trkpt>
      <trkpt lat="47.22051" lon="2.92514">
        <ele>179.01878356934</ele>
        <time>2016-04-13T12:34:01.000Z</time>
      </trkpt>
      <trkpt lat="47.22055" lon="2.92511">
        <ele>179.04928588867</ele>
        <time>2016-04-13T12:34:04.000Z</time>
      </trkpt>
      <trkpt lat="47.22057" lon="2.92509">
        <ele>179.07723999023</ele>
        <time>2016-04-13T12:34:06.000Z</time>
      </trkpt>
      <trkpt lat="47.2206" lon="2.92506">
        <ele>179.10514831543</ele>
        <time>2016-04-13T12:34:09.000Z</time>
      </trkpt>
      <trkpt lat="47.22062" lon="2.92505">
        <ele>179.13255310059</ele>
        <time>2016-04-13T12:34:11.000Z</time>
      </trkpt>
      <trkpt lat="47.22064" lon="2.92504">
        <ele>179.14877319336</ele>
        <time>2016-04-13T12:34:13.000Z</time>
      </trkpt>
      <trkpt lat="47.22067" lon="2.92503">
        <ele>179.15608215332</ele>
        <time>2016-04-13T12:34:16.000Z</time>
      </trkpt>
      <trkpt lat="47.22069" lon="2.92501">
        <ele>179.16091918945</ele>
        <time>2016-04-13T12:34:18.000Z</time>
      </trkpt>
      <trkpt lat="47.22072" lon="2.92498">
        <ele>179.17697143555</ele>
        <time>2016-04-13T12:34:21.000Z</time>
      </trkpt>
      <trkpt lat="47.22076" lon="2.92494">
        <ele>179.21841430664</ele>
        <time>2016-04-13T12:34:24.000Z</time>
      </trkpt>
      <trkpt lat="47.22081" lon="2.92491">
        <ele>179.28314208984</ele>
        <time>2016-04-13T12:34:27.000Z</time>
      </trkpt>
      <trkpt lat="47.22083" lon="2.92488">
        <ele>179.37089538574</ele>
        <time>2016-04-13T12:34:29.000Z</time>
      </trkpt>
      <trkpt lat="47.22087" lon="2.92485">
        <ele>179.47503662109</ele>
        <time>2016-04-13T12:34:32.000Z</time>
      </trkpt>
      <trkpt lat="47.2209" lon="2.92481">
        <ele>179.58644104004</ele>
        <time>2016-04-13T12:34:35.000Z</time>
      </trkpt>
      <trkpt lat="47.22092" lon="2.92478">
        <ele>179.69064331055</ele>
        <time>2016-04-13T12:34:38.000Z</time>
      </trkpt>
      <trkpt lat="47.22095" lon="2.92475">
        <ele>179.78945922852</ele>
        <time>2016-04-13T12:34:41.000Z</time>
      </trkpt>
      <trkpt lat="47.22099" lon="2.92471">
        <ele>179.884765625</ele>
        <time>2016-04-13T12:34:44.000Z</time>
      </trkpt>
      <trkpt lat="47.22101" lon="2.92469">
        <ele>179.97085571289</ele>
        <time>2016-04-13T12:34:46.000Z</time>
      </trkpt>
      <trkpt lat="47.22105" lon="2.92467">
        <ele>180.03593444824</ele>
        <time>2016-04-13T12:34:49.000Z</time>
      </trkpt>
      <trkpt lat="47.22108" lon="2.92465">
        <ele>180.08409118652</ele>
        <time>2016-04-13T12:34:52.000Z</time>
      </trkpt>
      <trkpt lat="47.22111" lon="2.92461">
        <ele>180.13009643555</ele>
        <time>2016-04-13T12:34:55.000Z</time>
      </trkpt>
      <trkpt lat="47.22115" lon="2.92458">
        <ele>180.16888427734</ele>
        <time>2016-04-13T12:34:58.000Z</time>
      </trkpt>
      <trkpt lat="47.22119" lon="2.92455">
        <ele>180.20137023926</ele>
        <time>2016-04-13T12:35:01.000Z</time>
      </trkpt>
      <trkpt lat="47.2212" lon="2.92454">
        <ele>180.23611450195</ele>
        <time>2016-04-13T12:35:03.000Z</time>
      </trkpt>
      <trkpt lat="47.22124" lon="2.92451">
        <ele>180.26651000977</ele>
        <time>2016-04-13T12:35:06.000Z</time>
      </trkpt>
      <trkpt lat="47.22126" lon="2.92449">
        <ele>180.28173828125</ele>
        <time>2016-04-13T12:35:08.000Z</time>
      </trkpt>
      <trkpt lat="47.22129" lon="2.92447">
        <ele>180.29048156738</ele>
        <time>2016-04-13T12:35:10.000Z</time>
      </trkpt>
      <trkpt lat="47.22133" lon="2.92443">
        <ele>180.30229187012</ele>
        <time>2016-04-13T12:35:13.000Z</time>
      </trkpt>
      <trkpt lat="47.22137" lon="2.92441">
        <ele>180.30136108398</ele>
        <time>2016-04-13T12:35:16.000Z</time>
      </trkpt>
      <trkpt lat="47.22139" lon="2.92439">
        <ele>180.3013458252</ele>
        <time>2016-04-13T12:35:18.000Z</time>
      </trkpt>
      <trkpt lat="47.22141" lon="2.92437">
        <ele>180.30137634277</ele>
        <time>2016-04-13T12:35:21.000Z</time>
      </trkpt>
      <trkpt lat="47.22144" lon="2.92435">
        <ele>180.29067993164</ele>
        <time>2016-04-13T12:35:23.000Z</time>
      </trkpt>
      <trkpt lat="47.22148" lon="2.92432">
        <ele>180.27151489258</ele>
        <time>2016-04-13T12:35:26.000Z</time>
      </trkpt>
      <trkpt lat="47.22152" lon="2.92429">
        <ele>180.25189208984</ele>
        <time>2016-04-13T12:35:29.000Z</time>
      </trkpt>
      <trkpt lat="47.22155" lon="2.92426">
        <ele>180.22387695312</ele>
        <time>2016-04-13T12:35:32.000Z</time>
      </trkpt>
      <trkpt lat="47.22157" lon="2.92425">
        <ele>180.18894958496</ele>
        <time>2016-04-13T12:35:34.000Z</time>
      </trkpt>
      <trkpt lat="47.22159" lon="2.92423">
        <ele>180.15884399414</ele>
        <time>2016-04-13T12:35:36.000Z</time>
      </trkpt>
      <trkpt lat="47.22164" lon="2.9242">
        <ele>180.11654663086</ele>
        <time>2016-04-13T12:35:39.000Z</time>
      </trkpt>
      <trkpt lat="47.22168" lon="2.92417">
        <ele>180.07270812988</ele>
        <time>2016-04-13T12:35:43.000Z</time>
      </trkpt>
      <trkpt lat="47.2217" lon="2.92415">
        <ele>180.03952026367</ele>
        <time>2016-04-13T12:35:45.000Z</time>
      </trkpt>
      <trkpt lat="47.22172" lon="2.92414">
        <ele>180.01777648926</ele>
        <time>2016-04-13T12:35:47.000Z</time>
      </trkpt>
      <trkpt lat="47.22176" lon="2.92411">
        <ele>179.99870300293</ele>
        <time>2016-04-13T12:35:50.000Z</time>
      </trkpt>
      <trkpt lat="47.22179" lon="2.92409">
        <ele>179.99819946289</ele>
        <time>2016-04-13T12:35:53.000Z</time>
      </trkpt>
      <trkpt lat="47.22181" lon="2.92408">
        <ele>180.00756835938</ele>
        <time>2016-04-13T12:35:55.000Z</time>
      </trkpt>
      <trkpt lat="47.22184" lon="2.92404">
        <ele>180.01913452148</ele>
        <time>2016-04-13T12:35:58.000Z</time>
      </trkpt>
      <trkpt lat="47.22186" lon="2.92399">
        <ele>180.0348815918</ele>
        <time>2016-04-13T12:36:01.000Z</time>
      </trkpt>
      <trkpt lat="47.22187" lon="2.92395">
        <ele>180.06069946289</ele>
        <time>2016-04-13T12:36:04.000Z</time>
      </trkpt>
      <trkpt lat="47.22187" lon="2.92392">
        <ele>180.09455871582</ele>
        <time>2016-04-13T12:36:06.000Z</time>
      </trkpt>
      <trkpt lat="47.22186" lon="2.92386">
        <ele>180.1569519043</ele>
        <time>2016-04-13T12:36:09.000Z</time>
      </trkpt>
      <trkpt lat="47.22185" lon="2.9238">
        <ele>180.23847961426</ele>
        <time>2016-04-13T12:36:12.000Z</time>
      </trkpt>
      <trkpt lat="47.22184" lon="2.92377">
        <ele>180.33483886719</ele>
        <time>2016-04-13T12:36:15.000Z</time>
      </trkpt>
      <trkpt lat="47.22181" lon="2.92373">
        <ele>180.447265625</ele>
        <time>2016-04-13T12:36:18.000Z</time>
      </trkpt>
      <trkpt lat="47.22179" lon="2.9237">
        <ele>180.57272338867</ele>
        <time>2016-04-13T12:36:20.000Z</time>
      </trkpt>
      <trkpt lat="47.22176" lon="2.92368">
        <ele>180.68997192383</ele>
        <time>2016-04-13T12:36:22.000Z</time>
      </trkpt>
      <trkpt lat="47.22174" lon="2.92364">
        <ele>180.81359863281</ele>
        <time>2016-04-13T12:36:25.000Z</time>
      </trkpt>
      <trkpt lat="47.22171" lon="2.9236">
        <ele>180.94624328613</ele>
        <time>2016-04-13T12:36:28.000Z</time>
      </trkpt>
      <trkpt lat="47.22168" lon="2.92357">
        <ele>181.08424377441</ele>
        <time>2016-04-13T12:36:31.000Z</time>
      </trkpt>
      <trkpt lat="47.22167" lon="2.92354">
        <ele>181.21937561035</ele>
        <time>2016-04-13T12:36:33.000Z</time>
      </trkpt>
      <trkpt lat="47.22166" lon="2.92351">
        <ele>181.37094116211</ele>
        <time>2016-04-13T12:36:36.000Z</time>
      </trkpt>
      <trkpt lat="47.22164" lon="2.92348">
        <ele>181.5238494873</ele>
        <time>2016-04-13T12:36:38.000Z</time>
      </trkpt>
      <trkpt lat="47.22161" lon="2.92344">
        <ele>181.72163391113</ele>
        <time>2016-04-13T12:36:41.000Z</time>
      </trkpt>
      <trkpt lat="47.22159" lon="2.92342">
        <ele>181.92071533203</ele>
        <time>2016-04-13T12:36:43.000Z</time>
      </trkpt>
      <trkpt lat="47.22155" lon="2.92339">
        <ele>182.17929077148</ele>
        <time>2016-04-13T12:36:46.000Z</time>
      </trkpt>
      <trkpt lat="47.22153" lon="2.92337">
        <ele>182.44546508789</ele>
        <time>2016-04-13T12:36:48.000Z</time>
      </trkpt>
      <trkpt lat="47.22152" lon="2.92333">
        <ele>182.72966003418</ele>
        <time>2016-04-13T12:36:51.000Z</time>
      </trkpt>
      <trkpt lat="47.2215" lon="2.92329">
        <ele>182.97151184082</ele>
        <time>2016-04-13T12:36:54.000Z</time>
      </trkpt>
      <trkpt lat="47.22148" lon="2.92326">
        <ele>183.22427368164</ele>
        <time>2016-04-13T12:36:56.000Z</time>
      </trkpt>
      <trkpt lat="47.22144" lon="2.92321">
        <ele>183.4556427002</ele>
        <time>2016-04-13T12:36:59.000Z</time>
      </trkpt>
      <trkpt lat="47.22143" lon="2.92318">
        <ele>183.66616821289</ele>
        <time>2016-04-13T12:37:01.000Z</time>
      </trkpt>
      <trkpt lat="47.22141" lon="2.92316">
        <ele>183.85989379883</ele>
        <time>2016-04-13T12:37:03.000Z</time>
      </trkpt>
      <trkpt lat="47.2214" lon="2.92314">
        <ele>184.0344543457</ele>
        <time>2016-04-13T12:37:05.000Z</time>
      </trkpt>
      <trkpt lat="47.22138" lon="2.92313">
        <ele>184.1979675293</ele>
        <time>2016-04-13T12:37:08.000Z</time>
      </trkpt>
      <trkpt lat="47.22134" lon="2.92308">
        <ele>184.36196899414</ele>
        <time>2016-04-13T12:37:11.000Z</time>
      </trkpt>
      <trkpt lat="47.2213" lon="2.92305">
        <ele>184.57308959961</ele>
        <time>2016-04-13T12:37:14.000Z</time>
      </trkpt>
      <trkpt lat="47.22127" lon="2.92302">
        <ele>184.79940795898</ele>
        <time>2016-04-13T12:37:17.000Z</time>
      </trkpt>
      <trkpt lat="47.22124" lon="2.92299">
        <ele>185.0601348877</ele>
        <time>2016-04-13T12:37:20.000Z</time>
      </trkpt>
      <trkpt lat="47.2212" lon="2.92294">
        <ele>185.34652709961</ele>
        <time>2016-04-13T12:37:23.000Z</time>
      </trkpt>
      <trkpt lat="47.22116" lon="2.9229">
        <ele>185.61862182617</ele>
        <time>2016-04-13T12:37:26.000Z</time>
      </trkpt>
      <trkpt lat="47.22113" lon="2.92285">
        <ele>185.85865783691</ele>
        <time>2016-04-13T12:37:29.000Z</time>
      </trkpt>
      <trkpt lat="47.22112" lon="2.92283">
        <ele>186.0754699707</ele>
        <time>2016-04-13T12:37:31.000Z</time>
      </trkpt>
      <trkpt lat="47.2211" lon="2.92281">
        <ele>186.26445007324</ele>
        <time>2016-04-13T12:37:34.000Z</time>
      </trkpt>
      <trkpt lat="47.22106" lon="2.92276">
        <ele>186.4449005127</ele>
        <time>2016-04-13T12:37:36.000Z</time>
      </trkpt>
      <trkpt lat="47.22104" lon="2.92273">
        <ele>186.59892272949</ele>
        <time>2016-04-13T12:37:38.000Z</time>
      </trkpt>
      <trkpt lat="47.22102" lon="2.9227">
        <ele>186.74397277832</ele>
        <time>2016-04-13T12:37:41.000Z</time>
      </trkpt>
      <trkpt lat="47.22096" lon="2.92263">
        <ele>186.92523193359</ele>
        <time>2016-04-13T12:37:44.000Z</time>
      </trkpt>
      <trkpt lat="47.22095" lon="2.9226">
        <ele>187.09609985352</ele>
        <time>2016-04-13T12:37:46.000Z</time>
      </trkpt>
      <trkpt lat="47.22092" lon="2.92256">
        <ele>187.25112915039</ele>
        <time>2016-04-13T12:37:49.000Z</time>
      </trkpt>
      <trkpt lat="47.22086" lon="2.9225">
        <ele>187.43966674805</ele>
        <time>2016-04-13T12:37:52.000Z</time>
      </trkpt>
      <trkpt lat="47.22084" lon="2.92246">
        <ele>187.64828491211</ele>
        <time>2016-04-13T12:37:55.000Z</time>
      </trkpt>
      <trkpt lat="47.22082" lon="2.92243">
        <ele>187.83471679688</ele>
        <time>2016-04-13T12:37:58.000Z</time>
      </trkpt>
      <trkpt lat="47.22079" lon="2.92239">
        <ele>188.05166625977</ele>
        <time>2016-04-13T12:38:01.000Z</time>
      </trkpt>
      <trkpt lat="47.22075" lon="2.92235">
        <ele>188.2725982666</ele>
        <time>2016-04-13T12:38:04.000Z</time>
      </trkpt>
      <trkpt lat="47.22071" lon="2.92231">
        <ele>188.48091125488</ele>
        <time>2016-04-13T12:38:07.000Z</time>
      </trkpt>
      <trkpt lat="47.22068" lon="2.92228">
        <ele>188.66767883301</ele>
        <time>2016-04-13T12:38:10.000Z</time>
      </trkpt>
      <trkpt lat="47.22064" lon="2.92225">
        <ele>188.84143066406</ele>
        <time>2016-04-13T12:38:13.000Z</time>
      </trkpt>
      <trkpt lat="47.2206" lon="2.92222">
        <ele>188.9981842041</ele>
        <time>2016-04-13T12:38:16.000Z</time>
      </trkpt>
      <trkpt lat="47.22059" lon="2.92221">
        <ele>189.12411499023</ele>
        <time>2016-04-13T12:38:18.000Z</time>
      </trkpt>
      <trkpt lat="47.22055" lon="2.92217">
        <ele>189.24217224121</ele>
        <time>2016-04-13T12:38:21.000Z</time>
      </trkpt>
      <trkpt lat="47.22052" lon="2.92214">
        <ele>189.34954833984</ele>
        <time>2016-04-13T12:38:24.000Z</time>
      </trkpt>
      <trkpt lat="47.2205" lon="2.92213">
        <ele>189.44006347656</ele>
        <time>2016-04-13T12:38:27.000Z</time>
      </trkpt>
      <trkpt lat="47.22048" lon="2.9221">
        <ele>189.52226257324</ele>
        <time>2016-04-13T12:38:29.000Z</time>
      </trkpt>
      <trkpt lat="47.22047" lon="2.92207">
        <ele>189.60833740234</ele>
        <time>2016-04-13T12:38:31.000Z</time>
      </trkpt>
      <trkpt lat="47.22044" lon="2.92204">
        <ele>189.67971801758</ele>
        <time>2016-04-13T12:38:34.000Z</time>
      </trkpt>
      <trkpt lat="47.22041" lon="2.92202">
        <ele>189.74250793457</ele>
        <time>2016-04-13T12:38:36.000Z</time>
      </trkpt>
      <trkpt lat="47.22037" lon="2.92199">
        <ele>189.80819702148</ele>
        <time>2016-04-13T12:38:39.000Z</time>
      </trkpt>
      <trkpt lat="47.22034" lon="2.92196">
        <ele>189.86755371094</ele>
        <time>2016-04-13T12:38:42.000Z</time>
      </trkpt>
      <trkpt lat="47.2203" lon="2.92191">
        <ele>189.92816162109</ele>
        <time>2016-04-13T12:38:45.000Z</time>
      </trkpt>
      <trkpt lat="47.22028" lon="2.92189">
        <ele>189.97668457031</ele>
        <time>2016-04-13T12:38:47.000Z</time>
      </trkpt>
      <trkpt lat="47.22026" lon="2.92186">
        <ele>190.02285766602</ele>
        <time>2016-04-13T12:38:50.000Z</time>
      </trkpt>
      <trkpt lat="47.22023" lon="2.92183">
        <ele>190.05981445312</ele>
        <time>2016-04-13T12:38:52.000Z</time>
      </trkpt>
      <trkpt lat="47.22019" lon="2.92179">
        <ele>190.08963012695</ele>
        <time>2016-04-13T12:38:55.000Z</time>
      </trkpt>
      <trkpt lat="47.22018" lon="2.92177">
        <ele>190.10914611816</ele>
        <time>2016-04-13T12:38:57.000Z</time>
      </trkpt>
      <trkpt lat="47.22016" lon="2.92172">
        <ele>190.12683105469</ele>
        <time>2016-04-13T12:39:01.000Z</time>
      </trkpt>
      <trkpt lat="47.22014" lon="2.9217">
        <ele>190.13803100586</ele>
        <time>2016-04-13T12:39:02.000Z</time>
      </trkpt>
      <trkpt lat="47.22012" lon="2.92167">
        <ele>190.14193725586</ele>
        <time>2016-04-13T12:39:05.000Z</time>
      </trkpt>
      <trkpt lat="47.22008" lon="2.92166">
        <ele>190.13284301758</ele>
        <time>2016-04-13T12:39:08.000Z</time>
      </trkpt>
      <trkpt lat="47.22004" lon="2.92162">
        <ele>190.10429382324</ele>
        <time>2016-04-13T12:39:11.000Z</time>
      </trkpt>
      <trkpt lat="47.22002" lon="2.9216">
        <ele>190.06044006348</ele>
        <time>2016-04-13T12:39:13.000Z</time>
      </trkpt>
      <trkpt lat="47.22" lon="2.92157">
        <ele>190.00662231445</ele>
        <time>2016-04-13T12:39:15.000Z</time>
      </trkpt>
      <trkpt lat="47.21996" lon="2.92152">
        <ele>189.91036987305</ele>
        <time>2016-04-13T12:39:18.000Z</time>
      </trkpt>
      <trkpt lat="47.21993" lon="2.92148">
        <ele>189.79902648926</ele>
        <time>2016-04-13T12:39:21.000Z</time>
      </trkpt>
      <trkpt lat="47.21989" lon="2.92142">
        <ele>189.65879821777</ele>
        <time>2016-04-13T12:39:24.000Z</time>
      </trkpt>
      <trkpt lat="47.21988" lon="2.92142">
        <ele>189.52291870117</ele>
        <time>2016-04-13T12:39:26.000Z</time>
      </trkpt>
      <trkpt lat="47.21984" lon="2.92139">
        <ele>189.36828613281</ele>
        <time>2016-04-13T12:39:29.000Z</time>
      </trkpt>
      <trkpt lat="47.2198" lon="2.92136">
        <ele>189.21569824219</ele>
        <time>2016-04-13T12:39:32.000Z</time>
      </trkpt>
      <trkpt lat="47.21977" lon="2.92132">
        <ele>189.06262207031</ele>
        <time>2016-04-13T12:39:35.000Z</time>
      </trkpt>
      <trkpt lat="47.21975" lon="2.92128">
        <ele>188.93127441406</ele>
        <time>2016-04-13T12:39:38.000Z</time>
      </trkpt>
      <trkpt lat="47.21974" lon="2.92126">
        <ele>188.79412841797</ele>
        <time>2016-04-13T12:39:41.000Z</time>
      </trkpt>
      <trkpt lat="47.21971" lon="2.9212">
        <ele>188.64978027344</ele>
        <time>2016-04-13T12:39:44.000Z</time>
      </trkpt>
      <trkpt lat="47.21968" lon="2.92115">
        <ele>188.51751708984</ele>
        <time>2016-04-13T12:39:47.000Z</time>
      </trkpt>
      <trkpt lat="47.21967" lon="2.92112">
        <ele>188.39379882812</ele>
        <time>2016-04-13T12:39:49.000Z</time>
      </trkpt>
      <trkpt lat="47.21964" lon="2.92106">
        <ele>188.259765625</ele>
        <time>2016-04-13T12:39:52.000Z</time>
      </trkpt>
      <trkpt lat="47.21962" lon="2.92103">
        <ele>188.12048339844</ele>
        <time>2016-04-13T12:39:54.000Z</time>
      </trkpt>
      <trkpt lat="47.2196" lon="2.92101">
        <ele>188.00085449219</ele>
        <time>2016-04-13T12:39:56.000Z</time>
      </trkpt>
      <trkpt lat="47.21959" lon="2.92097">
        <ele>187.89111328125</ele>
        <time>2016-04-13T12:39:59.000Z</time>
      </trkpt>
      <trkpt lat="47.21956" lon="2.92096">
        <ele>187.77520751953</ele>
        <time>2016-04-13T12:40:02.000Z</time>
      </trkpt>
      <trkpt lat="47.21955" lon="2.92094">
        <ele>187.68463134766</ele>
        <time>2016-04-13T12:40:04.000Z</time>
      </trkpt>
      <trkpt lat="47.21955" lon="2.92092">
        <ele>187.60858154297</ele>
        <time>2016-04-13T12:40:10.000Z</time>
      </trkpt>
      <trkpt lat="47.21955" lon="2.9209">
        <ele>187.54748535156</ele>
        <time>2016-04-13T12:40:12.000Z</time>
      </trkpt>
      <trkpt lat="47.21955" lon="2.92085">
        <ele>187.49450683594</ele>
        <time>2016-04-13T12:40:15.000Z</time>
      </trkpt>
      <trkpt lat="47.21955" lon="2.92081">
        <ele>187.45207214355</ele>
        <time>2016-04-13T12:40:17.000Z</time>
      </trkpt>
      <trkpt lat="47.21956" lon="2.92077">
        <ele>187.41494750977</ele>
        <time>2016-04-13T12:40:20.000Z</time>
      </trkpt>
      <trkpt lat="47.21957" lon="2.92074">
        <ele>187.37503051758</ele>
        <time>2016-04-13T12:40:22.000Z</time>
      </trkpt>
      <trkpt lat="47.21957" lon="2.92071">
        <ele>187.32620239258</ele>
        <time>2016-04-13T12:40:25.000Z</time>
      </trkpt>
      <trkpt lat="47.21957" lon="2.92068">
        <ele>187.28143310547</ele>
        <time>2016-04-13T12:40:27.000Z</time>
      </trkpt>
      <trkpt lat="47.21955" lon="2.92062">
        <ele>187.22212219238</ele>
        <time>2016-04-13T12:40:30.000Z</time>
      </trkpt>
      <trkpt lat="47.21955" lon="2.92059">
        <ele>187.15580749512</ele>
        <time>2016-04-13T12:40:32.000Z</time>
      </trkpt>
      <trkpt lat="47.21954" lon="2.92055">
        <ele>187.08044433594</ele>
        <time>2016-04-13T12:40:35.000Z</time>
      </trkpt>
      <trkpt lat="47.21954" lon="2.92051">
        <ele>187.00312805176</ele>
        <time>2016-04-13T12:40:38.000Z</time>
      </trkpt>
      <trkpt lat="47.21952" lon="2.92047">
        <ele>186.92263793945</ele>
        <time>2016-04-13T12:40:40.000Z</time>
      </trkpt>
      <trkpt lat="47.21952" lon="2.92043">
        <ele>186.85751342773</ele>
        <time>2016-04-13T12:40:43.000Z</time>
      </trkpt>
      <trkpt lat="47.21952" lon="2.92041">
        <ele>186.79684448242</ele>
        <time>2016-04-13T12:40:45.000Z</time>
      </trkpt>
      <trkpt lat="47.21952" lon="2.92038">
        <ele>186.74459838867</ele>
        <time>2016-04-13T12:40:48.000Z</time>
      </trkpt>
      <trkpt lat="47.21951" lon="2.92034">
        <ele>186.69589233398</ele>
        <time>2016-04-13T12:40:51.000Z</time>
      </trkpt>
      <trkpt lat="47.2195" lon="2.92031">
        <ele>186.65264892578</ele>
        <time>2016-04-13T12:40:53.000Z</time>
      </trkpt>
      <trkpt lat="47.21949" lon="2.92027">
        <ele>186.61293029785</ele>
        <time>2016-04-13T12:40:55.000Z</time>
      </trkpt>
      <trkpt lat="47.21949" lon="2.92024">
        <ele>186.57197570801</ele>
        <time>2016-04-13T12:40:57.000Z</time>
      </trkpt>
      <trkpt lat="47.21947" lon="2.92017">
        <ele>186.52874755859</ele>
        <time>2016-04-13T12:41:01.000Z</time>
      </trkpt>
      <trkpt lat="47.21946" lon="2.92013">
        <ele>186.49172973633</ele>
        <time>2016-04-13T12:41:02.000Z</time>
      </trkpt>
      <trkpt lat="47.21944" lon="2.92008">
        <ele>186.45539855957</ele>
        <time>2016-04-13T12:41:04.000Z</time>
      </trkpt>
      <trkpt lat="47.21943" lon="2.92002">
        <ele>186.4287109375</ele>
        <time>2016-04-13T12:41:07.000Z</time>
      </trkpt>
      <trkpt lat="47.21941" lon="2.91997">
        <ele>186.39279174805</ele>
        <time>2016-04-13T12:41:10.000Z</time>
      </trkpt>
      <trkpt lat="47.21941" lon="2.91993">
        <ele>186.34202575684</ele>
        <time>2016-04-13T12:41:12.000Z</time>
      </trkpt>
      <trkpt lat="47.21941" lon="2.91989">
        <ele>186.27043151855</ele>
        <time>2016-04-13T12:41:15.000Z</time>
      </trkpt>
      <trkpt lat="47.2194" lon="2.91985">
        <ele>186.18588256836</ele>
        <time>2016-04-13T12:41:18.000Z</time>
      </trkpt>
      <trkpt lat="47.21939" lon="2.91979">
        <ele>186.07264709473</ele>
        <time>2016-04-13T12:41:21.000Z</time>
      </trkpt>
      <trkpt lat="47.21939" lon="2.91975">
        <ele>185.95007324219</ele>
        <time>2016-04-13T12:41:24.000Z</time>
      </trkpt>
      <trkpt lat="47.21938" lon="2.91971">
        <ele>185.83493041992</ele>
        <time>2016-04-13T12:41:26.000Z</time>
      </trkpt>
      <trkpt lat="47.21938" lon="2.91969">
        <ele>185.72888183594</ele>
        <time>2016-04-13T12:41:28.000Z</time>
      </trkpt>
      <trkpt lat="47.21937" lon="2.91964">
        <ele>185.62376403809</ele>
        <time>2016-04-13T12:41:31.000Z</time>
      </trkpt>
      <trkpt lat="47.21936" lon="2.91958">
        <ele>185.51643371582</ele>
        <time>2016-04-13T12:41:34.000Z</time>
      </trkpt>
      <trkpt lat="47.21936" lon="2.91952">
        <ele>185.40409851074</ele>
        <time>2016-04-13T12:41:36.000Z</time>
      </trkpt>
      <trkpt lat="47.21935" lon="2.91945">
        <ele>185.27592468262</ele>
        <time>2016-04-13T12:41:39.000Z</time>
      </trkpt>
      <trkpt lat="47.21935" lon="2.91941">
        <ele>185.13682556152</ele>
        <time>2016-04-13T12:41:42.000Z</time>
      </trkpt>
      <trkpt lat="47.21935" lon="2.91936">
        <ele>184.9916229248</ele>
        <time>2016-04-13T12:41:45.000Z</time>
      </trkpt>
      <trkpt lat="47.21934" lon="2.91933">
        <ele>184.86135864258</ele>
        <time>2016-04-13T12:41:47.000Z</time>
      </trkpt>
      <trkpt lat="47.21933" lon="2.91926">
        <ele>184.7301940918</ele>
        <time>2016-04-13T12:41:50.000Z</time>
      </trkpt>
      <trkpt lat="47.21932" lon="2.91919">
        <ele>184.6021270752</ele>
        <time>2016-04-13T12:41:53.000Z</time>
      </trkpt>
      <trkpt lat="47.21931" lon="2.91914">
        <ele>184.46049499512</ele>
        <time>2016-04-13T12:41:56.000Z</time>
      </trkpt>
      <trkpt lat="47.2193" lon="2.91909">
        <ele>184.29316711426</ele>
        <time>2016-04-13T12:41:58.000Z</time>
      </trkpt>
      <trkpt lat="47.2193" lon="2.91904">
        <ele>184.06903076172</ele>
        <time>2016-04-13T12:42:01.000Z</time>
      </trkpt>
      <trkpt lat="47.21929" lon="2.919">
        <ele>183.83702087402</ele>
        <time>2016-04-13T12:42:03.000Z</time>
      </trkpt>
      <trkpt lat="47.21928" lon="2.91896">
        <ele>183.5846862793</ele>
        <time>2016-04-13T12:42:05.000Z</time>
      </trkpt>
      <trkpt lat="47.21928" lon="2.91892">
        <ele>183.31355285645</ele>
        <time>2016-04-13T12:42:08.000Z</time>
      </trkpt>
      <trkpt lat="47.21928" lon="2.91889">
        <ele>183.06335449219</ele>
        <time>2016-04-13T12:42:10.000Z</time>
      </trkpt>
      <trkpt lat="47.21926" lon="2.91885">
        <ele>182.84320068359</ele>
        <time>2016-04-13T12:42:13.000Z</time>
      </trkpt>
      <trkpt lat="47.21925" lon="2.91879">
        <ele>182.58671569824</ele>
        <time>2016-04-13T12:42:16.000Z</time>
      </trkpt>
      <trkpt lat="47.21923" lon="2.91872">
        <ele>182.29721069336</ele>
        <time>2016-04-13T12:42:19.000Z</time>
      </trkpt>
      <trkpt lat="47.2192" lon="2.91866">
        <ele>181.98715209961</ele>
        <time>2016-04-13T12:42:22.000Z</time>
      </trkpt>
      <trkpt lat="47.21918" lon="2.91862">
        <ele>181.66677856445</ele>
        <time>2016-04-13T12:42:24.000Z</time>
      </trkpt>
      <trkpt lat="47.21918" lon="2.91856">
        <ele>181.30183410645</ele>
        <time>2016-04-13T12:42:27.000Z</time>
      </trkpt>
      <trkpt lat="47.2192" lon="2.91849">
        <ele>180.9051361084</ele>
        <time>2016-04-13T12:42:30.000Z</time>
      </trkpt>
      <trkpt lat="47.21923" lon="2.91843">
        <ele>180.49946594238</ele>
        <time>2016-04-13T12:42:33.000Z</time>
      </trkpt>
      <trkpt lat="47.21925" lon="2.9184">
        <ele>180.12670898438</ele>
        <time>2016-04-13T12:42:35.000Z</time>
      </trkpt>
      <trkpt lat="47.21928" lon="2.91835">
        <ele>179.71105957031</ele>
        <time>2016-04-13T12:42:38.000Z</time>
      </trkpt>
      <trkpt lat="47.21931" lon="2.91831">
        <ele>179.33311462402</ele>
        <time>2016-04-13T12:42:41.000Z</time>
      </trkpt>
      <trkpt lat="47.21933" lon="2.91828">
        <ele>179.03713989258</ele>
        <time>2016-04-13T12:42:43.000Z</time>
      </trkpt>
      <trkpt lat="47.21936" lon="2.91825">
        <ele>178.79756164551</ele>
        <time>2016-04-13T12:42:46.000Z</time>
      </trkpt>
      <trkpt lat="47.21938" lon="2.91822">
        <ele>178.58067321777</ele>
        <time>2016-04-13T12:42:48.000Z</time>
      </trkpt>
      <trkpt lat="47.21943" lon="2.9182">
        <ele>178.41806030273</ele>
        <time>2016-04-13T12:42:51.000Z</time>
      </trkpt>
      <trkpt lat="47.21944" lon="2.91818">
        <ele>178.29019165039</ele>
        <time>2016-04-13T12:42:53.000Z</time>
      </trkpt>
      <trkpt lat="47.21947" lon="2.91817">
        <ele>178.17350769043</ele>
        <time>2016-04-13T12:42:55.000Z</time>
      </trkpt>
      <trkpt lat="47.2195" lon="2.91814">
        <ele>178.06733703613</ele>
        <time>2016-04-13T12:42:58.000Z</time>
      </trkpt>
      <trkpt lat="47.21954" lon="2.91811">
        <ele>177.95616149902</ele>
        <time>2016-04-13T12:43:01.000Z</time>
      </trkpt>
      <trkpt lat="47.21958" lon="2.91809">
        <ele>177.85244750977</ele>
        <time>2016-04-13T12:43:04.000Z</time>
      </trkpt>
      <trkpt lat="47.21961" lon="2.91807">
        <ele>177.74847412109</ele>
        <time>2016-04-13T12:43:07.000Z</time>
      </trkpt>
      <trkpt lat="47.21963" lon="2.91806">
        <ele>177.64883422852</ele>
        <time>2016-04-13T12:43:09.000Z</time>
      </trkpt>
      <trkpt lat="47.21966" lon="2.91803">
        <ele>177.55625915527</ele>
        <time>2016-04-13T12:43:13.000Z</time>
      </trkpt>
      <trkpt lat="47.21968" lon="2.91802">
        <ele>177.47775268555</ele>
        <time>2016-04-13T12:43:14.000Z</time>
      </trkpt>
      <trkpt lat="47.21971" lon="2.91799">
        <ele>177.39872741699</ele>
        <time>2016-04-13T12:43:17.000Z</time>
      </trkpt>
      <trkpt lat="47.21974" lon="2.91796">
        <ele>177.3180847168</ele>
        <time>2016-04-13T12:43:20.000Z</time>
      </trkpt>
      <trkpt lat="47.21976" lon="2.91795">
        <ele>177.24197387695</ele>
        <time>2016-04-13T12:43:22.000Z</time>
      </trkpt>
      <trkpt lat="47.21979" lon="2.91794">
        <ele>177.17611694336</ele>
        <time>2016-04-13T12:43:25.000Z</time>
      </trkpt>
      <trkpt lat="47.21982" lon="2.91791">
        <ele>177.10565185547</ele>
        <time>2016-04-13T12:43:28.000Z</time>
      </trkpt>
      <trkpt lat="47.21984" lon="2.91787">
        <ele>177.03634643555</ele>
        <time>2016-04-13T12:43:30.000Z</time>
      </trkpt>
      <trkpt lat="47.21986" lon="2.91784">
        <ele>176.96327209473</ele>
        <time>2016-04-13T12:43:32.000Z</time>
      </trkpt>
      <trkpt lat="47.21989" lon="2.9178">
        <ele>176.87634277344</ele>
        <time>2016-04-13T12:43:35.000Z</time>
      </trkpt>
      <trkpt lat="47.2199" lon="2.91779">
        <ele>176.79479980469</ele>
        <time>2016-04-13T12:43:37.000Z</time>
      </trkpt>
      <trkpt lat="47.21994" lon="2.91776">
        <ele>176.7209777832</ele>
        <time>2016-04-13T12:43:40.000Z</time>
      </trkpt>
      <trkpt lat="47.21997" lon="2.91773">
        <ele>176.65217590332</ele>
        <time>2016-04-13T12:43:43.000Z</time>
      </trkpt>
      <trkpt lat="47.22001" lon="2.9177">
        <ele>176.59210205078</ele>
        <time>2016-04-13T12:43:46.000Z</time>
      </trkpt>
      <trkpt lat="47.22004" lon="2.91767">
        <ele>176.54220581055</ele>
        <time>2016-04-13T12:43:49.000Z</time>
      </trkpt>
      <trkpt lat="47.22007" lon="2.91765">
        <ele>176.4854888916</ele>
        <time>2016-04-13T12:43:52.000Z</time>
      </trkpt>
      <trkpt lat="47.22009" lon="2.91763">
        <ele>176.43020629883</ele>
        <time>2016-04-13T12:43:54.000Z</time>
      </trkpt>
      <trkpt lat="47.22012" lon="2.91761">
        <ele>176.38119506836</ele>
        <time>2016-04-13T12:43:56.000Z</time>
      </trkpt>
      <trkpt lat="47.22014" lon="2.91759">
        <ele>176.33389282227</ele>
        <time>2016-04-13T12:43:59.000Z</time>
      </trkpt>
      <trkpt lat="47.22017" lon="2.91757">
        <ele>176.2845916748</ele>
        <time>2016-04-13T12:44:02.000Z</time>
      </trkpt>
      <trkpt lat="47.2202" lon="2.91755">
        <ele>176.23391723633</ele>
        <time>2016-04-13T12:44:05.000Z</time>
      </trkpt>
      <trkpt lat="47.22023" lon="2.91752">
        <ele>176.17794799805</ele>
        <time>2016-04-13T12:44:08.000Z</time>
      </trkpt>
      <trkpt lat="47.22025" lon="2.9175">
        <ele>176.12005615234</ele>
        <time>2016-04-13T12:44:10.000Z</time>
      </trkpt>
      <trkpt lat="47.22028" lon="2.91747">
        <ele>176.06965637207</ele>
        <time>2016-04-13T12:44:13.000Z</time>
      </trkpt>
      <trkpt lat="47.22031" lon="2.91745">
        <ele>176.02975463867</ele>
        <time>2016-04-13T12:44:16.000Z</time>
      </trkpt>
      <trkpt lat="47.22033" lon="2.91742">
        <ele>176.00025939941</ele>
        <time>2016-04-13T12:44:18.000Z</time>
      </trkpt>
      <trkpt lat="47.22035" lon="2.91739">
        <ele>175.9856262207</ele>
        <time>2016-04-13T12:44:21.000Z</time>
      </trkpt>
      <trkpt lat="47.22037" lon="2.91737">
        <ele>175.98234558105</ele>
        <time>2016-04-13T12:44:23.000Z</time>
      </trkpt>
      <trkpt lat="47.22038" lon="2.91736">
        <ele>175.98176574707</ele>
        <time>2016-04-13T12:44:25.000Z</time>
      </trkpt>
      <trkpt lat="47.22041" lon="2.91733">
        <ele>175.9846496582</ele>
        <time>2016-04-13T12:44:28.000Z</time>
      </trkpt>
      <trkpt lat="47.22042" lon="2.91732">
        <ele>175.98948669434</ele>
        <time>2016-04-13T12:44:30.000Z</time>
      </trkpt>
      <trkpt lat="47.22043" lon="2.91731">
        <ele>175.99475097656</ele>
        <time>2016-04-13T12:44:32.000Z</time>
      </trkpt>
      <trkpt lat="47.22046" lon="2.91728">
        <ele>176.00410461426</ele>
        <time>2016-04-13T12:44:35.000Z</time>
      </trkpt>
      <trkpt lat="47.22048" lon="2.91726">
        <ele>176.01626586914</ele>
        <time>2016-04-13T12:44:37.000Z</time>
      </trkpt>
      <trkpt lat="47.2205" lon="2.91724">
        <ele>176.02857971191</ele>
        <time>2016-04-13T12:44:40.000Z</time>
      </trkpt>
      <trkpt lat="47.22051" lon="2.91722">
        <ele>176.04251098633</ele>
        <time>2016-04-13T12:44:43.000Z</time>
      </trkpt>
      <trkpt lat="47.22053" lon="2.91721">
        <ele>176.06025695801</ele>
        <time>2016-04-13T12:44:45.000Z</time>
      </trkpt>
      <trkpt lat="47.22056" lon="2.91718">
        <ele>176.07998657227</ele>
        <time>2016-04-13T12:44:48.000Z</time>
      </trkpt>
      <trkpt lat="47.22058" lon="2.91717">
        <ele>176.10177612305</ele>
        <time>2016-04-13T12:44:50.000Z</time>
      </trkpt>
      <trkpt lat="47.22062" lon="2.91715">
        <ele>176.13130187988</ele>
        <time>2016-04-13T12:44:53.000Z</time>
      </trkpt>
      <trkpt lat="47.22065" lon="2.91714">
        <ele>176.16488647461</ele>
        <time>2016-04-13T12:44:55.000Z</time>
      </trkpt>
      <trkpt lat="47.22068" lon="2.91712">
        <ele>176.20277404785</ele>
        <time>2016-04-13T12:44:58.000Z</time>
      </trkpt>
      <trkpt lat="47.2207" lon="2.91711">
        <ele>176.23934936523</ele>
        <time>2016-04-13T12:45:00.000Z</time>
      </trkpt>
      <trkpt lat="47.22072" lon="2.9171">
        <ele>176.27751159668</ele>
        <time>2016-04-13T12:45:03.000Z</time>
      </trkpt>
      <trkpt lat="47.22075" lon="2.91708">
        <ele>176.31831359863</ele>
        <time>2016-04-13T12:45:06.000Z</time>
      </trkpt>
      <trkpt lat="47.22078" lon="2.91706">
        <ele>176.36250305176</ele>
        <time>2016-04-13T12:45:10.000Z</time>
      </trkpt>
      <trkpt lat="47.2208" lon="2.91704">
        <ele>176.40835571289</ele>
        <time>2016-04-13T12:45:12.000Z</time>
      </trkpt>
      <trkpt lat="47.22082" lon="2.91702">
        <ele>176.45832824707</ele>
        <time>2016-04-13T12:45:16.000Z</time>
      </trkpt>
      <trkpt lat="47.22084" lon="2.917">
        <ele>176.51202392578</ele>
        <time>2016-04-13T12:45:17.000Z</time>
      </trkpt>
      <trkpt lat="47.22087" lon="2.91698">
        <ele>176.56958007812</ele>
        <time>2016-04-13T12:45:19.000Z</time>
      </trkpt>
      <trkpt lat="47.22089" lon="2.91694">
        <ele>176.64057922363</ele>
        <time>2016-04-13T12:45:22.000Z</time>
      </trkpt>
      <trkpt lat="47.22091" lon="2.91693">
        <ele>176.71224975586</ele>
        <time>2016-04-13T12:45:24.000Z</time>
      </trkpt>
      <trkpt lat="47.22095" lon="2.91689">
        <ele>176.80279541016</ele>
        <time>2016-04-13T12:45:27.000Z</time>
      </trkpt>
      <trkpt lat="47.22098" lon="2.91687">
        <ele>176.90106201172</ele>
        <time>2016-04-13T12:45:30.000Z</time>
      </trkpt>
      <trkpt lat="47.22101" lon="2.91685">
        <ele>177.0029296875</ele>
        <time>2016-04-13T12:45:33.000Z</time>
      </trkpt>
      <trkpt lat="47.22103" lon="2.91684">
        <ele>177.09332275391</ele>
        <time>2016-04-13T12:45:35.000Z</time>
      </trkpt>
      <trkpt lat="47.22107" lon="2.91682">
        <ele>177.19635009766</ele>
        <time>2016-04-13T12:45:38.000Z</time>
      </trkpt>
      <trkpt lat="47.2211" lon="2.91681">
        <ele>177.28778076172</ele>
        <time>2016-04-13T12:45:41.000Z</time>
      </trkpt>
      <trkpt lat="47.22113" lon="2.9168">
        <ele>177.37786865234</ele>
        <time>2016-04-13T12:45:43.000Z</time>
      </trkpt>
      <trkpt lat="47.22116" lon="2.91677">
        <ele>177.46752929688</ele>
        <time>2016-04-13T12:45:45.000Z</time>
      </trkpt>
      <trkpt lat="47.2212" lon="2.91674">
        <ele>177.57080078125</ele>
        <time>2016-04-13T12:45:48.000Z</time>
      </trkpt>
      <trkpt lat="47.22123" lon="2.91672">
        <ele>177.66833496094</ele>
        <time>2016-04-13T12:45:51.000Z</time>
      </trkpt>
      <trkpt lat="47.22125" lon="2.91669">
        <ele>177.76678466797</ele>
        <time>2016-04-13T12:45:54.000Z</time>
      </trkpt>
      <trkpt lat="47.22126" lon="2.91667">
        <ele>177.86102294922</ele>
        <time>2016-04-13T12:45:56.000Z</time>
      </trkpt>
      <trkpt lat="47.22129" lon="2.91665">
        <ele>177.95147705078</ele>
        <time>2016-04-13T12:45:58.000Z</time>
      </trkpt>
      <trkpt lat="47.22131" lon="2.91662">
        <ele>178.03483581543</ele>
        <time>2016-04-13T12:46:00.000Z</time>
      </trkpt>
      <trkpt lat="47.22134" lon="2.91657">
        <ele>178.11965942383</ele>
        <time>2016-04-13T12:46:03.000Z</time>
      </trkpt>
      <trkpt lat="47.22137" lon="2.91654">
        <ele>178.20474243164</ele>
        <time>2016-04-13T12:46:06.000Z</time>
      </trkpt>
      <trkpt lat="47.22138" lon="2.91652">
        <ele>178.28684997559</ele>
        <time>2016-04-13T12:46:08.000Z</time>
      </trkpt>
      <trkpt lat="47.22141" lon="2.91649">
        <ele>178.36824035645</ele>
        <time>2016-04-13T12:46:11.000Z</time>
      </trkpt>
      <trkpt lat="47.22144" lon="2.91648">
        <ele>178.44186401367</ele>
        <time>2016-04-13T12:46:13.000Z</time>
      </trkpt>
      <trkpt lat="47.22147" lon="2.91646">
        <ele>178.5108795166</ele>
        <time>2016-04-13T12:46:17.000Z</time>
      </trkpt>
      <trkpt lat="47.2215" lon="2.91644">
        <ele>178.57406616211</ele>
        <time>2016-04-13T12:46:18.000Z</time>
      </trkpt>
      <trkpt lat="47.22153" lon="2.91642">
        <ele>178.63896179199</ele>
        <time>2016-04-13T12:46:20.000Z</time>
      </trkpt>
      <trkpt lat="47.22157" lon="2.91638">
        <ele>178.70407104492</ele>
        <time>2016-04-13T12:46:23.000Z</time>
      </trkpt>
      <trkpt lat="47.22158" lon="2.91635">
        <ele>178.76608276367</ele>
        <time>2016-04-13T12:46:26.000Z</time>
      </trkpt>
      <trkpt lat="47.22162" lon="2.91631">
        <ele>178.82415771484</ele>
        <time>2016-04-13T12:46:29.000Z</time>
      </trkpt>
      <trkpt lat="47.22163" lon="2.9163">
        <ele>178.87466430664</ele>
        <time>2016-04-13T12:46:31.000Z</time>
      </trkpt>
      <trkpt lat="47.22165" lon="2.91629">
        <ele>178.91812133789</ele>
        <time>2016-04-13T12:46:34.000Z</time>
      </trkpt>
      <trkpt lat="47.22169" lon="2.91625">
        <ele>178.94760131836</ele>
        <time>2016-04-13T12:46:36.000Z</time>
      </trkpt>
      <trkpt lat="47.2217" lon="2.91625">
        <ele>178.96708679199</ele>
        <time>2016-04-13T12:46:38.000Z</time>
      </trkpt>
      <trkpt lat="47.22172" lon="2.91622">
        <ele>178.97348022461</ele>
        <time>2016-04-13T12:46:41.000Z</time>
      </trkpt>
      <trkpt lat="47.22175" lon="2.9162">
        <ele>178.97035217285</ele>
        <time>2016-04-13T12:46:44.000Z</time>
      </trkpt>
      <trkpt lat="47.22178" lon="2.91616">
        <ele>178.95761108398</ele>
        <time>2016-04-13T12:46:47.000Z</time>
      </trkpt>
      <trkpt lat="47.22181" lon="2.91614">
        <ele>178.93785095215</ele>
        <time>2016-04-13T12:46:50.000Z</time>
      </trkpt>
      <trkpt lat="47.22183" lon="2.91613">
        <ele>178.9164276123</ele>
        <time>2016-04-13T12:46:52.000Z</time>
      </trkpt>
      <trkpt lat="47.22187" lon="2.91611">
        <ele>178.89096069336</ele>
        <time>2016-04-13T12:46:55.000Z</time>
      </trkpt>
      <trkpt lat="47.22189" lon="2.91608">
        <ele>178.86489868164</ele>
        <time>2016-04-13T12:46:57.000Z</time>
      </trkpt>
      <trkpt lat="47.22191" lon="2.91606">
        <ele>178.83901977539</ele>
        <time>2016-04-13T12:46:59.000Z</time>
      </trkpt>
      <trkpt lat="47.22194" lon="2.91604">
        <ele>178.81210327148</ele>
        <time>2016-04-13T12:47:02.000Z</time>
      </trkpt>
      <trkpt lat="47.22196" lon="2.91603">
        <ele>178.78469848633</ele>
        <time>2016-04-13T12:47:04.000Z</time>
      </trkpt>
      <trkpt lat="47.22199" lon="2.91601">
        <ele>178.75514221191</ele>
        <time>2016-04-13T12:47:07.000Z</time>
      </trkpt>
      <trkpt lat="47.22202" lon="2.91598">
        <ele>178.7229309082</ele>
        <time>2016-04-13T12:47:10.000Z</time>
      </trkpt>
      <trkpt lat="47.22206" lon="2.91596">
        <ele>178.68537902832</ele>
        <time>2016-04-13T12:47:13.000Z</time>
      </trkpt>
      <trkpt lat="47.22209" lon="2.91593">
        <ele>178.64495849609</ele>
        <time>2016-04-13T12:47:16.000Z</time>
      </trkpt>
      <trkpt lat="47.22213" lon="2.9159">
        <ele>178.5964050293</ele>
        <time>2016-04-13T12:47:19.000Z</time>
      </trkpt>
      <trkpt lat="47.22215" lon="2.91588">
        <ele>178.54983520508</ele>
        <time>2016-04-13T12:47:21.000Z</time>
      </trkpt>
      <trkpt lat="47.22218" lon="2.91585">
        <ele>178.49934387207</ele>
        <time>2016-04-13T12:47:24.000Z</time>
      </trkpt>
      <trkpt lat="47.22221" lon="2.91583">
        <ele>178.44924926758</ele>
        <time>2016-04-13T12:47:27.000Z</time>
      </trkpt>
      <trkpt lat="47.22224" lon="2.9158">
        <ele>178.40745544434</ele>
        <time>2016-04-13T12:47:30.000Z</time>
      </trkpt>
      <trkpt lat="47.22226" lon="2.91579">
        <ele>178.37861633301</ele>
        <time>2016-04-13T12:47:32.000Z</time>
      </trkpt>
      <trkpt lat="47.22229" lon="2.91576">
        <ele>178.35615539551</ele>
        <time>2016-04-13T12:47:35.000Z</time>
      </trkpt>
      <trkpt lat="47.22232" lon="2.91573">
        <ele>178.34515380859</ele>
        <time>2016-04-13T12:47:38.000Z</time>
      </trkpt>
      <trkpt lat="47.22235" lon="2.9157">
        <ele>178.34399414062</ele>
        <time>2016-04-13T12:47:41.000Z</time>
      </trkpt>
      <trkpt lat="47.22238" lon="2.91566">
        <ele>178.34521484375</ele>
        <time>2016-04-13T12:47:44.000Z</time>
      </trkpt>
      <trkpt lat="47.2224" lon="2.91565">
        <ele>178.34344482422</ele>
        <time>2016-04-13T12:47:46.000Z</time>
      </trkpt>
      <trkpt lat="47.22243" lon="2.91563">
        <ele>178.33923339844</ele>
        <time>2016-04-13T12:47:48.000Z</time>
      </trkpt>
      <trkpt lat="47.22247" lon="2.91561">
        <ele>178.33172607422</ele>
        <time>2016-04-13T12:47:52.000Z</time>
      </trkpt>
      <trkpt lat="47.22248" lon="2.91559">
        <ele>178.32421875</ele>
        <time>2016-04-13T12:47:53.000Z</time>
      </trkpt>
      <trkpt lat="47.2225" lon="2.91558">
        <ele>178.31517028809</ele>
        <time>2016-04-13T12:47:55.000Z</time>
      </trkpt>
      <trkpt lat="47.22252" lon="2.91556">
        <ele>178.31637573242</ele>
        <time>2016-04-13T12:47:57.000Z</time>
      </trkpt>
      <trkpt lat="47.22255" lon="2.91554">
        <ele>178.3307800293</ele>
        <time>2016-04-13T12:48:00.000Z</time>
      </trkpt>
      <trkpt lat="47.22258" lon="2.9155">
        <ele>178.36099243164</ele>
        <time>2016-04-13T12:48:03.000Z</time>
      </trkpt>
      <trkpt lat="47.2226" lon="2.91548">
        <ele>178.39726257324</ele>
        <time>2016-04-13T12:48:05.000Z</time>
      </trkpt>
      <trkpt lat="47.22262" lon="2.91544">
        <ele>178.4458770752</ele>
        <time>2016-04-13T12:48:08.000Z</time>
      </trkpt>
      <trkpt lat="47.22266" lon="2.91541">
        <ele>178.49667358398</ele>
        <time>2016-04-13T12:48:11.000Z</time>
      </trkpt>
      <trkpt lat="47.22267" lon="2.9154">
        <ele>178.54200744629</ele>
        <time>2016-04-13T12:48:13.000Z</time>
      </trkpt>
      <trkpt lat="47.22271" lon="2.91536">
        <ele>178.58633422852</ele>
        <time>2016-04-13T12:48:16.000Z</time>
      </trkpt>
      <trkpt lat="47.22273" lon="2.91534">
        <ele>178.63011169434</ele>
        <time>2016-04-13T12:48:19.000Z</time>
      </trkpt>
      <trkpt lat="47.22276" lon="2.91533">
        <ele>178.66592407227</ele>
        <time>2016-04-13T12:48:21.000Z</time>
      </trkpt>
      <trkpt lat="47.22279" lon="2.91531">
        <ele>178.69827270508</ele>
        <time>2016-04-13T12:48:24.000Z</time>
      </trkpt>
      <trkpt lat="47.22281" lon="2.9153">
        <ele>178.72798156738</ele>
        <time>2016-04-13T12:48:26.000Z</time>
      </trkpt>
      <trkpt lat="47.22284" lon="2.91529">
        <ele>178.7508392334</ele>
        <time>2016-04-13T12:48:29.000Z</time>
      </trkpt>
      <trkpt lat="47.22286" lon="2.91527">
        <ele>178.77255249023</ele>
        <time>2016-04-13T12:48:31.000Z</time>
      </trkpt>
      <trkpt lat="47.22289" lon="2.91525">
        <ele>178.79553222656</ele>
        <time>2016-04-13T12:48:34.000Z</time>
      </trkpt>
      <trkpt lat="47.22291" lon="2.91525">
        <ele>178.81396484375</ele>
        <time>2016-04-13T12:48:36.000Z</time>
      </trkpt>
      <trkpt lat="47.22294" lon="2.91523">
        <ele>178.83306884766</ele>
        <time>2016-04-13T12:48:40.000Z</time>
      </trkpt>
      <trkpt lat="47.22296" lon="2.91522">
        <ele>178.85092163086</ele>
        <time>2016-04-13T12:48:41.000Z</time>
      </trkpt>
      <trkpt lat="47.223" lon="2.91521">
        <ele>178.86743164062</ele>
        <time>2016-04-13T12:48:44.000Z</time>
      </trkpt>
      <trkpt lat="47.22303" lon="2.91519">
        <ele>178.88261413574</ele>
        <time>2016-04-13T12:48:47.000Z</time>
      </trkpt>
      <trkpt lat="47.22305" lon="2.91517">
        <ele>178.89863586426</ele>
        <time>2016-04-13T12:48:49.000Z</time>
      </trkpt>
      <trkpt lat="47.22309" lon="2.91516">
        <ele>178.9140625</ele>
        <time>2016-04-13T12:48:52.000Z</time>
      </trkpt>
      <trkpt lat="47.22312" lon="2.91515">
        <ele>178.92858886719</ele>
        <time>2016-04-13T12:48:55.000Z</time>
      </trkpt>
      <trkpt lat="47.22314" lon="2.91515">
        <ele>178.94082641602</ele>
        <time>2016-04-13T12:48:57.000Z</time>
      </trkpt>
      <trkpt lat="47.22317" lon="2.91513">
        <ele>178.95129394531</ele>
        <time>2016-04-13T12:49:02.000Z</time>
      </trkpt>
      <trkpt lat="47.22319" lon="2.91512">
        <ele>178.96028137207</ele>
        <time>2016-04-13T12:49:04.000Z</time>
      </trkpt>
      <trkpt lat="47.22322" lon="2.91511">
        <ele>178.96774291992</ele>
        <time>2016-04-13T12:49:06.000Z</time>
      </trkpt>
      <trkpt lat="47.22323" lon="2.91511">
        <ele>178.97383117676</ele>
        <time>2016-04-13T12:49:08.000Z</time>
      </trkpt>
      <trkpt lat="47.22324" lon="2.9151">
        <ele>178.9796295166</ele>
        <time>2016-04-13T12:49:10.000Z</time>
      </trkpt>
      <trkpt lat="47.22328" lon="2.91509">
        <ele>178.98446655273</ele>
        <time>2016-04-13T12:49:13.000Z</time>
      </trkpt>
      <trkpt lat="47.2233" lon="2.91508">
        <ele>178.98849487305</ele>
        <time>2016-04-13T12:49:15.000Z</time>
      </trkpt>
      <trkpt lat="47.22332" lon="2.91508">
        <ele>178.99174499512</ele>
        <time>2016-04-13T12:49:17.000Z</time>
      </trkpt>
      <trkpt lat="47.22334" lon="2.91508">
        <ele>178.99702453613</ele>
        <time>2016-04-13T12:49:20.000Z</time>
      </trkpt>
      <trkpt lat="47.22336" lon="2.91507">
        <ele>179.00679016113</ele>
        <time>2016-04-13T12:49:22.000Z</time>
      </trkpt>
      <trkpt lat="47.22339" lon="2.91505">
        <ele>179.02592468262</ele>
        <time>2016-04-13T12:49:25.000Z</time>
      </trkpt>
      <trkpt lat="47.22343" lon="2.91503">
        <ele>179.05311584473</ele>
        <time>2016-04-13T12:49:28.000Z</time>
      </trkpt>
      <trkpt lat="47.22345" lon="2.91502">
        <ele>179.08364868164</ele>
        <time>2016-04-13T12:49:30.000Z</time>
      </trkpt>
      <trkpt lat="47.22348" lon="2.915">
        <ele>179.1174621582</ele>
        <time>2016-04-13T12:49:33.000Z</time>
      </trkpt>
      <trkpt lat="47.22352" lon="2.91497">
        <ele>179.14677429199</ele>
        <time>2016-04-13T12:49:36.000Z</time>
      </trkpt>
      <trkpt lat="47.22355" lon="2.91495">
        <ele>179.16528320312</ele>
        <time>2016-04-13T12:49:39.000Z</time>
      </trkpt>
      <trkpt lat="47.22358" lon="2.91494">
        <ele>179.17752075195</ele>
        <time>2016-04-13T12:49:41.000Z</time>
      </trkpt>
      <trkpt lat="47.22361" lon="2.91491">
        <ele>179.18530273438</ele>
        <time>2016-04-13T12:49:44.000Z</time>
      </trkpt>
      <trkpt lat="47.22364" lon="2.9149">
        <ele>179.1921081543</ele>
        <time>2016-04-13T12:49:47.000Z</time>
      </trkpt>
      <trkpt lat="47.22366" lon="2.9149">
        <ele>179.20014953613</ele>
        <time>2016-04-13T12:49:49.000Z</time>
      </trkpt>
      <trkpt lat="47.22369" lon="2.91488">
        <ele>179.21063232422</ele>
        <time>2016-04-13T12:49:52.000Z</time>
      </trkpt>
      <trkpt lat="47.22372" lon="2.91487">
        <ele>179.21896362305</ele>
        <time>2016-04-13T12:49:55.000Z</time>
      </trkpt>
      <trkpt lat="47.22375" lon="2.91486">
        <ele>179.23037719727</ele>
        <time>2016-04-13T12:49:57.000Z</time>
      </trkpt>
      <trkpt lat="47.22377" lon="2.91485">
        <ele>179.2396697998</ele>
        <time>2016-04-13T12:49:59.000Z</time>
      </trkpt>
      <trkpt lat="47.22382" lon="2.91484">
        <ele>179.2495880127</ele>
        <time>2016-04-13T12:50:02.000Z</time>
      </trkpt>
      <trkpt lat="47.22385" lon="2.91483">
        <ele>179.26022338867</ele>
        <time>2016-04-13T12:50:04.000Z</time>
      </trkpt>
      <trkpt lat="47.22387" lon="2.91484">
        <ele>179.27786254883</ele>
        <time>2016-04-13T12:50:06.000Z</time>
      </trkpt>
      <trkpt lat="47.2239" lon="2.91484">
        <ele>179.30108642578</ele>
        <time>2016-04-13T12:50:08.000Z</time>
      </trkpt>
      <trkpt lat="47.22392" lon="2.91485">
        <ele>179.32878112793</ele>
        <time>2016-04-13T12:50:10.000Z</time>
      </trkpt>
      <trkpt lat="47.22396" lon="2.91486">
        <ele>179.36465454102</ele>
        <time>2016-04-13T12:50:13.000Z</time>
      </trkpt>
      <trkpt lat="47.22397" lon="2.91485">
        <ele>179.39828491211</ele>
        <time>2016-04-13T12:50:16.000Z</time>
      </trkpt>
      <trkpt lat="47.224" lon="2.91485">
        <ele>179.42788696289</ele>
        <time>2016-04-13T12:50:19.000Z</time>
      </trkpt>
      <trkpt lat="47.22403" lon="2.91484">
        <ele>179.45162963867</ele>
        <time>2016-04-13T12:50:22.000Z</time>
      </trkpt>
      <trkpt lat="47.22408" lon="2.91483">
        <ele>179.47428894043</ele>
        <time>2016-04-13T12:50:25.000Z</time>
      </trkpt>
      <trkpt lat="47.22411" lon="2.91481">
        <ele>179.48440551758</ele>
        <time>2016-04-13T12:50:28.000Z</time>
      </trkpt>
      <trkpt lat="47.22414" lon="2.9148">
        <ele>179.49382019043</ele>
        <time>2016-04-13T12:50:31.000Z</time>
      </trkpt>
      <trkpt lat="47.22416" lon="2.91479">
        <ele>179.49923706055</ele>
        <time>2016-04-13T12:50:33.000Z</time>
      </trkpt>
      <trkpt lat="47.22419" lon="2.91479">
        <ele>179.52626037598</ele>
        <time>2016-04-13T12:50:35.000Z</time>
      </trkpt>
      <trkpt lat="47.22423" lon="2.91478">
        <ele>179.58325195312</ele>
        <time>2016-04-13T12:50:38.000Z</time>
      </trkpt>
      <trkpt lat="47.22426" lon="2.91478">
        <ele>179.67765808105</ele>
        <time>2016-04-13T12:50:40.000Z</time>
      </trkpt>
      <trkpt lat="47.22429" lon="2.91478">
        <ele>179.79591369629</ele>
        <time>2016-04-13T12:50:42.000Z</time>
      </trkpt>
      <trkpt lat="47.22431" lon="2.91477">
        <ele>179.93928527832</ele>
        <time>2016-04-13T12:50:45.000Z</time>
      </trkpt>
      <trkpt lat="47.22433" lon="2.91476">
        <ele>180.07443237305</ele>
        <time>2016-04-13T12:50:47.000Z</time>
      </trkpt>
      <trkpt lat="47.22436" lon="2.91474">
        <ele>180.1930847168</ele>
        <time>2016-04-13T12:50:49.000Z</time>
      </trkpt>
      <trkpt lat="47.22439" lon="2.91473">
        <ele>180.3021697998</ele>
        <time>2016-04-13T12:50:52.000Z</time>
      </trkpt>
      <trkpt lat="47.22443" lon="2.91472">
        <ele>180.42269897461</ele>
        <time>2016-04-13T12:50:55.000Z</time>
      </trkpt>
      <trkpt lat="47.22445" lon="2.91471">
        <ele>180.53164672852</ele>
        <time>2016-04-13T12:50:57.000Z</time>
      </trkpt>
      <trkpt lat="47.22447" lon="2.91471">
        <ele>180.64535522461</ele>
        <time>2016-04-13T12:51:00.000Z</time>
      </trkpt>
      <trkpt lat="47.2245" lon="2.91469">
        <ele>180.76000976562</ele>
        <time>2016-04-13T12:51:03.000Z</time>
      </trkpt>
      <trkpt lat="47.22452" lon="2.91467">
        <ele>180.85438537598</ele>
        <time>2016-04-13T12:51:05.000Z</time>
      </trkpt>
      <trkpt lat="47.22455" lon="2.91464">
        <ele>180.92813110352</ele>
        <time>2016-04-13T12:51:08.000Z</time>
      </trkpt>
      <trkpt lat="47.22458" lon="2.91462">
        <ele>181.00326538086</ele>
        <time>2016-04-13T12:51:10.000Z</time>
      </trkpt>
      <trkpt lat="47.2246" lon="2.91461">
        <ele>181.07022094727</ele>
        <time>2016-04-13T12:51:12.000Z</time>
      </trkpt>
      <trkpt lat="47.22463" lon="2.91459">
        <ele>181.1333770752</ele>
        <time>2016-04-13T12:51:15.000Z</time>
      </trkpt>
      <trkpt lat="47.22466" lon="2.91458">
        <ele>181.20303344727</ele>
        <time>2016-04-13T12:51:17.000Z</time>
      </trkpt>
      <trkpt lat="47.22469" lon="2.91455">
        <ele>181.26309204102</ele>
        <time>2016-04-13T12:51:20.000Z</time>
      </trkpt>
      <trkpt lat="47.22472" lon="2.91453">
        <ele>181.31784057617</ele>
        <time>2016-04-13T12:51:23.000Z</time>
      </trkpt>
      <trkpt lat="47.22476" lon="2.9145">
        <ele>181.37930297852</ele>
        <time>2016-04-13T12:51:26.000Z</time>
      </trkpt>
      <trkpt lat="47.2248" lon="2.91447">
        <ele>181.43295288086</ele>
        <time>2016-04-13T12:51:30.000Z</time>
      </trkpt>
      <trkpt lat="47.22482" lon="2.91445">
        <ele>181.47357177734</ele>
        <time>2016-04-13T12:51:31.000Z</time>
      </trkpt>
      <trkpt lat="47.22485" lon="2.91443">
        <ele>181.52629089355</ele>
        <time>2016-04-13T12:51:34.000Z</time>
      </trkpt>
      <trkpt lat="47.22487" lon="2.91442">
        <ele>181.57363891602</ele>
        <time>2016-04-13T12:51:36.000Z</time>
      </trkpt>
      <trkpt lat="47.22488" lon="2.9144">
        <ele>181.59854125977</ele>
        <time>2016-04-13T12:51:38.000Z</time>
      </trkpt>
      <trkpt lat="47.22492" lon="2.91437">
        <ele>181.61212158203</ele>
        <time>2016-04-13T12:51:41.000Z</time>
      </trkpt>
      <trkpt lat="47.22494" lon="2.91433">
        <ele>181.61254882812</ele>
        <time>2016-04-13T12:51:44.000Z</time>
      </trkpt>
      <trkpt lat="47.22496" lon="2.91428">
        <ele>181.56498718262</ele>
        <time>2016-04-13T12:51:47.000Z</time>
      </trkpt>
      <trkpt lat="47.22499" lon="2.91426">
        <ele>181.51173400879</ele>
        <time>2016-04-13T12:51:50.000Z</time>
      </trkpt>
      <trkpt lat="47.22503" lon="2.91422">
        <ele>181.44830322266</ele>
        <time>2016-04-13T12:51:53.000Z</time>
      </trkpt>
      <trkpt lat="47.22504" lon="2.9142">
        <ele>181.38204956055</ele>
        <time>2016-04-13T12:51:55.000Z</time>
      </trkpt>
      <trkpt lat="47.22508" lon="2.91417">
        <ele>181.31648254395</ele>
        <time>2016-04-13T12:51:58.000Z</time>
      </trkpt>
      <trkpt lat="47.22511" lon="2.91415">
        <ele>181.28453063965</ele>
        <time>2016-04-13T12:52:00.000Z</time>
      </trkpt>
      <trkpt lat="47.22513" lon="2.91413">
        <ele>181.25588989258</ele>
        <time>2016-04-13T12:52:02.000Z</time>
      </trkpt>
      <trkpt lat="47.22515" lon="2.91411">
        <ele>181.24404907227</ele>
        <time>2016-04-13T12:52:05.000Z</time>
      </trkpt>
      <trkpt lat="47.22518" lon="2.91408">
        <ele>181.23765563965</ele>
        <time>2016-04-13T12:52:08.000Z</time>
      </trkpt>
      <trkpt lat="47.22519" lon="2.91406">
        <ele>181.24130249023</ele>
        <time>2016-04-13T12:52:10.000Z</time>
      </trkpt>
      <trkpt lat="47.22522" lon="2.91404">
        <ele>181.24839782715</ele>
        <time>2016-04-13T12:52:13.000Z</time>
      </trkpt>
      <trkpt lat="47.22523" lon="2.91402">
        <ele>181.25392150879</ele>
        <time>2016-04-13T12:52:15.000Z</time>
      </trkpt>
      <trkpt lat="47.22526" lon="2.91399">
        <ele>181.25643920898</ele>
        <time>2016-04-13T12:52:17.000Z</time>
      </trkpt>
      <trkpt lat="47.22529" lon="2.91396">
        <ele>181.26164245605</ele>
        <time>2016-04-13T12:52:20.000Z</time>
      </trkpt>
      <trkpt lat="47.2253" lon="2.91393">
        <ele>181.26608276367</ele>
        <time>2016-04-13T12:52:23.000Z</time>
      </trkpt>
      <trkpt lat="47.22531" lon="2.91392">
        <ele>181.2629699707</ele>
        <time>2016-04-13T12:52:25.000Z</time>
      </trkpt>
      <trkpt lat="47.22532" lon="2.9139">
        <ele>181.26078796387</ele>
        <time>2016-04-13T12:52:27.000Z</time>
      </trkpt>
      <trkpt lat="47.22534" lon="2.91388">
        <ele>181.26249694824</ele>
        <time>2016-04-13T12:52:30.000Z</time>
      </trkpt>
      <trkpt lat="47.22536" lon="2.91386">
        <ele>181.26229858398</ele>
        <time>2016-04-13T12:52:32.000Z</time>
      </trkpt>
      <trkpt lat="47.22538" lon="2.91383">
        <ele>181.26545715332</ele>
        <time>2016-04-13T12:52:34.000Z</time>
      </trkpt>
      <trkpt lat="47.2254" lon="2.91379">
        <ele>181.26623535156</ele>
        <time>2016-04-13T12:52:37.000Z</time>
      </trkpt>
      <trkpt lat="47.22542" lon="2.91375">
        <ele>181.26564025879</ele>
        <time>2016-04-13T12:52:40.000Z</time>
      </trkpt>
      <trkpt lat="47.22544" lon="2.91372">
        <ele>181.26005554199</ele>
        <time>2016-04-13T12:52:43.000Z</time>
      </trkpt>
      <trkpt lat="47.22545" lon="2.91369">
        <ele>181.25332641602</ele>
        <time>2016-04-13T12:52:45.000Z</time>
      </trkpt>
      <trkpt lat="47.22548" lon="2.91366">
        <ele>181.25692749023</ele>
        <time>2016-04-13T12:52:48.000Z</time>
      </trkpt>
      <trkpt lat="47.2255" lon="2.91364">
        <ele>181.26770019531</ele>
        <time>2016-04-13T12:52:50.000Z</time>
      </trkpt>
      <trkpt lat="47.22552" lon="2.91363">
        <ele>181.29309082031</ele>
        <time>2016-04-13T12:52:53.000Z</time>
      </trkpt>
      <trkpt lat="47.22554" lon="2.91361">
        <ele>181.32583618164</ele>
        <time>2016-04-13T12:52:55.000Z</time>
      </trkpt>
      <trkpt lat="47.22556" lon="2.91359">
        <ele>181.36401367188</ele>
        <time>2016-04-13T12:52:57.000Z</time>
      </trkpt>
      <trkpt lat="47.2256" lon="2.91356">
        <ele>181.40925598145</ele>
        <time>2016-04-13T12:53:00.000Z</time>
      </trkpt>
      <trkpt lat="47.22562" lon="2.91354">
        <ele>181.45561218262</ele>
        <time>2016-04-13T12:53:02.000Z</time>
      </trkpt>
      <trkpt lat="47.22565" lon="2.91352">
        <ele>181.50491333008</ele>
        <time>2016-04-13T12:53:06.000Z</time>
      </trkpt>
      <trkpt lat="47.22568" lon="2.9135">
        <ele>181.56079101562</ele>
        <time>2016-04-13T12:53:07.000Z</time>
      </trkpt>
      <trkpt lat="47.22571" lon="2.91348">
        <ele>181.62413024902</ele>
        <time>2016-04-13T12:53:10.000Z</time>
      </trkpt>
      <trkpt lat="47.22573" lon="2.91347">
        <ele>181.68537902832</ele>
        <time>2016-04-13T12:53:12.000Z</time>
      </trkpt>
      <trkpt lat="47.22575" lon="2.91346">
        <ele>181.75305175781</ele>
        <time>2016-04-13T12:53:15.000Z</time>
      </trkpt>
      <trkpt lat="47.22577" lon="2.91345">
        <ele>181.81301879883</ele>
        <time>2016-04-13T12:53:17.000Z</time>
      </trkpt>
      <trkpt lat="47.22579" lon="2.91343">
        <ele>181.87118530273</ele>
        <time>2016-04-13T12:53:19.000Z</time>
      </trkpt>
      <trkpt lat="47.22581" lon="2.9134">
        <ele>181.92008972168</ele>
        <time>2016-04-13T12:53:22.000Z</time>
      </trkpt>
      <trkpt lat="47.22583" lon="2.91336">
        <ele>181.96084594727</ele>
        <time>2016-04-13T12:53:25.000Z</time>
      </trkpt>
      <trkpt lat="47.22585" lon="2.91332">
        <ele>181.97848510742</ele>
        <time>2016-04-13T12:53:28.000Z</time>
      </trkpt>
      <trkpt lat="47.22587" lon="2.91327">
        <ele>181.95492553711</ele>
        <time>2016-04-13T12:53:31.000Z</time>
      </trkpt>
      <trkpt lat="47.22588" lon="2.91324">
        <ele>181.90051269531</ele>
        <time>2016-04-13T12:53:34.000Z</time>
      </trkpt>
      <trkpt lat="47.2259" lon="2.9132">
        <ele>181.8236541748</ele>
        <time>2016-04-13T12:53:37.000Z</time>
      </trkpt>
      <trkpt lat="47.22592" lon="2.91317">
        <ele>181.71765136719</ele>
        <time>2016-04-13T12:53:40.000Z</time>
      </trkpt>
      <trkpt lat="47.22593" lon="2.91312">
        <ele>181.59228515625</ele>
        <time>2016-04-13T12:53:42.000Z</time>
      </trkpt>
      <trkpt lat="47.22594" lon="2.91306">
        <ele>181.45904541016</ele>
        <time>2016-04-13T12:53:45.000Z</time>
      </trkpt>
      <trkpt lat="47.22596" lon="2.91301">
        <ele>181.31201171875</ele>
        <time>2016-04-13T12:53:48.000Z</time>
      </trkpt>
      <trkpt lat="47.22597" lon="2.91295">
        <ele>181.14788818359</ele>
        <time>2016-04-13T12:53:51.000Z</time>
      </trkpt>
      <trkpt lat="47.22598" lon="2.91289">
        <ele>180.96789550781</ele>
        <time>2016-04-13T12:53:54.000Z</time>
      </trkpt>
      <trkpt lat="47.22599" lon="2.91286">
        <ele>180.79907226562</ele>
        <time>2016-04-13T12:53:56.000Z</time>
      </trkpt>
      <trkpt lat="47.22601" lon="2.91281">
        <ele>180.63903808594</ele>
        <time>2016-04-13T12:53:59.000Z</time>
      </trkpt>
      <trkpt lat="47.22604" lon="2.91276">
        <ele>180.48388671875</ele>
        <time>2016-04-13T12:54:02.000Z</time>
      </trkpt>
      <trkpt lat="47.22606" lon="2.91274">
        <ele>180.35540771484</ele>
        <time>2016-04-13T12:54:04.000Z</time>
      </trkpt>
      <trkpt lat="47.22608" lon="2.91272">
        <ele>180.25238037109</ele>
        <time>2016-04-13T12:54:07.000Z</time>
      </trkpt>
      <trkpt lat="47.22612" lon="2.91269">
        <ele>180.15563964844</ele>
        <time>2016-04-13T12:54:10.000Z</time>
      </trkpt>
      <trkpt lat="47.22614" lon="2.91267">
        <ele>180.08349609375</ele>
        <time>2016-04-13T12:54:13.000Z</time>
      </trkpt>
      <trkpt lat="47.22617" lon="2.91265">
        <ele>180.03118896484</ele>
        <time>2016-04-13T12:54:15.000Z</time>
      </trkpt>
      <trkpt lat="47.2262" lon="2.91263">
        <ele>179.98449707031</ele>
        <time>2016-04-13T12:54:18.000Z</time>
      </trkpt>
      <trkpt lat="47.22622" lon="2.91262">
        <ele>179.94293212891</ele>
        <time>2016-04-13T12:54:20.000Z</time>
      </trkpt>
      <trkpt lat="47.22623" lon="2.91259">
        <ele>179.90155029297</ele>
        <time>2016-04-13T12:54:22.000Z</time>
      </trkpt>
      <trkpt lat="47.22625" lon="2.91256">
        <ele>179.84710693359</ele>
        <time>2016-04-13T12:54:25.000Z</time>
      </trkpt>
      <trkpt lat="47.22628" lon="2.91253">
        <ele>179.78619384766</ele>
        <time>2016-04-13T12:54:28.000Z</time>
      </trkpt>
      <trkpt lat="47.2263" lon="2.9125">
        <ele>179.71145629883</ele>
        <time>2016-04-13T12:54:31.000Z</time>
      </trkpt>
      <trkpt lat="47.22631" lon="2.91247">
        <ele>179.62832641602</ele>
        <time>2016-04-13T12:54:33.000Z</time>
      </trkpt>
      <trkpt lat="47.22635" lon="2.9124">
        <ele>179.52616882324</ele>
        <time>2016-04-13T12:54:36.000Z</time>
      </trkpt>
      <trkpt lat="47.22636" lon="2.91237">
        <ele>179.42475891113</ele>
        <time>2016-04-13T12:54:39.000Z</time>
      </trkpt>
      <trkpt lat="47.22637" lon="2.91234">
        <ele>179.32646179199</ele>
        <time>2016-04-13T12:54:41.000Z</time>
      </trkpt>
      <trkpt lat="47.22639" lon="2.91232">
        <ele>179.2353515625</ele>
        <time>2016-04-13T12:54:43.000Z</time>
      </trkpt>
      <trkpt lat="47.22641" lon="2.91228">
        <ele>179.14724731445</ele>
        <time>2016-04-13T12:54:46.000Z</time>
      </trkpt>
      <trkpt lat="47.22643" lon="2.91227">
        <ele>179.08700561523</ele>
        <time>2016-04-13T12:54:48.000Z</time>
      </trkpt>
      <trkpt lat="47.22646" lon="2.91224">
        <ele>179.04312133789</ele>
        <time>2016-04-13T12:54:51.000Z</time>
      </trkpt>
      <trkpt lat="47.22647" lon="2.91223">
        <ele>179.01138305664</ele>
        <time>2016-04-13T12:54:53.000Z</time>
      </trkpt>
      <trkpt lat="47.22649" lon="2.91222">
        <ele>178.9871673584</ele>
        <time>2016-04-13T12:54:55.000Z</time>
      </trkpt>
      <trkpt lat="47.22651" lon="2.9122">
        <ele>178.97567749023</ele>
        <time>2016-04-13T12:54:58.000Z</time>
      </trkpt>
      <trkpt lat="47.22654" lon="2.91218">
        <ele>178.96928405762</ele>
        <time>2016-04-13T12:55:01.000Z</time>
      </trkpt>
      <trkpt lat="47.22654" lon="2.91217">
        <ele>178.95726013184</ele>
        <time>2016-04-13T12:55:05.000Z</time>
      </trkpt>
      <trkpt lat="47.22654" lon="2.91215">
        <ele>178.9398651123</ele>
        <time>2016-04-13T12:55:10.000Z</time>
      </trkpt>
      <trkpt lat="47.22655" lon="2.91214">
        <ele>178.9201965332</ele>
        <time>2016-04-13T12:55:13.000Z</time>
      </trkpt>
      <trkpt lat="47.22655" lon="2.91214">
        <ele>178.9201965332</ele>
        <time>2016-04-13T12:55:34.000Z</time>
      </trkpt>
      <trkpt lat="47.22656" lon="2.91214">
        <ele>178.90780639648</ele>
        <time>2016-04-13T12:55:49.000Z</time>
      </trkpt>
      <trkpt lat="47.22656" lon="2.91214">
        <ele>178.90780639648</ele>
        <time>2016-04-13T12:56:09.000Z</time>
      </trkpt>
      <trkpt lat="47.22657" lon="2.91214">
        <ele>178.90031433105</ele>
        <time>2016-04-13T12:56:12.000Z</time>
      </trkpt>
      <trkpt lat="47.22658" lon="2.91213">
        <ele>178.89979553223</ele>
        <time>2016-04-13T12:56:21.000Z</time>
      </trkpt>
      <trkpt lat="47.22658" lon="2.91213">
        <ele>178.89979553223</ele>
        <time>2016-04-13T12:56:42.000Z</time>
      </trkpt>
      <trkpt lat="47.22657" lon="2.91214">
        <ele>178.90661621094</ele>
        <time>2016-04-13T12:58:45.000Z</time>
      </trkpt>
      <trkpt lat="47.22657" lon="2.91214">
        <ele>178.90661621094</ele>
        <time>2016-04-13T12:59:05.000Z</time>
      </trkpt>
      <trkpt lat="47.22657" lon="2.91213">
        <ele>178.9111328125</ele>
        <time>2016-04-13T12:59:14.000Z</time>
      </trkpt>
      <trkpt lat="47.22658" lon="2.91213">
        <ele>178.91616821289</ele>
        <time>2016-04-13T12:59:32.000Z</time>
      </trkpt>
      <trkpt lat="47.2266" lon="2.91213">
        <ele>178.92317199707</ele>
        <time>2016-04-13T12:59:34.000Z</time>
      </trkpt>
      <trkpt lat="47.22661" lon="2.91214">
        <ele>178.93949890137</ele>
        <time>2016-04-13T12:59:37.000Z</time>
      </trkpt>
      <trkpt lat="47.22662" lon="2.91215">
        <ele>178.96438598633</ele>
        <time>2016-04-13T12:59:39.000Z</time>
      </trkpt>
      <trkpt lat="47.22665" lon="2.91215">
        <ele>179.01223754883</ele>
        <time>2016-04-13T12:59:42.000Z</time>
      </trkpt>
      <trkpt lat="47.22666" lon="2.91215">
        <ele>179.05825805664</ele>
        <time>2016-04-13T12:59:44.000Z</time>
      </trkpt>
      <trkpt lat="47.22668" lon="2.91216">
        <ele>179.10656738281</ele>
        <time>2016-04-13T12:59:47.000Z</time>
      </trkpt>
      <trkpt lat="47.2267" lon="2.91216">
        <ele>179.15116882324</ele>
        <time>2016-04-13T12:59:50.000Z</time>
      </trkpt>
      <trkpt lat="47.22673" lon="2.91215">
        <ele>179.18942260742</ele>
        <time>2016-04-13T12:59:51.000Z</time>
      </trkpt>
      <trkpt lat="47.22675" lon="2.91216">
        <ele>179.2201385498</ele>
        <time>2016-04-13T12:59:53.000Z</time>
      </trkpt>
      <trkpt lat="47.22679" lon="2.91216">
        <ele>179.25329589844</ele>
        <time>2016-04-13T12:59:56.000Z</time>
      </trkpt>
      <trkpt lat="47.22682" lon="2.91216">
        <ele>179.28540039062</ele>
        <time>2016-04-13T12:59:58.000Z</time>
      </trkpt>
      <trkpt lat="47.22687" lon="2.91217">
        <ele>179.33020019531</ele>
        <time>2016-04-13T13:00:01.000Z</time>
      </trkpt>
      <trkpt lat="47.22691" lon="2.91217">
        <ele>179.3798828125</ele>
        <time>2016-04-13T13:00:03.000Z</time>
      </trkpt>
      <trkpt lat="47.22694" lon="2.91216">
        <ele>179.42724609375</ele>
        <time>2016-04-13T13:00:06.000Z</time>
      </trkpt>
      <trkpt lat="47.22697" lon="2.91216">
        <ele>179.47424316406</ele>
        <time>2016-04-13T13:00:08.000Z</time>
      </trkpt>
      <trkpt lat="47.227" lon="2.91216">
        <ele>179.521484375</ele>
        <time>2016-04-13T13:00:10.000Z</time>
      </trkpt>
      <trkpt lat="47.22704" lon="2.91217">
        <ele>179.56225585938</ele>
        <time>2016-04-13T13:00:13.000Z</time>
      </trkpt>
      <trkpt lat="47.22706" lon="2.91217">
        <ele>179.59899902344</ele>
        <time>2016-04-13T13:00:15.000Z</time>
      </trkpt>
      <trkpt lat="47.22709" lon="2.91217">
        <ele>179.63647460938</ele>
        <time>2016-04-13T13:00:18.000Z</time>
      </trkpt>
      <trkpt lat="47.2271" lon="2.91217">
        <ele>179.67150878906</ele>
        <time>2016-04-13T13:00:20.000Z</time>
      </trkpt>
      <trkpt lat="47.22715" lon="2.91218">
        <ele>179.71118164062</ele>
        <time>2016-04-13T13:00:23.000Z</time>
      </trkpt>
      <trkpt lat="47.22718" lon="2.91217">
        <ele>179.74963378906</ele>
        <time>2016-04-13T13:00:26.000Z</time>
      </trkpt>
      <trkpt lat="47.22723" lon="2.91218">
        <ele>179.79345703125</ele>
        <time>2016-04-13T13:00:29.000Z</time>
      </trkpt>
      <trkpt lat="47.22725" lon="2.91217">
        <ele>179.83435058594</ele>
        <time>2016-04-13T13:00:31.000Z</time>
      </trkpt>
      <trkpt lat="47.22728" lon="2.91217">
        <ele>179.87756347656</ele>
        <time>2016-04-13T13:00:34.000Z</time>
      </trkpt>
      <trkpt lat="47.22733" lon="2.91218">
        <ele>179.92248535156</ele>
        <time>2016-04-13T13:00:37.000Z</time>
      </trkpt>
      <trkpt lat="47.22736" lon="2.91218">
        <ele>179.96911621094</ele>
        <time>2016-04-13T13:00:40.000Z</time>
      </trkpt>
      <trkpt lat="47.2274" lon="2.91219">
        <ele>180.01672363281</ele>
        <time>2016-04-13T13:00:43.000Z</time>
      </trkpt>
      <trkpt lat="47.22745" lon="2.91222">
        <ele>180.0869140625</ele>
        <time>2016-04-13T13:00:46.000Z</time>
      </trkpt>
      <trkpt lat="47.22749" lon="2.91225">
        <ele>180.17517089844</ele>
        <time>2016-04-13T13:00:49.000Z</time>
      </trkpt>
      <trkpt lat="47.22752" lon="2.91225">
        <ele>180.25845336914</ele>
        <time>2016-04-13T13:00:51.000Z</time>
      </trkpt>
      <trkpt lat="47.22757" lon="2.91227">
        <ele>180.36317443848</ele>
        <time>2016-04-13T13:00:54.000Z</time>
      </trkpt>
      <trkpt lat="47.22759" lon="2.91227">
        <ele>180.46537780762</ele>
        <time>2016-04-13T13:00:57.000Z</time>
      </trkpt>
      <trkpt lat="47.22763" lon="2.91228">
        <ele>180.56109619141</ele>
        <time>2016-04-13T13:01:00.000Z</time>
      </trkpt>
      <trkpt lat="47.22765" lon="2.91229">
        <ele>180.64270019531</ele>
        <time>2016-04-13T13:01:02.000Z</time>
      </trkpt>
      <trkpt lat="47.22768" lon="2.9123">
        <ele>180.73648071289</ele>
        <time>2016-04-13T13:01:05.000Z</time>
      </trkpt>
      <trkpt lat="47.2277" lon="2.91231">
        <ele>180.80545043945</ele>
        <time>2016-04-13T13:01:07.000Z</time>
      </trkpt>
      <trkpt lat="47.22773" lon="2.91233">
        <ele>180.89207458496</ele>
        <time>2016-04-13T13:01:10.000Z</time>
      </trkpt>
      <trkpt lat="47.22777" lon="2.91233">
        <ele>180.97932434082</ele>
        <time>2016-04-13T13:01:13.000Z</time>
      </trkpt>
      <trkpt lat="47.22781" lon="2.91234">
        <ele>181.07904052734</ele>
        <time>2016-04-13T13:01:16.000Z</time>
      </trkpt>
      <trkpt lat="47.22783" lon="2.91234">
        <ele>181.16609191895</ele>
        <time>2016-04-13T13:01:18.000Z</time>
      </trkpt>
      <trkpt lat="47.22786" lon="2.91235">
        <ele>181.26411437988</ele>
        <time>2016-04-13T13:01:21.000Z</time>
      </trkpt>
      <trkpt lat="47.22791" lon="2.91236">
        <ele>181.36297607422</ele>
        <time>2016-04-13T13:01:24.000Z</time>
      </trkpt>
      <trkpt lat="47.22793" lon="2.91237">
        <ele>181.45796203613</ele>
        <time>2016-04-13T13:01:28.000Z</time>
      </trkpt>
      <trkpt lat="47.22795" lon="2.91237">
        <ele>181.53784179688</ele>
        <time>2016-04-13T13:01:29.000Z</time>
      </trkpt>
      <trkpt lat="47.22798" lon="2.91238">
        <ele>181.6263885498</ele>
        <time>2016-04-13T13:01:32.000Z</time>
      </trkpt>
      <trkpt lat="47.228" lon="2.91238">
        <ele>181.70712280273</ele>
        <time>2016-04-13T13:01:34.000Z</time>
      </trkpt>
      <trkpt lat="47.22804" lon="2.91239">
        <ele>181.78463745117</ele>
        <time>2016-04-13T13:01:37.000Z</time>
      </trkpt>
      <trkpt lat="47.22807" lon="2.91241">
        <ele>181.87197875977</ele>
        <time>2016-04-13T13:01:40.000Z</time>
      </trkpt>
      <trkpt lat="47.2281" lon="2.91243">
        <ele>181.97265625</ele>
        <time>2016-04-13T13:01:42.000Z</time>
      </trkpt>
      <trkpt lat="47.22813" lon="2.91244">
        <ele>182.07827758789</ele>
        <time>2016-04-13T13:01:45.000Z</time>
      </trkpt>
      <trkpt lat="47.22818" lon="2.91246">
        <ele>182.20918273926</ele>
        <time>2016-04-13T13:01:48.000Z</time>
      </trkpt>
      <trkpt lat="47.22821" lon="2.91247">
        <ele>182.34066772461</ele>
        <time>2016-04-13T13:01:51.000Z</time>
      </trkpt>
      <trkpt lat="47.22824" lon="2.91248">
        <ele>182.46493530273</ele>
        <time>2016-04-13T13:01:53.000Z</time>
      </trkpt>
      <trkpt lat="47.22829" lon="2.9125">
        <ele>182.60108947754</ele>
        <time>2016-04-13T13:01:56.000Z</time>
      </trkpt>
      <trkpt lat="47.22832" lon="2.9125">
        <ele>182.73042297363</ele>
        <time>2016-04-13T13:01:59.000Z</time>
      </trkpt>
      <trkpt lat="47.22834" lon="2.9125">
        <ele>182.83135986328</ele>
        <time>2016-04-13T13:02:01.000Z</time>
      </trkpt>
      <trkpt lat="47.22836" lon="2.9125">
        <ele>182.90182495117</ele>
        <time>2016-04-13T13:02:03.000Z</time>
      </trkpt>
      <trkpt lat="47.2284" lon="2.9125">
        <ele>182.94366455078</ele>
        <time>2016-04-13T13:02:06.000Z</time>
      </trkpt>
      <trkpt lat="47.22842" lon="2.9125">
        <ele>182.94589233398</ele>
        <time>2016-04-13T13:02:08.000Z</time>
      </trkpt>
      <trkpt lat="47.22846" lon="2.91251">
        <ele>182.92324829102</ele>
        <time>2016-04-13T13:02:11.000Z</time>
      </trkpt>
      <trkpt lat="47.22848" lon="2.91251">
        <ele>182.88858032227</ele>
        <time>2016-04-13T13:02:13.000Z</time>
      </trkpt>
      <trkpt lat="47.22851" lon="2.91252">
        <ele>182.85444641113</ele>
        <time>2016-04-13T13:02:15.000Z</time>
      </trkpt>
      <trkpt lat="47.22855" lon="2.91253">
        <ele>182.82092285156</ele>
        <time>2016-04-13T13:02:18.000Z</time>
      </trkpt>
      <trkpt lat="47.22858" lon="2.91253">
        <ele>182.78614807129</ele>
        <time>2016-04-13T13:02:20.000Z</time>
      </trkpt>
      <trkpt lat="47.22861" lon="2.91253">
        <ele>182.75326538086</ele>
        <time>2016-04-13T13:02:23.000Z</time>
      </trkpt>
      <trkpt lat="47.22865" lon="2.91252">
        <ele>182.71537780762</ele>
        <time>2016-04-13T13:02:25.000Z</time>
      </trkpt>
      <trkpt lat="47.22866" lon="2.91252">
        <ele>182.67924499512</ele>
        <time>2016-04-13T13:02:27.000Z</time>
      </trkpt>
      <trkpt lat="47.2287" lon="2.91251">
        <ele>182.64254760742</ele>
        <time>2016-04-13T13:02:30.000Z</time>
      </trkpt>
      <trkpt lat="47.22873" lon="2.91251">
        <ele>182.60635375977</ele>
        <time>2016-04-13T13:02:32.000Z</time>
      </trkpt>
      <trkpt lat="47.22876" lon="2.91252">
        <ele>182.56991577148</ele>
        <time>2016-04-13T13:02:36.000Z</time>
      </trkpt>
      <trkpt lat="47.22878" lon="2.91253">
        <ele>182.53958129883</ele>
        <time>2016-04-13T13:02:37.000Z</time>
      </trkpt>
      <trkpt lat="47.22883" lon="2.91257">
        <ele>182.50769042969</ele>
        <time>2016-04-13T13:02:40.000Z</time>
      </trkpt>
      <trkpt lat="47.22887" lon="2.91258">
        <ele>182.47630310059</ele>
        <time>2016-04-13T13:02:43.000Z</time>
      </trkpt>
      <trkpt lat="47.22891" lon="2.91257">
        <ele>182.44245910645</ele>
        <time>2016-04-13T13:02:46.000Z</time>
      </trkpt>
      <trkpt lat="47.22894" lon="2.91255">
        <ele>182.4077911377</ele>
        <time>2016-04-13T13:02:48.000Z</time>
      </trkpt>
      <trkpt lat="47.22896" lon="2.91255">
        <ele>182.36976623535</ele>
        <time>2016-04-13T13:02:50.000Z</time>
      </trkpt>
      <trkpt lat="47.22901" lon="2.91255">
        <ele>182.32585144043</ele>
        <time>2016-04-13T13:02:53.000Z</time>
      </trkpt>
      <trkpt lat="47.22904" lon="2.91254">
        <ele>182.28378295898</ele>
        <time>2016-04-13T13:02:55.000Z</time>
      </trkpt>
      <trkpt lat="47.22908" lon="2.91254">
        <ele>182.24058532715</ele>
        <time>2016-04-13T13:02:58.000Z</time>
      </trkpt>
      <trkpt lat="47.2291" lon="2.91253">
        <ele>182.19705200195</ele>
        <time>2016-04-13T13:03:01.000Z</time>
      </trkpt>
      <trkpt lat="47.22912" lon="2.91252">
        <ele>182.15505981445</ele>
        <time>2016-04-13T13:03:03.000Z</time>
      </trkpt>
      <trkpt lat="47.22916" lon="2.91252">
        <ele>182.11297607422</ele>
        <time>2016-04-13T13:03:06.000Z</time>
      </trkpt>
      <trkpt lat="47.22921" lon="2.91251">
        <ele>182.076171875</ele>
        <time>2016-04-13T13:03:09.000Z</time>
      </trkpt>
      <trkpt lat="47.22923" lon="2.91251">
        <ele>182.04878234863</ele>
        <time>2016-04-13T13:03:11.000Z</time>
      </trkpt>
      <trkpt lat="47.22926" lon="2.91251">
        <ele>182.02992248535</ele>
        <time>2016-04-13T13:03:14.000Z</time>
      </trkpt>
      <trkpt lat="47.2293" lon="2.9125">
        <ele>182.01391601562</ele>
        <time>2016-04-13T13:03:17.000Z</time>
      </trkpt>
      <trkpt lat="47.22934" lon="2.9125">
        <ele>182.00744628906</ele>
        <time>2016-04-13T13:03:21.000Z</time>
      </trkpt>
      <trkpt lat="47.22938" lon="2.91249">
        <ele>182.00155639648</ele>
        <time>2016-04-13T13:03:23.000Z</time>
      </trkpt>
      <trkpt lat="47.2294" lon="2.91248">
        <ele>181.99298095703</ele>
        <time>2016-04-13T13:03:25.000Z</time>
      </trkpt>
      <trkpt lat="47.22942" lon="2.91247">
        <ele>181.98010253906</ele>
        <time>2016-04-13T13:03:27.000Z</time>
      </trkpt>
      <trkpt lat="47.22947" lon="2.91247">
        <ele>181.96913146973</ele>
        <time>2016-04-13T13:03:30.000Z</time>
      </trkpt>
      <trkpt lat="47.22949" lon="2.91246">
        <ele>181.95602416992</ele>
        <time>2016-04-13T13:03:32.000Z</time>
      </trkpt>
      <trkpt lat="47.22952" lon="2.91245">
        <ele>181.94087219238</ele>
        <time>2016-04-13T13:03:34.000Z</time>
      </trkpt>
      <trkpt lat="47.22953" lon="2.91244">
        <ele>181.92723083496</ele>
        <time>2016-04-13T13:03:36.000Z</time>
      </trkpt>
      <trkpt lat="47.22958" lon="2.91243">
        <ele>181.91300964355</ele>
        <time>2016-04-13T13:03:39.000Z</time>
      </trkpt>
      <trkpt lat="47.22961" lon="2.91242">
        <ele>181.89422607422</ele>
        <time>2016-04-13T13:03:42.000Z</time>
      </trkpt>
      <trkpt lat="47.22965" lon="2.9124">
        <ele>181.87066650391</ele>
        <time>2016-04-13T13:03:45.000Z</time>
      </trkpt>
      <trkpt lat="47.22967" lon="2.91239">
        <ele>181.84471130371</ele>
        <time>2016-04-13T13:03:47.000Z</time>
      </trkpt>
      <trkpt lat="47.22971" lon="2.91236">
        <ele>181.80932617188</ele>
        <time>2016-04-13T13:03:50.000Z</time>
      </trkpt>
      <trkpt lat="47.22974" lon="2.91235">
        <ele>181.77235412598</ele>
        <time>2016-04-13T13:03:52.000Z</time>
      </trkpt>
      <trkpt lat="47.22977" lon="2.91234">
        <ele>181.73518371582</ele>
        <time>2016-04-13T13:03:55.000Z</time>
      </trkpt>
      <trkpt lat="47.2298" lon="2.91233">
        <ele>181.70169067383</ele>
        <time>2016-04-13T13:03:57.000Z</time>
      </trkpt>
      <trkpt lat="47.22985" lon="2.91232">
        <ele>181.66760253906</ele>
        <time>2016-04-13T13:04:01.000Z</time>
      </trkpt>
      <trkpt lat="47.22988" lon="2.9123">
        <ele>181.63325500488</ele>
        <time>2016-04-13T13:04:02.000Z</time>
      </trkpt>
      <trkpt lat="47.22992" lon="2.91228">
        <ele>181.59606933594</ele>
        <time>2016-04-13T13:04:05.000Z</time>
      </trkpt>
      <trkpt lat="47.22993" lon="2.91228">
        <ele>181.56005859375</ele>
        <time>2016-04-13T13:04:07.000Z</time>
      </trkpt>
      <trkpt lat="47.22997" lon="2.91225">
        <ele>181.5160369873</ele>
        <time>2016-04-13T13:04:10.000Z</time>
      </trkpt>
      <trkpt lat="47.23" lon="2.91223">
        <ele>181.46270751953</ele>
        <time>2016-04-13T13:04:13.000Z</time>
      </trkpt>
      <trkpt lat="47.23004" lon="2.9122">
        <ele>181.39878845215</ele>
        <time>2016-04-13T13:04:16.000Z</time>
      </trkpt>
      <trkpt lat="47.23008" lon="2.91219">
        <ele>181.32260131836</ele>
        <time>2016-04-13T13:04:19.000Z</time>
      </trkpt>
      <trkpt lat="47.23011" lon="2.91217">
        <ele>181.2336730957</ele>
        <time>2016-04-13T13:04:22.000Z</time>
      </trkpt>
      <trkpt lat="47.23013" lon="2.91215">
        <ele>181.14297485352</ele>
        <time>2016-04-13T13:04:24.000Z</time>
      </trkpt>
      <trkpt lat="47.23017" lon="2.91212">
        <ele>181.04814147949</ele>
        <time>2016-04-13T13:04:27.000Z</time>
      </trkpt>
      <trkpt lat="47.23021" lon="2.91209">
        <ele>180.95397949219</ele>
        <time>2016-04-13T13:04:30.000Z</time>
      </trkpt>
      <trkpt lat="47.23023" lon="2.91207">
        <ele>180.86982727051</ele>
        <time>2016-04-13T13:04:32.000Z</time>
      </trkpt>
      <trkpt lat="47.23026" lon="2.91205">
        <ele>180.78816223145</ele>
        <time>2016-04-13T13:04:35.000Z</time>
      </trkpt>
      <trkpt lat="47.2303" lon="2.91202">
        <ele>180.70320129395</ele>
        <time>2016-04-13T13:04:38.000Z</time>
      </trkpt>
      <trkpt lat="47.23033" lon="2.912">
        <ele>180.62564086914</ele>
        <time>2016-04-13T13:04:41.000Z</time>
      </trkpt>
      <trkpt lat="47.23036" lon="2.91197">
        <ele>180.55618286133</ele>
        <time>2016-04-13T13:04:44.000Z</time>
      </trkpt>
      <trkpt lat="47.23039" lon="2.91196">
        <ele>180.48873901367</ele>
        <time>2016-04-13T13:04:46.000Z</time>
      </trkpt>
      <trkpt lat="47.23043" lon="2.91193">
        <ele>180.42379760742</ele>
        <time>2016-04-13T13:04:49.000Z</time>
      </trkpt>
      <trkpt lat="47.23045" lon="2.91193">
        <ele>180.37292480469</ele>
        <time>2016-04-13T13:04:51.000Z</time>
      </trkpt>
      <trkpt lat="47.23046" lon="2.91191">
        <ele>180.32965087891</ele>
        <time>2016-04-13T13:04:53.000Z</time>
      </trkpt>
      <trkpt lat="47.23049" lon="2.91189">
        <ele>180.2900390625</ele>
        <time>2016-04-13T13:04:56.000Z</time>
      </trkpt>
      <trkpt lat="47.23053" lon="2.91186">
        <ele>180.25051879883</ele>
        <time>2016-04-13T13:04:59.000Z</time>
      </trkpt>
      <trkpt lat="47.23055" lon="2.91183">
        <ele>180.21574401855</ele>
        <time>2016-04-13T13:05:02.000Z</time>
      </trkpt>
      <trkpt lat="47.23056" lon="2.91182">
        <ele>180.18276977539</ele>
        <time>2016-04-13T13:05:04.000Z</time>
      </trkpt>
      <trkpt lat="47.23056" lon="2.91181">
        <ele>180.15255737305</ele>
        <time>2016-04-13T13:05:10.000Z</time>
      </trkpt>
      <trkpt lat="47.23058" lon="2.9118">
        <ele>180.12844848633</ele>
        <time>2016-04-13T13:05:24.000Z</time>
      </trkpt>
      <trkpt lat="47.23059" lon="2.91178">
        <ele>180.11038208008</ele>
        <time>2016-04-13T13:05:27.000Z</time>
      </trkpt>
      <trkpt lat="47.2306" lon="2.91177">
        <ele>180.09660339355</ele>
        <time>2016-04-13T13:05:30.000Z</time>
      </trkpt>
      <trkpt lat="47.23061" lon="2.91176">
        <ele>180.08274841309</ele>
        <time>2016-04-13T13:05:37.000Z</time>
      </trkpt>
      <trkpt lat="47.23063" lon="2.91175">
        <ele>180.07006835938</ele>
        <time>2016-04-13T13:05:51.000Z</time>
      </trkpt>
      <trkpt lat="47.23065" lon="2.91173">
        <ele>180.05715942383</ele>
        <time>2016-04-13T13:05:54.000Z</time>
      </trkpt>
      <trkpt lat="47.23067" lon="2.91171">
        <ele>180.04502868652</ele>
        <time>2016-04-13T13:05:56.000Z</time>
      </trkpt>
      <trkpt lat="47.23069" lon="2.91167">
        <ele>180.03242492676</ele>
        <time>2016-04-13T13:05:59.000Z</time>
      </trkpt>
      <trkpt lat="47.23071" lon="2.91164">
        <ele>180.0152130127</ele>
        <time>2016-04-13T13:06:01.000Z</time>
      </trkpt>
      <trkpt lat="47.23072" lon="2.9116">
        <ele>179.98721313477</ele>
        <time>2016-04-13T13:06:04.000Z</time>
      </trkpt>
      <trkpt lat="47.23074" lon="2.91157">
        <ele>179.95495605469</ele>
        <time>2016-04-13T13:06:06.000Z</time>
      </trkpt>
      <trkpt lat="47.23075" lon="2.91152">
        <ele>179.91220092773</ele>
        <time>2016-04-13T13:06:09.000Z</time>
      </trkpt>
      <trkpt lat="47.23075" lon="2.91149">
        <ele>179.86596679688</ele>
        <time>2016-04-13T13:06:11.000Z</time>
      </trkpt>
      <trkpt lat="47.23076" lon="2.91146">
        <ele>179.8171081543</ele>
        <time>2016-04-13T13:06:14.000Z</time>
      </trkpt>
      <trkpt lat="47.23076" lon="2.91142">
        <ele>179.77076721191</ele>
        <time>2016-04-13T13:06:17.000Z</time>
      </trkpt>
      <trkpt lat="47.23078" lon="2.91137">
        <ele>179.72085571289</ele>
        <time>2016-04-13T13:06:20.000Z</time>
      </trkpt>
      <trkpt lat="47.23079" lon="2.91133">
        <ele>179.67414855957</ele>
        <time>2016-04-13T13:06:23.000Z</time>
      </trkpt>
      <trkpt lat="47.2308" lon="2.91128">
        <ele>179.62347412109</ele>
        <time>2016-04-13T13:06:25.000Z</time>
      </trkpt>
      <trkpt lat="47.23081" lon="2.91122">
        <ele>179.56875610352</ele>
        <time>2016-04-13T13:06:28.000Z</time>
      </trkpt>
      <trkpt lat="47.23083" lon="2.91117">
        <ele>179.51388549805</ele>
        <time>2016-04-13T13:06:31.000Z</time>
      </trkpt>
      <trkpt lat="47.23084" lon="2.91115">
        <ele>179.46676635742</ele>
        <time>2016-04-13T13:06:33.000Z</time>
      </trkpt>
      <trkpt lat="47.23086" lon="2.9111">
        <ele>179.4172668457</ele>
        <time>2016-04-13T13:06:36.000Z</time>
      </trkpt>
      <trkpt lat="47.23088" lon="2.91107">
        <ele>179.37121582031</ele>
        <time>2016-04-13T13:06:38.000Z</time>
      </trkpt>
      <trkpt lat="47.2309" lon="2.91104">
        <ele>179.32920837402</ele>
        <time>2016-04-13T13:06:41.000Z</time>
      </trkpt>
      <trkpt lat="47.23093" lon="2.91099">
        <ele>179.28668212891</ele>
        <time>2016-04-13T13:06:44.000Z</time>
      </trkpt>
      <trkpt lat="47.23093" lon="2.91097">
        <ele>179.24188232422</ele>
        <time>2016-04-13T13:06:47.000Z</time>
      </trkpt>
      <trkpt lat="47.23095" lon="2.91094">
        <ele>179.20159912109</ele>
        <time>2016-04-13T13:06:49.000Z</time>
      </trkpt>
      <trkpt lat="47.23096" lon="2.91091">
        <ele>179.16131591797</ele>
        <time>2016-04-13T13:06:51.000Z</time>
      </trkpt>
      <trkpt lat="47.23097" lon="2.91087">
        <ele>179.12255859375</ele>
        <time>2016-04-13T13:06:53.000Z</time>
      </trkpt>
      <trkpt lat="47.23098" lon="2.91084">
        <ele>179.08624267578</ele>
        <time>2016-04-13T13:06:55.000Z</time>
      </trkpt>
      <trkpt lat="47.231" lon="2.9108">
        <ele>179.03842163086</ele>
        <time>2016-04-13T13:06:58.000Z</time>
      </trkpt>
      <trkpt lat="47.23101" lon="2.91077">
        <ele>178.98420715332</ele>
        <time>2016-04-13T13:07:00.000Z</time>
      </trkpt>
      <trkpt lat="47.23103" lon="2.91074">
        <ele>178.92106628418</ele>
        <time>2016-04-13T13:07:02.000Z</time>
      </trkpt>
      <trkpt lat="47.23106" lon="2.91069">
        <ele>178.84042358398</ele>
        <time>2016-04-13T13:07:05.000Z</time>
      </trkpt>
      <trkpt lat="47.23108" lon="2.91065">
        <ele>178.75146484375</ele>
        <time>2016-04-13T13:07:07.000Z</time>
      </trkpt>
      <trkpt lat="47.23109" lon="2.91061">
        <ele>178.662109375</ele>
        <time>2016-04-13T13:07:10.000Z</time>
      </trkpt>
      <trkpt lat="47.23112" lon="2.91058">
        <ele>178.57165527344</ele>
        <time>2016-04-13T13:07:12.000Z</time>
      </trkpt>
      <trkpt lat="47.23114" lon="2.91055">
        <ele>178.48059082031</ele>
        <time>2016-04-13T13:07:15.000Z</time>
      </trkpt>
      <trkpt lat="47.23117" lon="2.9105">
        <ele>178.39123535156</ele>
        <time>2016-04-13T13:07:18.000Z</time>
      </trkpt>
      <trkpt lat="47.2312" lon="2.91045">
        <ele>178.29382324219</ele>
        <time>2016-04-13T13:07:21.000Z</time>
      </trkpt>
      <trkpt lat="47.23122" lon="2.91041">
        <ele>178.19360351562</ele>
        <time>2016-04-13T13:07:24.000Z</time>
      </trkpt>
      <trkpt lat="47.23125" lon="2.91037">
        <ele>178.0888671875</ele>
        <time>2016-04-13T13:07:27.000Z</time>
      </trkpt>
      <trkpt lat="47.23126" lon="2.91034">
        <ele>177.98913574219</ele>
        <time>2016-04-13T13:07:29.000Z</time>
      </trkpt>
      <trkpt lat="47.23129" lon="2.91031">
        <ele>177.8974609375</ele>
        <time>2016-04-13T13:07:32.000Z</time>
      </trkpt>
      <trkpt lat="47.2313" lon="2.91028">
        <ele>177.81494140625</ele>
        <time>2016-04-13T13:07:34.000Z</time>
      </trkpt>
      <trkpt lat="47.23133" lon="2.91024">
        <ele>177.73315429688</ele>
        <time>2016-04-13T13:07:37.000Z</time>
      </trkpt>
      <trkpt lat="47.23134" lon="2.91022">
        <ele>177.66259765625</ele>
        <time>2016-04-13T13:07:39.000Z</time>
      </trkpt>
      <trkpt lat="47.23136" lon="2.91017">
        <ele>177.58239746094</ele>
        <time>2016-04-13T13:07:42.000Z</time>
      </trkpt>
      <trkpt lat="47.23138" lon="2.91012">
        <ele>177.49401855469</ele>
        <time>2016-04-13T13:07:45.000Z</time>
      </trkpt>
      <trkpt lat="47.23139" lon="2.91009">
        <ele>177.4052734375</ele>
        <time>2016-04-13T13:07:47.000Z</time>
      </trkpt>
      <trkpt lat="47.23143" lon="2.91005">
        <ele>177.31848144531</ele>
        <time>2016-04-13T13:07:50.000Z</time>
      </trkpt>
      <trkpt lat="47.23145" lon="2.91002">
        <ele>177.2255859375</ele>
        <time>2016-04-13T13:07:53.000Z</time>
      </trkpt>
      <trkpt lat="47.23146" lon="2.91001">
        <ele>177.14929199219</ele>
        <time>2016-04-13T13:07:55.000Z</time>
      </trkpt>
      <trkpt lat="47.2315" lon="2.91001">
        <ele>177.09216308594</ele>
        <time>2016-04-13T13:07:58.000Z</time>
      </trkpt>
      <trkpt lat="47.23153" lon="2.91">
        <ele>177.04762268066</ele>
        <time>2016-04-13T13:08:00.000Z</time>
      </trkpt>
      <trkpt lat="47.23157" lon="2.91">
        <ele>177.02174377441</ele>
        <time>2016-04-13T13:08:03.000Z</time>
      </trkpt>
      <trkpt lat="47.23159" lon="2.90999">
        <ele>177.00564575195</ele>
        <time>2016-04-13T13:08:05.000Z</time>
      </trkpt>
      <trkpt lat="47.23162" lon="2.90998">
        <ele>176.99015808105</ele>
        <time>2016-04-13T13:08:07.000Z</time>
      </trkpt>
      <trkpt lat="47.23166" lon="2.90997">
        <ele>176.97529602051</ele>
        <time>2016-04-13T13:08:10.000Z</time>
      </trkpt>
      <trkpt lat="47.23168" lon="2.90997">
        <ele>176.9577331543</ele>
        <time>2016-04-13T13:08:12.000Z</time>
      </trkpt>
      <trkpt lat="47.23172" lon="2.90997">
        <ele>176.92942810059</ele>
        <time>2016-04-13T13:08:15.000Z</time>
      </trkpt>
      <trkpt lat="47.23175" lon="2.90996">
        <ele>176.89500427246</ele>
        <time>2016-04-13T13:08:18.000Z</time>
      </trkpt>
      <trkpt lat="47.23179" lon="2.90996">
        <ele>176.85400390625</ele>
        <time>2016-04-13T13:08:21.000Z</time>
      </trkpt>
      <trkpt lat="47.23182" lon="2.90995">
        <ele>176.80688476562</ele>
        <time>2016-04-13T13:08:23.000Z</time>
      </trkpt>
      <trkpt lat="47.23186" lon="2.90995">
        <ele>176.75622558594</ele>
        <time>2016-04-13T13:08:26.000Z</time>
      </trkpt>
      <trkpt lat="47.23188" lon="2.90996">
        <ele>176.71228027344</ele>
        <time>2016-04-13T13:08:29.000Z</time>
      </trkpt>
      <trkpt lat="47.2319" lon="2.90995">
        <ele>176.66979980469</ele>
        <time>2016-04-13T13:08:31.000Z</time>
      </trkpt>
      <trkpt lat="47.23193" lon="2.90994">
        <ele>176.62939453125</ele>
        <time>2016-04-13T13:08:33.000Z</time>
      </trkpt>
      <trkpt lat="47.23196" lon="2.90994">
        <ele>176.58984375</ele>
        <time>2016-04-13T13:08:37.000Z</time>
      </trkpt>
      <trkpt lat="47.23198" lon="2.90994">
        <ele>176.55249023438</ele>
        <time>2016-04-13T13:08:38.000Z</time>
      </trkpt>
      <trkpt lat="47.23201" lon="2.90994">
        <ele>176.5126953125</ele>
        <time>2016-04-13T13:08:40.000Z</time>
      </trkpt>
      <trkpt lat="47.23204" lon="2.90993">
        <ele>176.47314453125</ele>
        <time>2016-04-13T13:08:43.000Z</time>
      </trkpt>
      <trkpt lat="47.23206" lon="2.90994">
        <ele>176.43701171875</ele>
        <time>2016-04-13T13:08:46.000Z</time>
      </trkpt>
      <trkpt lat="47.23209" lon="2.90993">
        <ele>176.40197753906</ele>
        <time>2016-04-13T13:08:48.000Z</time>
      </trkpt>
      <trkpt lat="47.23211" lon="2.90993">
        <ele>176.36791992188</ele>
        <time>2016-04-13T13:08:50.000Z</time>
      </trkpt>
      <trkpt lat="47.23216" lon="2.90993">
        <ele>176.32580566406</ele>
        <time>2016-04-13T13:08:53.000Z</time>
      </trkpt>
      <trkpt lat="47.23218" lon="2.90993">
        <ele>176.28857421875</ele>
        <time>2016-04-13T13:08:55.000Z</time>
      </trkpt>
      <trkpt lat="47.2322" lon="2.90993">
        <ele>176.25207519531</ele>
        <time>2016-04-13T13:08:57.000Z</time>
      </trkpt>
      <trkpt lat="47.23223" lon="2.90993">
        <ele>176.21862792969</ele>
        <time>2016-04-13T13:09:00.000Z</time>
      </trkpt>
      <trkpt lat="47.23227" lon="2.90994">
        <ele>176.18322753906</ele>
        <time>2016-04-13T13:09:03.000Z</time>
      </trkpt>
      <trkpt lat="47.2323" lon="2.90994">
        <ele>176.15893554688</ele>
        <time>2016-04-13T13:09:06.000Z</time>
      </trkpt>
      <trkpt lat="47.23232" lon="2.90995">
        <ele>176.13586425781</ele>
        <time>2016-04-13T13:09:08.000Z</time>
      </trkpt>
      <trkpt lat="47.23237" lon="2.90996">
        <ele>176.10827636719</ele>
        <time>2016-04-13T13:09:12.000Z</time>
      </trkpt>
      <trkpt lat="47.2324" lon="2.90996">
        <ele>176.08203125</ele>
        <time>2016-04-13T13:09:13.000Z</time>
      </trkpt>
      <trkpt lat="47.23243" lon="2.90997">
        <ele>176.05969238281</ele>
        <time>2016-04-13T13:09:16.000Z</time>
      </trkpt>
      <trkpt lat="47.23247" lon="2.90997">
        <ele>176.03308105469</ele>
        <time>2016-04-13T13:09:19.000Z</time>
      </trkpt>
      <trkpt lat="47.2325" lon="2.90998">
        <ele>176.00537109375</ele>
        <time>2016-04-13T13:09:22.000Z</time>
      </trkpt>
      <trkpt lat="47.23252" lon="2.90999">
        <ele>175.99040222168</ele>
        <time>2016-04-13T13:09:24.000Z</time>
      </trkpt>
      <trkpt lat="47.23256" lon="2.91001">
        <ele>175.98916625977</ele>
        <time>2016-04-13T13:09:27.000Z</time>
      </trkpt>
      <trkpt lat="47.23259" lon="2.91002">
        <ele>175.99752807617</ele>
        <time>2016-04-13T13:09:29.000Z</time>
      </trkpt>
      <trkpt lat="47.23262" lon="2.91001">
        <ele>176.01072692871</ele>
        <time>2016-04-13T13:09:32.000Z</time>
      </trkpt>
      <trkpt lat="47.23264" lon="2.91002">
        <ele>176.03060913086</ele>
        <time>2016-04-13T13:09:35.000Z</time>
      </trkpt>
      <trkpt lat="47.23267" lon="2.91003">
        <ele>176.05110168457</ele>
        <time>2016-04-13T13:09:38.000Z</time>
      </trkpt>
      <trkpt lat="47.23269" lon="2.91003">
        <ele>176.06269836426</ele>
        <time>2016-04-13T13:09:40.000Z</time>
      </trkpt>
      <trkpt lat="47.23272" lon="2.91004">
        <ele>176.07168579102</ele>
        <time>2016-04-13T13:09:43.000Z</time>
      </trkpt>
      <trkpt lat="47.23275" lon="2.91004">
        <ele>176.083984375</ele>
        <time>2016-04-13T13:09:46.000Z</time>
      </trkpt>
      <trkpt lat="47.23278" lon="2.91005">
        <ele>176.0948638916</ele>
        <time>2016-04-13T13:09:48.000Z</time>
      </trkpt>
      <trkpt lat="47.2328" lon="2.91006">
        <ele>176.10549926758</ele>
        <time>2016-04-13T13:09:51.000Z</time>
      </trkpt>
      <trkpt lat="47.23281" lon="2.91006">
        <ele>176.11383056641</ele>
        <time>2016-04-13T13:09:54.000Z</time>
      </trkpt>
      <trkpt lat="47.23282" lon="2.91006">
        <ele>176.11842346191</ele>
        <time>2016-04-13T13:09:57.000Z</time>
      </trkpt>
      <trkpt lat="47.23286" lon="2.91005">
        <ele>176.11697387695</ele>
        <time>2016-04-13T13:10:00.000Z</time>
      </trkpt>
      <trkpt lat="47.23289" lon="2.91004">
        <ele>176.11096191406</ele>
        <time>2016-04-13T13:10:02.000Z</time>
      </trkpt>
      <trkpt lat="47.23292" lon="2.91003">
        <ele>176.09460449219</ele>
        <time>2016-04-13T13:10:05.000Z</time>
      </trkpt>
      <trkpt lat="47.23296" lon="2.91001">
        <ele>176.07377624512</ele>
        <time>2016-04-13T13:10:08.000Z</time>
      </trkpt>
      <trkpt lat="47.23299" lon="2.91">
        <ele>176.04988098145</ele>
        <time>2016-04-13T13:10:11.000Z</time>
      </trkpt>
      <trkpt lat="47.233" lon="2.91">
        <ele>176.02926635742</ele>
        <time>2016-04-13T13:10:13.000Z</time>
      </trkpt>
      <trkpt lat="47.23302" lon="2.90998">
        <ele>176.00567626953</ele>
        <time>2016-04-13T13:10:15.000Z</time>
      </trkpt>
      <trkpt lat="47.23304" lon="2.90998">
        <ele>175.98405456543</ele>
        <time>2016-04-13T13:10:17.000Z</time>
      </trkpt>
      <trkpt lat="47.23306" lon="2.90997">
        <ele>175.96621704102</ele>
        <time>2016-04-13T13:10:20.000Z</time>
      </trkpt>
      <trkpt lat="47.23307" lon="2.90997">
        <ele>175.94934082031</ele>
        <time>2016-04-13T13:10:22.000Z</time>
      </trkpt>
      <trkpt lat="47.23309" lon="2.90996">
        <ele>175.93090820312</ele>
        <time>2016-04-13T13:10:25.000Z</time>
      </trkpt>
      <trkpt lat="47.2331" lon="2.90996">
        <ele>175.91809082031</ele>
        <time>2016-04-13T13:10:27.000Z</time>
      </trkpt>
      <trkpt lat="47.23312" lon="2.90996">
        <ele>175.91003417969</ele>
        <time>2016-04-13T13:10:30.000Z</time>
      </trkpt>
      <trkpt lat="47.23315" lon="2.90996">
        <ele>175.90295410156</ele>
        <time>2016-04-13T13:10:32.000Z</time>
      </trkpt>
      <trkpt lat="47.23319" lon="2.90995">
        <ele>175.89562988281</ele>
        <time>2016-04-13T13:10:35.000Z</time>
      </trkpt>
      <trkpt lat="47.23321" lon="2.90995">
        <ele>175.88989257812</ele>
        <time>2016-04-13T13:10:37.000Z</time>
      </trkpt>
      <trkpt lat="47.23322" lon="2.90995">
        <ele>175.884765625</ele>
        <time>2016-04-13T13:10:39.000Z</time>
      </trkpt>
      <trkpt lat="47.23325" lon="2.90995">
        <ele>175.88098144531</ele>
        <time>2016-04-13T13:10:42.000Z</time>
      </trkpt>
      <trkpt lat="47.23328" lon="2.90994">
        <ele>175.87329101562</ele>
        <time>2016-04-13T13:10:45.000Z</time>
      </trkpt>
      <trkpt lat="47.2333" lon="2.90993">
        <ele>175.86145019531</ele>
        <time>2016-04-13T13:10:48.000Z</time>
      </trkpt>
      <trkpt lat="47.23333" lon="2.90992">
        <ele>175.84680175781</ele>
        <time>2016-04-13T13:10:51.000Z</time>
      </trkpt>
      <trkpt lat="47.23336" lon="2.90991">
        <ele>175.83605957031</ele>
        <time>2016-04-13T13:10:54.000Z</time>
      </trkpt>
      <trkpt lat="47.23338" lon="2.90989">
        <ele>175.82006835938</ele>
        <time>2016-04-13T13:10:56.000Z</time>
      </trkpt>
      <trkpt lat="47.23341" lon="2.90987">
        <ele>175.80627441406</ele>
        <time>2016-04-13T13:10:59.000Z</time>
      </trkpt>
      <trkpt lat="47.23343" lon="2.90986">
        <ele>175.79943847656</ele>
        <time>2016-04-13T13:11:01.000Z</time>
      </trkpt>
      <trkpt lat="47.23344" lon="2.90985">
        <ele>175.7958984375</ele>
        <time>2016-04-13T13:11:03.000Z</time>
      </trkpt>
      <trkpt lat="47.23346" lon="2.90984">
        <ele>175.78637695312</ele>
        <time>2016-04-13T13:11:06.000Z</time>
      </trkpt>
      <trkpt lat="47.23348" lon="2.90983">
        <ele>175.77893066406</ele>
        <time>2016-04-13T13:11:08.000Z</time>
      </trkpt>
      <trkpt lat="47.23351" lon="2.90982">
        <ele>175.77490234375</ele>
        <time>2016-04-13T13:11:11.000Z</time>
      </trkpt>
      <trkpt lat="47.23353" lon="2.9098">
        <ele>175.76831054688</ele>
        <time>2016-04-13T13:11:13.000Z</time>
      </trkpt>
      <trkpt lat="47.23355" lon="2.90978">
        <ele>175.75817871094</ele>
        <time>2016-04-13T13:11:16.000Z</time>
      </trkpt>
      <trkpt lat="47.23356" lon="2.90977">
        <ele>175.74633789062</ele>
        <time>2016-04-13T13:11:19.000Z</time>
      </trkpt>
      <trkpt lat="47.23358" lon="2.90975">
        <ele>175.73193359375</ele>
        <time>2016-04-13T13:11:22.000Z</time>
      </trkpt>
      <trkpt lat="47.2336" lon="2.90972">
        <ele>175.70971679688</ele>
        <time>2016-04-13T13:11:24.000Z</time>
      </trkpt>
      <trkpt lat="47.23362" lon="2.90971">
        <ele>175.685546875</ele>
        <time>2016-04-13T13:11:27.000Z</time>
      </trkpt>
      <trkpt lat="47.23365" lon="2.90967">
        <ele>175.65661621094</ele>
        <time>2016-04-13T13:11:30.000Z</time>
      </trkpt>
      <trkpt lat="47.23367" lon="2.90963">
        <ele>175.61779785156</ele>
        <time>2016-04-13T13:11:33.000Z</time>
      </trkpt>
      <trkpt lat="47.23368" lon="2.90959">
        <ele>175.564453125</ele>
        <time>2016-04-13T13:11:36.000Z</time>
      </trkpt>
      <trkpt lat="47.2337" lon="2.90956">
        <ele>175.51171875</ele>
        <time>2016-04-13T13:11:38.000Z</time>
      </trkpt>
      <trkpt lat="47.23372" lon="2.90954">
        <ele>175.45556640625</ele>
        <time>2016-04-13T13:11:40.000Z</time>
      </trkpt>
      <trkpt lat="47.23374" lon="2.9095">
        <ele>175.39587402344</ele>
        <time>2016-04-13T13:11:43.000Z</time>
      </trkpt>
      <trkpt lat="47.23375" lon="2.90947">
        <ele>175.33825683594</ele>
        <time>2016-04-13T13:11:45.000Z</time>
      </trkpt>
      <trkpt lat="47.23377" lon="2.90945">
        <ele>175.29284667969</ele>
        <time>2016-04-13T13:11:47.000Z</time>
      </trkpt>
      <trkpt lat="47.23378" lon="2.90941">
        <ele>175.2392578125</ele>
        <time>2016-04-13T13:11:50.000Z</time>
      </trkpt>
      <trkpt lat="47.2338" lon="2.90938">
        <ele>175.18383789062</ele>
        <time>2016-04-13T13:11:52.000Z</time>
      </trkpt>
      <trkpt lat="47.23382" lon="2.90936">
        <ele>175.13549804688</ele>
        <time>2016-04-13T13:11:54.000Z</time>
      </trkpt>
      <trkpt lat="47.23384" lon="2.90932">
        <ele>175.08532714844</ele>
        <time>2016-04-13T13:11:57.000Z</time>
      </trkpt>
      <trkpt lat="47.23387" lon="2.90929">
        <ele>175.03137207031</ele>
        <time>2016-04-13T13:12:00.000Z</time>
      </trkpt>
      <trkpt lat="47.2339" lon="2.90926">
        <ele>174.986328125</ele>
        <time>2016-04-13T13:12:02.000Z</time>
      </trkpt>
      <trkpt lat="47.23392" lon="2.90923">
        <ele>174.943359375</ele>
        <time>2016-04-13T13:12:04.000Z</time>
      </trkpt>
      <trkpt lat="47.23395" lon="2.90921">
        <ele>174.90222167969</ele>
        <time>2016-04-13T13:12:07.000Z</time>
      </trkpt>
      <trkpt lat="47.23397" lon="2.90919">
        <ele>174.8720703125</ele>
        <time>2016-04-13T13:12:09.000Z</time>
      </trkpt>
      <trkpt lat="47.23399" lon="2.90918">
        <ele>174.84729003906</ele>
        <time>2016-04-13T13:12:11.000Z</time>
      </trkpt>
      <trkpt lat="47.23401" lon="2.90914">
        <ele>174.81958007812</ele>
        <time>2016-04-13T13:12:14.000Z</time>
      </trkpt>
      <trkpt lat="47.23404" lon="2.90911">
        <ele>174.79016113281</ele>
        <time>2016-04-13T13:12:17.000Z</time>
      </trkpt>
      <trkpt lat="47.23406" lon="2.90909">
        <ele>174.759765625</ele>
        <time>2016-04-13T13:12:20.000Z</time>
      </trkpt>
      <trkpt lat="47.23408" lon="2.90907">
        <ele>174.72827148438</ele>
        <time>2016-04-13T13:12:22.000Z</time>
      </trkpt>
      <trkpt lat="47.23412" lon="2.90905">
        <ele>174.70068359375</ele>
        <time>2016-04-13T13:12:25.000Z</time>
      </trkpt>
      <trkpt lat="47.23414" lon="2.90904">
        <ele>174.67858886719</ele>
        <time>2016-04-13T13:12:27.000Z</time>
      </trkpt>
      <trkpt lat="47.23415" lon="2.90902">
        <ele>174.66394042969</ele>
        <time>2016-04-13T13:12:30.000Z</time>
      </trkpt>
      <trkpt lat="47.23418" lon="2.909">
        <ele>174.66073608398</ele>
        <time>2016-04-13T13:12:33.000Z</time>
      </trkpt>
      <trkpt lat="47.2342" lon="2.90899">
        <ele>174.66917419434</ele>
        <time>2016-04-13T13:12:35.000Z</time>
      </trkpt>
      <trkpt lat="47.23425" lon="2.90897">
        <ele>174.7038269043</ele>
        <time>2016-04-13T13:12:38.000Z</time>
      </trkpt>
      <trkpt lat="47.23428" lon="2.90895">
        <ele>174.75537109375</ele>
        <time>2016-04-13T13:12:40.000Z</time>
      </trkpt>
      <trkpt lat="47.23431" lon="2.90893">
        <ele>174.82542419434</ele>
        <time>2016-04-13T13:12:43.000Z</time>
      </trkpt>
      <trkpt lat="47.23434" lon="2.90891">
        <ele>174.90686035156</ele>
        <time>2016-04-13T13:12:45.000Z</time>
      </trkpt>
      <trkpt lat="47.23438" lon="2.9089">
        <ele>175.00032043457</ele>
        <time>2016-04-13T13:12:49.000Z</time>
      </trkpt>
      <trkpt lat="47.2344" lon="2.90889">
        <ele>175.083984375</ele>
        <time>2016-04-13T13:12:50.000Z</time>
      </trkpt>
      <trkpt lat="47.23442" lon="2.90888">
        <ele>175.16333007812</ele>
        <time>2016-04-13T13:12:52.000Z</time>
      </trkpt>
      <trkpt lat="47.23444" lon="2.90886">
        <ele>175.24368286133</ele>
        <time>2016-04-13T13:12:55.000Z</time>
      </trkpt>
      <trkpt lat="47.23446" lon="2.90886">
        <ele>175.31777954102</ele>
        <time>2016-04-13T13:12:57.000Z</time>
      </trkpt>
      <trkpt lat="47.23447" lon="2.90885">
        <ele>175.37957763672</ele>
        <time>2016-04-13T13:12:59.000Z</time>
      </trkpt>
      <trkpt lat="47.2345" lon="2.90885">
        <ele>175.44903564453</ele>
        <time>2016-04-13T13:13:02.000Z</time>
      </trkpt>
      <trkpt lat="47.23453" lon="2.90884">
        <ele>175.52670288086</ele>
        <time>2016-04-13T13:13:04.000Z</time>
      </trkpt>
      <trkpt lat="47.23456" lon="2.90884">
        <ele>175.61064147949</ele>
        <time>2016-04-13T13:13:07.000Z</time>
      </trkpt>
      <trkpt lat="47.23458" lon="2.90883">
        <ele>175.69526672363</ele>
        <time>2016-04-13T13:13:10.000Z</time>
      </trkpt>
      <trkpt lat="47.23461" lon="2.90882">
        <ele>175.79121398926</ele>
        <time>2016-04-13T13:13:13.000Z</time>
      </trkpt>
      <trkpt lat="47.23463" lon="2.90881">
        <ele>175.88354492188</ele>
        <time>2016-04-13T13:13:16.000Z</time>
      </trkpt>
      <trkpt lat="47.23465" lon="2.90878">
        <ele>175.96336364746</ele>
        <time>2016-04-13T13:13:19.000Z</time>
      </trkpt>
      <trkpt lat="47.23468" lon="2.90876">
        <ele>176.0365447998</ele>
        <time>2016-04-13T13:13:22.000Z</time>
      </trkpt>
      <trkpt lat="47.2347" lon="2.90875">
        <ele>176.10974121094</ele>
        <time>2016-04-13T13:13:24.000Z</time>
      </trkpt>
      <trkpt lat="47.23471" lon="2.90873">
        <ele>176.16961669922</ele>
        <time>2016-04-13T13:13:27.000Z</time>
      </trkpt>
      <trkpt lat="47.23474" lon="2.90873">
        <ele>176.23323059082</ele>
        <time>2016-04-13T13:13:30.000Z</time>
      </trkpt>
      <trkpt lat="47.23477" lon="2.90871">
        <ele>176.3095703125</ele>
        <time>2016-04-13T13:13:33.000Z</time>
      </trkpt>
      <trkpt lat="47.23478" lon="2.9087">
        <ele>176.37422180176</ele>
        <time>2016-04-13T13:13:35.000Z</time>
      </trkpt>
      <trkpt lat="47.2348" lon="2.90867">
        <ele>176.43545532227</ele>
        <time>2016-04-13T13:13:38.000Z</time>
      </trkpt>
      <trkpt lat="47.23484" lon="2.90863">
        <ele>176.5092010498</ele>
        <time>2016-04-13T13:13:41.000Z</time>
      </trkpt>
      <trkpt lat="47.23486" lon="2.90861">
        <ele>176.57011413574</ele>
        <time>2016-04-13T13:13:43.000Z</time>
      </trkpt>
      <trkpt lat="47.23489" lon="2.90855">
        <ele>176.62763977051</ele>
        <time>2016-04-13T13:13:47.000Z</time>
      </trkpt>
      <trkpt lat="47.23491" lon="2.90853">
        <ele>176.69497680664</ele>
        <time>2016-04-13T13:13:48.000Z</time>
      </trkpt>
      <trkpt lat="47.23494" lon="2.9085">
        <ele>176.76702880859</ele>
        <time>2016-04-13T13:13:51.000Z</time>
      </trkpt>
      <trkpt lat="47.23495" lon="2.90848">
        <ele>176.82888793945</ele>
        <time>2016-04-13T13:13:53.000Z</time>
      </trkpt>
      <trkpt lat="47.23497" lon="2.90846">
        <ele>176.89665222168</ele>
        <time>2016-04-13T13:13:56.000Z</time>
      </trkpt>
      <trkpt lat="47.23501" lon="2.90844">
        <ele>176.98937988281</ele>
        <time>2016-04-13T13:13:59.000Z</time>
      </trkpt>
      <trkpt lat="47.23505" lon="2.90842">
        <ele>177.14953613281</ele>
        <time>2016-04-13T13:14:02.000Z</time>
      </trkpt>
      <trkpt lat="47.23508" lon="2.90841">
        <ele>177.34504699707</ele>
        <time>2016-04-13T13:14:05.000Z</time>
      </trkpt>
      <trkpt lat="47.23509" lon="2.9084">
        <ele>177.56474304199</ele>
        <time>2016-04-13T13:14:07.000Z</time>
      </trkpt>
      <trkpt lat="47.23512" lon="2.90837">
        <ele>177.8154296875</ele>
        <time>2016-04-13T13:14:10.000Z</time>
      </trkpt>
      <trkpt lat="47.23512" lon="2.90835">
        <ele>178.04067993164</ele>
        <time>2016-04-13T13:14:12.000Z</time>
      </trkpt>
      <trkpt lat="47.23513" lon="2.90832">
        <ele>178.19033813477</ele>
        <time>2016-04-13T13:14:15.000Z</time>
      </trkpt>
      <trkpt lat="47.23515" lon="2.9083">
        <ele>178.31225585938</ele>
        <time>2016-04-13T13:14:17.000Z</time>
      </trkpt>
      <trkpt lat="47.23518" lon="2.90827">
        <ele>178.44421386719</ele>
        <time>2016-04-13T13:14:20.000Z</time>
      </trkpt>
      <trkpt lat="47.2352" lon="2.90825">
        <ele>178.56440734863</ele>
        <time>2016-04-13T13:14:23.000Z</time>
      </trkpt>
      <trkpt lat="47.23522" lon="2.90823">
        <ele>178.70195007324</ele>
        <time>2016-04-13T13:14:25.000Z</time>
      </trkpt>
      <trkpt lat="47.23524" lon="2.90818">
        <ele>178.85807800293</ele>
        <time>2016-04-13T13:14:28.000Z</time>
      </trkpt>
      <trkpt lat="47.23526" lon="2.90817">
        <ele>179.02029418945</ele>
        <time>2016-04-13T13:14:30.000Z</time>
      </trkpt>
      <trkpt lat="47.23528" lon="2.90815">
        <ele>179.17106628418</ele>
        <time>2016-04-13T13:14:32.000Z</time>
      </trkpt>
      <trkpt lat="47.23531" lon="2.90813">
        <ele>179.34576416016</ele>
        <time>2016-04-13T13:14:35.000Z</time>
      </trkpt>
      <trkpt lat="47.23533" lon="2.90812">
        <ele>179.50910949707</ele>
        <time>2016-04-13T13:14:37.000Z</time>
      </trkpt>
      <trkpt lat="47.23534" lon="2.90811">
        <ele>179.67575073242</ele>
        <time>2016-04-13T13:14:39.000Z</time>
      </trkpt>
      <trkpt lat="47.23537" lon="2.90808">
        <ele>179.8742980957</ele>
        <time>2016-04-13T13:14:42.000Z</time>
      </trkpt>
      <trkpt lat="47.23539" lon="2.90807">
        <ele>180.06002807617</ele>
        <time>2016-04-13T13:14:44.000Z</time>
      </trkpt>
      <trkpt lat="47.2354" lon="2.90805">
        <ele>180.20108032227</ele>
        <time>2016-04-13T13:14:46.000Z</time>
      </trkpt>
      <trkpt lat="47.23543" lon="2.90802">
        <ele>180.37696838379</ele>
        <time>2016-04-13T13:14:49.000Z</time>
      </trkpt>
      <trkpt lat="47.23546" lon="2.908">
        <ele>180.56994628906</ele>
        <time>2016-04-13T13:14:52.000Z</time>
      </trkpt>
      <trkpt lat="47.23548" lon="2.90799">
        <ele>180.74870300293</ele>
        <time>2016-04-13T13:14:55.000Z</time>
      </trkpt>
      <trkpt lat="47.2355" lon="2.90797">
        <ele>180.95358276367</ele>
        <time>2016-04-13T13:14:58.000Z</time>
      </trkpt>
      <trkpt lat="47.23552" lon="2.90795">
        <ele>181.16416931152</ele>
        <time>2016-04-13T13:15:00.000Z</time>
      </trkpt>
      <trkpt lat="47.23553" lon="2.90794">
        <ele>181.34809875488</ele>
        <time>2016-04-13T13:15:03.000Z</time>
      </trkpt>
      <trkpt lat="47.23555" lon="2.90792">
        <ele>181.51403808594</ele>
        <time>2016-04-13T13:15:06.000Z</time>
      </trkpt>
      <trkpt lat="47.23557" lon="2.90791">
        <ele>181.66555786133</ele>
        <time>2016-04-13T13:15:09.000Z</time>
      </trkpt>
      <trkpt lat="47.23558" lon="2.9079">
        <ele>181.80227661133</ele>
        <time>2016-04-13T13:15:12.000Z</time>
      </trkpt>
      <trkpt lat="47.2356" lon="2.90788">
        <ele>181.94006347656</ele>
        <time>2016-04-13T13:15:14.000Z</time>
      </trkpt>
      <trkpt lat="47.23561" lon="2.90787">
        <ele>182.0696105957</ele>
        <time>2016-04-13T13:15:16.000Z</time>
      </trkpt>
      <trkpt lat="47.23562" lon="2.90783">
        <ele>182.18811035156</ele>
        <time>2016-04-13T13:15:19.000Z</time>
      </trkpt>
      <trkpt lat="47.23565" lon="2.90781">
        <ele>182.31970214844</ele>
        <time>2016-04-13T13:15:21.000Z</time>
      </trkpt>
      <trkpt lat="47.23568" lon="2.90778">
        <ele>182.48017883301</ele>
        <time>2016-04-13T13:15:25.000Z</time>
      </trkpt>
      <trkpt lat="47.2357" lon="2.90776">
        <ele>182.6561126709</ele>
        <time>2016-04-13T13:15:26.000Z</time>
      </trkpt>
      <trkpt lat="47.23572" lon="2.90774">
        <ele>182.84359741211</ele>
        <time>2016-04-13T13:15:28.000Z</time>
      </trkpt>
      <trkpt lat="47.23574" lon="2.90772">
        <ele>183.05897521973</ele>
        <time>2016-04-13T13:15:31.000Z</time>
      </trkpt>
      <trkpt lat="47.23577" lon="2.90768">
        <ele>183.28730773926</ele>
        <time>2016-04-13T13:15:34.000Z</time>
      </trkpt>
      <trkpt lat="47.23579" lon="2.90766">
        <ele>183.48690795898</ele>
        <time>2016-04-13T13:15:36.000Z</time>
      </trkpt>
      <trkpt lat="47.2358" lon="2.90765">
        <ele>183.66896057129</ele>
        <time>2016-04-13T13:15:38.000Z</time>
      </trkpt>
      <trkpt lat="47.23582" lon="2.90763">
        <ele>183.84167480469</ele>
        <time>2016-04-13T13:15:41.000Z</time>
      </trkpt>
      <trkpt lat="47.23585" lon="2.9076">
        <ele>184.01821899414</ele>
        <time>2016-04-13T13:15:44.000Z</time>
      </trkpt>
      <trkpt lat="47.23587" lon="2.90758">
        <ele>184.16305541992</ele>
        <time>2016-04-13T13:15:47.000Z</time>
      </trkpt>
      <trkpt lat="47.23589" lon="2.90755">
        <ele>184.29470825195</ele>
        <time>2016-04-13T13:15:49.000Z</time>
      </trkpt>
      <trkpt lat="47.23594" lon="2.90749">
        <ele>184.4263458252</ele>
        <time>2016-04-13T13:15:52.000Z</time>
      </trkpt>
      <trkpt lat="47.23596" lon="2.90746">
        <ele>184.52806091309</ele>
        <time>2016-04-13T13:15:54.000Z</time>
      </trkpt>
      <trkpt lat="47.23597" lon="2.90743">
        <ele>184.57278442383</ele>
        <time>2016-04-13T13:15:56.000Z</time>
      </trkpt>
      <trkpt lat="47.236" lon="2.9074">
        <ele>184.58016967773</ele>
        <time>2016-04-13T13:15:59.000Z</time>
      </trkpt>
      <trkpt lat="47.23602" lon="2.90737">
        <ele>184.56661987305</ele>
        <time>2016-04-13T13:16:02.000Z</time>
      </trkpt>
      <trkpt lat="47.23603" lon="2.90734">
        <ele>184.5199432373</ele>
        <time>2016-04-13T13:16:04.000Z</time>
      </trkpt>
      <trkpt lat="47.23604" lon="2.90731">
        <ele>184.45942687988</ele>
        <time>2016-04-13T13:16:06.000Z</time>
      </trkpt>
      <trkpt lat="47.23605" lon="2.90728">
        <ele>184.3861541748</ele>
        <time>2016-04-13T13:16:09.000Z</time>
      </trkpt>
      <trkpt lat="47.23607" lon="2.90725">
        <ele>184.31745910645</ele>
        <time>2016-04-13T13:16:12.000Z</time>
      </trkpt>
      <trkpt lat="47.2361" lon="2.9072">
        <ele>184.24530029297</ele>
        <time>2016-04-13T13:16:15.000Z</time>
      </trkpt>
      <trkpt lat="47.23613" lon="2.90717">
        <ele>184.18797302246</ele>
        <time>2016-04-13T13:16:19.000Z</time>
      </trkpt>
      <trkpt lat="47.23615" lon="2.90714">
        <ele>184.15780639648</ele>
        <time>2016-04-13T13:16:21.000Z</time>
      </trkpt>
      <trkpt lat="47.23618" lon="2.9071">
        <ele>184.15051269531</ele>
        <time>2016-04-13T13:16:24.000Z</time>
      </trkpt>
      <trkpt lat="47.2362" lon="2.90706">
        <ele>184.14553833008</ele>
        <time>2016-04-13T13:16:27.000Z</time>
      </trkpt>
      <trkpt lat="47.23623" lon="2.90702">
        <ele>184.1527557373</ele>
        <time>2016-04-13T13:16:30.000Z</time>
      </trkpt>
      <trkpt lat="47.23624" lon="2.90699">
        <ele>184.15971374512</ele>
        <time>2016-04-13T13:16:32.000Z</time>
      </trkpt>
      <trkpt lat="47.23628" lon="2.90695">
        <ele>184.19003295898</ele>
        <time>2016-04-13T13:16:35.000Z</time>
      </trkpt>
      <trkpt lat="47.23629" lon="2.90693">
        <ele>184.22541809082</ele>
        <time>2016-04-13T13:16:38.000Z</time>
      </trkpt>
      <trkpt lat="47.23631" lon="2.9069">
        <ele>184.26519775391</ele>
        <time>2016-04-13T13:16:40.000Z</time>
      </trkpt>
      <trkpt lat="47.23634" lon="2.90687">
        <ele>184.32768249512</ele>
        <time>2016-04-13T13:16:43.000Z</time>
      </trkpt>
      <trkpt lat="47.23637" lon="2.90682">
        <ele>184.39358520508</ele>
        <time>2016-04-13T13:16:46.000Z</time>
      </trkpt>
      <trkpt lat="47.23638" lon="2.90679">
        <ele>184.42219543457</ele>
        <time>2016-04-13T13:16:48.000Z</time>
      </trkpt>
      <trkpt lat="47.23639" lon="2.90675">
        <ele>184.44262695312</ele>
        <time>2016-04-13T13:16:52.000Z</time>
      </trkpt>
      <trkpt lat="47.23642" lon="2.90672">
        <ele>184.48223876953</ele>
        <time>2016-04-13T13:16:54.000Z</time>
      </trkpt>
      <trkpt lat="47.23644" lon="2.90669">
        <ele>184.51208496094</ele>
        <time>2016-04-13T13:16:57.000Z</time>
      </trkpt>
      <trkpt lat="47.23646" lon="2.90666">
        <ele>184.56771850586</ele>
        <time>2016-04-13T13:17:00.000Z</time>
      </trkpt>
      <trkpt lat="47.23647" lon="2.90667">
        <ele>184.66061401367</ele>
        <time>2016-04-13T13:17:02.000Z</time>
      </trkpt>
      <trkpt lat="47.23648" lon="2.90665">
        <ele>184.75032043457</ele>
        <time>2016-04-13T13:17:05.000Z</time>
      </trkpt>
      <trkpt lat="47.23651" lon="2.90664">
        <ele>184.86518859863</ele>
        <time>2016-04-13T13:17:08.000Z</time>
      </trkpt>
      <trkpt lat="47.23652" lon="2.90663">
        <ele>184.9868927002</ele>
        <time>2016-04-13T13:17:11.000Z</time>
      </trkpt>
      <trkpt lat="47.23654" lon="2.90664">
        <ele>185.11679077148</ele>
        <time>2016-04-13T13:17:14.000Z</time>
      </trkpt>
      <trkpt lat="47.23654" lon="2.90665">
        <ele>185.23669433594</ele>
        <time>2016-04-13T13:17:22.000Z</time>
      </trkpt>
      <trkpt lat="47.23655" lon="2.90668">
        <ele>185.40908813477</ele>
        <time>2016-04-13T13:17:25.000Z</time>
      </trkpt>
      <trkpt lat="47.23655" lon="2.90669">
        <ele>185.55838012695</ele>
        <time>2016-04-13T13:17:28.000Z</time>
      </trkpt>
      <trkpt lat="47.23655" lon="2.9067">
        <ele>185.68630981445</ele>
        <time>2016-04-13T13:17:33.000Z</time>
      </trkpt>
      <trkpt lat="47.23655" lon="2.90674">
        <ele>185.79702758789</ele>
        <time>2016-04-13T13:17:36.000Z</time>
      </trkpt>
      <trkpt lat="47.23654" lon="2.90678">
        <ele>185.91421508789</ele>
        <time>2016-04-13T13:17:39.000Z</time>
      </trkpt>
      <trkpt lat="47.23653" lon="2.90681">
        <ele>185.99897766113</ele>
        <time>2016-04-13T13:17:41.000Z</time>
      </trkpt>
      <trkpt lat="47.23653" lon="2.90685">
        <ele>186.09014892578</ele>
        <time>2016-04-13T13:17:44.000Z</time>
      </trkpt>
      <trkpt lat="47.23652" lon="2.90689">
        <ele>186.19551086426</ele>
        <time>2016-04-13T13:17:47.000Z</time>
      </trkpt>
      <trkpt lat="47.23652" lon="2.90691">
        <ele>186.28544616699</ele>
        <time>2016-04-13T13:17:49.000Z</time>
      </trkpt>
      <trkpt lat="47.23652" lon="2.90693">
        <ele>186.37850952148</ele>
        <time>2016-04-13T13:17:51.000Z</time>
      </trkpt>
      <trkpt lat="47.23655" lon="2.90697">
        <ele>186.53852844238</ele>
        <time>2016-04-13T13:17:55.000Z</time>
      </trkpt>
      <trkpt lat="47.23657" lon="2.90699">
        <ele>186.7264251709</ele>
        <time>2016-04-13T13:17:56.000Z</time>
      </trkpt>
      <trkpt lat="47.23656" lon="2.90701">
        <ele>186.89756774902</ele>
        <time>2016-04-13T13:17:59.000Z</time>
      </trkpt>
      <trkpt lat="47.23656" lon="2.90703">
        <ele>187.08070373535</ele>
        <time>2016-04-13T13:18:04.000Z</time>
      </trkpt>
      <trkpt lat="47.23656" lon="2.90705">
        <ele>187.24063110352</ele>
        <time>2016-04-13T13:18:07.000Z</time>
      </trkpt>
      <trkpt lat="47.23657" lon="2.90712">
        <ele>187.4016418457</ele>
        <time>2016-04-13T13:18:09.000Z</time>
      </trkpt>
      <trkpt lat="47.23659" lon="2.90714">
        <ele>187.55839538574</ele>
        <time>2016-04-13T13:18:13.000Z</time>
      </trkpt>
      <trkpt lat="47.23663" lon="2.90722">
        <ele>187.83795166016</ele>
        <time>2016-04-13T13:18:26.000Z</time>
      </trkpt>
      <trkpt lat="47.23663" lon="2.90726">
        <ele>188.13662719727</ele>
        <time>2016-04-13T13:18:44.000Z</time>
      </trkpt>
      <trkpt lat="47.23664" lon="2.90729">
        <ele>188.48056030273</ele>
        <time>2016-04-13T13:18:47.000Z</time>
      </trkpt>
      <trkpt lat="47.23663" lon="2.90727">
        <ele>188.70077514648</ele>
        <time>2016-04-13T13:18:54.000Z</time>
      </trkpt>
      <trkpt lat="47.23663" lon="2.9072">
        <ele>188.80627441406</ele>
        <time>2016-04-13T13:19:07.000Z</time>
      </trkpt>
      <trkpt lat="47.23664" lon="2.90719">
        <ele>188.80345153809</ele>
        <time>2016-04-13T13:19:12.000Z</time>
      </trkpt>
      <trkpt lat="47.23665" lon="2.90719">
        <ele>188.79211425781</ele>
        <time>2016-04-13T13:19:14.000Z</time>
      </trkpt>
      <trkpt lat="47.23665" lon="2.90721">
        <ele>188.7453918457</ele>
        <time>2016-04-13T13:19:16.000Z</time>
      </trkpt>
      <trkpt lat="47.23665" lon="2.90723">
        <ele>188.75015258789</ele>
        <time>2016-04-13T13:19:19.000Z</time>
      </trkpt>
      <trkpt lat="47.23665" lon="2.90728">
        <ele>188.85385131836</ele>
        <time>2016-04-13T13:19:23.000Z</time>
      </trkpt>
      <trkpt lat="47.23666" lon="2.90732">
        <ele>188.98654174805</ele>
        <time>2016-04-13T13:19:25.000Z</time>
      </trkpt>
      <trkpt lat="47.23668" lon="2.90734">
        <ele>189.11087036133</ele>
        <time>2016-04-13T13:19:27.000Z</time>
      </trkpt>
      <trkpt lat="47.23667" lon="2.90739">
        <ele>189.26208496094</ele>
        <time>2016-04-13T13:19:30.000Z</time>
      </trkpt>
      <trkpt lat="47.23667" lon="2.90742">
        <ele>189.4214630127</ele>
        <time>2016-04-13T13:19:33.000Z</time>
      </trkpt>
      <trkpt lat="47.23668" lon="2.90746">
        <ele>189.56195068359</ele>
        <time>2016-04-13T13:19:35.000Z</time>
      </trkpt>
      <trkpt lat="47.23668" lon="2.90749">
        <ele>189.68110656738</ele>
        <time>2016-04-13T13:19:38.000Z</time>
      </trkpt>
      <trkpt lat="47.23669" lon="2.90753">
        <ele>189.79553222656</ele>
        <time>2016-04-13T13:19:41.000Z</time>
      </trkpt>
      <trkpt lat="47.23669" lon="2.90755">
        <ele>189.87673950195</ele>
        <time>2016-04-13T13:19:44.000Z</time>
      </trkpt>
      <trkpt lat="47.23671" lon="2.90756">
        <ele>189.93391418457</ele>
        <time>2016-04-13T13:19:46.000Z</time>
      </trkpt>
      <trkpt lat="47.23671" lon="2.90757">
        <ele>189.97619628906</ele>
        <time>2016-04-13T13:19:49.000Z</time>
      </trkpt>
      <trkpt lat="47.23673" lon="2.90759">
        <ele>189.99673461914</ele>
        <time>2016-04-13T13:19:52.000Z</time>
      </trkpt>
      <trkpt lat="47.23676" lon="2.90761">
        <ele>189.99331665039</ele>
        <time>2016-04-13T13:19:54.000Z</time>
      </trkpt>
      <trkpt lat="47.23677" lon="2.90763">
        <ele>189.97958374023</ele>
        <time>2016-04-13T13:19:57.000Z</time>
      </trkpt>
      <trkpt lat="47.23676" lon="2.90769">
        <ele>190.01078796387</ele>
        <time>2016-04-13T13:20:00.000Z</time>
      </trkpt>
      <trkpt lat="47.23676" lon="2.90772">
        <ele>190.06033325195</ele>
        <time>2016-04-13T13:20:18.000Z</time>
      </trkpt>
      <trkpt lat="47.2368" lon="2.90763">
        <ele>190.03308105469</ele>
        <time>2016-04-13T13:20:30.000Z</time>
      </trkpt>
      <trkpt lat="47.23681" lon="2.90762">
        <ele>190.00009155273</ele>
        <time>2016-04-13T13:20:38.000Z</time>
      </trkpt>
      <trkpt lat="47.2368" lon="2.90763">
        <ele>189.97799682617</ele>
        <time>2016-04-13T13:20:44.000Z</time>
      </trkpt>
      <trkpt lat="47.23679" lon="2.90764">
        <ele>189.93075561523</ele>
        <time>2016-04-13T13:20:46.000Z</time>
      </trkpt>
      <trkpt lat="47.23679" lon="2.90768">
        <ele>189.88821411133</ele>
        <time>2016-04-13T13:20:54.000Z</time>
      </trkpt>
      <trkpt lat="47.23676" lon="2.90774">
        <ele>189.96994018555</ele>
        <time>2016-04-13T13:20:57.000Z</time>
      </trkpt>
      <trkpt lat="47.23676" lon="2.9078">
        <ele>190.09638977051</ele>
        <time>2016-04-13T13:21:05.000Z</time>
      </trkpt>
      <trkpt lat="47.23676" lon="2.90784">
        <ele>190.23635864258</ele>
        <time>2016-04-13T13:21:07.000Z</time>
      </trkpt>
      <trkpt lat="47.23677" lon="2.90791">
        <ele>190.3893737793</ele>
        <time>2016-04-13T13:21:10.000Z</time>
      </trkpt>
      <trkpt lat="47.23677" lon="2.90796">
        <ele>190.54330444336</ele>
        <time>2016-04-13T13:21:13.000Z</time>
      </trkpt>
      <trkpt lat="47.23677" lon="2.90805">
        <ele>190.6930847168</ele>
        <time>2016-04-13T13:21:16.000Z</time>
      </trkpt>
      <trkpt lat="47.23679" lon="2.90808">
        <ele>190.8214263916</ele>
        <time>2016-04-13T13:21:18.000Z</time>
      </trkpt>
      <trkpt lat="47.23681" lon="2.9081">
        <ele>190.92579650879</ele>
        <time>2016-04-13T13:21:22.000Z</time>
      </trkpt>
      <trkpt lat="47.23682" lon="2.90813">
        <ele>191.00909423828</ele>
        <time>2016-04-13T13:21:23.000Z</time>
      </trkpt>
      <trkpt lat="47.23683" lon="2.90815">
        <ele>191.07202148438</ele>
        <time>2016-04-13T13:21:25.000Z</time>
      </trkpt>
      <trkpt lat="47.23684" lon="2.90818">
        <ele>191.10302734375</ele>
        <time>2016-04-13T13:21:28.000Z</time>
      </trkpt>
      <trkpt lat="47.23683" lon="2.9082">
        <ele>191.13778686523</ele>
        <time>2016-04-13T13:21:30.000Z</time>
      </trkpt>
      <trkpt lat="47.23685" lon="2.90827">
        <ele>191.20236206055</ele>
        <time>2016-04-13T13:21:33.000Z</time>
      </trkpt>
      <trkpt lat="47.23686" lon="2.9083">
        <ele>191.27534484863</ele>
        <time>2016-04-13T13:21:35.000Z</time>
      </trkpt>
      <trkpt lat="47.23689" lon="2.90835">
        <ele>191.34797668457</ele>
        <time>2016-04-13T13:21:37.000Z</time>
      </trkpt>
      <trkpt lat="47.23691" lon="2.90837">
        <ele>191.40058898926</ele>
        <time>2016-04-13T13:21:40.000Z</time>
      </trkpt>
      <trkpt lat="47.23693" lon="2.90841">
        <ele>191.43249511719</ele>
        <time>2016-04-13T13:21:43.000Z</time>
      </trkpt>
      <trkpt lat="47.23695" lon="2.90848">
        <ele>191.43115234375</ele>
        <time>2016-04-13T13:21:46.000Z</time>
      </trkpt>
      <trkpt lat="47.23695" lon="2.90853">
        <ele>191.41839599609</ele>
        <time>2016-04-13T13:21:50.000Z</time>
      </trkpt>
      <trkpt lat="47.23697" lon="2.90854">
        <ele>191.39619445801</ele>
        <time>2016-04-13T13:21:51.000Z</time>
      </trkpt>
      <trkpt lat="47.23698" lon="2.90858">
        <ele>191.38063049316</ele>
        <time>2016-04-13T13:21:55.000Z</time>
      </trkpt>
      <trkpt lat="47.23698" lon="2.90859">
        <ele>191.3726348877</ele>
        <time>2016-04-13T13:21:56.000Z</time>
      </trkpt>
      <trkpt lat="47.237" lon="2.90864">
        <ele>191.36703491211</ele>
        <time>2016-04-13T13:22:01.000Z</time>
      </trkpt>
      <trkpt lat="47.23701" lon="2.90866">
        <ele>191.35450744629</ele>
        <time>2016-04-13T13:22:02.000Z</time>
      </trkpt>
      <trkpt lat="47.23703" lon="2.90873">
        <ele>191.34866333008</ele>
        <time>2016-04-13T13:22:05.000Z</time>
      </trkpt>
      <trkpt lat="47.23705" lon="2.90877">
        <ele>191.34155273438</ele>
        <time>2016-04-13T13:22:08.000Z</time>
      </trkpt>
      <trkpt lat="47.23706" lon="2.90879">
        <ele>191.33122253418</ele>
        <time>2016-04-13T13:22:11.000Z</time>
      </trkpt>
      <trkpt lat="47.23708" lon="2.9088">
        <ele>191.32025146484</ele>
        <time>2016-04-13T13:22:13.000Z</time>
      </trkpt>
      <trkpt lat="47.23709" lon="2.90881">
        <ele>191.30847167969</ele>
        <time>2016-04-13T13:22:18.000Z</time>
      </trkpt>
      <trkpt lat="47.23707" lon="2.90888">
        <ele>191.31083679199</ele>
        <time>2016-04-13T13:22:25.000Z</time>
      </trkpt>
      <trkpt lat="47.23706" lon="2.90893">
        <ele>191.32312011719</ele>
        <time>2016-04-13T13:22:28.000Z</time>
      </trkpt>
      <trkpt lat="47.23707" lon="2.90896">
        <ele>191.34020996094</ele>
        <time>2016-04-13T13:22:31.000Z</time>
      </trkpt>
      <trkpt lat="47.23708" lon="2.90897">
        <ele>191.3571472168</ele>
        <time>2016-04-13T13:22:33.000Z</time>
      </trkpt>
      <trkpt lat="47.23711" lon="2.90901">
        <ele>191.37643432617</ele>
        <time>2016-04-13T13:22:36.000Z</time>
      </trkpt>
      <trkpt lat="47.23711" lon="2.90904">
        <ele>191.38343811035</ele>
        <time>2016-04-13T13:22:38.000Z</time>
      </trkpt>
      <trkpt lat="47.23711" lon="2.90908">
        <ele>191.38891601562</ele>
        <time>2016-04-13T13:22:41.000Z</time>
      </trkpt>
      <trkpt lat="47.23712" lon="2.90909">
        <ele>191.39175415039</ele>
        <time>2016-04-13T13:22:43.000Z</time>
      </trkpt>
      <trkpt lat="47.23715" lon="2.90914">
        <ele>191.39614868164</ele>
        <time>2016-04-13T13:22:46.000Z</time>
      </trkpt>
      <trkpt lat="47.23716" lon="2.90915">
        <ele>191.40161132812</ele>
        <time>2016-04-13T13:22:49.000Z</time>
      </trkpt>
      <trkpt lat="47.23721" lon="2.90926">
        <ele>191.45684814453</ele>
        <time>2016-04-13T13:22:52.000Z</time>
      </trkpt>
      <trkpt lat="47.23722" lon="2.9093">
        <ele>191.53506469727</ele>
        <time>2016-04-13T13:22:55.000Z</time>
      </trkpt>
      <trkpt lat="47.23723" lon="2.90933">
        <ele>191.63520812988</ele>
        <time>2016-04-13T13:22:57.000Z</time>
      </trkpt>
      <trkpt lat="47.23724" lon="2.90935">
        <ele>191.7548828125</ele>
        <time>2016-04-13T13:22:59.000Z</time>
      </trkpt>
      <trkpt lat="47.23724" lon="2.90935">
        <ele>191.7548828125</ele>
        <time>2016-04-13T13:23:19.000Z</time>
      </trkpt>
      <trkpt lat="47.23724" lon="2.90929">
        <ele>191.82556152344</ele>
        <time>2016-04-13T13:23:24.000Z</time>
      </trkpt>
      <trkpt lat="47.23725" lon="2.9093">
        <ele>191.85209655762</ele>
        <time>2016-04-13T13:23:27.000Z</time>
      </trkpt>
      <trkpt lat="47.23725" lon="2.90931">
        <ele>191.85916137695</ele>
        <time>2016-04-13T13:23:29.000Z</time>
      </trkpt>
      <trkpt lat="47.23728" lon="2.90935">
        <ele>191.87414550781</ele>
        <time>2016-04-13T13:23:32.000Z</time>
      </trkpt>
      <trkpt lat="47.23728" lon="2.9094">
        <ele>191.90835571289</ele>
        <time>2016-04-13T13:23:40.000Z</time>
      </trkpt>
      <trkpt lat="47.23727" lon="2.90942">
        <ele>192.00929260254</ele>
        <time>2016-04-13T13:23:42.000Z</time>
      </trkpt>
      <trkpt lat="47.2373" lon="2.9095">
        <ele>192.16091918945</ele>
        <time>2016-04-13T13:23:48.000Z</time>
      </trkpt>
      <trkpt lat="47.23732" lon="2.90953">
        <ele>192.32690429688</ele>
        <time>2016-04-13T13:23:50.000Z</time>
      </trkpt>
      <trkpt lat="47.23734" lon="2.90959">
        <ele>192.51704406738</ele>
        <time>2016-04-13T13:23:52.000Z</time>
      </trkpt>
      <trkpt lat="47.23737" lon="2.90964">
        <ele>192.72032165527</ele>
        <time>2016-04-13T13:23:55.000Z</time>
      </trkpt>
      <trkpt lat="47.23741" lon="2.9097">
        <ele>192.95928955078</ele>
        <time>2016-04-13T13:24:00.000Z</time>
      </trkpt>
      <trkpt lat="47.23743" lon="2.90973">
        <ele>193.1752166748</ele>
        <time>2016-04-13T13:24:01.000Z</time>
      </trkpt>
      <trkpt lat="47.23745" lon="2.90982">
        <ele>193.44969177246</ele>
        <time>2016-04-13T13:24:04.000Z</time>
      </trkpt>
      <trkpt lat="47.23747" lon="2.90986">
        <ele>193.71453857422</ele>
        <time>2016-04-13T13:24:07.000Z</time>
      </trkpt>
      <trkpt lat="47.2375" lon="2.9099">
        <ele>193.98344421387</ele>
        <time>2016-04-13T13:24:11.000Z</time>
      </trkpt>
      <trkpt lat="47.23751" lon="2.90993">
        <ele>194.22489929199</ele>
        <time>2016-04-13T13:24:12.000Z</time>
      </trkpt>
      <trkpt lat="47.23753" lon="2.90997">
        <ele>194.4684753418</ele>
        <time>2016-04-13T13:24:15.000Z</time>
      </trkpt>
      <trkpt lat="47.23755" lon="2.91002">
        <ele>194.64521789551</ele>
        <time>2016-04-13T13:24:18.000Z</time>
      </trkpt>
      <trkpt lat="47.23755" lon="2.91006">
        <ele>194.76800537109</ele>
        <time>2016-04-13T13:24:22.000Z</time>
      </trkpt>
      <trkpt lat="47.23755" lon="2.91011">
        <ele>194.82281494141</ele>
        <time>2016-04-13T13:24:24.000Z</time>
      </trkpt>
      <trkpt lat="47.23755" lon="2.91015">
        <ele>194.84471130371</ele>
        <time>2016-04-13T13:24:26.000Z</time>
      </trkpt>
      <trkpt lat="47.23756" lon="2.9102">
        <ele>194.81286621094</ele>
        <time>2016-04-13T13:24:29.000Z</time>
      </trkpt>
      <trkpt lat="47.23756" lon="2.91021">
        <ele>194.76123046875</ele>
        <time>2016-04-13T13:24:31.000Z</time>
      </trkpt>
      <trkpt lat="47.23758" lon="2.91028">
        <ele>194.69946289062</ele>
        <time>2016-04-13T13:24:34.000Z</time>
      </trkpt>
      <trkpt lat="47.23758" lon="2.91034">
        <ele>194.63787841797</ele>
        <time>2016-04-13T13:24:37.000Z</time>
      </trkpt>
      <trkpt lat="47.23758" lon="2.91036">
        <ele>194.57745361328</ele>
        <time>2016-04-13T13:24:39.000Z</time>
      </trkpt>
      <trkpt lat="47.23759" lon="2.91044">
        <ele>194.51153564453</ele>
        <time>2016-04-13T13:24:41.000Z</time>
      </trkpt>
      <trkpt lat="47.23762" lon="2.91048">
        <ele>194.4326171875</ele>
        <time>2016-04-13T13:24:44.000Z</time>
      </trkpt>
      <trkpt lat="47.23764" lon="2.91052">
        <ele>194.36169433594</ele>
        <time>2016-04-13T13:24:47.000Z</time>
      </trkpt>
      <trkpt lat="47.23768" lon="2.91057">
        <ele>194.28344726562</ele>
        <time>2016-04-13T13:24:50.000Z</time>
      </trkpt>
      <trkpt lat="47.23769" lon="2.91061">
        <ele>194.19653320312</ele>
        <time>2016-04-13T13:24:53.000Z</time>
      </trkpt>
      <trkpt lat="47.2377" lon="2.91064">
        <ele>194.12200927734</ele>
        <time>2016-04-13T13:24:55.000Z</time>
      </trkpt>
      <trkpt lat="47.23771" lon="2.91068">
        <ele>194.05456542969</ele>
        <time>2016-04-13T13:24:58.000Z</time>
      </trkpt>
      <trkpt lat="47.23771" lon="2.91072">
        <ele>193.99047851562</ele>
        <time>2016-04-13T13:25:01.000Z</time>
      </trkpt>
      <trkpt lat="47.23771" lon="2.91074">
        <ele>193.94049072266</ele>
        <time>2016-04-13T13:25:03.000Z</time>
      </trkpt>
      <trkpt lat="47.23772" lon="2.91076">
        <ele>193.89758300781</ele>
        <time>2016-04-13T13:25:05.000Z</time>
      </trkpt>
      <trkpt lat="47.23774" lon="2.91082">
        <ele>193.84716796875</ele>
        <time>2016-04-13T13:25:08.000Z</time>
      </trkpt>
      <trkpt lat="47.23775" lon="2.91085">
        <ele>193.79551696777</ele>
        <time>2016-04-13T13:25:11.000Z</time>
      </trkpt>
      <trkpt lat="47.23776" lon="2.91088">
        <ele>193.7487487793</ele>
        <time>2016-04-13T13:25:13.000Z</time>
      </trkpt>
      <trkpt lat="47.23775" lon="2.91095">
        <ele>193.69668579102</ele>
        <time>2016-04-13T13:25:21.000Z</time>
      </trkpt>
      <trkpt lat="47.23774" lon="2.91097">
        <ele>193.65214538574</ele>
        <time>2016-04-13T13:25:24.000Z</time>
      </trkpt>
      <trkpt lat="47.23776" lon="2.91101">
        <ele>193.61235046387</ele>
        <time>2016-04-13T13:25:27.000Z</time>
      </trkpt>
      <trkpt lat="47.23776" lon="2.91108">
        <ele>193.5729675293</ele>
        <time>2016-04-13T13:25:30.000Z</time>
      </trkpt>
      <trkpt lat="47.23777" lon="2.91112">
        <ele>193.53120422363</ele>
        <time>2016-04-13T13:25:32.000Z</time>
      </trkpt>
      <trkpt lat="47.23779" lon="2.91115">
        <ele>193.49392700195</ele>
        <time>2016-04-13T13:25:34.000Z</time>
      </trkpt>
      <trkpt lat="47.23782" lon="2.91117">
        <ele>193.44747924805</ele>
        <time>2016-04-13T13:25:38.000Z</time>
      </trkpt>
      <trkpt lat="47.23785" lon="2.9112">
        <ele>193.40460205078</ele>
        <time>2016-04-13T13:25:39.000Z</time>
      </trkpt>
      <trkpt lat="47.2379" lon="2.91123">
        <ele>193.36367797852</ele>
        <time>2016-04-13T13:25:41.000Z</time>
      </trkpt>
      <trkpt lat="47.23793" lon="2.91128">
        <ele>193.3196105957</ele>
        <time>2016-04-13T13:25:44.000Z</time>
      </trkpt>
      <trkpt lat="47.23795" lon="2.9113">
        <ele>193.27812194824</ele>
        <time>2016-04-13T13:25:46.000Z</time>
      </trkpt>
      <trkpt lat="47.23796" lon="2.91134">
        <ele>193.23960876465</ele>
        <time>2016-04-13T13:25:49.000Z</time>
      </trkpt>
      <trkpt lat="47.23798" lon="2.91139">
        <ele>193.20225524902</ele>
        <time>2016-04-13T13:25:51.000Z</time>
      </trkpt>
      <trkpt lat="47.23801" lon="2.91145">
        <ele>193.16746520996</ele>
        <time>2016-04-13T13:25:54.000Z</time>
      </trkpt>
      <trkpt lat="47.23805" lon="2.9115">
        <ele>193.13662719727</ele>
        <time>2016-04-13T13:25:57.000Z</time>
      </trkpt>
      <trkpt lat="47.23809" lon="2.91154">
        <ele>193.10507202148</ele>
        <time>2016-04-13T13:26:00.000Z</time>
      </trkpt>
      <trkpt lat="47.23809" lon="2.9116">
        <ele>193.07510375977</ele>
        <time>2016-04-13T13:26:03.000Z</time>
      </trkpt>
      <trkpt lat="47.2381" lon="2.91164">
        <ele>193.04899597168</ele>
        <time>2016-04-13T13:26:06.000Z</time>
      </trkpt>
      <trkpt lat="47.23811" lon="2.91169">
        <ele>193.01358032227</ele>
        <time>2016-04-13T13:26:09.000Z</time>
      </trkpt>
      <trkpt lat="47.23813" lon="2.91174">
        <ele>192.94607543945</ele>
        <time>2016-04-13T13:26:12.000Z</time>
      </trkpt>
      <trkpt lat="47.23813" lon="2.91176">
        <ele>192.86148071289</ele>
        <time>2016-04-13T13:26:14.000Z</time>
      </trkpt>
      <trkpt lat="47.23814" lon="2.9118">
        <ele>192.75372314453</ele>
        <time>2016-04-13T13:26:17.000Z</time>
      </trkpt>
      <trkpt lat="47.23815" lon="2.91181">
        <ele>192.63583374023</ele>
        <time>2016-04-13T13:26:19.000Z</time>
      </trkpt>
      <trkpt lat="47.23818" lon="2.91183">
        <ele>192.51322937012</ele>
        <time>2016-04-13T13:26:23.000Z</time>
      </trkpt>
      <trkpt lat="47.23818" lon="2.91187">
        <ele>192.40104675293</ele>
        <time>2016-04-13T13:26:24.000Z</time>
      </trkpt>
      <trkpt lat="47.2382" lon="2.9119">
        <ele>192.28379821777</ele>
        <time>2016-04-13T13:26:26.000Z</time>
      </trkpt>
      <trkpt lat="47.23821" lon="2.91194">
        <ele>192.15643310547</ele>
        <time>2016-04-13T13:26:29.000Z</time>
      </trkpt>
      <trkpt lat="47.23821" lon="2.912">
        <ele>191.98921203613</ele>
        <time>2016-04-13T13:26:32.000Z</time>
      </trkpt>
      <trkpt lat="47.23821" lon="2.91202">
        <ele>191.82418823242</ele>
        <time>2016-04-13T13:26:35.000Z</time>
      </trkpt>
      <trkpt lat="47.23822" lon="2.91206">
        <ele>191.65252685547</ele>
        <time>2016-04-13T13:26:38.000Z</time>
      </trkpt>
      <trkpt lat="47.23823" lon="2.91207">
        <ele>191.49487304688</ele>
        <time>2016-04-13T13:26:40.000Z</time>
      </trkpt>
      <trkpt lat="47.23824" lon="2.9121">
        <ele>191.34828186035</ele>
        <time>2016-04-13T13:26:43.000Z</time>
      </trkpt>
      <trkpt lat="47.23823" lon="2.91212">
        <ele>191.23565673828</ele>
        <time>2016-04-13T13:26:46.000Z</time>
      </trkpt>
      <trkpt lat="47.23822" lon="2.91215">
        <ele>191.11726379395</ele>
        <time>2016-04-13T13:26:48.000Z</time>
      </trkpt>
      <trkpt lat="47.23823" lon="2.91219">
        <ele>190.99661254883</ele>
        <time>2016-04-13T13:26:51.000Z</time>
      </trkpt>
      <trkpt lat="47.23827" lon="2.91225">
        <ele>190.8203125</ele>
        <time>2016-04-13T13:26:54.000Z</time>
      </trkpt>
      <trkpt lat="47.23829" lon="2.91225">
        <ele>190.65570068359</ele>
        <time>2016-04-13T13:27:00.000Z</time>
      </trkpt>
      <trkpt lat="47.23832" lon="2.91229">
        <ele>190.46279907227</ele>
        <time>2016-04-13T13:27:03.000Z</time>
      </trkpt>
      <trkpt lat="47.23832" lon="2.91234">
        <ele>190.2448425293</ele>
        <time>2016-04-13T13:27:07.000Z</time>
      </trkpt>
      <trkpt lat="47.23832" lon="2.91236">
        <ele>190.04840087891</ele>
        <time>2016-04-13T13:27:08.000Z</time>
      </trkpt>
      <trkpt lat="47.23833" lon="2.91242">
        <ele>189.85331726074</ele>
        <time>2016-04-13T13:27:11.000Z</time>
      </trkpt>
      <trkpt lat="47.23833" lon="2.91246">
        <ele>189.63470458984</ele>
        <time>2016-04-13T13:27:13.000Z</time>
      </trkpt>
      <trkpt lat="47.23835" lon="2.91251">
        <ele>189.39572143555</ele>
        <time>2016-04-13T13:27:16.000Z</time>
      </trkpt>
      <trkpt lat="47.23837" lon="2.91252">
        <ele>189.18838500977</ele>
        <time>2016-04-13T13:27:19.000Z</time>
      </trkpt>
      <trkpt lat="47.23836" lon="2.91253">
        <ele>188.97775268555</ele>
        <time>2016-04-13T13:27:29.000Z</time>
      </trkpt>
      <trkpt lat="47.23835" lon="2.91255">
        <ele>188.81874084473</ele>
        <time>2016-04-13T13:27:31.000Z</time>
      </trkpt>
      <trkpt lat="47.23835" lon="2.91255">
        <ele>188.69659423828</ele>
        <time>2016-04-13T13:27:44.000Z</time>
      </trkpt>
      <trkpt lat="47.23833" lon="2.91256">
        <ele>188.64456176758</ele>
        <time>2016-04-13T13:27:48.000Z</time>
      </trkpt>
      <trkpt lat="47.23832" lon="2.91256">
        <ele>188.60520935059</ele>
        <time>2016-04-13T13:27:51.000Z</time>
      </trkpt>
      <trkpt lat="47.23831" lon="2.9126">
        <ele>188.54675292969</ele>
        <time>2016-04-13T13:27:54.000Z</time>
      </trkpt>
      <trkpt lat="47.23831" lon="2.91261">
        <ele>188.48239135742</ele>
        <time>2016-04-13T13:27:57.000Z</time>
      </trkpt>
      <trkpt lat="47.2383" lon="2.91263">
        <ele>188.40016174316</ele>
        <time>2016-04-13T13:27:59.000Z</time>
      </trkpt>
      <trkpt lat="47.23829" lon="2.91263">
        <ele>188.3232421875</ele>
        <time>2016-04-13T13:28:05.000Z</time>
      </trkpt>
      <trkpt lat="47.23827" lon="2.91264">
        <ele>188.25659179688</ele>
        <time>2016-04-13T13:28:06.000Z</time>
      </trkpt>
      <trkpt lat="47.23825" lon="2.91264">
        <ele>188.24597167969</ele>
        <time>2016-04-13T13:28:09.000Z</time>
      </trkpt>
      <trkpt lat="47.23823" lon="2.91265">
        <ele>188.25549316406</ele>
        <time>2016-04-13T13:28:12.000Z</time>
      </trkpt>
      <trkpt lat="47.23821" lon="2.91266">
        <ele>188.27709960938</ele>
        <time>2016-04-13T13:28:14.000Z</time>
      </trkpt>
      <trkpt lat="47.23818" lon="2.91268">
        <ele>188.28112792969</ele>
        <time>2016-04-13T13:28:17.000Z</time>
      </trkpt>
      <trkpt lat="47.23816" lon="2.91269">
        <ele>188.28552246094</ele>
        <time>2016-04-13T13:28:20.000Z</time>
      </trkpt>
      <trkpt lat="47.23814" lon="2.91272">
        <ele>188.24743652344</ele>
        <time>2016-04-13T13:28:23.000Z</time>
      </trkpt>
      <trkpt lat="47.23813" lon="2.91274">
        <ele>188.1796875</ele>
        <time>2016-04-13T13:28:25.000Z</time>
      </trkpt>
      <trkpt lat="47.23811" lon="2.91277">
        <ele>188.10241699219</ele>
        <time>2016-04-13T13:28:29.000Z</time>
      </trkpt>
      <trkpt lat="47.23809" lon="2.91278">
        <ele>188.02807617188</ele>
        <time>2016-04-13T13:28:30.000Z</time>
      </trkpt>
      <trkpt lat="47.23808" lon="2.91279">
        <ele>187.95043945312</ele>
        <time>2016-04-13T13:28:33.000Z</time>
      </trkpt>
      <trkpt lat="47.23806" lon="2.91279">
        <ele>187.90612792969</ele>
        <time>2016-04-13T13:28:36.000Z</time>
      </trkpt>
      <trkpt lat="47.23804" lon="2.91279">
        <ele>187.89880371094</ele>
        <time>2016-04-13T13:28:39.000Z</time>
      </trkpt>
      <trkpt lat="47.23803" lon="2.9128">
        <ele>187.91528320312</ele>
        <time>2016-04-13T13:28:42.000Z</time>
      </trkpt>
      <trkpt lat="47.238" lon="2.91281">
        <ele>187.93688964844</ele>
        <time>2016-04-13T13:28:45.000Z</time>
      </trkpt>
      <trkpt lat="47.23799" lon="2.91282">
        <ele>187.94934082031</ele>
        <time>2016-04-13T13:28:48.000Z</time>
      </trkpt>
      <trkpt lat="47.23797" lon="2.91282">
        <ele>187.96215820312</ele>
        <time>2016-04-13T13:28:52.000Z</time>
      </trkpt>
      <trkpt lat="47.23796" lon="2.91283">
        <ele>187.96801757812</ele>
        <time>2016-04-13T13:28:53.000Z</time>
      </trkpt>
      <trkpt lat="47.23795" lon="2.91284">
        <ele>187.96472167969</ele>
        <time>2016-04-13T13:28:55.000Z</time>
      </trkpt>
      <trkpt lat="47.23792" lon="2.91285">
        <ele>187.96215820312</ele>
        <time>2016-04-13T13:28:58.000Z</time>
      </trkpt>
      <trkpt lat="47.23789" lon="2.91286">
        <ele>187.97497558594</ele>
        <time>2016-04-13T13:29:01.000Z</time>
      </trkpt>
      <trkpt lat="47.23786" lon="2.91287">
        <ele>187.98889160156</ele>
        <time>2016-04-13T13:29:04.000Z</time>
      </trkpt>
      <trkpt lat="47.23784" lon="2.91288">
        <ele>187.99987792969</ele>
        <time>2016-04-13T13:29:06.000Z</time>
      </trkpt>
      <trkpt lat="47.23781" lon="2.9129">
        <ele>188.00537109375</ele>
        <time>2016-04-13T13:29:09.000Z</time>
      </trkpt>
      <trkpt lat="47.23779" lon="2.91292">
        <ele>187.998046875</ele>
        <time>2016-04-13T13:29:12.000Z</time>
      </trkpt>
      <trkpt lat="47.23776" lon="2.91293">
        <ele>187.98962402344</ele>
        <time>2016-04-13T13:29:14.000Z</time>
      </trkpt>
      <trkpt lat="47.23773" lon="2.91295">
        <ele>187.97131347656</ele>
        <time>2016-04-13T13:29:17.000Z</time>
      </trkpt>
      <trkpt lat="47.23771" lon="2.91296">
        <ele>187.95153808594</ele>
        <time>2016-04-13T13:29:19.000Z</time>
      </trkpt>
      <trkpt lat="47.23768" lon="2.91299">
        <ele>187.92333984375</ele>
        <time>2016-04-13T13:29:22.000Z</time>
      </trkpt>
      <trkpt lat="47.23764" lon="2.91301">
        <ele>187.8955078125</ele>
        <time>2016-04-13T13:29:26.000Z</time>
      </trkpt>
      <trkpt lat="47.23763" lon="2.91303">
        <ele>187.84533691406</ele>
        <time>2016-04-13T13:29:27.000Z</time>
      </trkpt>
      <trkpt lat="47.23759" lon="2.91306">
        <ele>187.77648925781</ele>
        <time>2016-04-13T13:29:30.000Z</time>
      </trkpt>
      <trkpt lat="47.23758" lon="2.91309">
        <ele>187.67944335938</ele>
        <time>2016-04-13T13:29:32.000Z</time>
      </trkpt>
      <trkpt lat="47.23756" lon="2.91312">
        <ele>187.56701660156</ele>
        <time>2016-04-13T13:29:34.000Z</time>
      </trkpt>
      <trkpt lat="47.23753" lon="2.91315">
        <ele>187.45239257812</ele>
        <time>2016-04-13T13:29:37.000Z</time>
      </trkpt>
      <trkpt lat="47.23752" lon="2.91317">
        <ele>187.34033203125</ele>
        <time>2016-04-13T13:29:39.000Z</time>
      </trkpt>
      <trkpt lat="47.23751" lon="2.91318">
        <ele>187.23559570312</ele>
        <time>2016-04-13T13:29:41.000Z</time>
      </trkpt>
      <trkpt lat="47.23747" lon="2.91321">
        <ele>187.15975952148</ele>
        <time>2016-04-13T13:29:44.000Z</time>
      </trkpt>
      <trkpt lat="47.23745" lon="2.91323">
        <ele>187.10153198242</ele>
        <time>2016-04-13T13:29:47.000Z</time>
      </trkpt>
      <trkpt lat="47.23742" lon="2.91327">
        <ele>187.03848266602</ele>
        <time>2016-04-13T13:29:50.000Z</time>
      </trkpt>
      <trkpt lat="47.2374" lon="2.91331">
        <ele>186.97340393066</ele>
        <time>2016-04-13T13:29:53.000Z</time>
      </trkpt>
      <trkpt lat="47.23738" lon="2.91332">
        <ele>186.9153137207</ele>
        <time>2016-04-13T13:29:55.000Z</time>
      </trkpt>
      <trkpt lat="47.23736" lon="2.91337">
        <ele>186.84817504883</ele>
        <time>2016-04-13T13:29:59.000Z</time>
      </trkpt>
      <trkpt lat="47.23734" lon="2.91339">
        <ele>186.80453491211</ele>
        <time>2016-04-13T13:30:00.000Z</time>
      </trkpt>
      <trkpt lat="47.23731" lon="2.91342">
        <ele>186.78639221191</ele>
        <time>2016-04-13T13:30:03.000Z</time>
      </trkpt>
      <trkpt lat="47.23729" lon="2.91344">
        <ele>186.79391479492</ele>
        <time>2016-04-13T13:30:06.000Z</time>
      </trkpt>
      <trkpt lat="47.23727" lon="2.91347">
        <ele>186.80351257324</ele>
        <time>2016-04-13T13:30:08.000Z</time>
      </trkpt>
      <trkpt lat="47.23726" lon="2.9135">
        <ele>186.81762695312</ele>
        <time>2016-04-13T13:30:11.000Z</time>
      </trkpt>
      <trkpt lat="47.23724" lon="2.91352">
        <ele>186.82112121582</ele>
        <time>2016-04-13T13:30:13.000Z</time>
      </trkpt>
      <trkpt lat="47.23722" lon="2.91356">
        <ele>186.82279968262</ele>
        <time>2016-04-13T13:30:17.000Z</time>
      </trkpt>
      <trkpt lat="47.2372" lon="2.91358">
        <ele>186.81140136719</ele>
        <time>2016-04-13T13:30:18.000Z</time>
      </trkpt>
      <trkpt lat="47.23716" lon="2.91361">
        <ele>186.82080078125</ele>
        <time>2016-04-13T13:30:21.000Z</time>
      </trkpt>
      <trkpt lat="47.23715" lon="2.91362">
        <ele>186.84271240234</ele>
        <time>2016-04-13T13:30:23.000Z</time>
      </trkpt>
      <trkpt lat="47.23714" lon="2.91364">
        <ele>186.8623046875</ele>
        <time>2016-04-13T13:30:25.000Z</time>
      </trkpt>
      <trkpt lat="47.23711" lon="2.91368">
        <ele>186.88761901855</ele>
        <time>2016-04-13T13:30:28.000Z</time>
      </trkpt>
      <trkpt lat="47.23708" lon="2.91369">
        <ele>186.9220123291</ele>
        <time>2016-04-13T13:30:30.000Z</time>
      </trkpt>
      <trkpt lat="47.23705" lon="2.91373">
        <ele>186.94609069824</ele>
        <time>2016-04-13T13:30:34.000Z</time>
      </trkpt>
      <trkpt lat="47.23703" lon="2.91375">
        <ele>186.97724914551</ele>
        <time>2016-04-13T13:30:35.000Z</time>
      </trkpt>
      <trkpt lat="47.237" lon="2.91377">
        <ele>187.02168273926</ele>
        <time>2016-04-13T13:30:37.000Z</time>
      </trkpt>
      <trkpt lat="47.23698" lon="2.91378">
        <ele>187.07669067383</ele>
        <time>2016-04-13T13:30:40.000Z</time>
      </trkpt>
      <trkpt lat="47.23695" lon="2.91379">
        <ele>187.13505554199</ele>
        <time>2016-04-13T13:30:42.000Z</time>
      </trkpt>
      <trkpt lat="47.23693" lon="2.91381">
        <ele>187.20225524902</ele>
        <time>2016-04-13T13:30:46.000Z</time>
      </trkpt>
      <trkpt lat="47.23691" lon="2.91381">
        <ele>187.27734375</ele>
        <time>2016-04-13T13:30:47.000Z</time>
      </trkpt>
      <trkpt lat="47.23688" lon="2.91383">
        <ele>187.35107421875</ele>
        <time>2016-04-13T13:30:51.000Z</time>
      </trkpt>
      <trkpt lat="47.23686" lon="2.91385">
        <ele>187.41613769531</ele>
        <time>2016-04-13T13:30:52.000Z</time>
      </trkpt>
      <trkpt lat="47.23683" lon="2.91388">
        <ele>187.46647644043</ele>
        <time>2016-04-13T13:30:55.000Z</time>
      </trkpt>
      <trkpt lat="47.23681" lon="2.91389">
        <ele>187.50997924805</ele>
        <time>2016-04-13T13:30:58.000Z</time>
      </trkpt>
      <trkpt lat="47.23678" lon="2.91392">
        <ele>187.53677368164</ele>
        <time>2016-04-13T13:31:02.000Z</time>
      </trkpt>
      <trkpt lat="47.23676" lon="2.91394">
        <ele>187.56185913086</ele>
        <time>2016-04-13T13:31:03.000Z</time>
      </trkpt>
      <trkpt lat="47.23674" lon="2.91398">
        <ele>187.55725097656</ele>
        <time>2016-04-13T13:31:07.000Z</time>
      </trkpt>
      <trkpt lat="47.23672" lon="2.91401">
        <ele>187.54916381836</ele>
        <time>2016-04-13T13:31:08.000Z</time>
      </trkpt>
      <trkpt lat="47.23669" lon="2.91403">
        <ele>187.54084777832</ele>
        <time>2016-04-13T13:31:10.000Z</time>
      </trkpt>
      <trkpt lat="47.23667" lon="2.91404">
        <ele>187.54878234863</ele>
        <time>2016-04-13T13:31:13.000Z</time>
      </trkpt>
      <trkpt lat="47.23663" lon="2.91406">
        <ele>187.51522827148</ele>
        <time>2016-04-13T13:31:16.000Z</time>
      </trkpt>
      <trkpt lat="47.23659" lon="2.91409">
        <ele>187.4654083252</ele>
        <time>2016-04-13T13:31:19.000Z</time>
      </trkpt>
      <trkpt lat="47.23657" lon="2.91411">
        <ele>187.40476989746</ele>
        <time>2016-04-13T13:31:21.000Z</time>
      </trkpt>
      <trkpt lat="47.23655" lon="2.91412">
        <ele>187.30819702148</ele>
        <time>2016-04-13T13:31:24.000Z</time>
      </trkpt>
      <trkpt lat="47.23652" lon="2.91415">
        <ele>187.16157531738</ele>
        <time>2016-04-13T13:31:27.000Z</time>
      </trkpt>
      <trkpt lat="47.2365" lon="2.91417">
        <ele>187.02694702148</ele>
        <time>2016-04-13T13:31:30.000Z</time>
      </trkpt>
      <trkpt lat="47.23648" lon="2.91419">
        <ele>186.90509033203</ele>
        <time>2016-04-13T13:31:32.000Z</time>
      </trkpt>
      <trkpt lat="47.23645" lon="2.91419">
        <ele>186.79290771484</ele>
        <time>2016-04-13T13:31:36.000Z</time>
      </trkpt>
      <trkpt lat="47.23643" lon="2.91421">
        <ele>186.68057250977</ele>
        <time>2016-04-13T13:31:37.000Z</time>
      </trkpt>
      <trkpt lat="47.2364" lon="2.91423">
        <ele>186.56735229492</ele>
        <time>2016-04-13T13:31:41.000Z</time>
      </trkpt>
      <trkpt lat="47.23637" lon="2.91424">
        <ele>186.45625305176</ele>
        <time>2016-04-13T13:31:42.000Z</time>
      </trkpt>
      <trkpt lat="47.23634" lon="2.91426">
        <ele>186.34048461914</ele>
        <time>2016-04-13T13:31:45.000Z</time>
      </trkpt>
      <trkpt lat="47.23631" lon="2.91429">
        <ele>186.20071411133</ele>
        <time>2016-04-13T13:31:48.000Z</time>
      </trkpt>
      <trkpt lat="47.23629" lon="2.9143">
        <ele>186.06367492676</ele>
        <time>2016-04-13T13:31:50.000Z</time>
      </trkpt>
      <trkpt lat="47.23626" lon="2.91433">
        <ele>185.92434692383</ele>
        <time>2016-04-13T13:31:53.000Z</time>
      </trkpt>
      <trkpt lat="47.23621" lon="2.91435">
        <ele>185.77392578125</ele>
        <time>2016-04-13T13:31:56.000Z</time>
      </trkpt>
      <trkpt lat="47.23618" lon="2.91436">
        <ele>185.63195800781</ele>
        <time>2016-04-13T13:31:59.000Z</time>
      </trkpt>
      <trkpt lat="47.23615" lon="2.91438">
        <ele>185.50480651855</ele>
        <time>2016-04-13T13:32:02.000Z</time>
      </trkpt>
      <trkpt lat="47.2361" lon="2.91439">
        <ele>185.37921142578</ele>
        <time>2016-04-13T13:32:05.000Z</time>
      </trkpt>
      <trkpt lat="47.23608" lon="2.9144">
        <ele>185.27607727051</ele>
        <time>2016-04-13T13:32:07.000Z</time>
      </trkpt>
      <trkpt lat="47.23605" lon="2.91441">
        <ele>185.18550109863</ele>
        <time>2016-04-13T13:32:10.000Z</time>
      </trkpt>
      <trkpt lat="47.23602" lon="2.91442">
        <ele>185.09922790527</ele>
        <time>2016-04-13T13:32:13.000Z</time>
      </trkpt>
      <trkpt lat="47.23599" lon="2.91443">
        <ele>185.01467895508</ele>
        <time>2016-04-13T13:32:15.000Z</time>
      </trkpt>
      <trkpt lat="47.23595" lon="2.91445">
        <ele>184.93055725098</ele>
        <time>2016-04-13T13:32:18.000Z</time>
      </trkpt>
      <trkpt lat="47.23591" lon="2.91446">
        <ele>184.83743286133</ele>
        <time>2016-04-13T13:32:21.000Z</time>
      </trkpt>
      <trkpt lat="47.23587" lon="2.91447">
        <ele>184.75021362305</ele>
        <time>2016-04-13T13:32:24.000Z</time>
      </trkpt>
      <trkpt lat="47.23584" lon="2.91449">
        <ele>184.65844726562</ele>
        <time>2016-04-13T13:32:27.000Z</time>
      </trkpt>
      <trkpt lat="47.23581" lon="2.91449">
        <ele>184.56324768066</ele>
        <time>2016-04-13T13:32:30.000Z</time>
      </trkpt>
      <trkpt lat="47.23579" lon="2.91451">
        <ele>184.46809387207</ele>
        <time>2016-04-13T13:32:32.000Z</time>
      </trkpt>
      <trkpt lat="47.23577" lon="2.91451">
        <ele>184.3802947998</ele>
        <time>2016-04-13T13:32:34.000Z</time>
      </trkpt>
      <trkpt lat="47.23575" lon="2.91452">
        <ele>184.28823852539</ele>
        <time>2016-04-13T13:32:36.000Z</time>
      </trkpt>
      <trkpt lat="47.23572" lon="2.91454">
        <ele>184.18547058105</ele>
        <time>2016-04-13T13:32:39.000Z</time>
      </trkpt>
      <trkpt lat="47.23568" lon="2.91455">
        <ele>184.0845489502</ele>
        <time>2016-04-13T13:32:43.000Z</time>
      </trkpt>
      <trkpt lat="47.23565" lon="2.91455">
        <ele>183.98947143555</ele>
        <time>2016-04-13T13:32:44.000Z</time>
      </trkpt>
      <trkpt lat="47.23564" lon="2.91456">
        <ele>183.89724731445</ele>
        <time>2016-04-13T13:32:46.000Z</time>
      </trkpt>
      <trkpt lat="47.2356" lon="2.91458">
        <ele>183.78988647461</ele>
        <time>2016-04-13T13:32:49.000Z</time>
      </trkpt>
      <trkpt lat="47.23557" lon="2.91461">
        <ele>183.67741394043</ele>
        <time>2016-04-13T13:32:52.000Z</time>
      </trkpt>
      <trkpt lat="47.23553" lon="2.91463">
        <ele>183.56120300293</ele>
        <time>2016-04-13T13:32:55.000Z</time>
      </trkpt>
      <trkpt lat="47.2355" lon="2.91465">
        <ele>183.43290710449</ele>
        <time>2016-04-13T13:32:58.000Z</time>
      </trkpt>
      <trkpt lat="47.23546" lon="2.91469">
        <ele>183.28652954102</ele>
        <time>2016-04-13T13:33:01.000Z</time>
      </trkpt>
      <trkpt lat="47.23545" lon="2.9147">
        <ele>183.15914916992</ele>
        <time>2016-04-13T13:33:03.000Z</time>
      </trkpt>
      <trkpt lat="47.23542" lon="2.91473">
        <ele>183.04277038574</ele>
        <time>2016-04-13T13:33:06.000Z</time>
      </trkpt>
      <trkpt lat="47.23541" lon="2.91474">
        <ele>182.93844604492</ele>
        <time>2016-04-13T13:33:08.000Z</time>
      </trkpt>
      <trkpt lat="47.23538" lon="2.91476">
        <ele>182.8445892334</ele>
        <time>2016-04-13T13:33:11.000Z</time>
      </trkpt>
      <trkpt lat="47.23535" lon="2.91476">
        <ele>182.77075195312</ele>
        <time>2016-04-13T13:33:14.000Z</time>
      </trkpt>
      <trkpt lat="47.23532" lon="2.91478">
        <ele>182.69401550293</ele>
        <time>2016-04-13T13:33:17.000Z</time>
      </trkpt>
      <trkpt lat="47.23528" lon="2.9148">
        <ele>182.62812805176</ele>
        <time>2016-04-13T13:33:20.000Z</time>
      </trkpt>
      <trkpt lat="47.23524" lon="2.91481">
        <ele>182.5592956543</ele>
        <time>2016-04-13T13:33:23.000Z</time>
      </trkpt>
      <trkpt lat="47.23522" lon="2.91483">
        <ele>182.49459838867</ele>
        <time>2016-04-13T13:33:25.000Z</time>
      </trkpt>
      <trkpt lat="47.23518" lon="2.91484">
        <ele>182.43193054199</ele>
        <time>2016-04-13T13:33:28.000Z</time>
      </trkpt>
      <trkpt lat="47.23516" lon="2.91484">
        <ele>182.37983703613</ele>
        <time>2016-04-13T13:33:30.000Z</time>
      </trkpt>
      <trkpt lat="47.23513" lon="2.91484">
        <ele>182.33723449707</ele>
        <time>2016-04-13T13:33:33.000Z</time>
      </trkpt>
      <trkpt lat="47.23509" lon="2.91485">
        <ele>182.30087280273</ele>
        <time>2016-04-13T13:33:36.000Z</time>
      </trkpt>
      <trkpt lat="47.23506" lon="2.91485">
        <ele>182.2730255127</ele>
        <time>2016-04-13T13:33:39.000Z</time>
      </trkpt>
      <trkpt lat="47.23502" lon="2.91484">
        <ele>182.24870300293</ele>
        <time>2016-04-13T13:33:43.000Z</time>
      </trkpt>
      <trkpt lat="47.235" lon="2.91484">
        <ele>182.22735595703</ele>
        <time>2016-04-13T13:33:44.000Z</time>
      </trkpt>
      <trkpt lat="47.23497" lon="2.91485">
        <ele>182.24771118164</ele>
        <time>2016-04-13T13:33:47.000Z</time>
      </trkpt>
      <trkpt lat="47.23494" lon="2.91485">
        <ele>182.30577087402</ele>
        <time>2016-04-13T13:33:50.000Z</time>
      </trkpt>
      <trkpt lat="47.23493" lon="2.91485">
        <ele>182.38925170898</ele>
        <time>2016-04-13T13:33:52.000Z</time>
      </trkpt>
      <trkpt lat="47.23488" lon="2.91486">
        <ele>182.53173828125</ele>
        <time>2016-04-13T13:33:55.000Z</time>
      </trkpt>
      <trkpt lat="47.23485" lon="2.91487">
        <ele>182.71656799316</ele>
        <time>2016-04-13T13:33:58.000Z</time>
      </trkpt>
      <trkpt lat="47.23482" lon="2.91487">
        <ele>182.89846801758</ele>
        <time>2016-04-13T13:34:01.000Z</time>
      </trkpt>
      <trkpt lat="47.23479" lon="2.91487">
        <ele>183.08377075195</ele>
        <time>2016-04-13T13:34:04.000Z</time>
      </trkpt>
      <trkpt lat="47.23476" lon="2.91487">
        <ele>183.28880310059</ele>
        <time>2016-04-13T13:34:07.000Z</time>
      </trkpt>
      <trkpt lat="47.23472" lon="2.91488">
        <ele>183.4948425293</ele>
        <time>2016-04-13T13:34:10.000Z</time>
      </trkpt>
      <trkpt lat="47.2347" lon="2.91488">
        <ele>183.68701171875</ele>
        <time>2016-04-13T13:34:12.000Z</time>
      </trkpt>
      <trkpt lat="47.23466" lon="2.91488">
        <ele>183.8960723877</ele>
        <time>2016-04-13T13:34:15.000Z</time>
      </trkpt>
      <trkpt lat="47.23462" lon="2.91488">
        <ele>184.11221313477</ele>
        <time>2016-04-13T13:34:18.000Z</time>
      </trkpt>
      <trkpt lat="47.23459" lon="2.91488">
        <ele>184.3302154541</ele>
        <time>2016-04-13T13:34:21.000Z</time>
      </trkpt>
      <trkpt lat="47.23456" lon="2.91488">
        <ele>184.52655029297</ele>
        <time>2016-04-13T13:34:24.000Z</time>
      </trkpt>
      <trkpt lat="47.23454" lon="2.91488">
        <ele>184.7219543457</ele>
        <time>2016-04-13T13:34:26.000Z</time>
      </trkpt>
      <trkpt lat="47.23452" lon="2.91488">
        <ele>184.89364624023</ele>
        <time>2016-04-13T13:34:29.000Z</time>
      </trkpt>
      <trkpt lat="47.2345" lon="2.91488">
        <ele>185.05334472656</ele>
        <time>2016-04-13T13:34:32.000Z</time>
      </trkpt>
      <trkpt lat="47.23448" lon="2.91488">
        <ele>185.19416809082</ele>
        <time>2016-04-13T13:34:35.000Z</time>
      </trkpt>
      <trkpt lat="47.23446" lon="2.91488">
        <ele>185.32261657715</ele>
        <time>2016-04-13T13:34:37.000Z</time>
      </trkpt>
      <trkpt lat="47.23446" lon="2.91486">
        <ele>185.43032836914</ele>
        <time>2016-04-13T13:34:44.000Z</time>
      </trkpt>
      <trkpt lat="47.23447" lon="2.91484">
        <ele>185.50903320312</ele>
        <time>2016-04-13T13:34:47.000Z</time>
      </trkpt>
      <trkpt lat="47.23448" lon="2.91483">
        <ele>185.55506896973</ele>
        <time>2016-04-13T13:34:50.000Z</time>
      </trkpt>
      <trkpt lat="47.23447" lon="2.91483">
        <ele>185.58525085449</ele>
        <time>2016-04-13T13:34:55.000Z</time>
      </trkpt>
      <trkpt lat="47.23446" lon="2.91484">
        <ele>185.60653686523</ele>
        <time>2016-04-13T13:34:58.000Z</time>
      </trkpt>
      <trkpt lat="47.23445" lon="2.91484">
        <ele>185.63359069824</ele>
        <time>2016-04-13T13:35:00.000Z</time>
      </trkpt>
      <trkpt lat="47.23443" lon="2.91486">
        <ele>185.67683410645</ele>
        <time>2016-04-13T13:35:03.000Z</time>
      </trkpt>
      <trkpt lat="47.23441" lon="2.91488">
        <ele>185.74453735352</ele>
        <time>2016-04-13T13:35:06.000Z</time>
      </trkpt>
      <trkpt lat="47.23438" lon="2.91489">
        <ele>185.82716369629</ele>
        <time>2016-04-13T13:35:08.000Z</time>
      </trkpt>
      <trkpt lat="47.23434" lon="2.91489">
        <ele>185.95104980469</ele>
        <time>2016-04-13T13:35:11.000Z</time>
      </trkpt>
      <trkpt lat="47.23431" lon="2.9149">
        <ele>186.09341430664</ele>
        <time>2016-04-13T13:35:14.000Z</time>
      </trkpt>
      <trkpt lat="47.23429" lon="2.91491">
        <ele>186.23928833008</ele>
        <time>2016-04-13T13:35:16.000Z</time>
      </trkpt>
      <trkpt lat="47.23426" lon="2.91492">
        <ele>186.39273071289</ele>
        <time>2016-04-13T13:35:20.000Z</time>
      </trkpt>
      <trkpt lat="47.23425" lon="2.91493">
        <ele>186.53276062012</ele>
        <time>2016-04-13T13:35:22.000Z</time>
      </trkpt>
      <trkpt lat="47.23423" lon="2.91493">
        <ele>186.64987182617</ele>
        <time>2016-04-13T13:35:25.000Z</time>
      </trkpt>
      <trkpt lat="47.23421" lon="2.91495">
        <ele>186.7391204834</ele>
        <time>2016-04-13T13:35:27.000Z</time>
      </trkpt>
      <trkpt lat="47.23418" lon="2.91496">
        <ele>186.8373260498</ele>
        <time>2016-04-13T13:35:30.000Z</time>
      </trkpt>
      <trkpt lat="47.23417" lon="2.91497">
        <ele>186.92156982422</ele>
        <time>2016-04-13T13:35:32.000Z</time>
      </trkpt>
      <trkpt lat="47.23413" lon="2.91499">
        <ele>186.9958190918</ele>
        <time>2016-04-13T13:35:36.000Z</time>
      </trkpt>
      <trkpt lat="47.23412" lon="2.91501">
        <ele>187.03768920898</ele>
        <time>2016-04-13T13:35:37.000Z</time>
      </trkpt>
      <trkpt lat="47.2341" lon="2.91502">
        <ele>187.07498168945</ele>
        <time>2016-04-13T13:35:39.000Z</time>
      </trkpt>
      <trkpt lat="47.23408" lon="2.91503">
        <ele>187.08340454102</ele>
        <time>2016-04-13T13:35:41.000Z</time>
      </trkpt>
      <trkpt lat="47.23404" lon="2.91505">
        <ele>187.0785369873</ele>
        <time>2016-04-13T13:35:44.000Z</time>
      </trkpt>
      <trkpt lat="47.234" lon="2.91507">
        <ele>187.07315063477</ele>
        <time>2016-04-13T13:35:47.000Z</time>
      </trkpt>
      <trkpt lat="47.23397" lon="2.91507">
        <ele>187.07551574707</ele>
        <time>2016-04-13T13:35:49.000Z</time>
      </trkpt>
      <trkpt lat="47.23395" lon="2.91508">
        <ele>187.07897949219</ele>
        <time>2016-04-13T13:35:53.000Z</time>
      </trkpt>
      <trkpt lat="47.23393" lon="2.91509">
        <ele>187.08532714844</ele>
        <time>2016-04-13T13:35:54.000Z</time>
      </trkpt>
      <trkpt lat="47.23391" lon="2.9151">
        <ele>187.08908081055</ele>
        <time>2016-04-13T13:35:58.000Z</time>
      </trkpt>
      <trkpt lat="47.23389" lon="2.91511">
        <ele>187.09341430664</ele>
        <time>2016-04-13T13:35:59.000Z</time>
      </trkpt>
      <trkpt lat="47.23388" lon="2.91512">
        <ele>187.08389282227</ele>
        <time>2016-04-13T13:36:01.000Z</time>
      </trkpt>
      <trkpt lat="47.23385" lon="2.91515">
        <ele>187.06401062012</ele>
        <time>2016-04-13T13:36:04.000Z</time>
      </trkpt>
      <trkpt lat="47.23382" lon="2.91516">
        <ele>187.03707885742</ele>
        <time>2016-04-13T13:36:08.000Z</time>
      </trkpt>
      <trkpt lat="47.23379" lon="2.91518">
        <ele>187.00045776367</ele>
        <time>2016-04-13T13:36:10.000Z</time>
      </trkpt>
      <trkpt lat="47.23377" lon="2.9152">
        <ele>186.95927429199</ele>
        <time>2016-04-13T13:36:13.000Z</time>
      </trkpt>
      <trkpt lat="47.23376" lon="2.9152">
        <ele>186.93299865723</ele>
        <time>2016-04-13T13:36:18.000Z</time>
      </trkpt>
      <trkpt lat="47.23376" lon="2.9152">
        <ele>186.93299865723</ele>
        <time>2016-04-13T13:36:38.000Z</time>
      </trkpt>
      <trkpt lat="47.23375" lon="2.91523">
        <ele>186.89056396484</ele>
        <time>2016-04-13T13:37:04.000Z</time>
      </trkpt>
      <trkpt lat="47.23378" lon="2.91517">
        <ele>186.9020690918</ele>
        <time>2016-04-13T13:37:24.000Z</time>
      </trkpt>
      <trkpt lat="47.23378" lon="2.91515">
        <ele>186.9443359375</ele>
        <time>2016-04-13T13:37:29.000Z</time>
      </trkpt>
      <trkpt lat="47.23378" lon="2.91515">
        <ele>186.9443359375</ele>
        <time>2016-04-13T13:37:49.000Z</time>
      </trkpt>
      <trkpt lat="47.23377" lon="2.91517">
        <ele>186.97930908203</ele>
        <time>2016-04-13T13:37:59.000Z</time>
      </trkpt>
      <trkpt lat="47.23375" lon="2.91515">
        <ele>187.03881835938</ele>
        <time>2016-04-13T13:38:19.000Z</time>
      </trkpt>
      <trkpt lat="47.23374" lon="2.91513">
        <ele>187.14877319336</ele>
        <time>2016-04-13T13:38:36.000Z</time>
      </trkpt>
      <trkpt lat="47.23375" lon="2.91514">
        <ele>187.19287109375</ele>
        <time>2016-04-13T13:38:43.000Z</time>
      </trkpt>
      <trkpt lat="47.23377" lon="2.91515">
        <ele>187.19792175293</ele>
        <time>2016-04-13T13:38:53.000Z</time>
      </trkpt>
      <trkpt lat="47.23377" lon="2.91517">
        <ele>187.1975402832</ele>
        <time>2016-04-13T13:38:58.000Z</time>
      </trkpt>
      <trkpt lat="47.23378" lon="2.91519">
        <ele>187.13897705078</ele>
        <time>2016-04-13T13:39:04.000Z</time>
      </trkpt>
      <trkpt lat="47.23378" lon="2.91519">
        <ele>187.13897705078</ele>
        <time>2016-04-13T13:39:24.000Z</time>
      </trkpt>
      <trkpt lat="47.23378" lon="2.9152">
        <ele>187.04386901855</ele>
        <time>2016-04-13T13:39:38.000Z</time>
      </trkpt>
      <trkpt lat="47.23377" lon="2.91525">
        <ele>186.92012023926</ele>
        <time>2016-04-13T13:39:41.000Z</time>
      </trkpt>
      <trkpt lat="47.23378" lon="2.91527">
        <ele>186.78402709961</ele>
        <time>2016-04-13T13:39:43.000Z</time>
      </trkpt>
      <trkpt lat="47.23381" lon="2.91533">
        <ele>186.59515380859</ele>
        <time>2016-04-13T13:39:47.000Z</time>
      </trkpt>
      <trkpt lat="47.23382" lon="2.91536">
        <ele>186.3957824707</ele>
        <time>2016-04-13T13:39:48.000Z</time>
      </trkpt>
      <trkpt lat="47.23383" lon="2.91539">
        <ele>186.17585754395</ele>
        <time>2016-04-13T13:39:50.000Z</time>
      </trkpt>
      <trkpt lat="47.23384" lon="2.91542">
        <ele>185.96575927734</ele>
        <time>2016-04-13T13:39:52.000Z</time>
      </trkpt>
      <trkpt lat="47.23386" lon="2.91547">
        <ele>185.72294616699</ele>
        <time>2016-04-13T13:39:55.000Z</time>
      </trkpt>
      <trkpt lat="47.23389" lon="2.91551">
        <ele>185.50238037109</ele>
        <time>2016-04-13T13:39:58.000Z</time>
      </trkpt>
      <trkpt lat="47.23391" lon="2.91557">
        <ele>185.25451660156</ele>
        <time>2016-04-13T13:40:01.000Z</time>
      </trkpt>
      <trkpt lat="47.23393" lon="2.91562">
        <ele>184.98564147949</ele>
        <time>2016-04-13T13:40:04.000Z</time>
      </trkpt>
      <trkpt lat="47.23395" lon="2.91566">
        <ele>184.69931030273</ele>
        <time>2016-04-13T13:40:07.000Z</time>
      </trkpt>
      <trkpt lat="47.23397" lon="2.91571">
        <ele>184.42333984375</ele>
        <time>2016-04-13T13:40:10.000Z</time>
      </trkpt>
      <trkpt lat="47.23399" lon="2.91576">
        <ele>184.14340209961</ele>
        <time>2016-04-13T13:40:13.000Z</time>
      </trkpt>
      <trkpt lat="47.234" lon="2.9158">
        <ele>183.88076782227</ele>
        <time>2016-04-13T13:40:16.000Z</time>
      </trkpt>
      <trkpt lat="47.23402" lon="2.91583">
        <ele>183.64109802246</ele>
        <time>2016-04-13T13:40:18.000Z</time>
      </trkpt>
      <trkpt lat="47.23403" lon="2.91588">
        <ele>183.43281555176</ele>
        <time>2016-04-13T13:40:21.000Z</time>
      </trkpt>
      <trkpt lat="47.23405" lon="2.91593">
        <ele>183.2590637207</ele>
        <time>2016-04-13T13:40:24.000Z</time>
      </trkpt>
      <trkpt lat="47.23407" lon="2.91598">
        <ele>183.12107849121</ele>
        <time>2016-04-13T13:40:27.000Z</time>
      </trkpt>
      <trkpt lat="47.23409" lon="2.91602">
        <ele>183.01586914062</ele>
        <time>2016-04-13T13:40:31.000Z</time>
      </trkpt>
      <trkpt lat="47.2341" lon="2.91604">
        <ele>182.93644714355</ele>
        <time>2016-04-13T13:40:32.000Z</time>
      </trkpt>
      <trkpt lat="47.23412" lon="2.91609">
        <ele>182.86325073242</ele>
        <time>2016-04-13T13:40:35.000Z</time>
      </trkpt>
      <trkpt lat="47.23413" lon="2.91613">
        <ele>182.79560852051</ele>
        <time>2016-04-13T13:40:38.000Z</time>
      </trkpt>
      <trkpt lat="47.23415" lon="2.91616">
        <ele>182.73587036133</ele>
        <time>2016-04-13T13:40:40.000Z</time>
      </trkpt>
      <trkpt lat="47.23416" lon="2.91619">
        <ele>182.68002319336</ele>
        <time>2016-04-13T13:40:43.000Z</time>
      </trkpt>
      <trkpt lat="47.23418" lon="2.91626">
        <ele>182.61447143555</ele>
        <time>2016-04-13T13:40:45.000Z</time>
      </trkpt>
      <trkpt lat="47.2342" lon="2.91631">
        <ele>182.54968261719</ele>
        <time>2016-04-13T13:40:48.000Z</time>
      </trkpt>
      <trkpt lat="47.23423" lon="2.91636">
        <ele>182.48524475098</ele>
        <time>2016-04-13T13:40:51.000Z</time>
      </trkpt>
      <trkpt lat="47.23425" lon="2.9164">
        <ele>182.41767883301</ele>
        <time>2016-04-13T13:40:54.000Z</time>
      </trkpt>
      <trkpt lat="47.23426" lon="2.91644">
        <ele>182.35140991211</ele>
        <time>2016-04-13T13:40:57.000Z</time>
      </trkpt>
      <trkpt lat="47.23428" lon="2.91648">
        <ele>182.29467773438</ele>
        <time>2016-04-13T13:40:59.000Z</time>
      </trkpt>
      <trkpt lat="47.23429" lon="2.91653">
        <ele>182.24189758301</ele>
        <time>2016-04-13T13:41:02.000Z</time>
      </trkpt>
      <trkpt lat="47.23431" lon="2.91658">
        <ele>182.19140625</ele>
        <time>2016-04-13T13:41:05.000Z</time>
      </trkpt>
      <trkpt lat="47.23433" lon="2.91663">
        <ele>182.14112854004</ele>
        <time>2016-04-13T13:41:08.000Z</time>
      </trkpt>
      <trkpt lat="47.23434" lon="2.91667">
        <ele>182.09286499023</ele>
        <time>2016-04-13T13:41:10.000Z</time>
      </trkpt>
      <trkpt lat="47.23436" lon="2.91671">
        <ele>182.04428100586</ele>
        <time>2016-04-13T13:41:13.000Z</time>
      </trkpt>
      <trkpt lat="47.23438" lon="2.91675">
        <ele>181.9953918457</ele>
        <time>2016-04-13T13:41:16.000Z</time>
      </trkpt>
      <trkpt lat="47.2344" lon="2.91677">
        <ele>181.95135498047</ele>
        <time>2016-04-13T13:41:18.000Z</time>
      </trkpt>
      <trkpt lat="47.23441" lon="2.9168">
        <ele>181.91339111328</ele>
        <time>2016-04-13T13:41:20.000Z</time>
      </trkpt>
      <trkpt lat="47.23442" lon="2.91685">
        <ele>181.86975097656</ele>
        <time>2016-04-13T13:41:23.000Z</time>
      </trkpt>
      <trkpt lat="47.23444" lon="2.9169">
        <ele>181.82196044922</ele>
        <time>2016-04-13T13:41:27.000Z</time>
      </trkpt>
      <trkpt lat="47.23446" lon="2.91694">
        <ele>181.77691650391</ele>
        <time>2016-04-13T13:41:28.000Z</time>
      </trkpt>
      <trkpt lat="47.23447" lon="2.91698">
        <ele>181.72821044922</ele>
        <time>2016-04-13T13:41:31.000Z</time>
      </trkpt>
      <trkpt lat="47.23449" lon="2.917">
        <ele>181.67840576172</ele>
        <time>2016-04-13T13:41:33.000Z</time>
      </trkpt>
      <trkpt lat="47.2345" lon="2.91706">
        <ele>181.62854003906</ele>
        <time>2016-04-13T13:41:37.000Z</time>
      </trkpt>
      <trkpt lat="47.23451" lon="2.9171">
        <ele>181.58087158203</ele>
        <time>2016-04-13T13:41:41.000Z</time>
      </trkpt>
      <trkpt lat="47.23452" lon="2.91714">
        <ele>181.53326416016</ele>
        <time>2016-04-13T13:41:42.000Z</time>
      </trkpt>
      <trkpt lat="47.23454" lon="2.91717">
        <ele>181.48590087891</ele>
        <time>2016-04-13T13:41:47.000Z</time>
      </trkpt>
      <trkpt lat="47.23456" lon="2.91722">
        <ele>181.43353271484</ele>
        <time>2016-04-13T13:41:49.000Z</time>
      </trkpt>
      <trkpt lat="47.23458" lon="2.91727">
        <ele>181.38165283203</ele>
        <time>2016-04-13T13:41:56.000Z</time>
      </trkpt>
      <trkpt lat="47.23461" lon="2.91733">
        <ele>181.32733154297</ele>
        <time>2016-04-13T13:41:57.000Z</time>
      </trkpt>
      <trkpt lat="47.23462" lon="2.91736">
        <ele>181.27435302734</ele>
        <time>2016-04-13T13:41:58.000Z</time>
      </trkpt>
      <trkpt lat="47.23463" lon="2.91739">
        <ele>181.22357177734</ele>
        <time>2016-04-13T13:41:58.000Z</time>
      </trkpt>
      <trkpt lat="47.23465" lon="2.91744">
        <ele>181.17126464844</ele>
        <time>2016-04-13T13:42:00.000Z</time>
      </trkpt>
      <trkpt lat="47.23467" lon="2.91749">
        <ele>181.11987304688</ele>
        <time>2016-04-13T13:42:07.000Z</time>
      </trkpt>
      <trkpt lat="47.23468" lon="2.91752">
        <ele>181.08193969727</ele>
        <time>2016-04-13T13:42:12.000Z</time>
      </trkpt>
      <trkpt lat="47.23472" lon="2.91758">
        <ele>181.0599822998</ele>
        <time>2016-04-13T13:42:17.000Z</time>
      </trkpt>
      <trkpt lat="47.23473" lon="2.91761">
        <ele>181.05026245117</ele>
        <time>2016-04-13T13:42:22.000Z</time>
      </trkpt>
      <trkpt lat="47.23475" lon="2.91765">
        <ele>181.06143188477</ele>
        <time>2016-04-13T13:42:23.000Z</time>
      </trkpt>
      <trkpt lat="47.23477" lon="2.91771">
        <ele>181.09439086914</ele>
        <time>2016-04-13T13:42:25.000Z</time>
      </trkpt>
      <trkpt lat="47.23478" lon="2.91776">
        <ele>181.13749694824</ele>
        <time>2016-04-13T13:42:25.000Z</time>
      </trkpt>
      <trkpt lat="47.23479" lon="2.91779">
        <ele>181.17794799805</ele>
        <time>2016-04-13T13:42:25.000Z</time>
      </trkpt>
      <trkpt lat="47.23481" lon="2.91784">
        <ele>181.22428894043</ele>
        <time>2016-04-13T13:42:25.000Z</time>
      </trkpt>
      <trkpt lat="47.23482" lon="2.91788">
        <ele>181.27114868164</ele>
        <time>2016-04-13T13:42:29.000Z</time>
      </trkpt>
      <trkpt lat="47.23483" lon="2.91791">
        <ele>181.31326293945</ele>
        <time>2016-04-13T13:42:30.000Z</time>
      </trkpt>
      <trkpt lat="47.23486" lon="2.91797">
        <ele>181.3603515625</ele>
        <time>2016-04-13T13:42:33.000Z</time>
      </trkpt>
      <trkpt lat="47.23487" lon="2.918">
        <ele>181.41047668457</ele>
        <time>2016-04-13T13:42:36.000Z</time>
      </trkpt>
      <trkpt lat="47.23489" lon="2.91805">
        <ele>181.46162414551</ele>
        <time>2016-04-13T13:42:40.000Z</time>
      </trkpt>
      <trkpt lat="47.23491" lon="2.91807">
        <ele>181.51028442383</ele>
        <time>2016-04-13T13:42:41.000Z</time>
      </trkpt>
      <trkpt lat="47.23492" lon="2.91811">
        <ele>181.56581115723</ele>
        <time>2016-04-13T13:42:45.000Z</time>
      </trkpt>
      <trkpt lat="47.23493" lon="2.91815">
        <ele>181.61503601074</ele>
        <time>2016-04-13T13:42:46.000Z</time>
      </trkpt>
      <trkpt lat="47.23494" lon="2.91819">
        <ele>181.66427612305</ele>
        <time>2016-04-13T13:42:49.000Z</time>
      </trkpt>
      <trkpt lat="47.23495" lon="2.91823">
        <ele>181.71374511719</ele>
        <time>2016-04-13T13:42:52.000Z</time>
      </trkpt>
      <trkpt lat="47.23496" lon="2.91828">
        <ele>181.77209472656</ele>
        <time>2016-04-13T13:42:55.000Z</time>
      </trkpt>
      <trkpt lat="47.23498" lon="2.91831">
        <ele>181.82849121094</ele>
        <time>2016-04-13T13:43:00.000Z</time>
      </trkpt>
      <trkpt lat="47.23499" lon="2.91834">
        <ele>181.88105773926</ele>
        <time>2016-04-13T13:43:01.000Z</time>
      </trkpt>
      <trkpt lat="47.23501" lon="2.91839">
        <ele>181.90013122559</ele>
        <time>2016-04-13T13:43:03.000Z</time>
      </trkpt>
      <trkpt lat="47.23503" lon="2.91844">
        <ele>181.87728881836</ele>
        <time>2016-04-13T13:43:06.000Z</time>
      </trkpt>
      <trkpt lat="47.23505" lon="2.91849">
        <ele>181.81300354004</ele>
        <time>2016-04-13T13:43:09.000Z</time>
      </trkpt>
      <trkpt lat="47.23507" lon="2.91852">
        <ele>181.7211151123</ele>
        <time>2016-04-13T13:43:11.000Z</time>
      </trkpt>
      <trkpt lat="47.23508" lon="2.91855">
        <ele>181.60664367676</ele>
        <time>2016-04-13T13:43:13.000Z</time>
      </trkpt>
      <trkpt lat="47.23511" lon="2.9186">
        <ele>181.48985290527</ele>
        <time>2016-04-13T13:43:16.000Z</time>
      </trkpt>
      <trkpt lat="47.23513" lon="2.91864">
        <ele>181.38188171387</ele>
        <time>2016-04-13T13:43:18.000Z</time>
      </trkpt>
      <trkpt lat="47.23514" lon="2.91869">
        <ele>181.27616882324</ele>
        <time>2016-04-13T13:43:21.000Z</time>
      </trkpt>
      <trkpt lat="47.23515" lon="2.91872">
        <ele>181.17236328125</ele>
        <time>2016-04-13T13:43:23.000Z</time>
      </trkpt>
      <trkpt lat="47.23518" lon="2.91876">
        <ele>181.06507873535</ele>
        <time>2016-04-13T13:43:26.000Z</time>
      </trkpt>
      <trkpt lat="47.23519" lon="2.9188">
        <ele>180.9683380127</ele>
        <time>2016-04-13T13:43:28.000Z</time>
      </trkpt>
      <trkpt lat="47.23521" lon="2.91884">
        <ele>180.8727722168</ele>
        <time>2016-04-13T13:43:31.000Z</time>
      </trkpt>
      <trkpt lat="47.23523" lon="2.91889">
        <ele>180.7765045166</ele>
        <time>2016-04-13T13:43:34.000Z</time>
      </trkpt>
      <trkpt lat="47.23524" lon="2.91894">
        <ele>180.67599487305</ele>
        <time>2016-04-13T13:43:37.000Z</time>
      </trkpt>
      <trkpt lat="47.23526" lon="2.91897">
        <ele>180.5803527832</ele>
        <time>2016-04-13T13:43:39.000Z</time>
      </trkpt>
      <trkpt lat="47.23528" lon="2.91902">
        <ele>180.48141479492</ele>
        <time>2016-04-13T13:43:43.000Z</time>
      </trkpt>
      <trkpt lat="47.23529" lon="2.91906">
        <ele>180.38513183594</ele>
        <time>2016-04-13T13:43:44.000Z</time>
      </trkpt>
      <trkpt lat="47.23532" lon="2.91912">
        <ele>180.29061889648</ele>
        <time>2016-04-13T13:43:47.000Z</time>
      </trkpt>
      <trkpt lat="47.23534" lon="2.91917">
        <ele>180.19697570801</ele>
        <time>2016-04-13T13:43:50.000Z</time>
      </trkpt>
      <trkpt lat="47.23536" lon="2.91922">
        <ele>180.11926269531</ele>
        <time>2016-04-13T13:43:54.000Z</time>
      </trkpt>
      <trkpt lat="47.23537" lon="2.91925">
        <ele>180.06045532227</ele>
        <time>2016-04-13T13:43:55.000Z</time>
      </trkpt>
      <trkpt lat="47.23539" lon="2.91929">
        <ele>180.01860046387</ele>
        <time>2016-04-13T13:43:59.000Z</time>
      </trkpt>
      <trkpt lat="47.2354" lon="2.91932">
        <ele>180</ele>
        <time>2016-04-13T13:44:00.000Z</time>
      </trkpt>
      <trkpt lat="47.23542" lon="2.91935">
        <ele>180</ele>
        <time>2016-04-13T13:44:03.000Z</time>
      </trkpt>
      <trkpt lat="47.23543" lon="2.9194">
        <ele>180</ele>
        <time>2016-04-13T13:44:06.000Z</time>
      </trkpt>
      <trkpt lat="47.23544" lon="2.91945">
        <ele>180</ele>
        <time>2016-04-13T13:44:08.000Z</time>
      </trkpt>
      <trkpt lat="47.23547" lon="2.9195">
        <ele>180</ele>
        <time>2016-04-13T13:44:11.000Z</time>
      </trkpt>
      <trkpt lat="47.23548" lon="2.91954">
        <ele>180</ele>
        <time>2016-04-13T13:44:13.000Z</time>
      </trkpt>
      <trkpt lat="47.23549" lon="2.91959">
        <ele>180</ele>
        <time>2016-04-13T13:44:16.000Z</time>
      </trkpt>
      <trkpt lat="47.23551" lon="2.91965">
        <ele>180</ele>
        <time>2016-04-13T13:44:19.000Z</time>
      </trkpt>
      <trkpt lat="47.23552" lon="2.91968">
        <ele>180</ele>
        <time>2016-04-13T13:44:21.000Z</time>
      </trkpt>
      <trkpt lat="47.23553" lon="2.91973">
        <ele>180</ele>
        <time>2016-04-13T13:44:24.000Z</time>
      </trkpt>
      <trkpt lat="47.23555" lon="2.91978">
        <ele>180</ele>
        <time>2016-04-13T13:44:27.000Z</time>
      </trkpt>
      <trkpt lat="47.23556" lon="2.91986">
        <ele>180</ele>
        <time>2016-04-13T13:44:31.000Z</time>
      </trkpt>
      <trkpt lat="47.23556" lon="2.91989">
        <ele>180</ele>
        <time>2016-04-13T13:44:32.000Z</time>
      </trkpt>
      <trkpt lat="47.23557" lon="2.91992">
        <ele>180</ele>
        <time>2016-04-13T13:44:35.000Z</time>
      </trkpt>
      <trkpt lat="47.23558" lon="2.91997">
        <ele>180</ele>
        <time>2016-04-13T13:44:38.000Z</time>
      </trkpt>
      <trkpt lat="47.23558" lon="2.92002">
        <ele>179.99337768555</ele>
        <time>2016-04-13T13:44:40.000Z</time>
      </trkpt>
      <trkpt lat="47.2356" lon="2.92009">
        <ele>179.95761108398</ele>
        <time>2016-04-13T13:44:43.000Z</time>
      </trkpt>
      <trkpt lat="47.2356" lon="2.92014">
        <ele>179.89949035645</ele>
        <time>2016-04-13T13:44:46.000Z</time>
      </trkpt>
      <trkpt lat="47.2356" lon="2.92018">
        <ele>179.82455444336</ele>
        <time>2016-04-13T13:44:48.000Z</time>
      </trkpt>
      <trkpt lat="47.23561" lon="2.92022">
        <ele>179.73336791992</ele>
        <time>2016-04-13T13:44:50.000Z</time>
      </trkpt>
      <trkpt lat="47.23561" lon="2.92027">
        <ele>179.62875366211</ele>
        <time>2016-04-13T13:44:53.000Z</time>
      </trkpt>
      <trkpt lat="47.23562" lon="2.92031">
        <ele>179.53286743164</ele>
        <time>2016-04-13T13:44:56.000Z</time>
      </trkpt>
      <trkpt lat="47.23561" lon="2.92035">
        <ele>179.44345092773</ele>
        <time>2016-04-13T13:44:59.000Z</time>
      </trkpt>
      <trkpt lat="47.23561" lon="2.92037">
        <ele>179.36502075195</ele>
        <time>2016-04-13T13:45:13.000Z</time>
      </trkpt>
      <trkpt lat="47.23561" lon="2.92039">
        <ele>179.29414367676</ele>
        <time>2016-04-13T13:45:17.000Z</time>
      </trkpt>
      <trkpt lat="47.23562" lon="2.92041">
        <ele>179.23399353027</ele>
        <time>2016-04-13T13:45:20.000Z</time>
      </trkpt>
      <trkpt lat="47.23563" lon="2.92044">
        <ele>179.18135070801</ele>
        <time>2016-04-13T13:45:23.000Z</time>
      </trkpt>
      <trkpt lat="47.23563" lon="2.92047">
        <ele>179.13171386719</ele>
        <time>2016-04-13T13:45:25.000Z</time>
      </trkpt>
      <trkpt lat="47.23563" lon="2.9205">
        <ele>179.0736541748</ele>
        <time>2016-04-13T13:45:28.000Z</time>
      </trkpt>
      <trkpt lat="47.23561" lon="2.92051">
        <ele>179.02278137207</ele>
        <time>2016-04-13T13:45:45.000Z</time>
      </trkpt>
      <trkpt lat="47.23561" lon="2.92049">
        <ele>178.98849487305</ele>
        <time>2016-04-13T13:45:58.000Z</time>
      </trkpt>
      <trkpt lat="47.23561" lon="2.92048">
        <ele>178.97457885742</ele>
        <time>2016-04-13T13:46:03.000Z</time>
      </trkpt>
      <trkpt lat="47.2356" lon="2.92046">
        <ele>178.98222351074</ele>
        <time>2016-04-13T13:46:06.000Z</time>
      </trkpt>
      <trkpt lat="47.23561" lon="2.92049">
        <ele>178.99040222168</ele>
        <time>2016-04-13T13:46:11.000Z</time>
      </trkpt>
      <trkpt lat="47.23561" lon="2.92054">
        <ele>178.98004150391</ele>
        <time>2016-04-13T13:46:13.000Z</time>
      </trkpt>
      <trkpt lat="47.23562" lon="2.92061">
        <ele>178.93171691895</ele>
        <time>2016-04-13T13:46:17.000Z</time>
      </trkpt>
      <trkpt lat="47.23562" lon="2.92064">
        <ele>178.85977172852</ele>
        <time>2016-04-13T13:46:18.000Z</time>
      </trkpt>
      <trkpt lat="47.23563" lon="2.9207">
        <ele>178.75631713867</ele>
        <time>2016-04-13T13:46:22.000Z</time>
      </trkpt>
      <trkpt lat="47.23563" lon="2.92074">
        <ele>178.64912414551</ele>
        <time>2016-04-13T13:46:23.000Z</time>
      </trkpt>
      <trkpt lat="47.23564" lon="2.92077">
        <ele>178.54638671875</ele>
        <time>2016-04-13T13:46:25.000Z</time>
      </trkpt>
      <trkpt lat="47.23565" lon="2.92083">
        <ele>178.44528198242</ele>
        <time>2016-04-13T13:46:28.000Z</time>
      </trkpt>
      <trkpt lat="47.23565" lon="2.9209">
        <ele>178.33242797852</ele>
        <time>2016-04-13T13:46:31.000Z</time>
      </trkpt>
      <trkpt lat="47.23565" lon="2.92095">
        <ele>178.22468566895</ele>
        <time>2016-04-13T13:46:33.000Z</time>
      </trkpt>
      <trkpt lat="47.23565" lon="2.92101">
        <ele>178.11172485352</ele>
        <time>2016-04-13T13:46:36.000Z</time>
      </trkpt>
      <trkpt lat="47.23565" lon="2.92107">
        <ele>177.99263000488</ele>
        <time>2016-04-13T13:46:39.000Z</time>
      </trkpt>
      <trkpt lat="47.23565" lon="2.92111">
        <ele>177.88887023926</ele>
        <time>2016-04-13T13:46:41.000Z</time>
      </trkpt>
      <trkpt lat="47.23565" lon="2.92117">
        <ele>177.7915802002</ele>
        <time>2016-04-13T13:46:44.000Z</time>
      </trkpt>
      <trkpt lat="47.23564" lon="2.92121">
        <ele>177.69943237305</ele>
        <time>2016-04-13T13:46:46.000Z</time>
      </trkpt>
      <trkpt lat="47.23563" lon="2.92126">
        <ele>177.61619567871</ele>
        <time>2016-04-13T13:46:50.000Z</time>
      </trkpt>
      <trkpt lat="47.23562" lon="2.92129">
        <ele>177.54930114746</ele>
        <time>2016-04-13T13:46:51.000Z</time>
      </trkpt>
      <trkpt lat="47.23559" lon="2.92134">
        <ele>177.49508666992</ele>
        <time>2016-04-13T13:46:55.000Z</time>
      </trkpt>
      <trkpt lat="47.23558" lon="2.92136">
        <ele>177.46157836914</ele>
        <time>2016-04-13T13:46:56.000Z</time>
      </trkpt>
      <trkpt lat="47.23555" lon="2.9214">
        <ele>177.43925476074</ele>
        <time>2016-04-13T13:47:00.000Z</time>
      </trkpt>
      <trkpt lat="47.23554" lon="2.92143">
        <ele>177.4313659668</ele>
        <time>2016-04-13T13:47:01.000Z</time>
      </trkpt>
      <trkpt lat="47.23553" lon="2.92147">
        <ele>177.41932678223</ele>
        <time>2016-04-13T13:47:03.000Z</time>
      </trkpt>
      <trkpt lat="47.23553" lon="2.92153">
        <ele>177.3910369873</ele>
        <time>2016-04-13T13:47:06.000Z</time>
      </trkpt>
      <trkpt lat="47.23553" lon="2.92157">
        <ele>177.35104370117</ele>
        <time>2016-04-13T13:47:09.000Z</time>
      </trkpt>
      <trkpt lat="47.23553" lon="2.92159">
        <ele>177.30624389648</ele>
        <time>2016-04-13T13:47:12.000Z</time>
      </trkpt>
      <trkpt lat="47.23553" lon="2.92162">
        <ele>177.25424194336</ele>
        <time>2016-04-13T13:47:17.000Z</time>
      </trkpt>
      <trkpt lat="47.23553" lon="2.92166">
        <ele>177.19551086426</ele>
        <time>2016-04-13T13:47:19.000Z</time>
      </trkpt>
      <trkpt lat="47.23553" lon="2.92169">
        <ele>177.15342712402</ele>
        <time>2016-04-13T13:47:21.000Z</time>
      </trkpt>
      <trkpt lat="47.23552" lon="2.92174">
        <ele>177.12966918945</ele>
        <time>2016-04-13T13:47:24.000Z</time>
      </trkpt>
      <trkpt lat="47.23551" lon="2.92178">
        <ele>177.11952209473</ele>
        <time>2016-04-13T13:47:26.000Z</time>
      </trkpt>
      <trkpt lat="47.23551" lon="2.92181">
        <ele>177.11405944824</ele>
        <time>2016-04-13T13:47:28.000Z</time>
      </trkpt>
      <trkpt lat="47.23551" lon="2.92187">
        <ele>177.1219329834</ele>
        <time>2016-04-13T13:47:31.000Z</time>
      </trkpt>
      <trkpt lat="47.23552" lon="2.92192">
        <ele>177.11720275879</ele>
        <time>2016-04-13T13:47:34.000Z</time>
      </trkpt>
      <trkpt lat="47.23552" lon="2.92198">
        <ele>177.10316467285</ele>
        <time>2016-04-13T13:47:37.000Z</time>
      </trkpt>
      <trkpt lat="47.23552" lon="2.92204">
        <ele>177.08193969727</ele>
        <time>2016-04-13T13:47:40.000Z</time>
      </trkpt>
      <trkpt lat="47.23551" lon="2.92207">
        <ele>177.06471252441</ele>
        <time>2016-04-13T13:47:42.000Z</time>
      </trkpt>
      <trkpt lat="47.2355" lon="2.92212">
        <ele>177.05178833008</ele>
        <time>2016-04-13T13:47:46.000Z</time>
      </trkpt>
      <trkpt lat="47.2355" lon="2.92217">
        <ele>177.05790710449</ele>
        <time>2016-04-13T13:47:47.000Z</time>
      </trkpt>
      <trkpt lat="47.23549" lon="2.92222">
        <ele>177.07357788086</ele>
        <time>2016-04-13T13:47:51.000Z</time>
      </trkpt>
      <trkpt lat="47.23549" lon="2.92224">
        <ele>177.08787536621</ele>
        <time>2016-04-13T13:47:52.000Z</time>
      </trkpt>
      <trkpt lat="47.23549" lon="2.92227">
        <ele>177.10317993164</ele>
        <time>2016-04-13T13:47:54.000Z</time>
      </trkpt>
      <trkpt lat="47.23548" lon="2.92233">
        <ele>177.12390136719</ele>
        <time>2016-04-13T13:47:57.000Z</time>
      </trkpt>
      <trkpt lat="47.23547" lon="2.92239">
        <ele>177.14135742188</ele>
        <time>2016-04-13T13:48:00.000Z</time>
      </trkpt>
      <trkpt lat="47.23547" lon="2.92243">
        <ele>177.16075134277</ele>
        <time>2016-04-13T13:48:03.000Z</time>
      </trkpt>
      <trkpt lat="47.23546" lon="2.92246">
        <ele>177.18508911133</ele>
        <time>2016-04-13T13:48:05.000Z</time>
      </trkpt>
      <trkpt lat="47.23545" lon="2.92252">
        <ele>177.21725463867</ele>
        <time>2016-04-13T13:48:09.000Z</time>
      </trkpt>
      <trkpt lat="47.23545" lon="2.92256">
        <ele>177.24255371094</ele>
        <time>2016-04-13T13:48:10.000Z</time>
      </trkpt>
      <trkpt lat="47.23544" lon="2.92262">
        <ele>177.26281738281</ele>
        <time>2016-04-13T13:48:13.000Z</time>
      </trkpt>
      <trkpt lat="47.23543" lon="2.92269">
        <ele>177.2818145752</ele>
        <time>2016-04-13T13:48:16.000Z</time>
      </trkpt>
      <trkpt lat="47.23543" lon="2.92271">
        <ele>177.28820800781</ele>
        <time>2016-04-13T13:48:18.000Z</time>
      </trkpt>
      <trkpt lat="47.23543" lon="2.92275">
        <ele>177.28379821777</ele>
        <time>2016-04-13T13:48:21.000Z</time>
      </trkpt>
      <trkpt lat="47.23543" lon="2.9228">
        <ele>177.27346801758</ele>
        <time>2016-04-13T13:48:24.000Z</time>
      </trkpt>
      <trkpt lat="47.23541" lon="2.92285">
        <ele>177.28092956543</ele>
        <time>2016-04-13T13:48:27.000Z</time>
      </trkpt>
      <trkpt lat="47.23541" lon="2.9229">
        <ele>177.28057861328</ele>
        <time>2016-04-13T13:48:30.000Z</time>
      </trkpt>
      <trkpt lat="47.2354" lon="2.92294">
        <ele>177.28982543945</ele>
        <time>2016-04-13T13:48:32.000Z</time>
      </trkpt>
      <trkpt lat="47.23539" lon="2.923">
        <ele>177.30828857422</ele>
        <time>2016-04-13T13:48:35.000Z</time>
      </trkpt>
      <trkpt lat="47.23539" lon="2.92305">
        <ele>177.33274841309</ele>
        <time>2016-04-13T13:48:37.000Z</time>
      </trkpt>
      <trkpt lat="47.23538" lon="2.92309">
        <ele>177.34848022461</ele>
        <time>2016-04-13T13:48:40.000Z</time>
      </trkpt>
      <trkpt lat="47.23537" lon="2.92315">
        <ele>177.37086486816</ele>
        <time>2016-04-13T13:48:43.000Z</time>
      </trkpt>
      <trkpt lat="47.23537" lon="2.92317">
        <ele>177.38391113281</ele>
        <time>2016-04-13T13:48:45.000Z</time>
      </trkpt>
      <trkpt lat="47.23537" lon="2.9232">
        <ele>177.38452148438</ele>
        <time>2016-04-13T13:48:53.000Z</time>
      </trkpt>
      <trkpt lat="47.23537" lon="2.92327">
        <ele>177.37748718262</ele>
        <time>2016-04-13T13:48:56.000Z</time>
      </trkpt>
      <trkpt lat="47.23536" lon="2.92332">
        <ele>177.37637329102</ele>
        <time>2016-04-13T13:48:59.000Z</time>
      </trkpt>
      <trkpt lat="47.23536" lon="2.92336">
        <ele>177.35647583008</ele>
        <time>2016-04-13T13:49:02.000Z</time>
      </trkpt>
      <trkpt lat="47.23535" lon="2.9234">
        <ele>177.31265258789</ele>
        <time>2016-04-13T13:49:05.000Z</time>
      </trkpt>
      <trkpt lat="47.23535" lon="2.92343">
        <ele>177.24517822266</ele>
        <time>2016-04-13T13:49:07.000Z</time>
      </trkpt>
      <trkpt lat="47.23533" lon="2.92348">
        <ele>177.1615447998</ele>
        <time>2016-04-13T13:49:11.000Z</time>
      </trkpt>
      <trkpt lat="47.23532" lon="2.92351">
        <ele>177.04167175293</ele>
        <time>2016-04-13T13:49:12.000Z</time>
      </trkpt>
      <trkpt lat="47.23531" lon="2.92356">
        <ele>176.90237426758</ele>
        <time>2016-04-13T13:49:15.000Z</time>
      </trkpt>
      <trkpt lat="47.2353" lon="2.9236">
        <ele>176.76728820801</ele>
        <time>2016-04-13T13:49:17.000Z</time>
      </trkpt>
      <trkpt lat="47.23528" lon="2.92365">
        <ele>176.64059448242</ele>
        <time>2016-04-13T13:49:20.000Z</time>
      </trkpt>
      <trkpt lat="47.23525" lon="2.92369">
        <ele>176.51370239258</ele>
        <time>2016-04-13T13:49:23.000Z</time>
      </trkpt>
      <trkpt lat="47.23523" lon="2.92373">
        <ele>176.37979125977</ele>
        <time>2016-04-13T13:49:26.000Z</time>
      </trkpt>
      <trkpt lat="47.23522" lon="2.92377">
        <ele>176.24851989746</ele>
        <time>2016-04-13T13:49:28.000Z</time>
      </trkpt>
      <trkpt lat="47.23521" lon="2.92381">
        <ele>176.11293029785</ele>
        <time>2016-04-13T13:49:31.000Z</time>
      </trkpt>
      <trkpt lat="47.23519" lon="2.92386">
        <ele>175.94387817383</ele>
        <time>2016-04-13T13:49:34.000Z</time>
      </trkpt>
      <trkpt lat="47.23518" lon="2.92389">
        <ele>175.77401733398</ele>
        <time>2016-04-13T13:49:36.000Z</time>
      </trkpt>
      <trkpt lat="47.23516" lon="2.92393">
        <ele>175.59310913086</ele>
        <time>2016-04-13T13:49:39.000Z</time>
      </trkpt>
      <trkpt lat="47.23515" lon="2.92399">
        <ele>175.38554382324</ele>
        <time>2016-04-13T13:49:42.000Z</time>
      </trkpt>
      <trkpt lat="47.23513" lon="2.92404">
        <ele>175.15005493164</ele>
        <time>2016-04-13T13:49:45.000Z</time>
      </trkpt>
      <trkpt lat="47.23512" lon="2.92407">
        <ele>174.93571472168</ele>
        <time>2016-04-13T13:49:47.000Z</time>
      </trkpt>
      <trkpt lat="47.2351" lon="2.92411">
        <ele>174.6993560791</ele>
        <time>2016-04-13T13:49:50.000Z</time>
      </trkpt>
      <trkpt lat="47.2351" lon="2.92414">
        <ele>174.46499633789</ele>
        <time>2016-04-13T13:49:52.000Z</time>
      </trkpt>
      <trkpt lat="47.23507" lon="2.92418">
        <ele>174.25723266602</ele>
        <time>2016-04-13T13:49:55.000Z</time>
      </trkpt>
      <trkpt lat="47.23505" lon="2.92421">
        <ele>174.10917663574</ele>
        <time>2016-04-13T13:49:57.000Z</time>
      </trkpt>
      <trkpt lat="47.23503" lon="2.92427">
        <ele>173.98413085938</ele>
        <time>2016-04-13T13:50:00.000Z</time>
      </trkpt>
      <trkpt lat="47.23501" lon="2.92431">
        <ele>173.89855957031</ele>
        <time>2016-04-13T13:50:03.000Z</time>
      </trkpt>
      <trkpt lat="47.235" lon="2.92434">
        <ele>173.84797668457</ele>
        <time>2016-04-13T13:50:05.000Z</time>
      </trkpt>
      <trkpt lat="47.23499" lon="2.92437">
        <ele>173.83290100098</ele>
        <time>2016-04-13T13:50:07.000Z</time>
      </trkpt>
      <trkpt lat="47.23498" lon="2.92441">
        <ele>173.82522583008</ele>
        <time>2016-04-13T13:50:10.000Z</time>
      </trkpt>
      <trkpt lat="47.23496" lon="2.92446">
        <ele>173.84089660645</ele>
        <time>2016-04-13T13:50:13.000Z</time>
      </trkpt>
      <trkpt lat="47.23494" lon="2.92451">
        <ele>173.87780761719</ele>
        <time>2016-04-13T13:50:16.000Z</time>
      </trkpt>
      <trkpt lat="47.23492" lon="2.92454">
        <ele>173.92834472656</ele>
        <time>2016-04-13T13:50:18.000Z</time>
      </trkpt>
      <trkpt lat="47.23491" lon="2.92459">
        <ele>173.98008728027</ele>
        <time>2016-04-13T13:50:20.000Z</time>
      </trkpt>
      <trkpt lat="47.23491" lon="2.92462">
        <ele>174.02944946289</ele>
        <time>2016-04-13T13:50:22.000Z</time>
      </trkpt>
      <trkpt lat="47.23489" lon="2.92466">
        <ele>174.07023620605</ele>
        <time>2016-04-13T13:50:25.000Z</time>
      </trkpt>
      <trkpt lat="47.23486" lon="2.92472">
        <ele>174.12411499023</ele>
        <time>2016-04-13T13:50:28.000Z</time>
      </trkpt>
      <trkpt lat="47.23484" lon="2.92476">
        <ele>174.19393920898</ele>
        <time>2016-04-13T13:50:31.000Z</time>
      </trkpt>
      <trkpt lat="47.23482" lon="2.9248">
        <ele>174.27146911621</ele>
        <time>2016-04-13T13:50:34.000Z</time>
      </trkpt>
      <trkpt lat="47.23481" lon="2.92483">
        <ele>174.36148071289</ele>
        <time>2016-04-13T13:50:36.000Z</time>
      </trkpt>
      <trkpt lat="47.23479" lon="2.92487">
        <ele>174.46548461914</ele>
        <time>2016-04-13T13:50:39.000Z</time>
      </trkpt>
      <trkpt lat="47.23478" lon="2.9249">
        <ele>174.55548095703</ele>
        <time>2016-04-13T13:50:41.000Z</time>
      </trkpt>
      <trkpt lat="47.23475" lon="2.92494">
        <ele>174.64245605469</ele>
        <time>2016-04-13T13:50:44.000Z</time>
      </trkpt>
      <trkpt lat="47.23473" lon="2.92499">
        <ele>174.7414855957</ele>
        <time>2016-04-13T13:50:47.000Z</time>
      </trkpt>
      <trkpt lat="47.2347" lon="2.92503">
        <ele>174.85223388672</ele>
        <time>2016-04-13T13:50:50.000Z</time>
      </trkpt>
      <trkpt lat="47.23468" lon="2.92506">
        <ele>174.96266174316</ele>
        <time>2016-04-13T13:50:52.000Z</time>
      </trkpt>
      <trkpt lat="47.23467" lon="2.92511">
        <ele>175.07110595703</ele>
        <time>2016-04-13T13:50:55.000Z</time>
      </trkpt>
      <trkpt lat="47.23466" lon="2.92514">
        <ele>175.16625976562</ele>
        <time>2016-04-13T13:50:57.000Z</time>
      </trkpt>
      <trkpt lat="47.23464" lon="2.92518">
        <ele>175.23725891113</ele>
        <time>2016-04-13T13:51:00.000Z</time>
      </trkpt>
      <trkpt lat="47.23462" lon="2.92523">
        <ele>175.29557800293</ele>
        <time>2016-04-13T13:51:03.000Z</time>
      </trkpt>
      <trkpt lat="47.2346" lon="2.92527">
        <ele>175.33622741699</ele>
        <time>2016-04-13T13:51:06.000Z</time>
      </trkpt>
      <trkpt lat="47.23459" lon="2.9253">
        <ele>175.3695526123</ele>
        <time>2016-04-13T13:51:08.000Z</time>
      </trkpt>
      <trkpt lat="47.23457" lon="2.92535">
        <ele>175.39741516113</ele>
        <time>2016-04-13T13:51:11.000Z</time>
      </trkpt>
      <trkpt lat="47.23455" lon="2.92539">
        <ele>175.41943359375</ele>
        <time>2016-04-13T13:51:13.000Z</time>
      </trkpt>
      <trkpt lat="47.23454" lon="2.92544">
        <ele>175.41409301758</ele>
        <time>2016-04-13T13:51:17.000Z</time>
      </trkpt>
      <trkpt lat="47.23453" lon="2.92547">
        <ele>175.40298461914</ele>
        <time>2016-04-13T13:51:18.000Z</time>
      </trkpt>
      <trkpt lat="47.23451" lon="2.92552">
        <ele>175.37887573242</ele>
        <time>2016-04-13T13:51:21.000Z</time>
      </trkpt>
      <trkpt lat="47.23449" lon="2.92557">
        <ele>175.3420715332</ele>
        <time>2016-04-13T13:51:24.000Z</time>
      </trkpt>
      <trkpt lat="47.23448" lon="2.92561">
        <ele>175.29634094238</ele>
        <time>2016-04-13T13:51:28.000Z</time>
      </trkpt>
      <trkpt lat="47.23447" lon="2.92565">
        <ele>175.24780273438</ele>
        <time>2016-04-13T13:51:29.000Z</time>
      </trkpt>
      <trkpt lat="47.23446" lon="2.9257">
        <ele>175.17802429199</ele>
        <time>2016-04-13T13:51:33.000Z</time>
      </trkpt>
      <trkpt lat="47.23446" lon="2.92573">
        <ele>175.10299682617</ele>
        <time>2016-04-13T13:51:34.000Z</time>
      </trkpt>
      <trkpt lat="47.23445" lon="2.92576">
        <ele>175.02462768555</ele>
        <time>2016-04-13T13:51:36.000Z</time>
      </trkpt>
      <trkpt lat="47.23445" lon="2.9258">
        <ele>174.93754577637</ele>
        <time>2016-04-13T13:51:39.000Z</time>
      </trkpt>
      <trkpt lat="47.23444" lon="2.92584">
        <ele>174.84274291992</ele>
        <time>2016-04-13T13:51:42.000Z</time>
      </trkpt>
      <trkpt lat="47.23443" lon="2.92586">
        <ele>174.76156616211</ele>
        <time>2016-04-13T13:51:55.000Z</time>
      </trkpt>
      <trkpt lat="47.23442" lon="2.9259">
        <ele>174.67837524414</ele>
        <time>2016-04-13T13:51:57.000Z</time>
      </trkpt>
      <trkpt lat="47.23441" lon="2.92595">
        <ele>174.57971191406</ele>
        <time>2016-04-13T13:52:00.000Z</time>
      </trkpt>
      <trkpt lat="47.2344" lon="2.92598">
        <ele>174.48373413086</ele>
        <time>2016-04-13T13:52:02.000Z</time>
      </trkpt>
      <trkpt lat="47.23441" lon="2.92601">
        <ele>174.39570617676</ele>
        <time>2016-04-13T13:52:04.000Z</time>
      </trkpt>
      <trkpt lat="47.2344" lon="2.92605">
        <ele>174.2925567627</ele>
        <time>2016-04-13T13:52:08.000Z</time>
      </trkpt>
      <trkpt lat="47.23438" lon="2.92609">
        <ele>174.18496704102</ele>
        <time>2016-04-13T13:52:09.000Z</time>
      </trkpt>
      <trkpt lat="47.23438" lon="2.92613">
        <ele>174.08470153809</ele>
        <time>2016-04-13T13:52:11.000Z</time>
      </trkpt>
      <trkpt lat="47.23437" lon="2.92619">
        <ele>173.96548461914</ele>
        <time>2016-04-13T13:52:14.000Z</time>
      </trkpt>
      <trkpt lat="47.23436" lon="2.92625">
        <ele>173.82638549805</ele>
        <time>2016-04-13T13:52:17.000Z</time>
      </trkpt>
      <trkpt lat="47.23435" lon="2.9263">
        <ele>173.68180847168</ele>
        <time>2016-04-13T13:52:20.000Z</time>
      </trkpt>
      <trkpt lat="47.23434" lon="2.92635">
        <ele>173.5255279541</ele>
        <time>2016-04-13T13:52:23.000Z</time>
      </trkpt>
      <trkpt lat="47.23433" lon="2.92639">
        <ele>173.36064147949</ele>
        <time>2016-04-13T13:52:26.000Z</time>
      </trkpt>
      <trkpt lat="47.23431" lon="2.92643">
        <ele>173.21089172363</ele>
        <time>2016-04-13T13:52:28.000Z</time>
      </trkpt>
      <trkpt lat="47.23429" lon="2.92646">
        <ele>173.06958007812</ele>
        <time>2016-04-13T13:52:31.000Z</time>
      </trkpt>
      <trkpt lat="47.23428" lon="2.92652">
        <ele>172.91873168945</ele>
        <time>2016-04-13T13:52:34.000Z</time>
      </trkpt>
      <trkpt lat="47.23427" lon="2.92657">
        <ele>172.77070617676</ele>
        <time>2016-04-13T13:52:36.000Z</time>
      </trkpt>
      <trkpt lat="47.23426" lon="2.92662">
        <ele>172.61343383789</ele>
        <time>2016-04-13T13:52:39.000Z</time>
      </trkpt>
      <trkpt lat="47.23425" lon="2.92667">
        <ele>172.44476318359</ele>
        <time>2016-04-13T13:52:42.000Z</time>
      </trkpt>
      <trkpt lat="47.23424" lon="2.9267">
        <ele>172.29502868652</ele>
        <time>2016-04-13T13:52:44.000Z</time>
      </trkpt>
      <trkpt lat="47.23423" lon="2.92673">
        <ele>172.17666625977</ele>
        <time>2016-04-13T13:52:47.000Z</time>
      </trkpt>
      <trkpt lat="47.23423" lon="2.92676">
        <ele>172.08059692383</ele>
        <time>2016-04-13T13:52:49.000Z</time>
      </trkpt>
      <trkpt lat="47.23422" lon="2.92682">
        <ele>172.0085144043</ele>
        <time>2016-04-13T13:52:52.000Z</time>
      </trkpt>
      <trkpt lat="47.23421" lon="2.92686">
        <ele>171.95959472656</ele>
        <time>2016-04-13T13:52:54.000Z</time>
      </trkpt>
      <trkpt lat="47.23421" lon="2.9269">
        <ele>171.90707397461</ele>
        <time>2016-04-13T13:52:58.000Z</time>
      </trkpt>
      <trkpt lat="47.2342" lon="2.92693">
        <ele>171.85304260254</ele>
        <time>2016-04-13T13:52:59.000Z</time>
      </trkpt>
      <trkpt lat="47.23419" lon="2.92697">
        <ele>171.79560852051</ele>
        <time>2016-04-13T13:53:01.000Z</time>
      </trkpt>
      <trkpt lat="47.23418" lon="2.92703">
        <ele>171.73408508301</ele>
        <time>2016-04-13T13:53:04.000Z</time>
      </trkpt>
      <trkpt lat="47.23417" lon="2.92707">
        <ele>171.67025756836</ele>
        <time>2016-04-13T13:53:07.000Z</time>
      </trkpt>
      <trkpt lat="47.23417" lon="2.92712">
        <ele>171.6028137207</ele>
        <time>2016-04-13T13:53:10.000Z</time>
      </trkpt>
      <trkpt lat="47.23416" lon="2.92715">
        <ele>171.53741455078</ele>
        <time>2016-04-13T13:53:12.000Z</time>
      </trkpt>
      <trkpt lat="47.23415" lon="2.92719">
        <ele>171.47421264648</ele>
        <time>2016-04-13T13:53:15.000Z</time>
      </trkpt>
      <trkpt lat="47.23414" lon="2.92722">
        <ele>171.42221069336</ele>
        <time>2016-04-13T13:53:17.000Z</time>
      </trkpt>
      <trkpt lat="47.23413" lon="2.92727">
        <ele>171.3720703125</ele>
        <time>2016-04-13T13:53:21.000Z</time>
      </trkpt>
      <trkpt lat="47.23413" lon="2.92729">
        <ele>171.33148193359</ele>
        <time>2016-04-13T13:53:22.000Z</time>
      </trkpt>
      <trkpt lat="47.23412" lon="2.92731">
        <ele>171.29339599609</ele>
        <time>2016-04-13T13:53:24.000Z</time>
      </trkpt>
      <trkpt lat="47.2341" lon="2.92736">
        <ele>171.25177001953</ele>
        <time>2016-04-13T13:53:27.000Z</time>
      </trkpt>
      <trkpt lat="47.2341" lon="2.9274">
        <ele>171.20892333984</ele>
        <time>2016-04-13T13:53:30.000Z</time>
      </trkpt>
      <trkpt lat="47.23409" lon="2.92744">
        <ele>171.16656494141</ele>
        <time>2016-04-13T13:53:33.000Z</time>
      </trkpt>
      <trkpt lat="47.23409" lon="2.92749">
        <ele>171.11676025391</ele>
        <time>2016-04-13T13:53:36.000Z</time>
      </trkpt>
      <trkpt lat="47.2341" lon="2.92754">
        <ele>171.08061218262</ele>
        <time>2016-04-13T13:53:39.000Z</time>
      </trkpt>
      <trkpt lat="47.2341" lon="2.92758">
        <ele>171.06474304199</ele>
        <time>2016-04-13T13:53:42.000Z</time>
      </trkpt>
      <trkpt lat="47.2341" lon="2.92761">
        <ele>171.06466674805</ele>
        <time>2016-04-13T13:53:45.000Z</time>
      </trkpt>
      <trkpt lat="47.2341" lon="2.92765">
        <ele>171.08358764648</ele>
        <time>2016-04-13T13:53:46.000Z</time>
      </trkpt>
      <trkpt lat="47.2341" lon="2.9277">
        <ele>171.12673950195</ele>
        <time>2016-04-13T13:53:49.000Z</time>
      </trkpt>
      <trkpt lat="47.2341" lon="2.92773">
        <ele>171.16903686523</ele>
        <time>2016-04-13T13:53:51.000Z</time>
      </trkpt>
      <trkpt lat="47.2341" lon="2.92778">
        <ele>171.21391296387</ele>
        <time>2016-04-13T13:53:54.000Z</time>
      </trkpt>
      <trkpt lat="47.2341" lon="2.92782">
        <ele>171.26065063477</ele>
        <time>2016-04-13T13:53:56.000Z</time>
      </trkpt>
      <trkpt lat="47.23409" lon="2.92786">
        <ele>171.30812072754</ele>
        <time>2016-04-13T13:53:59.000Z</time>
      </trkpt>
      <trkpt lat="47.23409" lon="2.9279">
        <ele>171.34976196289</ele>
        <time>2016-04-13T13:54:01.000Z</time>
      </trkpt>
      <trkpt lat="47.23409" lon="2.92792">
        <ele>171.38980102539</ele>
        <time>2016-04-13T13:54:03.000Z</time>
      </trkpt>
      <trkpt lat="47.23409" lon="2.92795">
        <ele>171.42568969727</ele>
        <time>2016-04-13T13:54:07.000Z</time>
      </trkpt>
      <trkpt lat="47.23409" lon="2.92799">
        <ele>171.4619140625</ele>
        <time>2016-04-13T13:54:08.000Z</time>
      </trkpt>
      <trkpt lat="47.23409" lon="2.92804">
        <ele>171.4998626709</ele>
        <time>2016-04-13T13:54:11.000Z</time>
      </trkpt>
      <trkpt lat="47.2341" lon="2.92807">
        <ele>171.53907775879</ele>
        <time>2016-04-13T13:54:13.000Z</time>
      </trkpt>
      <trkpt lat="47.2341" lon="2.9281">
        <ele>171.57922363281</ele>
        <time>2016-04-13T13:54:15.000Z</time>
      </trkpt>
      <trkpt lat="47.2341" lon="2.92815">
        <ele>171.62503051758</ele>
        <time>2016-04-13T13:54:19.000Z</time>
      </trkpt>
      <trkpt lat="47.2341" lon="2.92818">
        <ele>171.66857910156</ele>
        <time>2016-04-13T13:54:20.000Z</time>
      </trkpt>
      <trkpt lat="47.2341" lon="2.92822">
        <ele>171.7106628418</ele>
        <time>2016-04-13T13:54:22.000Z</time>
      </trkpt>
      <trkpt lat="47.2341" lon="2.92827">
        <ele>171.75622558594</ele>
        <time>2016-04-13T13:54:25.000Z</time>
      </trkpt>
      <trkpt lat="47.2341" lon="2.92833">
        <ele>171.80770874023</ele>
        <time>2016-04-13T13:54:28.000Z</time>
      </trkpt>
      <trkpt lat="47.2341" lon="2.92838">
        <ele>171.85865783691</ele>
        <time>2016-04-13T13:54:31.000Z</time>
      </trkpt>
      <trkpt lat="47.23409" lon="2.92841">
        <ele>171.90882873535</ele>
        <time>2016-04-13T13:54:33.000Z</time>
      </trkpt>
      <trkpt lat="47.23409" lon="2.92844">
        <ele>171.95783996582</ele>
        <time>2016-04-13T13:54:36.000Z</time>
      </trkpt>
      <trkpt lat="47.23409" lon="2.92846">
        <ele>171.99862670898</ele>
        <time>2016-04-13T13:54:39.000Z</time>
      </trkpt>
      <trkpt lat="47.23409" lon="2.92846">
        <ele>171.99862670898</ele>
        <time>2016-04-13T13:54:59.000Z</time>
      </trkpt>
      <trkpt lat="47.23409" lon="2.92847">
        <ele>172.03186035156</ele>
        <time>2016-04-13T13:55:08.000Z</time>
      </trkpt>
      <trkpt lat="47.2341" lon="2.92848">
        <ele>172.05700683594</ele>
        <time>2016-04-13T13:55:10.000Z</time>
      </trkpt>
      <trkpt lat="47.2341" lon="2.9285">
        <ele>172.08117675781</ele>
        <time>2016-04-13T13:55:13.000Z</time>
      </trkpt>
      <trkpt lat="47.2341" lon="2.92853">
        <ele>172.10260009766</ele>
        <time>2016-04-13T13:55:15.000Z</time>
      </trkpt>
      <trkpt lat="47.23409" lon="2.92856">
        <ele>172.12805175781</ele>
        <time>2016-04-13T13:55:18.000Z</time>
      </trkpt>
      <trkpt lat="47.23409" lon="2.92858">
        <ele>172.15423583984</ele>
        <time>2016-04-13T13:55:21.000Z</time>
      </trkpt>
      <trkpt lat="47.23409" lon="2.9286">
        <ele>172.18035888672</ele>
        <time>2016-04-13T13:55:23.000Z</time>
      </trkpt>
      <trkpt lat="47.23408" lon="2.92862">
        <ele>172.20391845703</ele>
        <time>2016-04-13T13:55:26.000Z</time>
      </trkpt>
      <trkpt lat="47.23406" lon="2.92863">
        <ele>172.22082519531</ele>
        <time>2016-04-13T13:55:28.000Z</time>
      </trkpt>
      <trkpt lat="47.23402" lon="2.92865">
        <ele>172.22332763672</ele>
        <time>2016-04-13T13:55:31.000Z</time>
      </trkpt>
      <trkpt lat="47.23399" lon="2.92865">
        <ele>172.21472167969</ele>
        <time>2016-04-13T13:55:33.000Z</time>
      </trkpt>
      <trkpt lat="47.23395" lon="2.92865">
        <ele>172.19323730469</ele>
        <time>2016-04-13T13:55:37.000Z</time>
      </trkpt>
      <trkpt lat="47.23392" lon="2.92866">
        <ele>172.16467285156</ele>
        <time>2016-04-13T13:55:38.000Z</time>
      </trkpt>
      <trkpt lat="47.23389" lon="2.92866">
        <ele>172.13159179688</ele>
        <time>2016-04-13T13:55:42.000Z</time>
      </trkpt>
      <trkpt lat="47.23385" lon="2.92867">
        <ele>172.0966796875</ele>
        <time>2016-04-13T13:55:44.000Z</time>
      </trkpt>
      <trkpt lat="47.23384" lon="2.92866">
        <ele>172.0634765625</ele>
        <time>2016-04-13T13:55:46.000Z</time>
      </trkpt>
      <trkpt lat="47.23381" lon="2.92866">
        <ele>172.03186035156</ele>
        <time>2016-04-13T13:55:49.000Z</time>
      </trkpt>
      <trkpt lat="47.23379" lon="2.92865">
        <ele>171.99786376953</ele>
        <time>2016-04-13T13:55:51.000Z</time>
      </trkpt>
      <trkpt lat="47.23375" lon="2.92864">
        <ele>171.95703125</ele>
        <time>2016-04-13T13:55:54.000Z</time>
      </trkpt>
      <trkpt lat="47.23373" lon="2.92863">
        <ele>171.91931152344</ele>
        <time>2016-04-13T13:55:56.000Z</time>
      </trkpt>
      <trkpt lat="47.23369" lon="2.92863">
        <ele>171.87524414062</ele>
        <time>2016-04-13T13:55:59.000Z</time>
      </trkpt>
      <trkpt lat="47.23365" lon="2.92862">
        <ele>171.82904052734</ele>
        <time>2016-04-13T13:56:02.000Z</time>
      </trkpt>
      <trkpt lat="47.23363" lon="2.92862">
        <ele>171.78381347656</ele>
        <time>2016-04-13T13:56:04.000Z</time>
      </trkpt>
      <trkpt lat="47.2336" lon="2.92862">
        <ele>171.74468994141</ele>
        <time>2016-04-13T13:56:07.000Z</time>
      </trkpt>
      <trkpt lat="47.23356" lon="2.92863">
        <ele>171.70373535156</ele>
        <time>2016-04-13T13:56:10.000Z</time>
      </trkpt>
      <trkpt lat="47.23352" lon="2.92863">
        <ele>171.66314697266</ele>
        <time>2016-04-13T13:56:13.000Z</time>
      </trkpt>
      <trkpt lat="47.23349" lon="2.92862">
        <ele>171.62249755859</ele>
        <time>2016-04-13T13:56:16.000Z</time>
      </trkpt>
      <trkpt lat="47.23346" lon="2.92861">
        <ele>171.57879638672</ele>
        <time>2016-04-13T13:56:18.000Z</time>
      </trkpt>
      <trkpt lat="47.23343" lon="2.92859">
        <ele>171.52819824219</ele>
        <time>2016-04-13T13:56:21.000Z</time>
      </trkpt>
      <trkpt lat="47.23339" lon="2.92858">
        <ele>171.47521972656</ele>
        <time>2016-04-13T13:56:24.000Z</time>
      </trkpt>
      <trkpt lat="47.23338" lon="2.92857">
        <ele>171.42730712891</ele>
        <time>2016-04-13T13:56:26.000Z</time>
      </trkpt>
      <trkpt lat="47.23336" lon="2.92857">
        <ele>171.38446044922</ele>
        <time>2016-04-13T13:56:29.000Z</time>
      </trkpt>
      <trkpt lat="47.23333" lon="2.92858">
        <ele>171.34600830078</ele>
        <time>2016-04-13T13:56:32.000Z</time>
      </trkpt>
      <trkpt lat="47.23331" lon="2.92857">
        <ele>171.35121154785</ele>
        <time>2016-04-13T13:56:35.000Z</time>
      </trkpt>
      <trkpt lat="47.2333" lon="2.92857">
        <ele>171.38455200195</ele>
        <time>2016-04-13T13:56:41.000Z</time>
      </trkpt>
      <trkpt lat="47.23327" lon="2.92855">
        <ele>171.47026062012</ele>
        <time>2016-04-13T13:56:41.000Z</time>
      </trkpt>
      <trkpt lat="47.23326" lon="2.92854">
        <ele>171.57815551758</ele>
        <time>2016-04-13T13:56:49.000Z</time>
      </trkpt>
      <trkpt lat="47.23323" lon="2.92854">
        <ele>171.72268676758</ele>
        <time>2016-04-13T13:56:50.000Z</time>
      </trkpt>
      <trkpt lat="47.23321" lon="2.92854">
        <ele>171.87446594238</ele>
        <time>2016-04-13T13:56:54.000Z</time>
      </trkpt>
      <trkpt lat="47.23317" lon="2.92853">
        <ele>172.07040405273</ele>
        <time>2016-04-13T13:56:58.000Z</time>
      </trkpt>
      <trkpt lat="47.23316" lon="2.92853">
        <ele>172.23086547852</ele>
        <time>2016-04-13T13:56:59.000Z</time>
      </trkpt>
      <trkpt lat="47.23314" lon="2.92851">
        <ele>172.41647338867</ele>
        <time>2016-04-13T13:57:02.000Z</time>
      </trkpt>
      <trkpt lat="47.23312" lon="2.92849">
        <ele>172.58805847168</ele>
        <time>2016-04-13T13:57:04.000Z</time>
      </trkpt>
      <trkpt lat="47.23309" lon="2.92845">
        <ele>172.77644348145</ele>
        <time>2016-04-13T13:57:08.000Z</time>
      </trkpt>
      <trkpt lat="47.23308" lon="2.92845">
        <ele>172.91525268555</ele>
        <time>2016-04-13T13:57:09.000Z</time>
      </trkpt>
      <trkpt lat="47.23306" lon="2.92844">
        <ele>173.07437133789</ele>
        <time>2016-04-13T13:57:12.000Z</time>
      </trkpt>
      <trkpt lat="47.23304" lon="2.92844">
        <ele>173.21084594727</ele>
        <time>2016-04-13T13:57:15.000Z</time>
      </trkpt>
      <trkpt lat="47.23299" lon="2.92842">
        <ele>173.40800476074</ele>
        <time>2016-04-13T13:57:18.000Z</time>
      </trkpt>
      <trkpt lat="47.23294" lon="2.92838">
        <ele>173.63619995117</ele>
        <time>2016-04-13T13:57:21.000Z</time>
      </trkpt>
      <trkpt lat="47.23287" lon="2.92837">
        <ele>173.97319030762</ele>
        <time>2016-04-13T13:57:24.000Z</time>
      </trkpt>
      <trkpt lat="47.23285" lon="2.92837">
        <ele>174.30508422852</ele>
        <time>2016-04-13T13:57:28.000Z</time>
      </trkpt>
      <trkpt lat="47.23283" lon="2.92836">
        <ele>174.65173339844</ele>
        <time>2016-04-13T13:57:29.000Z</time>
      </trkpt>
      <trkpt lat="47.23279" lon="2.92833">
        <ele>174.9893951416</ele>
        <time>2016-04-13T13:57:31.000Z</time>
      </trkpt>
      <trkpt lat="47.23275" lon="2.92833">
        <ele>175.30307006836</ele>
        <time>2016-04-13T13:57:34.000Z</time>
      </trkpt>
      <trkpt lat="47.23273" lon="2.92833">
        <ele>175.54121398926</ele>
        <time>2016-04-13T13:57:36.000Z</time>
      </trkpt>
      <trkpt lat="47.23267" lon="2.92832">
        <ele>175.83674621582</ele>
        <time>2016-04-13T13:57:39.000Z</time>
      </trkpt>
      <trkpt lat="47.23264" lon="2.92832">
        <ele>176.15316772461</ele>
        <time>2016-04-13T13:57:42.000Z</time>
      </trkpt>
      <trkpt lat="47.23262" lon="2.92831">
        <ele>176.42422485352</ele>
        <time>2016-04-13T13:57:44.000Z</time>
      </trkpt>
      <trkpt lat="47.2326" lon="2.92829">
        <ele>176.67260742188</ele>
        <time>2016-04-13T13:57:46.000Z</time>
      </trkpt>
      <trkpt lat="47.23257" lon="2.92829">
        <ele>176.90826416016</ele>
        <time>2016-04-13T13:57:50.000Z</time>
      </trkpt>
      <trkpt lat="47.23256" lon="2.92829">
        <ele>177.08494567871</ele>
        <time>2016-04-13T13:57:53.000Z</time>
      </trkpt>
      <trkpt lat="47.23254" lon="2.92828">
        <ele>177.23962402344</ele>
        <time>2016-04-13T13:57:57.000Z</time>
      </trkpt>
      <trkpt lat="47.23253" lon="2.92828">
        <ele>177.39059448242</ele>
        <time>2016-04-13T13:58:02.000Z</time>
      </trkpt>
      <trkpt lat="47.23251" lon="2.92828">
        <ele>177.52685546875</ele>
        <time>2016-04-13T13:58:03.000Z</time>
      </trkpt>
      <trkpt lat="47.23246" lon="2.92825">
        <ele>177.7258605957</ele>
        <time>2016-04-13T13:58:04.000Z</time>
      </trkpt>
      <trkpt lat="47.23244" lon="2.92825">
        <ele>177.93530273438</ele>
        <time>2016-04-13T13:58:07.000Z</time>
      </trkpt>
      <trkpt lat="47.23238" lon="2.92825">
        <ele>178.24429321289</ele>
        <time>2016-04-13T13:58:11.000Z</time>
      </trkpt>
      <trkpt lat="47.23236" lon="2.92825">
        <ele>178.57731628418</ele>
        <time>2016-04-13T13:58:12.000Z</time>
      </trkpt>
      <trkpt lat="47.23234" lon="2.92825">
        <ele>178.92974853516</ele>
        <time>2016-04-13T13:58:17.000Z</time>
      </trkpt>
      <trkpt lat="47.23232" lon="2.92825">
        <ele>179.23858642578</ele>
        <time>2016-04-13T13:58:17.000Z</time>
      </trkpt>
      <trkpt lat="47.23226" lon="2.92824">
        <ele>179.62614440918</ele>
        <time>2016-04-13T13:58:19.000Z</time>
      </trkpt>
      <trkpt lat="47.2322" lon="2.92823">
        <ele>180.00830078125</ele>
        <time>2016-04-13T13:58:22.000Z</time>
      </trkpt>
      <trkpt lat="47.23213" lon="2.92821">
        <ele>180.48965454102</ele>
        <time>2016-04-13T13:58:25.000Z</time>
      </trkpt>
      <trkpt lat="47.23212" lon="2.9282">
        <ele>180.9600982666</ele>
        <time>2016-04-13T13:58:27.000Z</time>
      </trkpt>
      <trkpt lat="47.23209" lon="2.92818">
        <ele>181.43385314941</ele>
        <time>2016-04-13T13:58:30.000Z</time>
      </trkpt>
      <trkpt lat="47.23205" lon="2.92817">
        <ele>181.86965942383</ele>
        <time>2016-04-13T13:58:34.000Z</time>
      </trkpt>
      <trkpt lat="47.23203" lon="2.92819">
        <ele>182.23844909668</ele>
        <time>2016-04-13T13:58:38.000Z</time>
      </trkpt>
      <trkpt lat="47.23202" lon="2.9282">
        <ele>182.48532104492</ele>
        <time>2016-04-13T13:58:39.000Z</time>
      </trkpt>
      <trkpt lat="47.23201" lon="2.92822">
        <ele>182.72370910645</ele>
        <time>2016-04-13T13:58:42.000Z</time>
      </trkpt>
      <trkpt lat="47.232" lon="2.92824">
        <ele>182.93417358398</ele>
        <time>2016-04-13T13:58:45.000Z</time>
      </trkpt>
      <trkpt lat="47.232" lon="2.92827">
        <ele>183.08500671387</ele>
        <time>2016-04-13T13:58:47.000Z</time>
      </trkpt>
      <trkpt lat="47.232" lon="2.9283">
        <ele>183.18656921387</ele>
        <time>2016-04-13T13:58:50.000Z</time>
      </trkpt>
      <trkpt lat="47.232" lon="2.92835">
        <ele>183.25540161133</ele>
        <time>2016-04-13T13:58:53.000Z</time>
      </trkpt>
      <trkpt lat="47.23201" lon="2.92838">
        <ele>183.27172851562</ele>
        <time>2016-04-13T13:58:56.000Z</time>
      </trkpt>
      <trkpt lat="47.23201" lon="2.9284">
        <ele>183.23440551758</ele>
        <time>2016-04-13T13:58:58.000Z</time>
      </trkpt>
      <trkpt lat="47.23201" lon="2.92842">
        <ele>183.17163085938</ele>
        <time>2016-04-13T13:59:01.000Z</time>
      </trkpt>
      <trkpt lat="47.23201" lon="2.92846">
        <ele>183.08041381836</ele>
        <time>2016-04-13T13:59:03.000Z</time>
      </trkpt>
      <trkpt lat="47.23201" lon="2.92849">
        <ele>182.97817993164</ele>
        <time>2016-04-13T13:59:05.000Z</time>
      </trkpt>
      <trkpt lat="47.232" lon="2.92854">
        <ele>182.89186096191</ele>
        <time>2016-04-13T13:59:08.000Z</time>
      </trkpt>
      <trkpt lat="47.23199" lon="2.92857">
        <ele>182.83554077148</ele>
        <time>2016-04-13T13:59:10.000Z</time>
      </trkpt>
      <trkpt lat="47.23198" lon="2.92861">
        <ele>182.78086853027</ele>
        <time>2016-04-13T13:59:13.000Z</time>
      </trkpt>
      <trkpt lat="47.23197" lon="2.92865">
        <ele>182.72608947754</ele>
        <time>2016-04-13T13:59:15.000Z</time>
      </trkpt>
      <trkpt lat="47.23197" lon="2.92866">
        <ele>182.68391418457</ele>
        <time>2016-04-13T13:59:17.000Z</time>
      </trkpt>
      <trkpt lat="47.23193" lon="2.9287">
        <ele>182.70552062988</ele>
        <time>2016-04-13T13:59:20.000Z</time>
      </trkpt>
      <trkpt lat="47.23191" lon="2.92876">
        <ele>182.70314025879</ele>
        <time>2016-04-13T13:59:23.000Z</time>
      </trkpt>
      <trkpt lat="47.23192" lon="2.92879">
        <ele>182.67514038086</ele>
        <time>2016-04-13T13:59:25.000Z</time>
      </trkpt>
      <trkpt lat="47.23191" lon="2.92882">
        <ele>182.65155029297</ele>
        <time>2016-04-13T13:59:28.000Z</time>
      </trkpt>
      <trkpt lat="47.23191" lon="2.92886">
        <ele>182.62158203125</ele>
        <time>2016-04-13T13:59:30.000Z</time>
      </trkpt>
      <trkpt lat="47.2319" lon="2.92889">
        <ele>182.52896118164</ele>
        <time>2016-04-13T13:59:33.000Z</time>
      </trkpt>
      <trkpt lat="47.23188" lon="2.92893">
        <ele>182.44731140137</ele>
        <time>2016-04-13T13:59:36.000Z</time>
      </trkpt>
      <trkpt lat="47.23187" lon="2.92896">
        <ele>182.39347839355</ele>
        <time>2016-04-13T13:59:39.000Z</time>
      </trkpt>
      <trkpt lat="47.23186" lon="2.92901">
        <ele>182.33923339844</ele>
        <time>2016-04-13T13:59:42.000Z</time>
      </trkpt>
      <trkpt lat="47.23184" lon="2.92905">
        <ele>182.28811645508</ele>
        <time>2016-04-13T13:59:47.000Z</time>
      </trkpt>
      <trkpt lat="47.23182" lon="2.92916">
        <ele>182.19961547852</ele>
        <time>2016-04-13T13:59:53.000Z</time>
      </trkpt>
      <trkpt lat="47.23182" lon="2.92921">
        <ele>182.09080505371</ele>
        <time>2016-04-13T13:59:54.000Z</time>
      </trkpt>
      <trkpt lat="47.23184" lon="2.92928">
        <ele>181.90469360352</ele>
        <time>2016-04-13T13:59:59.000Z</time>
      </trkpt>
      <trkpt lat="47.23183" lon="2.92934">
        <ele>181.70533752441</ele>
        <time>2016-04-13T14:00:00.000Z</time>
      </trkpt>
      <trkpt lat="47.23182" lon="2.9294">
        <ele>181.49263000488</ele>
        <time>2016-04-13T14:00:02.000Z</time>
      </trkpt>
      <trkpt lat="47.2318" lon="2.92945">
        <ele>181.31430053711</ele>
        <time>2016-04-13T14:00:05.000Z</time>
      </trkpt>
      <trkpt lat="47.23178" lon="2.92952">
        <ele>181.14465332031</ele>
        <time>2016-04-13T14:00:08.000Z</time>
      </trkpt>
      <trkpt lat="47.23176" lon="2.92961">
        <ele>181.03190612793</ele>
        <time>2016-04-13T14:00:11.000Z</time>
      </trkpt>
      <trkpt lat="47.23175" lon="2.92965">
        <ele>180.93417358398</ele>
        <time>2016-04-13T14:00:15.000Z</time>
      </trkpt>
      <trkpt lat="47.23173" lon="2.9297">
        <ele>180.8490447998</ele>
        <time>2016-04-13T14:00:16.000Z</time>
      </trkpt>
      <trkpt lat="47.23173" lon="2.92975">
        <ele>180.74540710449</ele>
        <time>2016-04-13T14:00:20.000Z</time>
      </trkpt>
      <trkpt lat="47.23172" lon="2.92977">
        <ele>180.65048217773</ele>
        <time>2016-04-13T14:00:21.000Z</time>
      </trkpt>
      <trkpt lat="47.23172" lon="2.92984">
        <ele>180.53660583496</ele>
        <time>2016-04-13T14:00:24.000Z</time>
      </trkpt>
      <trkpt lat="47.23171" lon="2.92987">
        <ele>180.42198181152</ele>
        <time>2016-04-13T14:00:27.000Z</time>
      </trkpt>
      <trkpt lat="47.23172" lon="2.92995">
        <ele>180.25637817383</ele>
        <time>2016-04-13T14:00:29.000Z</time>
      </trkpt>
      <trkpt lat="47.23172" lon="2.93001">
        <ele>180.08117675781</ele>
        <time>2016-04-13T14:00:32.000Z</time>
      </trkpt>
      <trkpt lat="47.23172" lon="2.93004">
        <ele>179.90225219727</ele>
        <time>2016-04-13T14:00:34.000Z</time>
      </trkpt>
      <trkpt lat="47.23172" lon="2.93008">
        <ele>179.7483215332</ele>
        <time>2016-04-13T14:00:37.000Z</time>
      </trkpt>
      <trkpt lat="47.23173" lon="2.93011">
        <ele>179.58546447754</ele>
        <time>2016-04-13T14:00:40.000Z</time>
      </trkpt>
      <trkpt lat="47.23173" lon="2.93015">
        <ele>179.47241210938</ele>
        <time>2016-04-13T14:00:42.000Z</time>
      </trkpt>
      <trkpt lat="47.23172" lon="2.93019">
        <ele>179.3896484375</ele>
        <time>2016-04-13T14:00:45.000Z</time>
      </trkpt>
      <trkpt lat="47.23169" lon="2.93028">
        <ele>179.31213378906</ele>
        <time>2016-04-13T14:00:52.000Z</time>
      </trkpt>
      <trkpt lat="47.23168" lon="2.93033">
        <ele>179.23986816406</ele>
        <time>2016-04-13T14:00:54.000Z</time>
      </trkpt>
      <trkpt lat="47.23169" lon="2.93039">
        <ele>179.15759277344</ele>
        <time>2016-04-13T14:00:58.000Z</time>
      </trkpt>
      <trkpt lat="47.23168" lon="2.93044">
        <ele>179.06909179688</ele>
        <time>2016-04-13T14:00:59.000Z</time>
      </trkpt>
      <trkpt lat="47.23168" lon="2.93047">
        <ele>178.98168945312</ele>
        <time>2016-04-13T14:01:01.000Z</time>
      </trkpt>
      <trkpt lat="47.23167" lon="2.93052">
        <ele>178.88708496094</ele>
        <time>2016-04-13T14:01:04.000Z</time>
      </trkpt>
      <trkpt lat="47.23167" lon="2.93057">
        <ele>178.78552246094</ele>
        <time>2016-04-13T14:01:06.000Z</time>
      </trkpt>
      <trkpt lat="47.23168" lon="2.93062">
        <ele>178.68054199219</ele>
        <time>2016-04-13T14:01:09.000Z</time>
      </trkpt>
      <trkpt lat="47.23168" lon="2.93065">
        <ele>178.58312988281</ele>
        <time>2016-04-13T14:01:11.000Z</time>
      </trkpt>
      <trkpt lat="47.23169" lon="2.9307">
        <ele>178.46337890625</ele>
        <time>2016-04-13T14:01:15.000Z</time>
      </trkpt>
      <trkpt lat="47.23169" lon="2.93073">
        <ele>178.341796875</ele>
        <time>2016-04-13T14:01:16.000Z</time>
      </trkpt>
      <trkpt lat="47.23169" lon="2.93077">
        <ele>178.22875976562</ele>
        <time>2016-04-13T14:01:18.000Z</time>
      </trkpt>
      <trkpt lat="47.23167" lon="2.93083">
        <ele>178.13659667969</ele>
        <time>2016-04-13T14:01:21.000Z</time>
      </trkpt>
      <trkpt lat="47.23167" lon="2.9309">
        <ele>177.97779846191</ele>
        <time>2016-04-13T14:01:24.000Z</time>
      </trkpt>
      <trkpt lat="47.23167" lon="2.93093">
        <ele>177.80928039551</ele>
        <time>2016-04-13T14:01:27.000Z</time>
      </trkpt>
      <trkpt lat="47.23169" lon="2.931">
        <ele>177.56483459473</ele>
        <time>2016-04-13T14:01:30.000Z</time>
      </trkpt>
      <trkpt lat="47.23169" lon="2.93105">
        <ele>177.27342224121</ele>
        <time>2016-04-13T14:01:32.000Z</time>
      </trkpt>
      <trkpt lat="47.23169" lon="2.93108">
        <ele>176.9584197998</ele>
        <time>2016-04-13T14:01:35.000Z</time>
      </trkpt>
      <trkpt lat="47.23168" lon="2.9311">
        <ele>176.70866394043</ele>
        <time>2016-04-13T14:01:38.000Z</time>
      </trkpt>
      <trkpt lat="47.23168" lon="2.93119">
        <ele>176.40190124512</ele>
        <time>2016-04-13T14:01:41.000Z</time>
      </trkpt>
      <trkpt lat="47.2317" lon="2.93129">
        <ele>176.05574035645</ele>
        <time>2016-04-13T14:01:44.000Z</time>
      </trkpt>
      <trkpt lat="47.23172" lon="2.93135">
        <ele>175.67349243164</ele>
        <time>2016-04-13T14:01:47.000Z</time>
      </trkpt>
      <trkpt lat="47.23174" lon="2.93141">
        <ele>175.25703430176</ele>
        <time>2016-04-13T14:01:50.000Z</time>
      </trkpt>
      <trkpt lat="47.23175" lon="2.93144">
        <ele>174.80749511719</ele>
        <time>2016-04-13T14:01:54.000Z</time>
      </trkpt>
      <trkpt lat="47.23176" lon="2.93147">
        <ele>174.41925048828</ele>
        <time>2016-04-13T14:01:55.000Z</time>
      </trkpt>
      <trkpt lat="47.23177" lon="2.93152">
        <ele>174.1032409668</ele>
        <time>2016-04-13T14:01:59.000Z</time>
      </trkpt>
      <trkpt lat="47.23177" lon="2.93159">
        <ele>173.80851745605</ele>
        <time>2016-04-13T14:02:01.000Z</time>
      </trkpt>
      <trkpt lat="47.23176" lon="2.93165">
        <ele>173.51773071289</ele>
        <time>2016-04-13T14:02:03.000Z</time>
      </trkpt>
      <trkpt lat="47.23173" lon="2.93173">
        <ele>173.22830200195</ele>
        <time>2016-04-13T14:02:06.000Z</time>
      </trkpt>
      <trkpt lat="47.23172" lon="2.9318">
        <ele>172.93008422852</ele>
        <time>2016-04-13T14:02:09.000Z</time>
      </trkpt>
      <trkpt lat="47.2317" lon="2.93184">
        <ele>172.67477416992</ele>
        <time>2016-04-13T14:02:12.000Z</time>
      </trkpt>
      <trkpt lat="47.2317" lon="2.93192">
        <ele>172.43583679199</ele>
        <time>2016-04-13T14:02:15.000Z</time>
      </trkpt>
      <trkpt lat="47.2317" lon="2.93195">
        <ele>172.240234375</ele>
        <time>2016-04-13T14:02:17.000Z</time>
      </trkpt>
      <trkpt lat="47.23172" lon="2.932">
        <ele>172.04895019531</ele>
        <time>2016-04-13T14:02:28.000Z</time>
      </trkpt>
      <trkpt lat="47.23171" lon="2.9321">
        <ele>171.83337402344</ele>
        <time>2016-04-13T14:02:31.000Z</time>
      </trkpt>
      <trkpt lat="47.23172" lon="2.93217">
        <ele>171.58599853516</ele>
        <time>2016-04-13T14:02:34.000Z</time>
      </trkpt>
      <trkpt lat="47.23172" lon="2.93221">
        <ele>171.36645507812</ele>
        <time>2016-04-13T14:02:36.000Z</time>
      </trkpt>
      <trkpt lat="47.23173" lon="2.93225">
        <ele>171.14086914062</ele>
        <time>2016-04-13T14:02:40.000Z</time>
      </trkpt>
      <trkpt lat="47.23174" lon="2.93229">
        <ele>170.91851806641</ele>
        <time>2016-04-13T14:02:42.000Z</time>
      </trkpt>
      <trkpt lat="47.23174" lon="2.93232">
        <ele>170.74554443359</ele>
        <time>2016-04-13T14:02:45.000Z</time>
      </trkpt>
      <trkpt lat="47.23175" lon="2.93238">
        <ele>170.58239746094</ele>
        <time>2016-04-13T14:02:48.000Z</time>
      </trkpt>
      <trkpt lat="47.23175" lon="2.93241">
        <ele>170.42620849609</ele>
        <time>2016-04-13T14:02:50.000Z</time>
      </trkpt>
      <trkpt lat="47.23174" lon="2.93246">
        <ele>170.27020263672</ele>
        <time>2016-04-13T14:02:53.000Z</time>
      </trkpt>
      <trkpt lat="47.23174" lon="2.93251">
        <ele>170.10868835449</ele>
        <time>2016-04-13T14:02:56.000Z</time>
      </trkpt>
      <trkpt lat="47.23174" lon="2.93258">
        <ele>169.89657592773</ele>
        <time>2016-04-13T14:03:00.000Z</time>
      </trkpt>
      <trkpt lat="47.23174" lon="2.93263">
        <ele>169.66000366211</ele>
        <time>2016-04-13T14:03:02.000Z</time>
      </trkpt>
      <trkpt lat="47.23174" lon="2.93269">
        <ele>169.38241577148</ele>
        <time>2016-04-13T14:03:05.000Z</time>
      </trkpt>
      <trkpt lat="47.23174" lon="2.93275">
        <ele>169.05731201172</ele>
        <time>2016-04-13T14:03:08.000Z</time>
      </trkpt>
      <trkpt lat="47.23175" lon="2.9328">
        <ele>168.72665405273</ele>
        <time>2016-04-13T14:03:12.000Z</time>
      </trkpt>
      <trkpt lat="47.23175" lon="2.93283">
        <ele>168.4340057373</ele>
        <time>2016-04-13T14:03:13.000Z</time>
      </trkpt>
      <trkpt lat="47.23175" lon="2.93288">
        <ele>168.14733886719</ele>
        <time>2016-04-13T14:03:16.000Z</time>
      </trkpt>
      <trkpt lat="47.23175" lon="2.93292">
        <ele>167.86920166016</ele>
        <time>2016-04-13T14:03:19.000Z</time>
      </trkpt>
      <trkpt lat="47.23179" lon="2.93296">
        <ele>167.62309265137</ele>
        <time>2016-04-13T14:03:23.000Z</time>
      </trkpt>
      <trkpt lat="47.23179" lon="2.93299">
        <ele>167.3942565918</ele>
        <time>2016-04-13T14:03:24.000Z</time>
      </trkpt>
      <trkpt lat="47.23179" lon="2.93302">
        <ele>167.16516113281</ele>
        <time>2016-04-13T14:03:27.000Z</time>
      </trkpt>
      <trkpt lat="47.23181" lon="2.93308">
        <ele>166.92407226562</ele>
        <time>2016-04-13T14:03:30.000Z</time>
      </trkpt>
      <trkpt lat="47.23182" lon="2.93311">
        <ele>166.70095825195</ele>
        <time>2016-04-13T14:03:34.000Z</time>
      </trkpt>
      <trkpt lat="47.23183" lon="2.93314">
        <ele>166.48994445801</ele>
        <time>2016-04-13T14:03:35.000Z</time>
      </trkpt>
      <trkpt lat="47.23185" lon="2.93315">
        <ele>166.29544067383</ele>
        <time>2016-04-13T14:03:37.000Z</time>
      </trkpt>
      <trkpt lat="47.23185" lon="2.93318">
        <ele>166.10949707031</ele>
        <time>2016-04-13T14:03:40.000Z</time>
      </trkpt>
      <trkpt lat="47.23186" lon="2.93319">
        <ele>165.98007202148</ele>
        <time>2016-04-13T14:03:47.000Z</time>
      </trkpt>
      <trkpt lat="47.23186" lon="2.93322">
        <ele>165.85191345215</ele>
        <time>2016-04-13T14:03:49.000Z</time>
      </trkpt>
      <trkpt lat="47.23187" lon="2.93328">
        <ele>165.69836425781</ele>
        <time>2016-04-13T14:03:52.000Z</time>
      </trkpt>
      <trkpt lat="47.23187" lon="2.93335">
        <ele>165.49409484863</ele>
        <time>2016-04-13T14:03:55.000Z</time>
      </trkpt>
      <trkpt lat="47.23186" lon="2.93339">
        <ele>165.30200195312</ele>
        <time>2016-04-13T14:03:57.000Z</time>
      </trkpt>
      <trkpt lat="47.23185" lon="2.93343">
        <ele>165.10807800293</ele>
        <time>2016-04-13T14:04:00.000Z</time>
      </trkpt>
      <trkpt lat="47.23184" lon="2.93348">
        <ele>164.92825317383</ele>
        <time>2016-04-13T14:04:03.000Z</time>
      </trkpt>
      <trkpt lat="47.23183" lon="2.93353">
        <ele>164.7858581543</ele>
        <time>2016-04-13T14:04:06.000Z</time>
      </trkpt>
      <trkpt lat="47.23184" lon="2.93357">
        <ele>164.69180297852</ele>
        <time>2016-04-13T14:04:10.000Z</time>
      </trkpt>
      <trkpt lat="47.23183" lon="2.93362">
        <ele>164.58877563477</ele>
        <time>2016-04-13T14:04:12.000Z</time>
      </trkpt>
      <trkpt lat="47.23182" lon="2.93365">
        <ele>164.48934936523</ele>
        <time>2016-04-13T14:04:16.000Z</time>
      </trkpt>
      <trkpt lat="47.2318" lon="2.9337">
        <ele>164.38888549805</ele>
        <time>2016-04-13T14:04:16.000Z</time>
      </trkpt>
      <trkpt lat="47.23179" lon="2.93373">
        <ele>164.29559326172</ele>
        <time>2016-04-13T14:04:23.000Z</time>
      </trkpt>
      <trkpt lat="47.23177" lon="2.93376">
        <ele>164.20434570312</ele>
        <time>2016-04-13T14:04:24.000Z</time>
      </trkpt>
      <trkpt lat="47.23175" lon="2.93382">
        <ele>164.10746765137</ele>
        <time>2016-04-13T14:04:25.000Z</time>
      </trkpt>
      <trkpt lat="47.23174" lon="2.93385">
        <ele>164.00758361816</ele>
        <time>2016-04-13T14:04:26.000Z</time>
      </trkpt>
      <trkpt lat="47.23172" lon="2.93388">
        <ele>163.91426086426</ele>
        <time>2016-04-13T14:04:29.000Z</time>
      </trkpt>
      <trkpt lat="47.23169" lon="2.93392">
        <ele>163.81240844727</ele>
        <time>2016-04-13T14:04:30.000Z</time>
      </trkpt>
      <trkpt lat="47.23168" lon="2.93395">
        <ele>163.71176147461</ele>
        <time>2016-04-13T14:04:34.000Z</time>
      </trkpt>
      <trkpt lat="47.23166" lon="2.93398">
        <ele>163.62533569336</ele>
        <time>2016-04-13T14:04:37.000Z</time>
      </trkpt>
      <trkpt lat="47.23165" lon="2.934">
        <ele>163.54914855957</ele>
        <time>2016-04-13T14:04:43.000Z</time>
      </trkpt>
      <trkpt lat="47.23163" lon="2.93403">
        <ele>163.48355102539</ele>
        <time>2016-04-13T14:04:43.000Z</time>
      </trkpt>
      <trkpt lat="47.2316" lon="2.93409">
        <ele>163.42919921875</ele>
        <time>2016-04-13T14:04:45.000Z</time>
      </trkpt>
      <trkpt lat="47.23158" lon="2.93412">
        <ele>163.38464355469</ele>
        <time>2016-04-13T14:04:48.000Z</time>
      </trkpt>
      <trkpt lat="47.23156" lon="2.93416">
        <ele>163.34727478027</ele>
        <time>2016-04-13T14:04:51.000Z</time>
      </trkpt>
      <trkpt lat="47.23154" lon="2.9342">
        <ele>163.35946655273</ele>
        <time>2016-04-13T14:04:54.000Z</time>
      </trkpt>
      <trkpt lat="47.23152" lon="2.93424">
        <ele>163.44097900391</ele>
        <time>2016-04-13T14:05:09.000Z</time>
      </trkpt>
      <trkpt lat="47.23151" lon="2.93427">
        <ele>163.58000183105</ele>
        <time>2016-04-13T14:05:10.000Z</time>
      </trkpt>
      <trkpt lat="47.23149" lon="2.9343">
        <ele>163.76235961914</ele>
        <time>2016-04-13T14:05:10.000Z</time>
      </trkpt>
      <trkpt lat="47.23148" lon="2.93432">
        <ele>163.97869873047</ele>
        <time>2016-04-13T14:05:10.000Z</time>
      </trkpt>
      <trkpt lat="47.23146" lon="2.93434">
        <ele>164.19427490234</ele>
        <time>2016-04-13T14:05:11.000Z</time>
      </trkpt>
      <trkpt lat="47.23143" lon="2.93437">
        <ele>164.39453125</ele>
        <time>2016-04-13T14:05:11.000Z</time>
      </trkpt>
      <trkpt lat="47.23141" lon="2.93439">
        <ele>164.58197021484</ele>
        <time>2016-04-13T14:05:12.000Z</time>
      </trkpt>
      <trkpt lat="47.2314" lon="2.93444">
        <ele>164.78912353516</ele>
        <time>2016-04-13T14:05:17.000Z</time>
      </trkpt>
      <trkpt lat="47.23138" lon="2.93448">
        <ele>165.03314208984</ele>
        <time>2016-04-13T14:05:18.000Z</time>
      </trkpt>
      <trkpt lat="47.23136" lon="2.93451">
        <ele>165.27624511719</ele>
        <time>2016-04-13T14:05:21.000Z</time>
      </trkpt>
      <trkpt lat="47.23135" lon="2.93453">
        <ele>165.50061035156</ele>
        <time>2016-04-13T14:05:22.000Z</time>
      </trkpt>
      <trkpt lat="47.23135" lon="2.93458">
        <ele>165.74768066406</ele>
        <time>2016-04-13T14:05:26.000Z</time>
      </trkpt>
      <trkpt lat="47.23135" lon="2.93461">
        <ele>165.97692871094</ele>
        <time>2016-04-13T14:05:27.000Z</time>
      </trkpt>
      <trkpt lat="47.23133" lon="2.93464">
        <ele>166.18640136719</ele>
        <time>2016-04-13T14:05:28.000Z</time>
      </trkpt>
      <trkpt lat="47.23133" lon="2.93467">
        <ele>166.40191650391</ele>
        <time>2016-04-13T14:05:33.000Z</time>
      </trkpt>
      <trkpt lat="47.23133" lon="2.93472">
        <ele>166.64019775391</ele>
        <time>2016-04-13T14:05:37.000Z</time>
      </trkpt>
      <trkpt lat="47.23133" lon="2.93474">
        <ele>166.84661865234</ele>
        <time>2016-04-13T14:05:38.000Z</time>
      </trkpt>
      <trkpt lat="47.23133" lon="2.93477">
        <ele>167.04516601562</ele>
        <time>2016-04-13T14:05:41.000Z</time>
      </trkpt>
      <trkpt lat="47.23131" lon="2.93482">
        <ele>167.27111816406</ele>
        <time>2016-04-13T14:05:42.000Z</time>
      </trkpt>
      <trkpt lat="47.23129" lon="2.93484">
        <ele>167.49194335938</ele>
        <time>2016-04-13T14:05:44.000Z</time>
      </trkpt>
      <trkpt lat="47.23129" lon="2.93486">
        <ele>167.67736816406</ele>
        <time>2016-04-13T14:05:46.000Z</time>
      </trkpt>
      <trkpt lat="47.23129" lon="2.93488">
        <ele>167.86535644531</ele>
        <time>2016-04-13T14:05:49.000Z</time>
      </trkpt>
      <trkpt lat="47.23129" lon="2.93491">
        <ele>168.05548095703</ele>
        <time>2016-04-13T14:05:55.000Z</time>
      </trkpt>
      <trkpt lat="47.23129" lon="2.93496">
        <ele>168.23919677734</ele>
        <time>2016-04-13T14:05:55.000Z</time>
      </trkpt>
      <trkpt lat="47.23126" lon="2.935">
        <ele>168.44380187988</ele>
        <time>2016-04-13T14:05:58.000Z</time>
      </trkpt>
      <trkpt lat="47.23126" lon="2.93502">
        <ele>168.64102172852</ele>
        <time>2016-04-13T14:06:01.000Z</time>
      </trkpt>
      <trkpt lat="47.23126" lon="2.93504">
        <ele>168.83279418945</ele>
        <time>2016-04-13T14:06:03.000Z</time>
      </trkpt>
      <trkpt lat="47.23126" lon="2.93506">
        <ele>169.00224304199</ele>
        <time>2016-04-13T14:06:05.000Z</time>
      </trkpt>
      <trkpt lat="47.23125" lon="2.93509">
        <ele>169.13134765625</ele>
        <time>2016-04-13T14:06:08.000Z</time>
      </trkpt>
      <trkpt lat="47.23124" lon="2.93512">
        <ele>169.22790527344</ele>
        <time>2016-04-13T14:06:11.000Z</time>
      </trkpt>
      <trkpt lat="47.23124" lon="2.93519">
        <ele>169.36444091797</ele>
        <time>2016-04-13T14:06:15.000Z</time>
      </trkpt>
      <trkpt lat="47.23123" lon="2.93521">
        <ele>169.50134277344</ele>
        <time>2016-04-13T14:06:15.000Z</time>
      </trkpt>
      <trkpt lat="47.23122" lon="2.93523">
        <ele>169.63928222656</ele>
        <time>2016-04-13T14:06:19.000Z</time>
      </trkpt>
      <trkpt lat="47.2312" lon="2.93526">
        <ele>169.78454589844</ele>
        <time>2016-04-13T14:06:20.000Z</time>
      </trkpt>
      <trkpt lat="47.2312" lon="2.93528">
        <ele>169.91162109375</ele>
        <time>2016-04-13T14:06:23.000Z</time>
      </trkpt>
      <trkpt lat="47.23119" lon="2.93528">
        <ele>170.00085449219</ele>
        <time>2016-04-13T14:06:26.000Z</time>
      </trkpt>
      <trkpt lat="47.23118" lon="2.9353">
        <ele>170.08764648438</ele>
        <time>2016-04-13T14:06:31.000Z</time>
      </trkpt>
      <trkpt lat="47.23116" lon="2.93533">
        <ele>170.19488525391</ele>
        <time>2016-04-13T14:06:32.000Z</time>
      </trkpt>
      <trkpt lat="47.23109" lon="2.93543">
        <ele>170.37292480469</ele>
        <time>2016-04-13T14:06:36.000Z</time>
      </trkpt>
      <trkpt lat="47.23104" lon="2.93549">
        <ele>170.60418701172</ele>
        <time>2016-04-13T14:06:37.000Z</time>
      </trkpt>
      <trkpt lat="47.23102" lon="2.93554">
        <ele>170.87286376953</ele>
        <time>2016-04-13T14:06:39.000Z</time>
      </trkpt>
      <trkpt lat="47.23099" lon="2.9356">
        <ele>171.18255615234</ele>
        <time>2016-04-13T14:06:42.000Z</time>
      </trkpt>
      <trkpt lat="47.23096" lon="2.93565">
        <ele>171.50769042969</ele>
        <time>2016-04-13T14:06:44.000Z</time>
      </trkpt>
      <trkpt lat="47.23093" lon="2.93573">
        <ele>171.79852294922</ele>
        <time>2016-04-13T14:06:47.000Z</time>
      </trkpt>
      <trkpt lat="47.23093" lon="2.93575">
        <ele>172.04333496094</ele>
        <time>2016-04-13T14:06:49.000Z</time>
      </trkpt>
      <trkpt lat="47.23091" lon="2.93577">
        <ele>172.26226806641</ele>
        <time>2016-04-13T14:06:51.000Z</time>
      </trkpt>
      <trkpt lat="47.23089" lon="2.93582">
        <ele>172.46563720703</ele>
        <time>2016-04-13T14:06:54.000Z</time>
      </trkpt>
      <trkpt lat="47.23086" lon="2.93587">
        <ele>172.62628173828</ele>
        <time>2016-04-13T14:06:57.000Z</time>
      </trkpt>
      <trkpt lat="47.23085" lon="2.93589">
        <ele>172.71453857422</ele>
        <time>2016-04-13T14:06:59.000Z</time>
      </trkpt>
      <trkpt lat="47.23081" lon="2.93594">
        <ele>172.76008605957</ele>
        <time>2016-04-13T14:07:03.000Z</time>
      </trkpt>
      <trkpt lat="47.2308" lon="2.93598">
        <ele>172.76354980469</ele>
        <time>2016-04-13T14:07:07.000Z</time>
      </trkpt>
      <trkpt lat="47.2308" lon="2.93601">
        <ele>172.70845031738</ele>
        <time>2016-04-13T14:07:08.000Z</time>
      </trkpt>
      <trkpt lat="47.23082" lon="2.93605">
        <ele>172.63349914551</ele>
        <time>2016-04-13T14:07:13.000Z</time>
      </trkpt>
      <trkpt lat="47.23082" lon="2.93607">
        <ele>172.55070495605</ele>
        <time>2016-04-13T14:07:15.000Z</time>
      </trkpt>
      <trkpt lat="47.23082" lon="2.93609">
        <ele>172.48165893555</ele>
        <time>2016-04-13T14:07:17.000Z</time>
      </trkpt>
      <trkpt lat="47.23081" lon="2.93612">
        <ele>172.4154510498</ele>
        <time>2016-04-13T14:07:20.000Z</time>
      </trkpt>
      <trkpt lat="47.23081" lon="2.93614">
        <ele>172.35388183594</ele>
        <time>2016-04-13T14:07:22.000Z</time>
      </trkpt>
      <trkpt lat="47.23079" lon="2.93619">
        <ele>172.2829284668</ele>
        <time>2016-04-13T14:07:26.000Z</time>
      </trkpt>
      <trkpt lat="47.23079" lon="2.93621">
        <ele>172.21438598633</ele>
        <time>2016-04-13T14:07:27.000Z</time>
      </trkpt>
      <trkpt lat="47.23079" lon="2.93624">
        <ele>172.14138793945</ele>
        <time>2016-04-13T14:07:30.000Z</time>
      </trkpt>
      <trkpt lat="47.23077" lon="2.93627">
        <ele>172.06799316406</ele>
        <time>2016-04-13T14:07:32.000Z</time>
      </trkpt>
      <trkpt lat="47.23077" lon="2.93633">
        <ele>171.97573852539</ele>
        <time>2016-04-13T14:07:35.000Z</time>
      </trkpt>
      <trkpt lat="47.23077" lon="2.9364">
        <ele>171.8761138916</ele>
        <time>2016-04-13T14:07:38.000Z</time>
      </trkpt>
      <trkpt lat="47.23074" lon="2.93647">
        <ele>171.75047302246</ele>
        <time>2016-04-13T14:07:41.000Z</time>
      </trkpt>
      <trkpt lat="47.23073" lon="2.93653">
        <ele>171.6130065918</ele>
        <time>2016-04-13T14:07:43.000Z</time>
      </trkpt>
      <trkpt lat="47.23073" lon="2.9366">
        <ele>171.46049499512</ele>
        <time>2016-04-13T14:07:46.000Z</time>
      </trkpt>
      <trkpt lat="47.23072" lon="2.93667">
        <ele>171.30488586426</ele>
        <time>2016-04-13T14:07:48.000Z</time>
      </trkpt>
      <trkpt lat="47.23071" lon="2.93672">
        <ele>171.13203430176</ele>
        <time>2016-04-13T14:07:50.000Z</time>
      </trkpt>
      <trkpt lat="47.23071" lon="2.93674">
        <ele>170.9736328125</ele>
        <time>2016-04-13T14:07:54.000Z</time>
      </trkpt>
      <trkpt lat="47.23071" lon="2.93681">
        <ele>170.77682495117</ele>
        <time>2016-04-13T14:07:55.000Z</time>
      </trkpt>
      <trkpt lat="47.23071" lon="2.93687">
        <ele>170.55249023438</ele>
        <time>2016-04-13T14:07:57.000Z</time>
      </trkpt>
      <trkpt lat="47.23069" lon="2.93693">
        <ele>170.3037109375</ele>
        <time>2016-04-13T14:08:00.000Z</time>
      </trkpt>
      <trkpt lat="47.23068" lon="2.93698">
        <ele>170.04760742188</ele>
        <time>2016-04-13T14:08:03.000Z</time>
      </trkpt>
      <trkpt lat="47.23067" lon="2.93703">
        <ele>169.77368164062</ele>
        <time>2016-04-13T14:08:05.000Z</time>
      </trkpt>
      <trkpt lat="47.23067" lon="2.93706">
        <ele>169.53100585938</ele>
        <time>2016-04-13T14:08:07.000Z</time>
      </trkpt>
      <trkpt lat="47.23064" lon="2.9371">
        <ele>169.30883789062</ele>
        <time>2016-04-13T14:08:10.000Z</time>
      </trkpt>
      <trkpt lat="47.23062" lon="2.93716">
        <ele>169.08227539062</ele>
        <time>2016-04-13T14:08:13.000Z</time>
      </trkpt>
      <trkpt lat="47.2306" lon="2.93721">
        <ele>168.87036132812</ele>
        <time>2016-04-13T14:08:16.000Z</time>
      </trkpt>
      <trkpt lat="47.2306" lon="2.93723">
        <ele>168.67651367188</ele>
        <time>2016-04-13T14:08:19.000Z</time>
      </trkpt>
      <trkpt lat="47.23059" lon="2.93725">
        <ele>168.49438476562</ele>
        <time>2016-04-13T14:08:26.000Z</time>
      </trkpt>
      <trkpt lat="47.23057" lon="2.93731">
        <ele>168.29272460938</ele>
        <time>2016-04-13T14:08:29.000Z</time>
      </trkpt>
      <trkpt lat="47.23056" lon="2.93735">
        <ele>168.11450195312</ele>
        <time>2016-04-13T14:08:32.000Z</time>
      </trkpt>
      <trkpt lat="47.23055" lon="2.93737">
        <ele>167.95849609375</ele>
        <time>2016-04-13T14:08:34.000Z</time>
      </trkpt>
      <trkpt lat="47.23054" lon="2.93739">
        <ele>167.80249023438</ele>
        <time>2016-04-13T14:08:37.000Z</time>
      </trkpt>
      <trkpt lat="47.23053" lon="2.93745">
        <ele>167.61059570312</ele>
        <time>2016-04-13T14:08:40.000Z</time>
      </trkpt>
      <trkpt lat="47.23053" lon="2.93751">
        <ele>167.42276000977</ele>
        <time>2016-04-13T14:08:43.000Z</time>
      </trkpt>
      <trkpt lat="47.23053" lon="2.93755">
        <ele>167.24813842773</ele>
        <time>2016-04-13T14:08:45.000Z</time>
      </trkpt>
      <trkpt lat="47.23055" lon="2.93758">
        <ele>167.07151794434</ele>
        <time>2016-04-13T14:08:48.000Z</time>
      </trkpt>
      <trkpt lat="47.23056" lon="2.93763">
        <ele>166.88424682617</ele>
        <time>2016-04-13T14:08:51.000Z</time>
      </trkpt>
      <trkpt lat="47.23057" lon="2.93768">
        <ele>166.71865844727</ele>
        <time>2016-04-13T14:08:54.000Z</time>
      </trkpt>
      <trkpt lat="47.23058" lon="2.93774">
        <ele>166.5712890625</ele>
        <time>2016-04-13T14:08:57.000Z</time>
      </trkpt>
      <trkpt lat="47.23058" lon="2.93776">
        <ele>166.43174743652</ele>
        <time>2016-04-13T14:08:59.000Z</time>
      </trkpt>
      <trkpt lat="47.23059" lon="2.93781">
        <ele>166.27828979492</ele>
        <time>2016-04-13T14:09:02.000Z</time>
      </trkpt>
      <trkpt lat="47.23061" lon="2.93786">
        <ele>166.12246704102</ele>
        <time>2016-04-13T14:09:05.000Z</time>
      </trkpt>
      <trkpt lat="47.23061" lon="2.93788">
        <ele>165.98901367188</ele>
        <time>2016-04-13T14:09:07.000Z</time>
      </trkpt>
      <trkpt lat="47.23063" lon="2.93794">
        <ele>165.85081481934</ele>
        <time>2016-04-13T14:09:10.000Z</time>
      </trkpt>
      <trkpt lat="47.23064" lon="2.93798">
        <ele>165.69900512695</ele>
        <time>2016-04-13T14:09:13.000Z</time>
      </trkpt>
      <trkpt lat="47.23065" lon="2.93802">
        <ele>165.55139160156</ele>
        <time>2016-04-13T14:09:16.000Z</time>
      </trkpt>
      <trkpt lat="47.23066" lon="2.93806">
        <ele>165.4136505127</ele>
        <time>2016-04-13T14:09:18.000Z</time>
      </trkpt>
      <trkpt lat="47.23068" lon="2.93811">
        <ele>165.25048828125</ele>
        <time>2016-04-13T14:09:21.000Z</time>
      </trkpt>
      <trkpt lat="47.23069" lon="2.93816">
        <ele>165.09371948242</ele>
        <time>2016-04-13T14:09:24.000Z</time>
      </trkpt>
      <trkpt lat="47.23071" lon="2.93821">
        <ele>164.93109130859</ele>
        <time>2016-04-13T14:09:27.000Z</time>
      </trkpt>
      <trkpt lat="47.23074" lon="2.93825">
        <ele>164.76092529297</ele>
        <time>2016-04-13T14:09:30.000Z</time>
      </trkpt>
      <trkpt lat="47.23075" lon="2.9383">
        <ele>164.57606506348</ele>
        <time>2016-04-13T14:09:33.000Z</time>
      </trkpt>
      <trkpt lat="47.23076" lon="2.93833">
        <ele>164.41009521484</ele>
        <time>2016-04-13T14:09:35.000Z</time>
      </trkpt>
      <trkpt lat="47.23077" lon="2.93837">
        <ele>164.26393127441</ele>
        <time>2016-04-13T14:09:37.000Z</time>
      </trkpt>
      <trkpt lat="47.23079" lon="2.93841">
        <ele>164.13691711426</ele>
        <time>2016-04-13T14:09:40.000Z</time>
      </trkpt>
      <trkpt lat="47.23081" lon="2.93845">
        <ele>164.03408813477</ele>
        <time>2016-04-13T14:09:43.000Z</time>
      </trkpt>
      <trkpt lat="47.23083" lon="2.9385">
        <ele>163.95443725586</ele>
        <time>2016-04-13T14:09:46.000Z</time>
      </trkpt>
      <trkpt lat="47.23084" lon="2.93854">
        <ele>163.88020324707</ele>
        <time>2016-04-13T14:09:48.000Z</time>
      </trkpt>
      <trkpt lat="47.23086" lon="2.93859">
        <ele>163.80038452148</ele>
        <time>2016-04-13T14:09:51.000Z</time>
      </trkpt>
      <trkpt lat="47.23087" lon="2.9386">
        <ele>163.73045349121</ele>
        <time>2016-04-13T14:09:53.000Z</time>
      </trkpt>
      <trkpt lat="47.23088" lon="2.93864">
        <ele>163.65980529785</ele>
        <time>2016-04-13T14:09:56.000Z</time>
      </trkpt>
      <trkpt lat="47.2309" lon="2.93869">
        <ele>163.58695983887</ele>
        <time>2016-04-13T14:09:59.000Z</time>
      </trkpt>
      <trkpt lat="47.23092" lon="2.93874">
        <ele>163.50991821289</ele>
        <time>2016-04-13T14:10:02.000Z</time>
      </trkpt>
      <trkpt lat="47.23093" lon="2.93876">
        <ele>163.44525146484</ele>
        <time>2016-04-13T14:10:04.000Z</time>
      </trkpt>
      <trkpt lat="47.23095" lon="2.93881">
        <ele>163.36978149414</ele>
        <time>2016-04-13T14:10:07.000Z</time>
      </trkpt>
      <trkpt lat="47.23097" lon="2.93886">
        <ele>163.29248046875</ele>
        <time>2016-04-13T14:10:10.000Z</time>
      </trkpt>
      <trkpt lat="47.231" lon="2.9389">
        <ele>163.21832275391</ele>
        <time>2016-04-13T14:10:13.000Z</time>
      </trkpt>
      <trkpt lat="47.23101" lon="2.93894">
        <ele>163.14797973633</ele>
        <time>2016-04-13T14:10:16.000Z</time>
      </trkpt>
      <trkpt lat="47.23104" lon="2.93899">
        <ele>163.0694732666</ele>
        <time>2016-04-13T14:10:20.000Z</time>
      </trkpt>
      <trkpt lat="47.23105" lon="2.93903">
        <ele>162.99659729004</ele>
        <time>2016-04-13T14:10:22.000Z</time>
      </trkpt>
      <trkpt lat="47.23109" lon="2.93908">
        <ele>162.92135620117</ele>
        <time>2016-04-13T14:10:25.000Z</time>
      </trkpt>
      <trkpt lat="47.2311" lon="2.9391">
        <ele>162.85305786133</ele>
        <time>2016-04-13T14:10:27.000Z</time>
      </trkpt>
      <trkpt lat="47.23112" lon="2.93912">
        <ele>162.7935333252</ele>
        <time>2016-04-13T14:10:29.000Z</time>
      </trkpt>
      <trkpt lat="47.23114" lon="2.93917">
        <ele>162.7346496582</ele>
        <time>2016-04-13T14:10:32.000Z</time>
      </trkpt>
      <trkpt lat="47.23115" lon="2.93919">
        <ele>162.67691040039</ele>
        <time>2016-04-13T14:10:35.000Z</time>
      </trkpt>
      <trkpt lat="47.23116" lon="2.93923">
        <ele>162.62411499023</ele>
        <time>2016-04-13T14:10:39.000Z</time>
      </trkpt>
      <trkpt lat="47.23117" lon="2.93924">
        <ele>162.57363891602</ele>
        <time>2016-04-13T14:10:40.000Z</time>
      </trkpt>
      <trkpt lat="47.23116" lon="2.93925">
        <ele>162.52737426758</ele>
        <time>2016-04-13T14:10:42.000Z</time>
      </trkpt>
      <trkpt lat="47.23116" lon="2.93927">
        <ele>162.48907470703</ele>
        <time>2016-04-13T14:10:52.000Z</time>
      </trkpt>
      <trkpt lat="47.23116" lon="2.93928">
        <ele>162.45858764648</ele>
        <time>2016-04-13T14:10:57.000Z</time>
      </trkpt>
      <trkpt lat="47.23117" lon="2.93929">
        <ele>162.43647766113</ele>
        <time>2016-04-13T14:11:02.000Z</time>
      </trkpt>
      <trkpt lat="47.23117" lon="2.9393">
        <ele>162.41534423828</ele>
        <time>2016-04-13T14:11:03.000Z</time>
      </trkpt>
      <trkpt lat="47.23117" lon="2.9393">
        <ele>162.41534423828</ele>
        <time>2016-04-13T14:11:23.000Z</time>
      </trkpt>
      <trkpt lat="47.23117" lon="2.93932">
        <ele>162.39161682129</ele>
        <time>2016-04-13T14:11:30.000Z</time>
      </trkpt>
      <trkpt lat="47.23117" lon="2.93933">
        <ele>162.36846923828</ele>
        <time>2016-04-13T14:11:37.000Z</time>
      </trkpt>
      <trkpt lat="47.23117" lon="2.93933">
        <ele>162.36846923828</ele>
        <time>2016-04-13T14:11:57.000Z</time>
      </trkpt>
      <trkpt lat="47.23119" lon="2.93933">
        <ele>162.34506225586</ele>
        <time>2016-04-13T14:12:05.000Z</time>
      </trkpt>
      <trkpt lat="47.2312" lon="2.93931">
        <ele>162.32678222656</ele>
        <time>2016-04-13T14:12:08.000Z</time>
      </trkpt>
      <trkpt lat="47.23119" lon="2.93932">
        <ele>162.31436157227</ele>
        <time>2016-04-13T14:12:18.000Z</time>
      </trkpt>
      <trkpt lat="47.23119" lon="2.93933">
        <ele>162.30490112305</ele>
        <time>2016-04-13T14:12:34.000Z</time>
      </trkpt>
      <trkpt lat="47.23118" lon="2.93933">
        <ele>162.30233764648</ele>
        <time>2016-04-13T14:12:54.000Z</time>
      </trkpt>
      <trkpt lat="47.23117" lon="2.93934">
        <ele>162.3042755127</ele>
        <time>2016-04-13T14:12:58.000Z</time>
      </trkpt>
      <trkpt lat="47.23115" lon="2.93936">
        <ele>162.30613708496</ele>
        <time>2016-04-13T14:13:01.000Z</time>
      </trkpt>
      <trkpt lat="47.23114" lon="2.93938">
        <ele>162.30290222168</ele>
        <time>2016-04-13T14:13:04.000Z</time>
      </trkpt>
      <trkpt lat="47.23112" lon="2.9394">
        <ele>162.29904174805</ele>
        <time>2016-04-13T14:13:06.000Z</time>
      </trkpt>
      <trkpt lat="47.23111" lon="2.93942">
        <ele>162.28955078125</ele>
        <time>2016-04-13T14:13:09.000Z</time>
      </trkpt>
      <trkpt lat="47.2311" lon="2.93945">
        <ele>162.27395629883</ele>
        <time>2016-04-13T14:13:12.000Z</time>
      </trkpt>
      <trkpt lat="47.2311" lon="2.93947">
        <ele>162.25233459473</ele>
        <time>2016-04-13T14:13:14.000Z</time>
      </trkpt>
      <trkpt lat="47.23109" lon="2.93951">
        <ele>162.22415161133</ele>
        <time>2016-04-13T14:13:19.000Z</time>
      </trkpt>
      <trkpt lat="47.23108" lon="2.93954">
        <ele>162.19264221191</ele>
        <time>2016-04-13T14:13:19.000Z</time>
      </trkpt>
      <trkpt lat="47.23108" lon="2.93957">
        <ele>162.15963745117</ele>
        <time>2016-04-13T14:13:22.000Z</time>
      </trkpt>
      <trkpt lat="47.23106" lon="2.9396">
        <ele>162.12690734863</ele>
        <time>2016-04-13T14:13:25.000Z</time>
      </trkpt>
      <trkpt lat="47.23104" lon="2.93964">
        <ele>162.09475708008</ele>
        <time>2016-04-13T14:13:29.000Z</time>
      </trkpt>
      <trkpt lat="47.23103" lon="2.93967">
        <ele>162.07070922852</ele>
        <time>2016-04-13T14:13:30.000Z</time>
      </trkpt>
      <trkpt lat="47.23102" lon="2.93968">
        <ele>162.05145263672</ele>
        <time>2016-04-13T14:13:32.000Z</time>
      </trkpt>
      <trkpt lat="47.231" lon="2.9397">
        <ele>162.0386505127</ele>
        <time>2016-04-13T14:13:34.000Z</time>
      </trkpt>
      <trkpt lat="47.23098" lon="2.93973">
        <ele>162.02973937988</ele>
        <time>2016-04-13T14:13:37.000Z</time>
      </trkpt>
      <trkpt lat="47.23098" lon="2.93977">
        <ele>162.01672363281</ele>
        <time>2016-04-13T14:13:39.000Z</time>
      </trkpt>
      <trkpt lat="47.23096" lon="2.93982">
        <ele>161.99896240234</ele>
        <time>2016-04-13T14:13:43.000Z</time>
      </trkpt>
      <trkpt lat="47.23096" lon="2.93985">
        <ele>161.97500610352</ele>
        <time>2016-04-13T14:13:45.000Z</time>
      </trkpt>
      <trkpt lat="47.23096" lon="2.93988">
        <ele>161.94378662109</ele>
        <time>2016-04-13T14:13:48.000Z</time>
      </trkpt>
      <trkpt lat="47.23095" lon="2.93994">
        <ele>161.8987121582</ele>
        <time>2016-04-13T14:13:49.000Z</time>
      </trkpt>
      <trkpt lat="47.23095" lon="2.93998">
        <ele>161.85681152344</ele>
        <time>2016-04-13T14:13:51.000Z</time>
      </trkpt>
      <trkpt lat="47.23094" lon="2.94002">
        <ele>161.8166809082</ele>
        <time>2016-04-13T14:13:56.000Z</time>
      </trkpt>
      <trkpt lat="47.23092" lon="2.94008">
        <ele>161.79364013672</ele>
        <time>2016-04-13T14:13:57.000Z</time>
      </trkpt>
      <trkpt lat="47.23088" lon="2.94013">
        <ele>161.79328918457</ele>
        <time>2016-04-13T14:14:02.000Z</time>
      </trkpt>
      <trkpt lat="47.23087" lon="2.94017">
        <ele>161.81538391113</ele>
        <time>2016-04-13T14:14:03.000Z</time>
      </trkpt>
      <trkpt lat="47.23085" lon="2.9402">
        <ele>161.85244750977</ele>
        <time>2016-04-13T14:14:08.000Z</time>
      </trkpt>
      <trkpt lat="47.23085" lon="2.94023">
        <ele>161.89694213867</ele>
        <time>2016-04-13T14:14:09.000Z</time>
      </trkpt>
      <trkpt lat="47.23083" lon="2.94028">
        <ele>161.93920898438</ele>
        <time>2016-04-13T14:14:13.000Z</time>
      </trkpt>
      <trkpt lat="47.23082" lon="2.94033">
        <ele>161.96884155273</ele>
        <time>2016-04-13T14:14:14.000Z</time>
      </trkpt>
      <trkpt lat="47.2308" lon="2.94037">
        <ele>161.99433898926</ele>
        <time>2016-04-13T14:14:17.000Z</time>
      </trkpt>
      <trkpt lat="47.23079" lon="2.9404">
        <ele>162.01432800293</ele>
        <time>2016-04-13T14:14:19.000Z</time>
      </trkpt>
      <trkpt lat="47.23077" lon="2.94045">
        <ele>162.0361328125</ele>
        <time>2016-04-13T14:14:22.000Z</time>
      </trkpt>
      <trkpt lat="47.23076" lon="2.94047">
        <ele>162.0537109375</ele>
        <time>2016-04-13T14:14:24.000Z</time>
      </trkpt>
      <trkpt lat="47.23074" lon="2.94051">
        <ele>162.072265625</ele>
        <time>2016-04-13T14:14:27.000Z</time>
      </trkpt>
      <trkpt lat="47.23072" lon="2.94054">
        <ele>162.0927734375</ele>
        <time>2016-04-13T14:14:30.000Z</time>
      </trkpt>
      <trkpt lat="47.23071" lon="2.94056">
        <ele>162.1123046875</ele>
        <time>2016-04-13T14:14:32.000Z</time>
      </trkpt>
      <trkpt lat="47.2307" lon="2.94059">
        <ele>162.1298828125</ele>
        <time>2016-04-13T14:14:34.000Z</time>
      </trkpt>
      <trkpt lat="47.23068" lon="2.94062">
        <ele>162.1484375</ele>
        <time>2016-04-13T14:14:37.000Z</time>
      </trkpt>
      <trkpt lat="47.23066" lon="2.94063">
        <ele>162.1669921875</ele>
        <time>2016-04-13T14:14:39.000Z</time>
      </trkpt>
      <trkpt lat="47.23064" lon="2.94066">
        <ele>162.1845703125</ele>
        <time>2016-04-13T14:14:43.000Z</time>
      </trkpt>
      <trkpt lat="47.23063" lon="2.94068">
        <ele>162.203125</ele>
        <time>2016-04-13T14:14:44.000Z</time>
      </trkpt>
      <trkpt lat="47.23061" lon="2.94071">
        <ele>162.2236328125</ele>
        <time>2016-04-13T14:14:48.000Z</time>
      </trkpt>
      <trkpt lat="47.2306" lon="2.94074">
        <ele>162.2431640625</ele>
        <time>2016-04-13T14:14:49.000Z</time>
      </trkpt>
      <trkpt lat="47.23059" lon="2.94076">
        <ele>162.26171875</ele>
        <time>2016-04-13T14:14:51.000Z</time>
      </trkpt>
      <trkpt lat="47.23056" lon="2.9408">
        <ele>162.2822265625</ele>
        <time>2016-04-13T14:14:54.000Z</time>
      </trkpt>
      <trkpt lat="47.23054" lon="2.94082">
        <ele>162.3037109375</ele>
        <time>2016-04-13T14:14:56.000Z</time>
      </trkpt>
      <trkpt lat="47.23051" lon="2.94086">
        <ele>162.32597351074</ele>
        <time>2016-04-13T14:14:59.000Z</time>
      </trkpt>
      <trkpt lat="47.23048" lon="2.94089">
        <ele>162.34805297852</ele>
        <time>2016-04-13T14:15:03.000Z</time>
      </trkpt>
      <trkpt lat="47.23045" lon="2.94093">
        <ele>162.37094116211</ele>
        <time>2016-04-13T14:15:07.000Z</time>
      </trkpt>
      <trkpt lat="47.23043" lon="2.94095">
        <ele>162.38703918457</ele>
        <time>2016-04-13T14:15:07.000Z</time>
      </trkpt>
      <trkpt lat="47.23042" lon="2.94099">
        <ele>162.39848327637</ele>
        <time>2016-04-13T14:15:10.000Z</time>
      </trkpt>
      <trkpt lat="47.23039" lon="2.94102">
        <ele>162.40702819824</ele>
        <time>2016-04-13T14:15:13.000Z</time>
      </trkpt>
      <trkpt lat="47.23035" lon="2.94104">
        <ele>162.41537475586</ele>
        <time>2016-04-13T14:15:16.000Z</time>
      </trkpt>
      <trkpt lat="47.23032" lon="2.94106">
        <ele>162.4232635498</ele>
        <time>2016-04-13T14:15:19.000Z</time>
      </trkpt>
      <trkpt lat="47.2303" lon="2.94108">
        <ele>162.43081665039</ele>
        <time>2016-04-13T14:15:22.000Z</time>
      </trkpt>
      <trkpt lat="47.23029" lon="2.9411">
        <ele>162.43856811523</ele>
        <time>2016-04-13T14:15:24.000Z</time>
      </trkpt>
      <trkpt lat="47.23026" lon="2.94111">
        <ele>162.44706726074</ele>
        <time>2016-04-13T14:15:28.000Z</time>
      </trkpt>
      <trkpt lat="47.23024" lon="2.94113">
        <ele>162.45259094238</ele>
        <time>2016-04-13T14:15:29.000Z</time>
      </trkpt>
      <trkpt lat="47.23021" lon="2.94115">
        <ele>162.45565795898</ele>
        <time>2016-04-13T14:15:31.000Z</time>
      </trkpt>
      <trkpt lat="47.23016" lon="2.94119">
        <ele>162.45883178711</ele>
        <time>2016-04-13T14:15:34.000Z</time>
      </trkpt>
      <trkpt lat="47.23013" lon="2.94121">
        <ele>162.46249389648</ele>
        <time>2016-04-13T14:15:37.000Z</time>
      </trkpt>
      <trkpt lat="47.23011" lon="2.94122">
        <ele>162.46371459961</ele>
        <time>2016-04-13T14:15:39.000Z</time>
      </trkpt>
      <trkpt lat="47.23009" lon="2.94123">
        <ele>162.46398925781</ele>
        <time>2016-04-13T14:15:41.000Z</time>
      </trkpt>
      <trkpt lat="47.23007" lon="2.94126">
        <ele>162.45965576172</ele>
        <time>2016-04-13T14:15:45.000Z</time>
      </trkpt>
      <trkpt lat="47.23005" lon="2.94128">
        <ele>162.45283508301</ele>
        <time>2016-04-13T14:15:46.000Z</time>
      </trkpt>
      <trkpt lat="47.23005" lon="2.94131">
        <ele>162.44009399414</ele>
        <time>2016-04-13T14:15:48.000Z</time>
      </trkpt>
      <trkpt lat="47.23003" lon="2.94136">
        <ele>162.41813659668</ele>
        <time>2016-04-13T14:15:52.000Z</time>
      </trkpt>
      <trkpt lat="47.23002" lon="2.9414">
        <ele>162.38897705078</ele>
        <time>2016-04-13T14:15:53.000Z</time>
      </trkpt>
      <trkpt lat="47.23001" lon="2.94143">
        <ele>162.35737609863</ele>
        <time>2016-04-13T14:15:55.000Z</time>
      </trkpt>
      <trkpt lat="47.23" lon="2.94147">
        <ele>162.31742858887</ele>
        <time>2016-04-13T14:15:58.000Z</time>
      </trkpt>
      <trkpt lat="47.23" lon="2.94152">
        <ele>162.27206420898</ele>
        <time>2016-04-13T14:16:01.000Z</time>
      </trkpt>
      <trkpt lat="47.23001" lon="2.9416">
        <ele>162.2177734375</ele>
        <time>2016-04-13T14:16:04.000Z</time>
      </trkpt>
      <trkpt lat="47.23001" lon="2.94162">
        <ele>162.16458129883</ele>
        <time>2016-04-13T14:16:06.000Z</time>
      </trkpt>
      <trkpt lat="47.23003" lon="2.94168">
        <ele>162.09921264648</ele>
        <time>2016-04-13T14:16:09.000Z</time>
      </trkpt>
      <trkpt lat="47.23005" lon="2.94171">
        <ele>162.02487182617</ele>
        <time>2016-04-13T14:16:11.000Z</time>
      </trkpt>
      <trkpt lat="47.23006" lon="2.94174">
        <ele>161.93717956543</ele>
        <time>2016-04-13T14:16:14.000Z</time>
      </trkpt>
      <trkpt lat="47.23009" lon="2.94177">
        <ele>161.84851074219</ele>
        <time>2016-04-13T14:16:17.000Z</time>
      </trkpt>
      <trkpt lat="47.23012" lon="2.9418">
        <ele>161.74598693848</ele>
        <time>2016-04-13T14:16:20.000Z</time>
      </trkpt>
      <trkpt lat="47.23013" lon="2.94183">
        <ele>161.6411895752</ele>
        <time>2016-04-13T14:16:22.000Z</time>
      </trkpt>
      <trkpt lat="47.23016" lon="2.94185">
        <ele>161.5446472168</ele>
        <time>2016-04-13T14:16:25.000Z</time>
      </trkpt>
      <trkpt lat="47.23019" lon="2.94191">
        <ele>161.43475341797</ele>
        <time>2016-04-13T14:16:28.000Z</time>
      </trkpt>
      <trkpt lat="47.23021" lon="2.94195">
        <ele>161.31692504883</ele>
        <time>2016-04-13T14:16:32.000Z</time>
      </trkpt>
      <trkpt lat="47.23022" lon="2.942">
        <ele>161.18774414062</ele>
        <time>2016-04-13T14:16:33.000Z</time>
      </trkpt>
      <trkpt lat="47.23023" lon="2.94206">
        <ele>161.0428314209</ele>
        <time>2016-04-13T14:16:36.000Z</time>
      </trkpt>
      <trkpt lat="47.23023" lon="2.94211">
        <ele>160.87881469727</ele>
        <time>2016-04-13T14:16:39.000Z</time>
      </trkpt>
      <trkpt lat="47.23023" lon="2.94218">
        <ele>160.70947265625</ele>
        <time>2016-04-13T14:16:42.000Z</time>
      </trkpt>
      <trkpt lat="47.23024" lon="2.94223">
        <ele>160.53446960449</ele>
        <time>2016-04-13T14:16:45.000Z</time>
      </trkpt>
      <trkpt lat="47.23026" lon="2.94226">
        <ele>160.37579345703</ele>
        <time>2016-04-13T14:16:47.000Z</time>
      </trkpt>
      <trkpt lat="47.23028" lon="2.94229">
        <ele>160.23776245117</ele>
        <time>2016-04-13T14:16:50.000Z</time>
      </trkpt>
      <trkpt lat="47.23029" lon="2.94232">
        <ele>160.11016845703</ele>
        <time>2016-04-13T14:16:53.000Z</time>
      </trkpt>
      <trkpt lat="47.2303" lon="2.94234">
        <ele>160.01374816895</ele>
        <time>2016-04-13T14:16:55.000Z</time>
      </trkpt>
      <trkpt lat="47.23031" lon="2.94237">
        <ele>159.9341583252</ele>
        <time>2016-04-13T14:16:57.000Z</time>
      </trkpt>
      <trkpt lat="47.23033" lon="2.94241">
        <ele>159.84725952148</ele>
        <time>2016-04-13T14:17:00.000Z</time>
      </trkpt>
      <trkpt lat="47.23035" lon="2.94245">
        <ele>159.75802612305</ele>
        <time>2016-04-13T14:17:04.000Z</time>
      </trkpt>
      <trkpt lat="47.23036" lon="2.94248">
        <ele>159.67303466797</ele>
        <time>2016-04-13T14:17:05.000Z</time>
      </trkpt>
      <trkpt lat="47.23037" lon="2.94251">
        <ele>159.5866394043</ele>
        <time>2016-04-13T14:17:07.000Z</time>
      </trkpt>
      <trkpt lat="47.23039" lon="2.94255">
        <ele>159.49923706055</ele>
        <time>2016-04-13T14:17:10.000Z</time>
      </trkpt>
      <trkpt lat="47.2304" lon="2.94258">
        <ele>159.42260742188</ele>
        <time>2016-04-13T14:17:12.000Z</time>
      </trkpt>
      <trkpt lat="47.23042" lon="2.94262">
        <ele>159.35433959961</ele>
        <time>2016-04-13T14:17:15.000Z</time>
      </trkpt>
      <trkpt lat="47.23043" lon="2.94264">
        <ele>159.29125976562</ele>
        <time>2016-04-13T14:17:17.000Z</time>
      </trkpt>
      <trkpt lat="47.23045" lon="2.94269">
        <ele>159.22314453125</ele>
        <time>2016-04-13T14:17:21.000Z</time>
      </trkpt>
      <trkpt lat="47.23047" lon="2.94273">
        <ele>159.16027832031</ele>
        <time>2016-04-13T14:17:22.000Z</time>
      </trkpt>
      <trkpt lat="47.23049" lon="2.94277">
        <ele>159.08996582031</ele>
        <time>2016-04-13T14:17:26.000Z</time>
      </trkpt>
      <trkpt lat="47.2305" lon="2.9428">
        <ele>159.01806640625</ele>
        <time>2016-04-13T14:17:27.000Z</time>
      </trkpt>
      <trkpt lat="47.23052" lon="2.94285">
        <ele>158.9375</ele>
        <time>2016-04-13T14:17:30.000Z</time>
      </trkpt>
      <trkpt lat="47.23054" lon="2.9429">
        <ele>158.8603515625</ele>
        <time>2016-04-13T14:17:33.000Z</time>
      </trkpt>
      <trkpt lat="47.23056" lon="2.94292">
        <ele>158.78515625</ele>
        <time>2016-04-13T14:17:35.000Z</time>
      </trkpt>
      <trkpt lat="47.23058" lon="2.94298">
        <ele>158.7080078125</ele>
        <time>2016-04-13T14:17:38.000Z</time>
      </trkpt>
      <trkpt lat="47.23059" lon="2.94303">
        <ele>158.62072753906</ele>
        <time>2016-04-13T14:17:41.000Z</time>
      </trkpt>
      <trkpt lat="47.2306" lon="2.94305">
        <ele>158.54504394531</ele>
        <time>2016-04-13T14:17:43.000Z</time>
      </trkpt>
      <trkpt lat="47.23061" lon="2.94309">
        <ele>158.46838378906</ele>
        <time>2016-04-13T14:17:46.000Z</time>
      </trkpt>
      <trkpt lat="47.23063" lon="2.94314">
        <ele>158.38061523438</ele>
        <time>2016-04-13T14:17:49.000Z</time>
      </trkpt>
      <trkpt lat="47.23064" lon="2.94317">
        <ele>158.30322265625</ele>
        <time>2016-04-13T14:17:50.000Z</time>
      </trkpt>
      <trkpt lat="47.23065" lon="2.94319">
        <ele>158.23999023438</ele>
        <time>2016-04-13T14:17:52.000Z</time>
      </trkpt>
      <trkpt lat="47.23067" lon="2.94323">
        <ele>158.16943359375</ele>
        <time>2016-04-13T14:17:55.000Z</time>
      </trkpt>
      <trkpt lat="47.2307" lon="2.94329">
        <ele>158.09777832031</ele>
        <time>2016-04-13T14:17:58.000Z</time>
      </trkpt>
      <trkpt lat="47.23073" lon="2.94333">
        <ele>158.0302734375</ele>
        <time>2016-04-13T14:18:01.000Z</time>
      </trkpt>
      <trkpt lat="47.23074" lon="2.94336">
        <ele>157.96533203125</ele>
        <time>2016-04-13T14:18:03.000Z</time>
      </trkpt>
      <trkpt lat="47.23075" lon="2.94339">
        <ele>157.896484375</ele>
        <time>2016-04-13T14:18:07.000Z</time>
      </trkpt>
      <trkpt lat="47.23077" lon="2.94341">
        <ele>157.83471679688</ele>
        <time>2016-04-13T14:18:08.000Z</time>
      </trkpt>
      <trkpt lat="47.23079" lon="2.94344">
        <ele>157.78125</ele>
        <time>2016-04-13T14:18:12.000Z</time>
      </trkpt>
      <trkpt lat="47.2308" lon="2.94347">
        <ele>157.73547363281</ele>
        <time>2016-04-13T14:18:13.000Z</time>
      </trkpt>
      <trkpt lat="47.23083" lon="2.94351">
        <ele>157.68530273438</ele>
        <time>2016-04-13T14:18:16.000Z</time>
      </trkpt>
      <trkpt lat="47.23086" lon="2.94355">
        <ele>157.6293182373</ele>
        <time>2016-04-13T14:18:19.000Z</time>
      </trkpt>
      <trkpt lat="47.2309" lon="2.94357">
        <ele>157.57344055176</ele>
        <time>2016-04-13T14:18:21.000Z</time>
      </trkpt>
      <trkpt lat="47.23094" lon="2.9436">
        <ele>157.51496887207</ele>
        <time>2016-04-13T14:18:24.000Z</time>
      </trkpt>
      <trkpt lat="47.23097" lon="2.94365">
        <ele>157.44209289551</ele>
        <time>2016-04-13T14:18:27.000Z</time>
      </trkpt>
      <trkpt lat="47.23101" lon="2.94372">
        <ele>157.34426879883</ele>
        <time>2016-04-13T14:18:30.000Z</time>
      </trkpt>
      <trkpt lat="47.23102" lon="2.94374">
        <ele>157.24851989746</ele>
        <time>2016-04-13T14:18:32.000Z</time>
      </trkpt>
      <trkpt lat="47.23104" lon="2.94378">
        <ele>157.13656616211</ele>
        <time>2016-04-13T14:18:36.000Z</time>
      </trkpt>
      <trkpt lat="47.23105" lon="2.94381">
        <ele>157.01931762695</ele>
        <time>2016-04-13T14:18:37.000Z</time>
      </trkpt>
      <trkpt lat="47.23106" lon="2.94384">
        <ele>156.90829467773</ele>
        <time>2016-04-13T14:18:39.000Z</time>
      </trkpt>
      <trkpt lat="47.23107" lon="2.94387">
        <ele>156.81285095215</ele>
        <time>2016-04-13T14:18:42.000Z</time>
      </trkpt>
      <trkpt lat="47.23109" lon="2.94392">
        <ele>156.70358276367</ele>
        <time>2016-04-13T14:18:46.000Z</time>
      </trkpt>
      <trkpt lat="47.2311" lon="2.94394">
        <ele>156.60127258301</ele>
        <time>2016-04-13T14:18:47.000Z</time>
      </trkpt>
      <trkpt lat="47.23111" lon="2.94399">
        <ele>156.48751831055</ele>
        <time>2016-04-13T14:18:50.000Z</time>
      </trkpt>
      <trkpt lat="47.23114" lon="2.94403">
        <ele>156.35748291016</ele>
        <time>2016-04-13T14:18:53.000Z</time>
      </trkpt>
      <trkpt lat="47.23114" lon="2.94406">
        <ele>156.22917175293</ele>
        <time>2016-04-13T14:18:55.000Z</time>
      </trkpt>
      <trkpt lat="47.23115" lon="2.94411">
        <ele>156.09362792969</ele>
        <time>2016-04-13T14:18:58.000Z</time>
      </trkpt>
      <trkpt lat="47.23116" lon="2.94415">
        <ele>155.94967651367</ele>
        <time>2016-04-13T14:19:01.000Z</time>
      </trkpt>
      <trkpt lat="47.23117" lon="2.94418">
        <ele>155.80738830566</ele>
        <time>2016-04-13T14:19:04.000Z</time>
      </trkpt>
      <trkpt lat="47.23117" lon="2.9442">
        <ele>155.68656921387</ele>
        <time>2016-04-13T14:19:07.000Z</time>
      </trkpt>
      <trkpt lat="47.23119" lon="2.94423">
        <ele>155.55642700195</ele>
        <time>2016-04-13T14:19:10.000Z</time>
      </trkpt>
      <trkpt lat="47.2312" lon="2.94423">
        <ele>155.45332336426</ele>
        <time>2016-04-13T14:19:13.000Z</time>
      </trkpt>
      <trkpt lat="47.23122" lon="2.94425">
        <ele>155.36181640625</ele>
        <time>2016-04-13T14:19:25.000Z</time>
      </trkpt>
      <trkpt lat="47.23119" lon="2.94424">
        <ele>155.30935668945</ele>
        <time>2016-04-13T14:19:27.000Z</time>
      </trkpt>
      <trkpt lat="47.23116" lon="2.94423">
        <ele>155.28401184082</ele>
        <time>2016-04-13T14:19:30.000Z</time>
      </trkpt>
      <trkpt lat="47.23112" lon="2.94425">
        <ele>155.28096008301</ele>
        <time>2016-04-13T14:19:33.000Z</time>
      </trkpt>
      <trkpt lat="47.23109" lon="2.94428">
        <ele>155.27261352539</ele>
        <time>2016-04-13T14:19:37.000Z</time>
      </trkpt>
      <trkpt lat="47.23106" lon="2.9443">
        <ele>155.26985168457</ele>
        <time>2016-04-13T14:19:38.000Z</time>
      </trkpt>
      <trkpt lat="47.23103" lon="2.94433">
        <ele>155.23864746094</ele>
        <time>2016-04-13T14:19:41.000Z</time>
      </trkpt>
      <trkpt lat="47.23099" lon="2.94436">
        <ele>155.18362426758</ele>
        <time>2016-04-13T14:19:44.000Z</time>
      </trkpt>
      <trkpt lat="47.23096" lon="2.94438">
        <ele>155.12977600098</ele>
        <time>2016-04-13T14:19:47.000Z</time>
      </trkpt>
      <trkpt lat="47.23092" lon="2.94439">
        <ele>155.0944519043</ele>
        <time>2016-04-13T14:19:50.000Z</time>
      </trkpt>
      <trkpt lat="47.23088" lon="2.94441">
        <ele>155.06838989258</ele>
        <time>2016-04-13T14:19:54.000Z</time>
      </trkpt>
      <trkpt lat="47.23086" lon="2.94442">
        <ele>155.05532836914</ele>
        <time>2016-04-13T14:19:55.000Z</time>
      </trkpt>
      <trkpt lat="47.23083" lon="2.94444">
        <ele>155.04153442383</ele>
        <time>2016-04-13T14:19:58.000Z</time>
      </trkpt>
      <trkpt lat="47.2308" lon="2.94446">
        <ele>155.01904296875</ele>
        <time>2016-04-13T14:20:01.000Z</time>
      </trkpt>
      <trkpt lat="47.23077" lon="2.94447">
        <ele>154.97607421875</ele>
        <time>2016-04-13T14:20:03.000Z</time>
      </trkpt>
      <trkpt lat="47.23073" lon="2.9445">
        <ele>154.91023254395</ele>
        <time>2016-04-13T14:20:06.000Z</time>
      </trkpt>
      <trkpt lat="47.23069" lon="2.94453">
        <ele>154.82054138184</ele>
        <time>2016-04-13T14:20:09.000Z</time>
      </trkpt>
      <trkpt lat="47.23064" lon="2.94458">
        <ele>154.70147705078</ele>
        <time>2016-04-13T14:20:12.000Z</time>
      </trkpt>
      <trkpt lat="47.23061" lon="2.94461">
        <ele>154.57209777832</ele>
        <time>2016-04-13T14:20:15.000Z</time>
      </trkpt>
      <trkpt lat="47.23058" lon="2.94464">
        <ele>154.43635559082</ele>
        <time>2016-04-13T14:20:17.000Z</time>
      </trkpt>
      <trkpt lat="47.23053" lon="2.94468">
        <ele>154.29014587402</ele>
        <time>2016-04-13T14:20:20.000Z</time>
      </trkpt>
      <trkpt lat="47.2305" lon="2.94472">
        <ele>154.14660644531</ele>
        <time>2016-04-13T14:20:22.000Z</time>
      </trkpt>
      <trkpt lat="47.23047" lon="2.94476">
        <ele>154.01472473145</ele>
        <time>2016-04-13T14:20:24.000Z</time>
      </trkpt>
      <trkpt lat="47.23043" lon="2.9448">
        <ele>153.88098144531</ele>
        <time>2016-04-13T14:20:27.000Z</time>
      </trkpt>
      <trkpt lat="47.23037" lon="2.94484">
        <ele>153.74320983887</ele>
        <time>2016-04-13T14:20:30.000Z</time>
      </trkpt>
      <trkpt lat="47.23032" lon="2.94486">
        <ele>153.62199401855</ele>
        <time>2016-04-13T14:20:34.000Z</time>
      </trkpt>
      <trkpt lat="47.23029" lon="2.94488">
        <ele>153.51640319824</ele>
        <time>2016-04-13T14:20:35.000Z</time>
      </trkpt>
      <trkpt lat="47.23028" lon="2.94489">
        <ele>153.43086242676</ele>
        <time>2016-04-13T14:20:38.000Z</time>
      </trkpt>
      <trkpt lat="47.23025" lon="2.94491">
        <ele>153.35726928711</ele>
        <time>2016-04-13T14:20:40.000Z</time>
      </trkpt>
      <trkpt lat="47.23023" lon="2.94492">
        <ele>153.30339050293</ele>
        <time>2016-04-13T14:20:44.000Z</time>
      </trkpt>
      <trkpt lat="47.23019" lon="2.94494">
        <ele>153.25587463379</ele>
        <time>2016-04-13T14:20:45.000Z</time>
      </trkpt>
      <trkpt lat="47.23016" lon="2.94497">
        <ele>153.19950866699</ele>
        <time>2016-04-13T14:20:48.000Z</time>
      </trkpt>
      <trkpt lat="47.23013" lon="2.94498">
        <ele>153.14404296875</ele>
        <time>2016-04-13T14:20:50.000Z</time>
      </trkpt>
      <trkpt lat="47.23011" lon="2.945">
        <ele>153.09399414062</ele>
        <time>2016-04-13T14:20:53.000Z</time>
      </trkpt>
      <trkpt lat="47.2301" lon="2.94502">
        <ele>153.04119873047</ele>
        <time>2016-04-13T14:20:55.000Z</time>
      </trkpt>
      <trkpt lat="47.23006" lon="2.94506">
        <ele>152.96865844727</ele>
        <time>2016-04-13T14:20:58.000Z</time>
      </trkpt>
      <trkpt lat="47.23003" lon="2.94507">
        <ele>152.9052734375</ele>
        <time>2016-04-13T14:21:01.000Z</time>
      </trkpt>
      <trkpt lat="47.23001" lon="2.94506">
        <ele>152.85388183594</ele>
        <time>2016-04-13T14:21:04.000Z</time>
      </trkpt>
      <trkpt lat="47.23" lon="2.94506">
        <ele>152.82043457031</ele>
        <time>2016-04-13T14:21:06.000Z</time>
      </trkpt>
      <trkpt lat="47.22998" lon="2.94506">
        <ele>152.82852172852</ele>
        <time>2016-04-13T14:21:08.000Z</time>
      </trkpt>
      <trkpt lat="47.22995" lon="2.94506">
        <ele>152.91239929199</ele>
        <time>2016-04-13T14:21:11.000Z</time>
      </trkpt>
      <trkpt lat="47.22992" lon="2.94506">
        <ele>153.04411315918</ele>
        <time>2016-04-13T14:21:14.000Z</time>
      </trkpt>
      <trkpt lat="47.22991" lon="2.94507">
        <ele>153.19186401367</ele>
        <time>2016-04-13T14:21:16.000Z</time>
      </trkpt>
      <trkpt lat="47.22988" lon="2.94508">
        <ele>153.36196899414</ele>
        <time>2016-04-13T14:21:19.000Z</time>
      </trkpt>
      <trkpt lat="47.22986" lon="2.94509">
        <ele>153.52830505371</ele>
        <time>2016-04-13T14:21:22.000Z</time>
      </trkpt>
      <trkpt lat="47.22984" lon="2.9451">
        <ele>153.66780090332</ele>
        <time>2016-04-13T14:21:24.000Z</time>
      </trkpt>
      <trkpt lat="47.22982" lon="2.94511">
        <ele>153.79624938965</ele>
        <time>2016-04-13T14:21:28.000Z</time>
      </trkpt>
      <trkpt lat="47.2298" lon="2.94511">
        <ele>153.92370605469</ele>
        <time>2016-04-13T14:21:29.000Z</time>
      </trkpt>
      <trkpt lat="47.22979" lon="2.94513">
        <ele>154.03260803223</ele>
        <time>2016-04-13T14:21:31.000Z</time>
      </trkpt>
      <trkpt lat="47.22974" lon="2.94515">
        <ele>154.1693572998</ele>
        <time>2016-04-13T14:21:34.000Z</time>
      </trkpt>
      <trkpt lat="47.22972" lon="2.94516">
        <ele>154.32331848145</ele>
        <time>2016-04-13T14:21:37.000Z</time>
      </trkpt>
      <trkpt lat="47.22968" lon="2.94518">
        <ele>154.48449707031</ele>
        <time>2016-04-13T14:21:39.000Z</time>
      </trkpt>
      <trkpt lat="47.22965" lon="2.94521">
        <ele>154.64814758301</ele>
        <time>2016-04-13T14:21:42.000Z</time>
      </trkpt>
      <trkpt lat="47.22962" lon="2.94523">
        <ele>154.82144165039</ele>
        <time>2016-04-13T14:21:45.000Z</time>
      </trkpt>
      <trkpt lat="47.2296" lon="2.94525">
        <ele>154.95767211914</ele>
        <time>2016-04-13T14:21:48.000Z</time>
      </trkpt>
      <trkpt lat="47.22957" lon="2.94527">
        <ele>155.0807800293</ele>
        <time>2016-04-13T14:21:50.000Z</time>
      </trkpt>
      <trkpt lat="47.22954" lon="2.94528">
        <ele>155.2033996582</ele>
        <time>2016-04-13T14:21:53.000Z</time>
      </trkpt>
      <trkpt lat="47.22952" lon="2.94529">
        <ele>155.31356811523</ele>
        <time>2016-04-13T14:21:56.000Z</time>
      </trkpt>
      <trkpt lat="47.2295" lon="2.94531">
        <ele>155.42141723633</ele>
        <time>2016-04-13T14:21:58.000Z</time>
      </trkpt>
      <trkpt lat="47.22947" lon="2.94532">
        <ele>155.55317687988</ele>
        <time>2016-04-13T14:22:01.000Z</time>
      </trkpt>
      <trkpt lat="47.22945" lon="2.94534">
        <ele>155.67333984375</ele>
        <time>2016-04-13T14:22:03.000Z</time>
      </trkpt>
      <trkpt lat="47.22941" lon="2.94536">
        <ele>155.78591918945</ele>
        <time>2016-04-13T14:22:06.000Z</time>
      </trkpt>
      <trkpt lat="47.22939" lon="2.94539">
        <ele>155.89147949219</ele>
        <time>2016-04-13T14:22:08.000Z</time>
      </trkpt>
      <trkpt lat="47.22937" lon="2.94541">
        <ele>155.98251342773</ele>
        <time>2016-04-13T14:22:12.000Z</time>
      </trkpt>
      <trkpt lat="47.22936" lon="2.94542">
        <ele>156.03359985352</ele>
        <time>2016-04-13T14:22:13.000Z</time>
      </trkpt>
      <trkpt lat="47.22934" lon="2.94545">
        <ele>156.07424926758</ele>
        <time>2016-04-13T14:22:15.000Z</time>
      </trkpt>
      <trkpt lat="47.22931" lon="2.94548">
        <ele>156.09178161621</ele>
        <time>2016-04-13T14:22:18.000Z</time>
      </trkpt>
      <trkpt lat="47.22928" lon="2.94551">
        <ele>156.1071472168</ele>
        <time>2016-04-13T14:22:21.000Z</time>
      </trkpt>
      <trkpt lat="47.22924" lon="2.94554">
        <ele>156.15266418457</ele>
        <time>2016-04-13T14:22:24.000Z</time>
      </trkpt>
      <trkpt lat="47.22923" lon="2.94555">
        <ele>156.19869995117</ele>
        <time>2016-04-13T14:22:26.000Z</time>
      </trkpt>
      <trkpt lat="47.22919" lon="2.94557">
        <ele>156.25498962402</ele>
        <time>2016-04-13T14:22:29.000Z</time>
      </trkpt>
      <trkpt lat="47.22917" lon="2.9456">
        <ele>156.30752563477</ele>
        <time>2016-04-13T14:22:32.000Z</time>
      </trkpt>
      <trkpt lat="47.22915" lon="2.94562">
        <ele>156.3486328125</ele>
        <time>2016-04-13T14:22:34.000Z</time>
      </trkpt>
      <trkpt lat="47.22913" lon="2.94563">
        <ele>156.35122680664</ele>
        <time>2016-04-13T14:22:37.000Z</time>
      </trkpt>
      <trkpt lat="47.22909" lon="2.94563">
        <ele>156.37344360352</ele>
        <time>2016-04-13T14:22:40.000Z</time>
      </trkpt>
      <trkpt lat="47.22905" lon="2.94565">
        <ele>156.39315795898</ele>
        <time>2016-04-13T14:22:43.000Z</time>
      </trkpt>
      <trkpt lat="47.22901" lon="2.94567">
        <ele>156.40875244141</ele>
        <time>2016-04-13T14:22:46.000Z</time>
      </trkpt>
      <trkpt lat="47.22899" lon="2.9457">
        <ele>156.41845703125</ele>
        <time>2016-04-13T14:22:49.000Z</time>
      </trkpt>
      <trkpt lat="47.22894" lon="2.94575">
        <ele>156.40805053711</ele>
        <time>2016-04-13T14:22:51.000Z</time>
      </trkpt>
      <trkpt lat="47.2289" lon="2.94578">
        <ele>156.36067199707</ele>
        <time>2016-04-13T14:22:54.000Z</time>
      </trkpt>
      <trkpt lat="47.22889" lon="2.94582">
        <ele>156.27375793457</ele>
        <time>2016-04-13T14:22:57.000Z</time>
      </trkpt>
      <trkpt lat="47.22885" lon="2.94589">
        <ele>156.15896606445</ele>
        <time>2016-04-13T14:22:59.000Z</time>
      </trkpt>
      <trkpt lat="47.22881" lon="2.94594">
        <ele>156.0364074707</ele>
        <time>2016-04-13T14:23:02.000Z</time>
      </trkpt>
      <trkpt lat="47.2288" lon="2.94596">
        <ele>155.92691040039</ele>
        <time>2016-04-13T14:23:04.000Z</time>
      </trkpt>
      <trkpt lat="47.22877" lon="2.94599">
        <ele>155.81965637207</ele>
        <time>2016-04-13T14:23:07.000Z</time>
      </trkpt>
      <trkpt lat="47.22873" lon="2.94604">
        <ele>155.72583007812</ele>
        <time>2016-04-13T14:23:10.000Z</time>
      </trkpt>
      <trkpt lat="47.2287" lon="2.94609">
        <ele>155.6416015625</ele>
        <time>2016-04-13T14:23:13.000Z</time>
      </trkpt>
      <trkpt lat="47.22867" lon="2.94613">
        <ele>155.5576171875</ele>
        <time>2016-04-13T14:23:16.000Z</time>
      </trkpt>
      <trkpt lat="47.22863" lon="2.94617">
        <ele>155.47216796875</ele>
        <time>2016-04-13T14:23:19.000Z</time>
      </trkpt>
      <trkpt lat="47.22861" lon="2.9462">
        <ele>155.39306640625</ele>
        <time>2016-04-13T14:23:22.000Z</time>
      </trkpt>
      <trkpt lat="47.22858" lon="2.94621">
        <ele>155.33959960938</ele>
        <time>2016-04-13T14:23:25.000Z</time>
      </trkpt>
      <trkpt lat="47.22855" lon="2.94622">
        <ele>155.32177734375</ele>
        <time>2016-04-13T14:23:27.000Z</time>
      </trkpt>
      <trkpt lat="47.2285" lon="2.94623">
        <ele>155.349609375</ele>
        <time>2016-04-13T14:23:30.000Z</time>
      </trkpt>
      <trkpt lat="47.22847" lon="2.94623">
        <ele>155.4169921875</ele>
        <time>2016-04-13T14:23:33.000Z</time>
      </trkpt>
      <trkpt lat="47.22844" lon="2.94623">
        <ele>155.51000976562</ele>
        <time>2016-04-13T14:23:36.000Z</time>
      </trkpt>
      <trkpt lat="47.2284" lon="2.94624">
        <ele>155.60913085938</ele>
        <time>2016-04-13T14:23:40.000Z</time>
      </trkpt>
      <trkpt lat="47.22839" lon="2.94626">
        <ele>155.6826171875</ele>
        <time>2016-04-13T14:23:41.000Z</time>
      </trkpt>
      <trkpt lat="47.22836" lon="2.94629">
        <ele>155.728515625</ele>
        <time>2016-04-13T14:23:43.000Z</time>
      </trkpt>
      <trkpt lat="47.2283" lon="2.94634">
        <ele>155.72665405273</ele>
        <time>2016-04-13T14:23:46.000Z</time>
      </trkpt>
      <trkpt lat="47.22826" lon="2.94635">
        <ele>155.70283508301</ele>
        <time>2016-04-13T14:23:51.000Z</time>
      </trkpt>
      <trkpt lat="47.22823" lon="2.94638">
        <ele>155.64457702637</ele>
        <time>2016-04-13T14:23:52.000Z</time>
      </trkpt>
      <trkpt lat="47.2282" lon="2.94641">
        <ele>155.57339477539</ele>
        <time>2016-04-13T14:23:55.000Z</time>
      </trkpt>
      <trkpt lat="47.22818" lon="2.94643">
        <ele>155.4912109375</ele>
        <time>2016-04-13T14:23:57.000Z</time>
      </trkpt>
      <trkpt lat="47.22812" lon="2.94646">
        <ele>155.41552734375</ele>
        <time>2016-04-13T14:24:00.000Z</time>
      </trkpt>
      <trkpt lat="47.2281" lon="2.94648">
        <ele>155.326171875</ele>
        <time>2016-04-13T14:24:03.000Z</time>
      </trkpt>
      <trkpt lat="47.22807" lon="2.94652">
        <ele>155.2265625</ele>
        <time>2016-04-13T14:24:06.000Z</time>
      </trkpt>
      <trkpt lat="47.22802" lon="2.94657">
        <ele>155.11279296875</ele>
        <time>2016-04-13T14:24:09.000Z</time>
      </trkpt>
      <trkpt lat="47.22799" lon="2.94658">
        <ele>155.0185546875</ele>
        <time>2016-04-13T14:24:12.000Z</time>
      </trkpt>
      <trkpt lat="47.22793" lon="2.94659">
        <ele>154.94213867188</ele>
        <time>2016-04-13T14:24:15.000Z</time>
      </trkpt>
      <trkpt lat="47.22791" lon="2.94661">
        <ele>154.86450195312</ele>
        <time>2016-04-13T14:24:17.000Z</time>
      </trkpt>
      <trkpt lat="47.22789" lon="2.94663">
        <ele>154.80151367188</ele>
        <time>2016-04-13T14:24:20.000Z</time>
      </trkpt>
      <trkpt lat="47.22787" lon="2.94665">
        <ele>154.76513671875</ele>
        <time>2016-04-13T14:24:23.000Z</time>
      </trkpt>
      <trkpt lat="47.22784" lon="2.94665">
        <ele>154.73046875</ele>
        <time>2016-04-13T14:24:25.000Z</time>
      </trkpt>
      <trkpt lat="47.22783" lon="2.94665">
        <ele>154.69677734375</ele>
        <time>2016-04-13T14:24:27.000Z</time>
      </trkpt>
      <trkpt lat="47.22776" lon="2.94666">
        <ele>154.68432617188</ele>
        <time>2016-04-13T14:24:33.000Z</time>
      </trkpt>
      <trkpt lat="47.22773" lon="2.94667">
        <ele>154.68896484375</ele>
        <time>2016-04-13T14:24:37.000Z</time>
      </trkpt>
      <trkpt lat="47.22769" lon="2.9467">
        <ele>154.68762207031</ele>
        <time>2016-04-13T14:24:43.000Z</time>
      </trkpt>
      <trkpt lat="47.22765" lon="2.94673">
        <ele>154.66049194336</ele>
        <time>2016-04-13T14:24:45.000Z</time>
      </trkpt>
      <trkpt lat="47.22759" lon="2.94677">
        <ele>154.60198974609</ele>
        <time>2016-04-13T14:24:48.000Z</time>
      </trkpt>
      <trkpt lat="47.22756" lon="2.9468">
        <ele>154.52017211914</ele>
        <time>2016-04-13T14:24:53.000Z</time>
      </trkpt>
      <trkpt lat="47.22754" lon="2.94681">
        <ele>154.43515014648</ele>
        <time>2016-04-13T14:24:54.000Z</time>
      </trkpt>
      <trkpt lat="47.22752" lon="2.94682">
        <ele>154.36013793945</ele>
        <time>2016-04-13T14:24:58.000Z</time>
      </trkpt>
      <trkpt lat="47.22748" lon="2.94685">
        <ele>154.27911376953</ele>
        <time>2016-04-13T14:25:02.000Z</time>
      </trkpt>
      <trkpt lat="47.22746" lon="2.94687">
        <ele>154.21148681641</ele>
        <time>2016-04-13T14:25:05.000Z</time>
      </trkpt>
      <trkpt lat="47.22741" lon="2.9469">
        <ele>154.13827514648</ele>
        <time>2016-04-13T14:25:08.000Z</time>
      </trkpt>
      <trkpt lat="47.22738" lon="2.94693">
        <ele>154.04797363281</ele>
        <time>2016-04-13T14:25:10.000Z</time>
      </trkpt>
      <trkpt lat="47.22736" lon="2.94694">
        <ele>153.95671081543</ele>
        <time>2016-04-13T14:25:13.000Z</time>
      </trkpt>
      <trkpt lat="47.22733" lon="2.94697">
        <ele>153.86697387695</ele>
        <time>2016-04-13T14:25:16.000Z</time>
      </trkpt>
      <trkpt lat="47.22725" lon="2.947">
        <ele>153.78343200684</ele>
        <time>2016-04-13T14:25:19.000Z</time>
      </trkpt>
      <trkpt lat="47.22718" lon="2.94703">
        <ele>153.71041870117</ele>
        <time>2016-04-13T14:25:22.000Z</time>
      </trkpt>
      <trkpt lat="47.22715" lon="2.94704">
        <ele>153.66032409668</ele>
        <time>2016-04-13T14:25:24.000Z</time>
      </trkpt>
      <trkpt lat="47.22712" lon="2.94704">
        <ele>153.62573242188</ele>
        <time>2016-04-13T14:25:27.000Z</time>
      </trkpt>
      <trkpt lat="47.22708" lon="2.94704">
        <ele>153.62091064453</ele>
        <time>2016-04-13T14:25:30.000Z</time>
      </trkpt>
      <trkpt lat="47.22705" lon="2.94704">
        <ele>153.6321105957</ele>
        <time>2016-04-13T14:25:33.000Z</time>
      </trkpt>
      <trkpt lat="47.22704" lon="2.94703">
        <ele>153.66513061523</ele>
        <time>2016-04-13T14:25:35.000Z</time>
      </trkpt>
      <trkpt lat="47.22701" lon="2.94703">
        <ele>153.69950866699</ele>
        <time>2016-04-13T14:25:38.000Z</time>
      </trkpt>
      <trkpt lat="47.22699" lon="2.94703">
        <ele>153.73043823242</ele>
        <time>2016-04-13T14:25:40.000Z</time>
      </trkpt>
      <trkpt lat="47.22697" lon="2.94704">
        <ele>153.75318908691</ele>
        <time>2016-04-13T14:25:43.000Z</time>
      </trkpt>
      <trkpt lat="47.22695" lon="2.94704">
        <ele>153.7700958252</ele>
        <time>2016-04-13T14:25:45.000Z</time>
      </trkpt>
      <trkpt lat="47.2269" lon="2.94707">
        <ele>153.77388000488</ele>
        <time>2016-04-13T14:25:48.000Z</time>
      </trkpt>
      <trkpt lat="47.22689" lon="2.94708">
        <ele>153.76861572266</ele>
        <time>2016-04-13T14:25:50.000Z</time>
      </trkpt>
      <trkpt lat="47.22683" lon="2.94712">
        <ele>153.74783325195</ele>
        <time>2016-04-13T14:25:53.000Z</time>
      </trkpt>
      <trkpt lat="47.22682" lon="2.94715">
        <ele>153.71826171875</ele>
        <time>2016-04-13T14:25:57.000Z</time>
      </trkpt>
      <trkpt lat="47.2268" lon="2.94718">
        <ele>153.67526245117</ele>
        <time>2016-04-13T14:26:00.000Z</time>
      </trkpt>
      <trkpt lat="47.22678" lon="2.94721">
        <ele>153.62796020508</ele>
        <time>2016-04-13T14:26:03.000Z</time>
      </trkpt>
      <trkpt lat="47.22676" lon="2.94722">
        <ele>153.5823059082</ele>
        <time>2016-04-13T14:26:05.000Z</time>
      </trkpt>
      <trkpt lat="47.22673" lon="2.94726">
        <ele>153.54203796387</ele>
        <time>2016-04-13T14:26:08.000Z</time>
      </trkpt>
      <trkpt lat="47.2267" lon="2.94729">
        <ele>153.50595092773</ele>
        <time>2016-04-13T14:26:11.000Z</time>
      </trkpt>
      <trkpt lat="47.22667" lon="2.94732">
        <ele>153.47915649414</ele>
        <time>2016-04-13T14:26:13.000Z</time>
      </trkpt>
      <trkpt lat="47.22665" lon="2.94734">
        <ele>153.45217895508</ele>
        <time>2016-04-13T14:26:16.000Z</time>
      </trkpt>
      <trkpt lat="47.22661" lon="2.94737">
        <ele>153.40866088867</ele>
        <time>2016-04-13T14:26:18.000Z</time>
      </trkpt>
      <trkpt lat="47.22655" lon="2.94742">
        <ele>153.34963989258</ele>
        <time>2016-04-13T14:26:22.000Z</time>
      </trkpt>
      <trkpt lat="47.22651" lon="2.94744">
        <ele>153.28776550293</ele>
        <time>2016-04-13T14:26:23.000Z</time>
      </trkpt>
      <trkpt lat="47.22648" lon="2.94748">
        <ele>153.21090698242</ele>
        <time>2016-04-13T14:26:27.000Z</time>
      </trkpt>
      <trkpt lat="47.22647" lon="2.9475">
        <ele>153.13502502441</ele>
        <time>2016-04-13T14:26:28.000Z</time>
      </trkpt>
      <trkpt lat="47.22645" lon="2.9475">
        <ele>153.07284545898</ele>
        <time>2016-04-13T14:26:31.000Z</time>
      </trkpt>
      <trkpt lat="47.22644" lon="2.94751">
        <ele>153.0301361084</ele>
        <time>2016-04-13T14:26:33.000Z</time>
      </trkpt>
      <trkpt lat="47.22643" lon="2.94751">
        <ele>152.99453735352</ele>
        <time>2016-04-13T14:26:35.000Z</time>
      </trkpt>
      <trkpt lat="47.2264" lon="2.94751">
        <ele>152.97671508789</ele>
        <time>2016-04-13T14:26:38.000Z</time>
      </trkpt>
      <trkpt lat="47.22637" lon="2.94751">
        <ele>152.96920776367</ele>
        <time>2016-04-13T14:26:40.000Z</time>
      </trkpt>
      <trkpt lat="47.22634" lon="2.94753">
        <ele>152.95529174805</ele>
        <time>2016-04-13T14:26:43.000Z</time>
      </trkpt>
      <trkpt lat="47.22633" lon="2.94753">
        <ele>152.93942260742</ele>
        <time>2016-04-13T14:26:45.000Z</time>
      </trkpt>
      <trkpt lat="47.2263" lon="2.94754">
        <ele>152.92407226562</ele>
        <time>2016-04-13T14:26:48.000Z</time>
      </trkpt>
      <trkpt lat="47.22626" lon="2.94755">
        <ele>152.90046691895</ele>
        <time>2016-04-13T14:26:50.000Z</time>
      </trkpt>
      <trkpt lat="47.22621" lon="2.94758">
        <ele>152.85990905762</ele>
        <time>2016-04-13T14:26:52.000Z</time>
      </trkpt>
      <trkpt lat="47.22615" lon="2.94764">
        <ele>152.79664611816</ele>
        <time>2016-04-13T14:26:55.000Z</time>
      </trkpt>
      <trkpt lat="47.22612" lon="2.94768">
        <ele>152.71682739258</ele>
        <time>2016-04-13T14:26:59.000Z</time>
      </trkpt>
      <trkpt lat="47.22609" lon="2.9477">
        <ele>152.6312713623</ele>
        <time>2016-04-13T14:27:01.000Z</time>
      </trkpt>
      <trkpt lat="47.22607" lon="2.94771">
        <ele>152.54513549805</ele>
        <time>2016-04-13T14:27:05.000Z</time>
      </trkpt>
      <trkpt lat="47.22605" lon="2.94772">
        <ele>152.47175598145</ele>
        <time>2016-04-13T14:27:06.000Z</time>
      </trkpt>
      <trkpt lat="47.22603" lon="2.94772">
        <ele>152.43135070801</ele>
        <time>2016-04-13T14:27:08.000Z</time>
      </trkpt>
      <trkpt lat="47.22599" lon="2.94774">
        <ele>152.4056854248</ele>
        <time>2016-04-13T14:27:11.000Z</time>
      </trkpt>
      <trkpt lat="47.22597" lon="2.94775">
        <ele>152.38563537598</ele>
        <time>2016-04-13T14:27:13.000Z</time>
      </trkpt>
      <trkpt lat="47.22594" lon="2.94777">
        <ele>152.36471557617</ele>
        <time>2016-04-13T14:27:16.000Z</time>
      </trkpt>
      <trkpt lat="47.22593" lon="2.94777">
        <ele>152.34675598145</ele>
        <time>2016-04-13T14:27:19.000Z</time>
      </trkpt>
      <trkpt lat="47.2259" lon="2.94779">
        <ele>152.32116699219</ele>
        <time>2016-04-13T14:27:22.000Z</time>
      </trkpt>
      <trkpt lat="47.22588" lon="2.94782">
        <ele>152.29208374023</ele>
        <time>2016-04-13T14:27:25.000Z</time>
      </trkpt>
      <trkpt lat="47.22585" lon="2.94784">
        <ele>152.25759887695</ele>
        <time>2016-04-13T14:27:28.000Z</time>
      </trkpt>
      <trkpt lat="47.22582" lon="2.94787">
        <ele>152.22053527832</ele>
        <time>2016-04-13T14:27:32.000Z</time>
      </trkpt>
      <trkpt lat="47.2258" lon="2.94789">
        <ele>152.1795501709</ele>
        <time>2016-04-13T14:27:33.000Z</time>
      </trkpt>
      <trkpt lat="47.22578" lon="2.94789">
        <ele>152.14958190918</ele>
        <time>2016-04-13T14:27:35.000Z</time>
      </trkpt>
      <trkpt lat="47.22575" lon="2.94791">
        <ele>152.13108825684</ele>
        <time>2016-04-13T14:27:38.000Z</time>
      </trkpt>
      <trkpt lat="47.22569" lon="2.94797">
        <ele>152.10681152344</ele>
        <time>2016-04-13T14:27:41.000Z</time>
      </trkpt>
      <trkpt lat="47.22564" lon="2.94802">
        <ele>152.07946777344</ele>
        <time>2016-04-13T14:27:44.000Z</time>
      </trkpt>
      <trkpt lat="47.2256" lon="2.94806">
        <ele>152.04467773438</ele>
        <time>2016-04-13T14:27:47.000Z</time>
      </trkpt>
      <trkpt lat="47.22558" lon="2.94808">
        <ele>152.00085449219</ele>
        <time>2016-04-13T14:27:50.000Z</time>
      </trkpt>
      <trkpt lat="47.22556" lon="2.9481">
        <ele>151.95666503906</ele>
        <time>2016-04-13T14:27:52.000Z</time>
      </trkpt>
      <trkpt lat="47.22552" lon="2.94812">
        <ele>151.92419433594</ele>
        <time>2016-04-13T14:27:55.000Z</time>
      </trkpt>
      <trkpt lat="47.22551" lon="2.94813">
        <ele>151.9033203125</ele>
        <time>2016-04-13T14:27:57.000Z</time>
      </trkpt>
      <trkpt lat="47.22548" lon="2.94815">
        <ele>151.88989257812</ele>
        <time>2016-04-13T14:28:01.000Z</time>
      </trkpt>
      <trkpt lat="47.22547" lon="2.94815">
        <ele>151.88354492188</ele>
        <time>2016-04-13T14:28:02.000Z</time>
      </trkpt>
      <trkpt lat="47.22544" lon="2.94817">
        <ele>151.87707519531</ele>
        <time>2016-04-13T14:28:06.000Z</time>
      </trkpt>
      <trkpt lat="47.22542" lon="2.94818">
        <ele>151.873046875</ele>
        <time>2016-04-13T14:28:07.000Z</time>
      </trkpt>
      <trkpt lat="47.22541" lon="2.94819">
        <ele>151.869140625</ele>
        <time>2016-04-13T14:28:09.000Z</time>
      </trkpt>
      <trkpt lat="47.22538" lon="2.94821">
        <ele>151.8662109375</ele>
        <time>2016-04-13T14:28:12.000Z</time>
      </trkpt>
      <trkpt lat="47.22536" lon="2.94822">
        <ele>151.86218261719</ele>
        <time>2016-04-13T14:28:15.000Z</time>
      </trkpt>
      <trkpt lat="47.22533" lon="2.94823">
        <ele>151.85681152344</ele>
        <time>2016-04-13T14:28:18.000Z</time>
      </trkpt>
      <trkpt lat="47.22531" lon="2.94825">
        <ele>151.84826660156</ele>
        <time>2016-04-13T14:28:20.000Z</time>
      </trkpt>
      <trkpt lat="47.22528" lon="2.94827">
        <ele>151.83630371094</ele>
        <time>2016-04-13T14:28:24.000Z</time>
      </trkpt>
      <trkpt lat="47.22526" lon="2.94829">
        <ele>151.82434082031</ele>
        <time>2016-04-13T14:28:25.000Z</time>
      </trkpt>
      <trkpt lat="47.22522" lon="2.94832">
        <ele>151.80773925781</ele>
        <time>2016-04-13T14:28:28.000Z</time>
      </trkpt>
      <trkpt lat="47.22519" lon="2.94835">
        <ele>151.79321289062</ele>
        <time>2016-04-13T14:28:31.000Z</time>
      </trkpt>
      <trkpt lat="47.22517" lon="2.94837">
        <ele>151.78840637207</ele>
        <time>2016-04-13T14:28:35.000Z</time>
      </trkpt>
      <trkpt lat="47.22515" lon="2.94838">
        <ele>151.7936706543</ele>
        <time>2016-04-13T14:28:36.000Z</time>
      </trkpt>
      <trkpt lat="47.22513" lon="2.9484">
        <ele>151.80656433105</ele>
        <time>2016-04-13T14:28:38.000Z</time>
      </trkpt>
      <trkpt lat="47.22511" lon="2.94842">
        <ele>151.82931518555</ele>
        <time>2016-04-13T14:28:41.000Z</time>
      </trkpt>
      <trkpt lat="47.22508" lon="2.94844">
        <ele>151.85749816895</ele>
        <time>2016-04-13T14:28:44.000Z</time>
      </trkpt>
      <trkpt lat="47.22505" lon="2.94846">
        <ele>151.88667297363</ele>
        <time>2016-04-13T14:28:47.000Z</time>
      </trkpt>
      <trkpt lat="47.22502" lon="2.94848">
        <ele>151.91665649414</ele>
        <time>2016-04-13T14:28:50.000Z</time>
      </trkpt>
      <trkpt lat="47.22499" lon="2.94849">
        <ele>151.95251464844</ele>
        <time>2016-04-13T14:28:53.000Z</time>
      </trkpt>
      <trkpt lat="47.22496" lon="2.9485">
        <ele>152.00764465332</ele>
        <time>2016-04-13T14:28:56.000Z</time>
      </trkpt>
      <trkpt lat="47.22493" lon="2.94853">
        <ele>152.0834197998</ele>
        <time>2016-04-13T14:28:59.000Z</time>
      </trkpt>
      <trkpt lat="47.22491" lon="2.94854">
        <ele>152.17175292969</ele>
        <time>2016-04-13T14:29:01.000Z</time>
      </trkpt>
      <trkpt lat="47.22488" lon="2.94857">
        <ele>152.27322387695</ele>
        <time>2016-04-13T14:29:03.000Z</time>
      </trkpt>
      <trkpt lat="47.22485" lon="2.94859">
        <ele>152.38882446289</ele>
        <time>2016-04-13T14:29:06.000Z</time>
      </trkpt>
      <trkpt lat="47.22483" lon="2.94861">
        <ele>152.4977722168</ele>
        <time>2016-04-13T14:29:10.000Z</time>
      </trkpt>
      <trkpt lat="47.22481" lon="2.94862">
        <ele>152.58740234375</ele>
        <time>2016-04-13T14:29:11.000Z</time>
      </trkpt>
      <trkpt lat="47.22478" lon="2.94865">
        <ele>152.67623901367</ele>
        <time>2016-04-13T14:29:15.000Z</time>
      </trkpt>
      <trkpt lat="47.22477" lon="2.94867">
        <ele>152.75675964355</ele>
        <time>2016-04-13T14:29:16.000Z</time>
      </trkpt>
      <trkpt lat="47.22475" lon="2.94868">
        <ele>152.82009887695</ele>
        <time>2016-04-13T14:29:18.000Z</time>
      </trkpt>
      <trkpt lat="47.22474" lon="2.94869">
        <ele>152.87287902832</ele>
        <time>2016-04-13T14:29:20.000Z</time>
      </trkpt>
      <trkpt lat="47.22472" lon="2.94871">
        <ele>152.93077087402</ele>
        <time>2016-04-13T14:29:22.000Z</time>
      </trkpt>
      <trkpt lat="47.2247" lon="2.94873">
        <ele>152.98446655273</ele>
        <time>2016-04-13T14:29:25.000Z</time>
      </trkpt>
      <trkpt lat="47.22467" lon="2.94875">
        <ele>153.04434204102</ele>
        <time>2016-04-13T14:29:28.000Z</time>
      </trkpt>
      <trkpt lat="47.22465" lon="2.94877">
        <ele>153.10891723633</ele>
        <time>2016-04-13T14:29:31.000Z</time>
      </trkpt>
      <trkpt lat="47.22462" lon="2.94879">
        <ele>153.17929077148</ele>
        <time>2016-04-13T14:29:33.000Z</time>
      </trkpt>
      <trkpt lat="47.22458" lon="2.94882">
        <ele>153.25743103027</ele>
        <time>2016-04-13T14:29:37.000Z</time>
      </trkpt>
      <trkpt lat="47.22456" lon="2.94884">
        <ele>153.32974243164</ele>
        <time>2016-04-13T14:29:38.000Z</time>
      </trkpt>
      <trkpt lat="47.22454" lon="2.94886">
        <ele>153.39372253418</ele>
        <time>2016-04-13T14:29:40.000Z</time>
      </trkpt>
      <trkpt lat="47.22451" lon="2.94888">
        <ele>153.45439147949</ele>
        <time>2016-04-13T14:29:43.000Z</time>
      </trkpt>
      <trkpt lat="47.22448" lon="2.94892">
        <ele>153.5185546875</ele>
        <time>2016-04-13T14:29:46.000Z</time>
      </trkpt>
      <trkpt lat="47.22445" lon="2.94893">
        <ele>153.57141113281</ele>
        <time>2016-04-13T14:29:49.000Z</time>
      </trkpt>
      <trkpt lat="47.22443" lon="2.94895">
        <ele>153.6217956543</ele>
        <time>2016-04-13T14:29:52.000Z</time>
      </trkpt>
      <trkpt lat="47.22441" lon="2.94897">
        <ele>153.67379760742</ele>
        <time>2016-04-13T14:29:54.000Z</time>
      </trkpt>
      <trkpt lat="47.22437" lon="2.94899">
        <ele>153.7290802002</ele>
        <time>2016-04-13T14:29:57.000Z</time>
      </trkpt>
      <trkpt lat="47.22434" lon="2.94901">
        <ele>153.78128051758</ele>
        <time>2016-04-13T14:30:00.000Z</time>
      </trkpt>
      <trkpt lat="47.22431" lon="2.94903">
        <ele>153.82885742188</ele>
        <time>2016-04-13T14:30:03.000Z</time>
      </trkpt>
      <trkpt lat="47.22428" lon="2.94905">
        <ele>153.88031005859</ele>
        <time>2016-04-13T14:30:06.000Z</time>
      </trkpt>
      <trkpt lat="47.22426" lon="2.94907">
        <ele>153.92263793945</ele>
        <time>2016-04-13T14:30:08.000Z</time>
      </trkpt>
      <trkpt lat="47.22423" lon="2.9491">
        <ele>153.95594787598</ele>
        <time>2016-04-13T14:30:11.000Z</time>
      </trkpt>
      <trkpt lat="47.22421" lon="2.94912">
        <ele>153.97549438477</ele>
        <time>2016-04-13T14:30:13.000Z</time>
      </trkpt>
      <trkpt lat="47.22419" lon="2.94914">
        <ele>153.99279785156</ele>
        <time>2016-04-13T14:30:15.000Z</time>
      </trkpt>
      <trkpt lat="47.22416" lon="2.94916">
        <ele>153.99969482422</ele>
        <time>2016-04-13T14:30:18.000Z</time>
      </trkpt>
      <trkpt lat="47.22412" lon="2.94919">
        <ele>153.99096679688</ele>
        <time>2016-04-13T14:30:22.000Z</time>
      </trkpt>
      <trkpt lat="47.2241" lon="2.9492">
        <ele>153.97445678711</ele>
        <time>2016-04-13T14:30:23.000Z</time>
      </trkpt>
      <trkpt lat="47.22406" lon="2.94922">
        <ele>153.94960021973</ele>
        <time>2016-04-13T14:30:27.000Z</time>
      </trkpt>
      <trkpt lat="47.22404" lon="2.94923">
        <ele>153.91493225098</ele>
        <time>2016-04-13T14:30:28.000Z</time>
      </trkpt>
      <trkpt lat="47.22402" lon="2.94925">
        <ele>153.87133789062</ele>
        <time>2016-04-13T14:30:30.000Z</time>
      </trkpt>
      <trkpt lat="47.22398" lon="2.94928">
        <ele>153.83129882812</ele>
        <time>2016-04-13T14:30:33.000Z</time>
      </trkpt>
      <trkpt lat="47.22396" lon="2.9493">
        <ele>153.78503417969</ele>
        <time>2016-04-13T14:30:36.000Z</time>
      </trkpt>
      <trkpt lat="47.22393" lon="2.94933">
        <ele>153.72985839844</ele>
        <time>2016-04-13T14:30:39.000Z</time>
      </trkpt>
      <trkpt lat="47.22391" lon="2.94935">
        <ele>153.6767578125</ele>
        <time>2016-04-13T14:30:41.000Z</time>
      </trkpt>
      <trkpt lat="47.22389" lon="2.94936">
        <ele>153.62622070312</ele>
        <time>2016-04-13T14:30:44.000Z</time>
      </trkpt>
      <trkpt lat="47.22386" lon="2.94937">
        <ele>153.58166503906</ele>
        <time>2016-04-13T14:30:47.000Z</time>
      </trkpt>
      <trkpt lat="47.22385" lon="2.94938">
        <ele>153.54382324219</ele>
        <time>2016-04-13T14:30:50.000Z</time>
      </trkpt>
      <trkpt lat="47.22382" lon="2.94939">
        <ele>153.51599121094</ele>
        <time>2016-04-13T14:30:51.000Z</time>
      </trkpt>
      <trkpt lat="47.22378" lon="2.94941">
        <ele>153.48254394531</ele>
        <time>2016-04-13T14:30:55.000Z</time>
      </trkpt>
      <trkpt lat="47.22375" lon="2.94943">
        <ele>153.44763183594</ele>
        <time>2016-04-13T14:30:56.000Z</time>
      </trkpt>
      <trkpt lat="47.22373" lon="2.94944">
        <ele>153.41259765625</ele>
        <time>2016-04-13T14:31:00.000Z</time>
      </trkpt>
      <trkpt lat="47.22371" lon="2.94946">
        <ele>153.37377929688</ele>
        <time>2016-04-13T14:31:01.000Z</time>
      </trkpt>
      <trkpt lat="47.22369" lon="2.94948">
        <ele>153.33361816406</ele>
        <time>2016-04-13T14:31:03.000Z</time>
      </trkpt>
      <trkpt lat="47.22367" lon="2.9495">
        <ele>153.29321289062</ele>
        <time>2016-04-13T14:31:06.000Z</time>
      </trkpt>
      <trkpt lat="47.22363" lon="2.94953">
        <ele>153.24780273438</ele>
        <time>2016-04-13T14:31:09.000Z</time>
      </trkpt>
      <trkpt lat="47.2236" lon="2.94954">
        <ele>153.20239257812</ele>
        <time>2016-04-13T14:31:11.000Z</time>
      </trkpt>
      <trkpt lat="47.22357" lon="2.94955">
        <ele>153.15930175781</ele>
        <time>2016-04-13T14:31:14.000Z</time>
      </trkpt>
      <trkpt lat="47.22355" lon="2.94956">
        <ele>153.11743164062</ele>
        <time>2016-04-13T14:31:16.000Z</time>
      </trkpt>
      <trkpt lat="47.22351" lon="2.94958">
        <ele>153.07958984375</ele>
        <time>2016-04-13T14:31:19.000Z</time>
      </trkpt>
      <trkpt lat="47.22349" lon="2.94958">
        <ele>153.0517578125</ele>
        <time>2016-04-13T14:31:22.000Z</time>
      </trkpt>
      <trkpt lat="47.22346" lon="2.94961">
        <ele>153.01672363281</ele>
        <time>2016-04-13T14:31:25.000Z</time>
      </trkpt>
      <trkpt lat="47.22343" lon="2.94964">
        <ele>152.97192382812</ele>
        <time>2016-04-13T14:31:28.000Z</time>
      </trkpt>
      <trkpt lat="47.22339" lon="2.94967">
        <ele>152.92138671875</ele>
        <time>2016-04-13T14:31:31.000Z</time>
      </trkpt>
      <trkpt lat="47.22337" lon="2.94968">
        <ele>152.87133789062</ele>
        <time>2016-04-13T14:31:34.000Z</time>
      </trkpt>
      <trkpt lat="47.22334" lon="2.94969">
        <ele>152.81860351562</ele>
        <time>2016-04-13T14:31:37.000Z</time>
      </trkpt>
      <trkpt lat="47.22331" lon="2.94971">
        <ele>152.78507995605</ele>
        <time>2016-04-13T14:31:39.000Z</time>
      </trkpt>
      <trkpt lat="47.22327" lon="2.94972">
        <ele>152.78028869629</ele>
        <time>2016-04-13T14:31:42.000Z</time>
      </trkpt>
      <trkpt lat="47.22324" lon="2.94973">
        <ele>152.80184936523</ele>
        <time>2016-04-13T14:31:45.000Z</time>
      </trkpt>
      <trkpt lat="47.2232" lon="2.94976">
        <ele>152.83535766602</ele>
        <time>2016-04-13T14:31:48.000Z</time>
      </trkpt>
      <trkpt lat="47.22317" lon="2.94978">
        <ele>152.87405395508</ele>
        <time>2016-04-13T14:31:51.000Z</time>
      </trkpt>
      <trkpt lat="47.22314" lon="2.94981">
        <ele>152.90301513672</ele>
        <time>2016-04-13T14:31:55.000Z</time>
      </trkpt>
      <trkpt lat="47.22311" lon="2.94983">
        <ele>152.91426086426</ele>
        <time>2016-04-13T14:31:56.000Z</time>
      </trkpt>
      <trkpt lat="47.2231" lon="2.94984">
        <ele>152.90823364258</ele>
        <time>2016-04-13T14:31:58.000Z</time>
      </trkpt>
      <trkpt lat="47.22308" lon="2.94986">
        <ele>152.89436340332</ele>
        <time>2016-04-13T14:32:01.000Z</time>
      </trkpt>
      <trkpt lat="47.22306" lon="2.94987">
        <ele>152.88339233398</ele>
        <time>2016-04-13T14:32:03.000Z</time>
      </trkpt>
      <trkpt lat="47.22302" lon="2.94988">
        <ele>152.87344360352</ele>
        <time>2016-04-13T14:32:06.000Z</time>
      </trkpt>
      <trkpt lat="47.223" lon="2.9499">
        <ele>152.86318969727</ele>
        <time>2016-04-13T14:32:08.000Z</time>
      </trkpt>
      <trkpt lat="47.22297" lon="2.94992">
        <ele>152.85075378418</ele>
        <time>2016-04-13T14:32:13.000Z</time>
      </trkpt>
      <trkpt lat="47.22296" lon="2.94993">
        <ele>152.83572387695</ele>
        <time>2016-04-13T14:32:13.000Z</time>
      </trkpt>
      <trkpt lat="47.22294" lon="2.94994">
        <ele>152.81391906738</ele>
        <time>2016-04-13T14:32:17.000Z</time>
      </trkpt>
      <trkpt lat="47.22292" lon="2.94995">
        <ele>152.79109191895</ele>
        <time>2016-04-13T14:32:18.000Z</time>
      </trkpt>
      <trkpt lat="47.22288" lon="2.94996">
        <ele>152.76765441895</ele>
        <time>2016-04-13T14:32:22.000Z</time>
      </trkpt>
      <trkpt lat="47.22285" lon="2.94998">
        <ele>152.74417114258</ele>
        <time>2016-04-13T14:32:23.000Z</time>
      </trkpt>
      <trkpt lat="47.22283" lon="2.94999">
        <ele>152.7230682373</ele>
        <time>2016-04-13T14:32:25.000Z</time>
      </trkpt>
      <trkpt lat="47.22281" lon="2.94999">
        <ele>152.70370483398</ele>
        <time>2016-04-13T14:32:28.000Z</time>
      </trkpt>
      <trkpt lat="47.22278" lon="2.95001">
        <ele>152.6849822998</ele>
        <time>2016-04-13T14:32:30.000Z</time>
      </trkpt>
      <trkpt lat="47.22276" lon="2.95003">
        <ele>152.67324829102</ele>
        <time>2016-04-13T14:32:33.000Z</time>
      </trkpt>
      <trkpt lat="47.22273" lon="2.95005">
        <ele>152.67041015625</ele>
        <time>2016-04-13T14:32:36.000Z</time>
      </trkpt>
      <trkpt lat="47.22272" lon="2.95006">
        <ele>152.67211914062</ele>
        <time>2016-04-13T14:32:38.000Z</time>
      </trkpt>
      <trkpt lat="47.2227" lon="2.95006">
        <ele>152.67984008789</ele>
        <time>2016-04-13T14:32:41.000Z</time>
      </trkpt>
      <trkpt lat="47.22267" lon="2.95006">
        <ele>152.69589233398</ele>
        <time>2016-04-13T14:32:44.000Z</time>
      </trkpt>
      <trkpt lat="47.22264" lon="2.95007">
        <ele>152.71438598633</ele>
        <time>2016-04-13T14:32:47.000Z</time>
      </trkpt>
      <trkpt lat="47.22261" lon="2.9501">
        <ele>152.73025512695</ele>
        <time>2016-04-13T14:32:50.000Z</time>
      </trkpt>
      <trkpt lat="47.22259" lon="2.95011">
        <ele>152.74772644043</ele>
        <time>2016-04-13T14:32:54.000Z</time>
      </trkpt>
      <trkpt lat="47.22257" lon="2.95012">
        <ele>152.76461791992</ele>
        <time>2016-04-13T14:32:55.000Z</time>
      </trkpt>
      <trkpt lat="47.22255" lon="2.95013">
        <ele>152.77749633789</ele>
        <time>2016-04-13T14:32:57.000Z</time>
      </trkpt>
      <trkpt lat="47.22252" lon="2.95014">
        <ele>152.7873840332</ele>
        <time>2016-04-13T14:32:59.000Z</time>
      </trkpt>
      <trkpt lat="47.2225" lon="2.95016">
        <ele>152.79858398438</ele>
        <time>2016-04-13T14:33:02.000Z</time>
      </trkpt>
      <trkpt lat="47.22246" lon="2.95018">
        <ele>152.8232421875</ele>
        <time>2016-04-13T14:33:05.000Z</time>
      </trkpt>
      <trkpt lat="47.22244" lon="2.9502">
        <ele>152.85366821289</ele>
        <time>2016-04-13T14:33:07.000Z</time>
      </trkpt>
      <trkpt lat="47.22243" lon="2.95021">
        <ele>152.88693237305</ele>
        <time>2016-04-13T14:33:09.000Z</time>
      </trkpt>
      <trkpt lat="47.22241" lon="2.95022">
        <ele>152.927734375</ele>
        <time>2016-04-13T14:33:11.000Z</time>
      </trkpt>
      <trkpt lat="47.22238" lon="2.95023">
        <ele>152.97985839844</ele>
        <time>2016-04-13T14:33:14.000Z</time>
      </trkpt>
      <trkpt lat="47.22236" lon="2.95024">
        <ele>153.02543640137</ele>
        <time>2016-04-13T14:33:16.000Z</time>
      </trkpt>
      <trkpt lat="47.22233" lon="2.95025">
        <ele>153.07815551758</ele>
        <time>2016-04-13T14:33:19.000Z</time>
      </trkpt>
      <trkpt lat="47.2223" lon="2.95026">
        <ele>153.13703918457</ele>
        <time>2016-04-13T14:33:21.000Z</time>
      </trkpt>
      <trkpt lat="47.22226" lon="2.95027">
        <ele>153.20433044434</ele>
        <time>2016-04-13T14:33:24.000Z</time>
      </trkpt>
      <trkpt lat="47.22223" lon="2.95029">
        <ele>153.26705932617</ele>
        <time>2016-04-13T14:33:27.000Z</time>
      </trkpt>
      <trkpt lat="47.22219" lon="2.9503">
        <ele>153.33605957031</ele>
        <time>2016-04-13T14:33:30.000Z</time>
      </trkpt>
      <trkpt lat="47.22216" lon="2.95031">
        <ele>153.40362548828</ele>
        <time>2016-04-13T14:33:32.000Z</time>
      </trkpt>
      <trkpt lat="47.22213" lon="2.95032">
        <ele>153.47323608398</ele>
        <time>2016-04-13T14:33:35.000Z</time>
      </trkpt>
      <trkpt lat="47.2221" lon="2.95033">
        <ele>153.53952026367</ele>
        <time>2016-04-13T14:33:38.000Z</time>
      </trkpt>
      <trkpt lat="47.22206" lon="2.95033">
        <ele>153.61437988281</ele>
        <time>2016-04-13T14:33:41.000Z</time>
      </trkpt>
      <trkpt lat="47.22202" lon="2.95034">
        <ele>153.68908691406</ele>
        <time>2016-04-13T14:33:44.000Z</time>
      </trkpt>
      <trkpt lat="47.22199" lon="2.95035">
        <ele>153.76321411133</ele>
        <time>2016-04-13T14:33:47.000Z</time>
      </trkpt>
      <trkpt lat="47.22195" lon="2.95035">
        <ele>153.84286499023</ele>
        <time>2016-04-13T14:33:50.000Z</time>
      </trkpt>
      <trkpt lat="47.22192" lon="2.95035">
        <ele>153.92129516602</ele>
        <time>2016-04-13T14:33:52.000Z</time>
      </trkpt>
      <trkpt lat="47.22189" lon="2.95037">
        <ele>153.98974609375</ele>
        <time>2016-04-13T14:33:56.000Z</time>
      </trkpt>
      <trkpt lat="47.22188" lon="2.95038">
        <ele>154.04295349121</ele>
        <time>2016-04-13T14:33:57.000Z</time>
      </trkpt>
      <trkpt lat="47.22187" lon="2.95039">
        <ele>154.08145141602</ele>
        <time>2016-04-13T14:33:59.000Z</time>
      </trkpt>
      <trkpt lat="47.22184" lon="2.9504">
        <ele>154.10990905762</ele>
        <time>2016-04-13T14:34:02.000Z</time>
      </trkpt>
      <trkpt lat="47.22182" lon="2.9504">
        <ele>154.13041687012</ele>
        <time>2016-04-13T14:34:05.000Z</time>
      </trkpt>
      <trkpt lat="47.22179" lon="2.95042">
        <ele>154.14584350586</ele>
        <time>2016-04-13T14:34:08.000Z</time>
      </trkpt>
      <trkpt lat="47.22176" lon="2.95043">
        <ele>154.16879272461</ele>
        <time>2016-04-13T14:34:11.000Z</time>
      </trkpt>
      <trkpt lat="47.22174" lon="2.95045">
        <ele>154.19146728516</ele>
        <time>2016-04-13T14:34:13.000Z</time>
      </trkpt>
      <trkpt lat="47.2217" lon="2.95047">
        <ele>154.20544433594</ele>
        <time>2016-04-13T14:34:16.000Z</time>
      </trkpt>
      <trkpt lat="47.22167" lon="2.95049">
        <ele>154.21278381348</ele>
        <time>2016-04-13T14:34:19.000Z</time>
      </trkpt>
      <trkpt lat="47.22163" lon="2.95052">
        <ele>154.24038696289</ele>
        <time>2016-04-13T14:34:22.000Z</time>
      </trkpt>
      <trkpt lat="47.2216" lon="2.95054">
        <ele>154.27604675293</ele>
        <time>2016-04-13T14:34:25.000Z</time>
      </trkpt>
      <trkpt lat="47.22158" lon="2.95055">
        <ele>154.32455444336</ele>
        <time>2016-04-13T14:34:27.000Z</time>
      </trkpt>
      <trkpt lat="47.22156" lon="2.95056">
        <ele>154.38784790039</ele>
        <time>2016-04-13T14:34:30.000Z</time>
      </trkpt>
      <trkpt lat="47.22154" lon="2.95059">
        <ele>154.45483398438</ele>
        <time>2016-04-13T14:34:32.000Z</time>
      </trkpt>
      <trkpt lat="47.22151" lon="2.95062">
        <ele>154.50715637207</ele>
        <time>2016-04-13T14:34:35.000Z</time>
      </trkpt>
      <trkpt lat="47.22149" lon="2.95063">
        <ele>154.55448913574</ele>
        <time>2016-04-13T14:34:37.000Z</time>
      </trkpt>
      <trkpt lat="47.22147" lon="2.95064">
        <ele>154.60282897949</ele>
        <time>2016-04-13T14:34:39.000Z</time>
      </trkpt>
      <trkpt lat="47.22145" lon="2.95065">
        <ele>154.64614868164</ele>
        <time>2016-04-13T14:34:42.000Z</time>
      </trkpt>
      <trkpt lat="47.22141" lon="2.95068">
        <ele>154.70411682129</ele>
        <time>2016-04-13T14:34:45.000Z</time>
      </trkpt>
      <trkpt lat="47.22139" lon="2.9507">
        <ele>154.75988769531</ele>
        <time>2016-04-13T14:34:47.000Z</time>
      </trkpt>
      <trkpt lat="47.22135" lon="2.95072">
        <ele>154.82528686523</ele>
        <time>2016-04-13T14:34:50.000Z</time>
      </trkpt>
      <trkpt lat="47.22131" lon="2.95075">
        <ele>154.88977050781</ele>
        <time>2016-04-13T14:34:53.000Z</time>
      </trkpt>
      <trkpt lat="47.22129" lon="2.95077">
        <ele>154.95317077637</ele>
        <time>2016-04-13T14:34:55.000Z</time>
      </trkpt>
      <trkpt lat="47.22126" lon="2.95081">
        <ele>154.9947052002</ele>
        <time>2016-04-13T14:34:58.000Z</time>
      </trkpt>
      <trkpt lat="47.22124" lon="2.95083">
        <ele>155.03773498535</ele>
        <time>2016-04-13T14:35:01.000Z</time>
      </trkpt>
      <trkpt lat="47.22121" lon="2.95086">
        <ele>155.06369018555</ele>
        <time>2016-04-13T14:35:04.000Z</time>
      </trkpt>
      <trkpt lat="47.22119" lon="2.95089">
        <ele>155.08642578125</ele>
        <time>2016-04-13T14:35:06.000Z</time>
      </trkpt>
      <trkpt lat="47.22117" lon="2.95091">
        <ele>155.10278320312</ele>
        <time>2016-04-13T14:35:09.000Z</time>
      </trkpt>
      <trkpt lat="47.22114" lon="2.95094">
        <ele>155.12727355957</ele>
        <time>2016-04-13T14:35:12.000Z</time>
      </trkpt>
      <trkpt lat="47.22111" lon="2.95098">
        <ele>155.1566619873</ele>
        <time>2016-04-13T14:35:15.000Z</time>
      </trkpt>
      <trkpt lat="47.22109" lon="2.951">
        <ele>155.18135070801</ele>
        <time>2016-04-13T14:35:18.000Z</time>
      </trkpt>
      <trkpt lat="47.22108" lon="2.95101">
        <ele>155.19821166992</ele>
        <time>2016-04-13T14:35:20.000Z</time>
      </trkpt>
      <trkpt lat="47.22106" lon="2.95101">
        <ele>155.23245239258</ele>
        <time>2016-04-13T14:35:23.000Z</time>
      </trkpt>
      <trkpt lat="47.22105" lon="2.95098">
        <ele>155.29434204102</ele>
        <time>2016-04-13T14:35:26.000Z</time>
      </trkpt>
      <trkpt lat="47.22105" lon="2.95098">
        <ele>155.29434204102</ele>
        <time>2016-04-13T14:35:46.000Z</time>
      </trkpt>
      <trkpt lat="47.22105" lon="2.95094">
        <ele>155.36996459961</ele>
        <time>2016-04-13T14:35:50.000Z</time>
      </trkpt>
      <trkpt lat="47.22105" lon="2.95092">
        <ele>155.45544433594</ele>
        <time>2016-04-13T14:35:57.000Z</time>
      </trkpt>
      <trkpt lat="47.22107" lon="2.9509">
        <ele>155.5472869873</ele>
        <time>2016-04-13T14:36:06.000Z</time>
      </trkpt>
      <trkpt lat="47.22108" lon="2.95087">
        <ele>155.6275177002</ele>
        <time>2016-04-13T14:36:26.000Z</time>
      </trkpt>
      <trkpt lat="47.22109" lon="2.95088">
        <ele>155.65910339355</ele>
        <time>2016-04-13T14:36:34.000Z</time>
      </trkpt>
      <trkpt lat="47.2211" lon="2.95089">
        <ele>155.65153503418</ele>
        <time>2016-04-13T14:36:38.000Z</time>
      </trkpt>
      <trkpt lat="47.2211" lon="2.9509">
        <ele>155.62145996094</ele>
        <time>2016-04-13T14:36:40.000Z</time>
      </trkpt>
      <trkpt lat="47.2211" lon="2.95093">
        <ele>155.56851196289</ele>
        <time>2016-04-13T14:36:52.000Z</time>
      </trkpt>
      <trkpt lat="47.22108" lon="2.95094">
        <ele>155.5107421875</ele>
        <time>2016-04-13T14:36:56.000Z</time>
      </trkpt>
      <trkpt lat="47.22107" lon="2.95094">
        <ele>155.48495483398</ele>
        <time>2016-04-13T14:37:02.000Z</time>
      </trkpt>
      <trkpt lat="47.22108" lon="2.95091">
        <ele>155.48764038086</ele>
        <time>2016-04-13T14:37:11.000Z</time>
      </trkpt>
      <trkpt lat="47.2211" lon="2.95086">
        <ele>155.51559448242</ele>
        <time>2016-04-13T14:37:18.000Z</time>
      </trkpt>
      <trkpt lat="47.22112" lon="2.95083">
        <ele>155.56268310547</ele>
        <time>2016-04-13T14:37:32.000Z</time>
      </trkpt>
      <trkpt lat="47.22112" lon="2.95083">
        <ele>155.56268310547</ele>
        <time>2016-04-13T14:37:52.000Z</time>
      </trkpt>
      <trkpt lat="47.22113" lon="2.95084">
        <ele>155.5856628418</ele>
        <time>2016-04-13T14:37:56.000Z</time>
      </trkpt>
      <trkpt lat="47.22113" lon="2.95084">
        <ele>155.5856628418</ele>
        <time>2016-04-13T14:38:16.000Z</time>
      </trkpt>
      <trkpt lat="47.22111" lon="2.95087">
        <ele>155.59638977051</ele>
        <time>2016-04-13T14:38:30.000Z</time>
      </trkpt>
      <trkpt lat="47.2211" lon="2.95088">
        <ele>155.59603881836</ele>
        <time>2016-04-13T14:38:33.000Z</time>
      </trkpt>
      <trkpt lat="47.2211" lon="2.95088">
        <ele>155.59603881836</ele>
        <time>2016-04-13T14:38:53.000Z</time>
      </trkpt>
      <trkpt lat="47.22107" lon="2.95093">
        <ele>155.58166503906</ele>
        <time>2016-04-13T14:39:11.000Z</time>
      </trkpt>
      <trkpt lat="47.22106" lon="2.95096">
        <ele>155.55282592773</ele>
        <time>2016-04-13T14:39:15.000Z</time>
      </trkpt>
      <trkpt lat="47.22105" lon="2.95097">
        <ele>155.54988098145</ele>
        <time>2016-04-13T14:39:23.000Z</time>
      </trkpt>
      <trkpt lat="47.22104" lon="2.95097">
        <ele>155.55368041992</ele>
        <time>2016-04-13T14:39:31.000Z</time>
      </trkpt>
      <trkpt lat="47.22102" lon="2.95097">
        <ele>155.56625366211</ele>
        <time>2016-04-13T14:39:33.000Z</time>
      </trkpt>
      <trkpt lat="47.22101" lon="2.95096">
        <ele>155.59921264648</ele>
        <time>2016-04-13T14:39:45.000Z</time>
      </trkpt>
      <trkpt lat="47.22101" lon="2.95098">
        <ele>155.63154602051</ele>
        <time>2016-04-13T14:39:52.000Z</time>
      </trkpt>
      <trkpt lat="47.22101" lon="2.95099">
        <ele>155.64572143555</ele>
        <time>2016-04-13T14:39:57.000Z</time>
      </trkpt>
      <trkpt lat="47.221" lon="2.95102">
        <ele>155.64117431641</ele>
        <time>2016-04-13T14:40:00.000Z</time>
      </trkpt>
      <trkpt lat="47.22098" lon="2.95106">
        <ele>155.61811828613</ele>
        <time>2016-04-13T14:40:03.000Z</time>
      </trkpt>
      <trkpt lat="47.22096" lon="2.9511">
        <ele>155.56860351562</ele>
        <time>2016-04-13T14:40:06.000Z</time>
      </trkpt>
      <trkpt lat="47.22094" lon="2.95111">
        <ele>155.54092407227</ele>
        <time>2016-04-13T14:40:09.000Z</time>
      </trkpt>
      <trkpt lat="47.22092" lon="2.95112">
        <ele>155.53411865234</ele>
        <time>2016-04-13T14:40:11.000Z</time>
      </trkpt>
      <trkpt lat="47.2209" lon="2.95114">
        <ele>155.54397583008</ele>
        <time>2016-04-13T14:40:14.000Z</time>
      </trkpt>
      <trkpt lat="47.22088" lon="2.95117">
        <ele>155.55960083008</ele>
        <time>2016-04-13T14:40:18.000Z</time>
      </trkpt>
      <trkpt lat="47.22085" lon="2.9512">
        <ele>155.58460998535</ele>
        <time>2016-04-13T14:40:20.000Z</time>
      </trkpt>
      <trkpt lat="47.22083" lon="2.95122">
        <ele>155.60238647461</ele>
        <time>2016-04-13T14:40:22.000Z</time>
      </trkpt>
      <trkpt lat="47.22081" lon="2.95124">
        <ele>155.59967041016</ele>
        <time>2016-04-13T14:40:24.000Z</time>
      </trkpt>
      <trkpt lat="47.22078" lon="2.95128">
        <ele>155.5666809082</ele>
        <time>2016-04-13T14:40:27.000Z</time>
      </trkpt>
      <trkpt lat="47.22076" lon="2.95132">
        <ele>155.50872802734</ele>
        <time>2016-04-13T14:40:30.000Z</time>
      </trkpt>
      <trkpt lat="47.22073" lon="2.95136">
        <ele>155.42324829102</ele>
        <time>2016-04-13T14:40:33.000Z</time>
      </trkpt>
      <trkpt lat="47.2207" lon="2.95141">
        <ele>155.30223083496</ele>
        <time>2016-04-13T14:40:36.000Z</time>
      </trkpt>
      <trkpt lat="47.22068" lon="2.95145">
        <ele>155.1669921875</ele>
        <time>2016-04-13T14:40:39.000Z</time>
      </trkpt>
      <trkpt lat="47.22067" lon="2.95147">
        <ele>155.03848266602</ele>
        <time>2016-04-13T14:40:41.000Z</time>
      </trkpt>
      <trkpt lat="47.22066" lon="2.9515">
        <ele>154.91355895996</ele>
        <time>2016-04-13T14:40:43.000Z</time>
      </trkpt>
      <trkpt lat="47.22064" lon="2.95152">
        <ele>154.80210876465</ele>
        <time>2016-04-13T14:40:46.000Z</time>
      </trkpt>
      <trkpt lat="47.22062" lon="2.95155">
        <ele>154.69714355469</ele>
        <time>2016-04-13T14:40:49.000Z</time>
      </trkpt>
      <trkpt lat="47.2206" lon="2.95158">
        <ele>154.59580993652</ele>
        <time>2016-04-13T14:40:52.000Z</time>
      </trkpt>
      <trkpt lat="47.22058" lon="2.95162">
        <ele>154.47331237793</ele>
        <time>2016-04-13T14:40:55.000Z</time>
      </trkpt>
      <trkpt lat="47.22057" lon="2.95164">
        <ele>154.35971069336</ele>
        <time>2016-04-13T14:40:57.000Z</time>
      </trkpt>
      <trkpt lat="47.22055" lon="2.95168">
        <ele>154.22705078125</ele>
        <time>2016-04-13T14:41:00.000Z</time>
      </trkpt>
      <trkpt lat="47.22053" lon="2.95171">
        <ele>154.09968566895</ele>
        <time>2016-04-13T14:41:02.000Z</time>
      </trkpt>
      <trkpt lat="47.22052" lon="2.95173">
        <ele>153.9782409668</ele>
        <time>2016-04-13T14:41:04.000Z</time>
      </trkpt>
      <trkpt lat="47.2205" lon="2.95176">
        <ele>153.87619018555</ele>
        <time>2016-04-13T14:41:07.000Z</time>
      </trkpt>
      <trkpt lat="47.22049" lon="2.95177">
        <ele>153.77478027344</ele>
        <time>2016-04-13T14:41:09.000Z</time>
      </trkpt>
      <trkpt lat="47.22046" lon="2.95182">
        <ele>153.67553710938</ele>
        <time>2016-04-13T14:41:12.000Z</time>
      </trkpt>
      <trkpt lat="47.22044" lon="2.95184">
        <ele>153.57666015625</ele>
        <time>2016-04-13T14:41:14.000Z</time>
      </trkpt>
      <trkpt lat="47.22043" lon="2.95186">
        <ele>153.48254394531</ele>
        <time>2016-04-13T14:41:16.000Z</time>
      </trkpt>
      <trkpt lat="47.22041" lon="2.9519">
        <ele>153.38311767578</ele>
        <time>2016-04-13T14:41:19.000Z</time>
      </trkpt>
      <trkpt lat="47.22039" lon="2.95193">
        <ele>153.27252197266</ele>
        <time>2016-04-13T14:41:22.000Z</time>
      </trkpt>
      <trkpt lat="47.22038" lon="2.95195">
        <ele>153.17529296875</ele>
        <time>2016-04-13T14:41:23.000Z</time>
      </trkpt>
      <trkpt lat="47.22036" lon="2.952">
        <ele>153.06433105469</ele>
        <time>2016-04-13T14:41:27.000Z</time>
      </trkpt>
      <trkpt lat="47.22034" lon="2.95204">
        <ele>152.93743896484</ele>
        <time>2016-04-13T14:41:28.000Z</time>
      </trkpt>
      <trkpt lat="47.22032" lon="2.95206">
        <ele>152.81842041016</ele>
        <time>2016-04-13T14:41:30.000Z</time>
      </trkpt>
      <trkpt lat="47.2203" lon="2.9521">
        <ele>152.69299316406</ele>
        <time>2016-04-13T14:41:33.000Z</time>
      </trkpt>
      <trkpt lat="47.22028" lon="2.95214">
        <ele>152.55804443359</ele>
        <time>2016-04-13T14:41:36.000Z</time>
      </trkpt>
      <trkpt lat="47.22026" lon="2.95218">
        <ele>152.42510986328</ele>
        <time>2016-04-13T14:41:39.000Z</time>
      </trkpt>
      <trkpt lat="47.22024" lon="2.95221">
        <ele>152.30407714844</ele>
        <time>2016-04-13T14:41:41.000Z</time>
      </trkpt>
      <trkpt lat="47.22022" lon="2.95223">
        <ele>152.17883300781</ele>
        <time>2016-04-13T14:41:45.000Z</time>
      </trkpt>
      <trkpt lat="47.22021" lon="2.95226">
        <ele>152.06622314453</ele>
        <time>2016-04-13T14:41:46.000Z</time>
      </trkpt>
      <trkpt lat="47.22018" lon="2.95231">
        <ele>151.94555664062</ele>
        <time>2016-04-13T14:41:50.000Z</time>
      </trkpt>
      <trkpt lat="47.22016" lon="2.95234">
        <ele>151.83441162109</ele>
        <time>2016-04-13T14:41:51.000Z</time>
      </trkpt>
      <trkpt lat="47.22015" lon="2.95237">
        <ele>151.71759033203</ele>
        <time>2016-04-13T14:41:53.000Z</time>
      </trkpt>
      <trkpt lat="47.22013" lon="2.9524">
        <ele>151.59857177734</ele>
        <time>2016-04-13T14:41:57.000Z</time>
      </trkpt>
      <trkpt lat="47.22012" lon="2.95242">
        <ele>151.48046875</ele>
        <time>2016-04-13T14:41:58.000Z</time>
      </trkpt>
      <trkpt lat="47.22009" lon="2.95246">
        <ele>151.37188720703</ele>
        <time>2016-04-13T14:42:01.000Z</time>
      </trkpt>
      <trkpt lat="47.22006" lon="2.95248">
        <ele>151.26531982422</ele>
        <time>2016-04-13T14:42:03.000Z</time>
      </trkpt>
      <trkpt lat="47.22004" lon="2.9525">
        <ele>151.16995239258</ele>
        <time>2016-04-13T14:42:06.000Z</time>
      </trkpt>
      <trkpt lat="47.22001" lon="2.9525">
        <ele>151.09739685059</ele>
        <time>2016-04-13T14:42:09.000Z</time>
      </trkpt>
      <trkpt lat="47.22" lon="2.95248">
        <ele>151.0549621582</ele>
        <time>2016-04-13T14:42:12.000Z</time>
      </trkpt>
      <trkpt lat="47.21999" lon="2.95246">
        <ele>151.05780029297</ele>
        <time>2016-04-13T14:42:15.000Z</time>
      </trkpt>
      <trkpt lat="47.22" lon="2.95244">
        <ele>151.09057617188</ele>
        <time>2016-04-13T14:42:17.000Z</time>
      </trkpt>
      <trkpt lat="47.21999" lon="2.95243">
        <ele>151.15071105957</ele>
        <time>2016-04-13T14:42:24.000Z</time>
      </trkpt>
      <trkpt lat="47.21997" lon="2.95243">
        <ele>151.23037719727</ele>
        <time>2016-04-13T14:42:26.000Z</time>
      </trkpt>
      <trkpt lat="47.21996" lon="2.95243">
        <ele>151.30529785156</ele>
        <time>2016-04-13T14:42:39.000Z</time>
      </trkpt>
      <trkpt lat="47.21996" lon="2.95241">
        <ele>151.3701171875</ele>
        <time>2016-04-13T14:42:42.000Z</time>
      </trkpt>
      <trkpt lat="47.21995" lon="2.95239">
        <ele>151.45710754395</ele>
        <time>2016-04-13T14:42:45.000Z</time>
      </trkpt>
      <trkpt lat="47.21993" lon="2.95237">
        <ele>151.55717468262</ele>
        <time>2016-04-13T14:42:48.000Z</time>
      </trkpt>
      <trkpt lat="47.21991" lon="2.95237">
        <ele>151.65962219238</ele>
        <time>2016-04-13T14:42:52.000Z</time>
      </trkpt>
      <trkpt lat="47.2199" lon="2.95236">
        <ele>151.76779174805</ele>
        <time>2016-04-13T14:42:53.000Z</time>
      </trkpt>
      <trkpt lat="47.21992" lon="2.95235">
        <ele>151.85678100586</ele>
        <time>2016-04-13T14:42:56.000Z</time>
      </trkpt>
      <trkpt lat="47.21996" lon="2.95229">
        <ele>151.91683959961</ele>
        <time>2016-04-13T14:42:59.000Z</time>
      </trkpt>
      <trkpt lat="47.22001" lon="2.95223">
        <ele>151.95178222656</ele>
        <time>2016-04-13T14:43:03.000Z</time>
      </trkpt>
      <trkpt lat="47.22002" lon="2.95219">
        <ele>151.99201965332</ele>
        <time>2016-04-13T14:43:04.000Z</time>
      </trkpt>
      <trkpt lat="47.22001" lon="2.95212">
        <ele>152.06922912598</ele>
        <time>2016-04-13T14:43:07.000Z</time>
      </trkpt>
      <trkpt lat="47.21998" lon="2.95207">
        <ele>152.21221923828</ele>
        <time>2016-04-13T14:43:10.000Z</time>
      </trkpt>
      <trkpt lat="47.21997" lon="2.95204">
        <ele>152.38668823242</ele>
        <time>2016-04-13T14:43:12.000Z</time>
      </trkpt>
      <trkpt lat="47.21994" lon="2.95201">
        <ele>152.61186218262</ele>
        <time>2016-04-13T14:43:14.000Z</time>
      </trkpt>
      <trkpt lat="47.21991" lon="2.95199">
        <ele>152.85330200195</ele>
        <time>2016-04-13T14:43:16.000Z</time>
      </trkpt>
      <trkpt lat="47.21988" lon="2.95196">
        <ele>153.09892272949</ele>
        <time>2016-04-13T14:43:20.000Z</time>
      </trkpt>
      <trkpt lat="47.21986" lon="2.95195">
        <ele>153.3186340332</ele>
        <time>2016-04-13T14:43:21.000Z</time>
      </trkpt>
      <trkpt lat="47.21984" lon="2.95193">
        <ele>153.54231262207</ele>
        <time>2016-04-13T14:43:23.000Z</time>
      </trkpt>
      <trkpt lat="47.21982" lon="2.95191">
        <ele>153.75177001953</ele>
        <time>2016-04-13T14:43:26.000Z</time>
      </trkpt>
      <trkpt lat="47.21981" lon="2.9519">
        <ele>153.93417358398</ele>
        <time>2016-04-13T14:43:28.000Z</time>
      </trkpt>
      <trkpt lat="47.21978" lon="2.95191">
        <ele>154.08920288086</ele>
        <time>2016-04-13T14:43:31.000Z</time>
      </trkpt>
      <trkpt lat="47.21977" lon="2.95193">
        <ele>154.20797729492</ele>
        <time>2016-04-13T14:43:33.000Z</time>
      </trkpt>
      <trkpt lat="47.21976" lon="2.95195">
        <ele>154.28106689453</ele>
        <time>2016-04-13T14:43:35.000Z</time>
      </trkpt>
      <trkpt lat="47.21975" lon="2.95198">
        <ele>154.30380249023</ele>
        <time>2016-04-13T14:43:37.000Z</time>
      </trkpt>
      <trkpt lat="47.21974" lon="2.95202">
        <ele>154.29228210449</ele>
        <time>2016-04-13T14:43:40.000Z</time>
      </trkpt>
      <trkpt lat="47.21973" lon="2.95203">
        <ele>154.25190734863</ele>
        <time>2016-04-13T14:43:42.000Z</time>
      </trkpt>
      <trkpt lat="47.21972" lon="2.95207">
        <ele>154.20381164551</ele>
        <time>2016-04-13T14:43:45.000Z</time>
      </trkpt>
      <trkpt lat="47.2197" lon="2.95211">
        <ele>154.1393737793</ele>
        <time>2016-04-13T14:43:48.000Z</time>
      </trkpt>
      <trkpt lat="47.21968" lon="2.95215">
        <ele>154.0708770752</ele>
        <time>2016-04-13T14:43:51.000Z</time>
      </trkpt>
      <trkpt lat="47.21967" lon="2.95219">
        <ele>154.00405883789</ele>
        <time>2016-04-13T14:43:54.000Z</time>
      </trkpt>
      <trkpt lat="47.21965" lon="2.95223">
        <ele>153.92492675781</ele>
        <time>2016-04-13T14:43:57.000Z</time>
      </trkpt>
      <trkpt lat="47.21963" lon="2.95229">
        <ele>153.83740234375</ele>
        <time>2016-04-13T14:44:01.000Z</time>
      </trkpt>
      <trkpt lat="47.21962" lon="2.95233">
        <ele>153.74449157715</ele>
        <time>2016-04-13T14:44:02.000Z</time>
      </trkpt>
      <trkpt lat="47.21962" lon="2.95237">
        <ele>153.63131713867</ele>
        <time>2016-04-13T14:44:04.000Z</time>
      </trkpt>
      <trkpt lat="47.21961" lon="2.95241">
        <ele>153.51382446289</ele>
        <time>2016-04-13T14:44:07.000Z</time>
      </trkpt>
      <trkpt lat="47.2196" lon="2.95243">
        <ele>153.39709472656</ele>
        <time>2016-04-13T14:44:10.000Z</time>
      </trkpt>
      <trkpt lat="47.21959" lon="2.95248">
        <ele>153.28137207031</ele>
        <time>2016-04-13T14:44:12.000Z</time>
      </trkpt>
      <trkpt lat="47.21957" lon="2.9525">
        <ele>153.19091796875</ele>
        <time>2016-04-13T14:44:16.000Z</time>
      </trkpt>
      <trkpt lat="47.21956" lon="2.95252">
        <ele>153.13090515137</ele>
        <time>2016-04-13T14:44:17.000Z</time>
      </trkpt>
      <trkpt lat="47.21955" lon="2.95255">
        <ele>153.0912322998</ele>
        <time>2016-04-13T14:44:19.000Z</time>
      </trkpt>
      <trkpt lat="47.21953" lon="2.9526">
        <ele>153.06791687012</ele>
        <time>2016-04-13T14:44:22.000Z</time>
      </trkpt>
      <trkpt lat="47.21951" lon="2.95264">
        <ele>153.06619262695</ele>
        <time>2016-04-13T14:44:24.000Z</time>
      </trkpt>
      <trkpt lat="47.21949" lon="2.95268">
        <ele>153.07650756836</ele>
        <time>2016-04-13T14:44:27.000Z</time>
      </trkpt>
      <trkpt lat="47.21945" lon="2.9527">
        <ele>153.11581420898</ele>
        <time>2016-04-13T14:44:30.000Z</time>
      </trkpt>
      <trkpt lat="47.21942" lon="2.95272">
        <ele>153.17279052734</ele>
        <time>2016-04-13T14:44:34.000Z</time>
      </trkpt>
      <trkpt lat="47.21939" lon="2.95272">
        <ele>153.2550201416</ele>
        <time>2016-04-13T14:44:35.000Z</time>
      </trkpt>
      <trkpt lat="47.21931" lon="2.9527">
        <ele>153.41613769531</ele>
        <time>2016-04-13T14:44:38.000Z</time>
      </trkpt>
      <trkpt lat="47.21929" lon="2.95269">
        <ele>153.59106445312</ele>
        <time>2016-04-13T14:44:40.000Z</time>
      </trkpt>
      <trkpt lat="47.21924" lon="2.95264">
        <ele>153.80439758301</ele>
        <time>2016-04-13T14:44:43.000Z</time>
      </trkpt>
      <trkpt lat="47.21921" lon="2.9526">
        <ele>154.05433654785</ele>
        <time>2016-04-13T14:44:45.000Z</time>
      </trkpt>
      <trkpt lat="47.21917" lon="2.95255">
        <ele>154.3258972168</ele>
        <time>2016-04-13T14:44:49.000Z</time>
      </trkpt>
      <trkpt lat="47.21915" lon="2.95251">
        <ele>154.5553894043</ele>
        <time>2016-04-13T14:44:51.000Z</time>
      </trkpt>
      <trkpt lat="47.21913" lon="2.95248">
        <ele>154.8017578125</ele>
        <time>2016-04-13T14:44:53.000Z</time>
      </trkpt>
      <trkpt lat="47.2191" lon="2.95242">
        <ele>155.05767822266</ele>
        <time>2016-04-13T14:44:56.000Z</time>
      </trkpt>
      <trkpt lat="47.21908" lon="2.95238">
        <ele>155.31355285645</ele>
        <time>2016-04-13T14:44:59.000Z</time>
      </trkpt>
      <trkpt lat="47.21906" lon="2.95236">
        <ele>155.54563903809</ele>
        <time>2016-04-13T14:45:01.000Z</time>
      </trkpt>
      <trkpt lat="47.21905" lon="2.95235">
        <ele>155.76502990723</ele>
        <time>2016-04-13T14:45:03.000Z</time>
      </trkpt>
      <trkpt lat="47.21899" lon="2.95228">
        <ele>156.04527282715</ele>
        <time>2016-04-13T14:45:07.000Z</time>
      </trkpt>
      <trkpt lat="47.21896" lon="2.95225">
        <ele>156.30097961426</ele>
        <time>2016-04-13T14:45:08.000Z</time>
      </trkpt>
      <trkpt lat="47.21892" lon="2.95221">
        <ele>156.56135559082</ele>
        <time>2016-04-13T14:45:12.000Z</time>
      </trkpt>
      <trkpt lat="47.2189" lon="2.9522">
        <ele>156.81900024414</ele>
        <time>2016-04-13T14:45:13.000Z</time>
      </trkpt>
      <trkpt lat="47.21889" lon="2.95216">
        <ele>157.08570861816</ele>
        <time>2016-04-13T14:45:15.000Z</time>
      </trkpt>
      <trkpt lat="47.21886" lon="2.95212">
        <ele>157.30990600586</ele>
        <time>2016-04-13T14:45:19.000Z</time>
      </trkpt>
      <trkpt lat="47.21885" lon="2.9521">
        <ele>157.51097106934</ele>
        <time>2016-04-13T14:45:20.000Z</time>
      </trkpt>
      <trkpt lat="47.21883" lon="2.95208">
        <ele>157.67932128906</ele>
        <time>2016-04-13T14:45:22.000Z</time>
      </trkpt>
      <trkpt lat="47.2188" lon="2.95204">
        <ele>157.88107299805</ele>
        <time>2016-04-13T14:45:25.000Z</time>
      </trkpt>
      <trkpt lat="47.21878" lon="2.95203">
        <ele>158.06469726562</ele>
        <time>2016-04-13T14:45:27.000Z</time>
      </trkpt>
      <trkpt lat="47.21874" lon="2.95202">
        <ele>158.21841430664</ele>
        <time>2016-04-13T14:45:30.000Z</time>
      </trkpt>
      <trkpt lat="47.21873" lon="2.95203">
        <ele>158.35049438477</ele>
        <time>2016-04-13T14:45:32.000Z</time>
      </trkpt>
      <trkpt lat="47.2187" lon="2.95203">
        <ele>158.47607421875</ele>
        <time>2016-04-13T14:45:36.000Z</time>
      </trkpt>
      <trkpt lat="47.21869" lon="2.95204">
        <ele>158.5419921875</ele>
        <time>2016-04-13T14:45:37.000Z</time>
      </trkpt>
      <trkpt lat="47.21867" lon="2.95205">
        <ele>158.5927734375</ele>
        <time>2016-04-13T14:45:39.000Z</time>
      </trkpt>
      <trkpt lat="47.21864" lon="2.95208">
        <ele>158.60731506348</ele>
        <time>2016-04-13T14:45:42.000Z</time>
      </trkpt>
      <trkpt lat="47.21861" lon="2.95212">
        <ele>158.60580444336</ele>
        <time>2016-04-13T14:45:45.000Z</time>
      </trkpt>
      <trkpt lat="47.21859" lon="2.95216">
        <ele>158.56452941895</ele>
        <time>2016-04-13T14:45:49.000Z</time>
      </trkpt>
      <trkpt lat="47.21857" lon="2.95219">
        <ele>158.51126098633</ele>
        <time>2016-04-13T14:45:50.000Z</time>
      </trkpt>
      <trkpt lat="47.21855" lon="2.95221">
        <ele>158.45626831055</ele>
        <time>2016-04-13T14:45:53.000Z</time>
      </trkpt>
      <trkpt lat="47.21852" lon="2.95222">
        <ele>158.41586303711</ele>
        <time>2016-04-13T14:45:55.000Z</time>
      </trkpt>
      <trkpt lat="47.21849" lon="2.95225">
        <ele>158.38851928711</ele>
        <time>2016-04-13T14:45:59.000Z</time>
      </trkpt>
      <trkpt lat="47.21847" lon="2.95227">
        <ele>158.3777923584</ele>
        <time>2016-04-13T14:46:00.000Z</time>
      </trkpt>
      <trkpt lat="47.21846" lon="2.9523">
        <ele>158.36430358887</ele>
        <time>2016-04-13T14:46:02.000Z</time>
      </trkpt>
      <trkpt lat="47.21844" lon="2.95233">
        <ele>158.33961486816</ele>
        <time>2016-04-13T14:46:05.000Z</time>
      </trkpt>
      <trkpt lat="47.21843" lon="2.95236">
        <ele>158.29594421387</ele>
        <time>2016-04-13T14:46:07.000Z</time>
      </trkpt>
      <trkpt lat="47.2184" lon="2.95239">
        <ele>158.25</ele>
        <time>2016-04-13T14:46:10.000Z</time>
      </trkpt>
      <trkpt lat="47.21836" lon="2.95239">
        <ele>158.23532104492</ele>
        <time>2016-04-13T14:46:13.000Z</time>
      </trkpt>
      <trkpt lat="47.21833" lon="2.9524">
        <ele>158.24467468262</ele>
        <time>2016-04-13T14:46:16.000Z</time>
      </trkpt>
      <trkpt lat="47.2183" lon="2.95242">
        <ele>158.29293823242</ele>
        <time>2016-04-13T14:46:19.000Z</time>
      </trkpt>
      <trkpt lat="47.21829" lon="2.95243">
        <ele>158.35746765137</ele>
        <time>2016-04-13T14:46:21.000Z</time>
      </trkpt>
      <trkpt lat="47.21827" lon="2.95244">
        <ele>158.43605041504</ele>
        <time>2016-04-13T14:46:23.000Z</time>
      </trkpt>
      <trkpt lat="47.21825" lon="2.95246">
        <ele>158.50283813477</ele>
        <time>2016-04-13T14:46:26.000Z</time>
      </trkpt>
      <trkpt lat="47.21823" lon="2.95248">
        <ele>158.57315063477</ele>
        <time>2016-04-13T14:46:28.000Z</time>
      </trkpt>
      <trkpt lat="47.21821" lon="2.95249">
        <ele>158.62632751465</ele>
        <time>2016-04-13T14:46:30.000Z</time>
      </trkpt>
      <trkpt lat="47.21819" lon="2.95251">
        <ele>158.70223999023</ele>
        <time>2016-04-13T14:46:33.000Z</time>
      </trkpt>
      <trkpt lat="47.21817" lon="2.95252">
        <ele>158.77597045898</ele>
        <time>2016-04-13T14:46:35.000Z</time>
      </trkpt>
      <trkpt lat="47.21814" lon="2.95257">
        <ele>158.84870910645</ele>
        <time>2016-04-13T14:46:38.000Z</time>
      </trkpt>
      <trkpt lat="47.21812" lon="2.9526">
        <ele>158.91288757324</ele>
        <time>2016-04-13T14:46:40.000Z</time>
      </trkpt>
      <trkpt lat="47.2181" lon="2.95264">
        <ele>158.9651184082</ele>
        <time>2016-04-13T14:46:43.000Z</time>
      </trkpt>
      <trkpt lat="47.21809" lon="2.95267">
        <ele>158.99240112305</ele>
        <time>2016-04-13T14:46:46.000Z</time>
      </trkpt>
      <trkpt lat="47.21806" lon="2.95272">
        <ele>159.00961303711</ele>
        <time>2016-04-13T14:46:49.000Z</time>
      </trkpt>
      <trkpt lat="47.21804" lon="2.95276">
        <ele>159.00993347168</ele>
        <time>2016-04-13T14:46:52.000Z</time>
      </trkpt>
      <trkpt lat="47.21802" lon="2.95277">
        <ele>159.03048706055</ele>
        <time>2016-04-13T14:46:54.000Z</time>
      </trkpt>
      <trkpt lat="47.21798" lon="2.95279">
        <ele>159.08068847656</ele>
        <time>2016-04-13T14:46:57.000Z</time>
      </trkpt>
      <trkpt lat="47.21797" lon="2.95281">
        <ele>159.13705444336</ele>
        <time>2016-04-13T14:46:59.000Z</time>
      </trkpt>
      <trkpt lat="47.21794" lon="2.95284">
        <ele>159.20338439941</ele>
        <time>2016-04-13T14:47:02.000Z</time>
      </trkpt>
      <trkpt lat="47.21793" lon="2.95286">
        <ele>159.27224731445</ele>
        <time>2016-04-13T14:47:04.000Z</time>
      </trkpt>
      <trkpt lat="47.21791" lon="2.95288">
        <ele>159.32974243164</ele>
        <time>2016-04-13T14:47:06.000Z</time>
      </trkpt>
      <trkpt lat="47.21787" lon="2.9529">
        <ele>159.3902130127</ele>
        <time>2016-04-13T14:47:10.000Z</time>
      </trkpt>
      <trkpt lat="47.21786" lon="2.9529">
        <ele>159.45449829102</ele>
        <time>2016-04-13T14:47:11.000Z</time>
      </trkpt>
      <trkpt lat="47.21784" lon="2.95287">
        <ele>159.5418548584</ele>
        <time>2016-04-13T14:47:15.000Z</time>
      </trkpt>
      <trkpt lat="47.21783" lon="2.95285">
        <ele>159.65371704102</ele>
        <time>2016-04-13T14:47:16.000Z</time>
      </trkpt>
      <trkpt lat="47.21783" lon="2.95282">
        <ele>159.77163696289</ele>
        <time>2016-04-13T14:47:18.000Z</time>
      </trkpt>
      <trkpt lat="47.21783" lon="2.95278">
        <ele>159.8860168457</ele>
        <time>2016-04-13T14:47:21.000Z</time>
      </trkpt>
      <trkpt lat="47.21782" lon="2.95277">
        <ele>160.01486206055</ele>
        <time>2016-04-13T14:47:24.000Z</time>
      </trkpt>
      <trkpt lat="47.2178" lon="2.95273">
        <ele>160.14419555664</ele>
        <time>2016-04-13T14:47:28.000Z</time>
      </trkpt>
      <trkpt lat="47.21779" lon="2.9527">
        <ele>160.29055786133</ele>
        <time>2016-04-13T14:47:30.000Z</time>
      </trkpt>
      <trkpt lat="47.21778" lon="2.95267">
        <ele>160.45053100586</ele>
        <time>2016-04-13T14:47:33.000Z</time>
      </trkpt>
      <trkpt lat="47.21779" lon="2.95266">
        <ele>160.57292175293</ele>
        <time>2016-04-13T14:47:41.000Z</time>
      </trkpt>
      <trkpt lat="47.21776" lon="2.95262">
        <ele>160.73596191406</ele>
        <time>2016-04-13T14:47:45.000Z</time>
      </trkpt>
      <trkpt lat="47.21773" lon="2.95258">
        <ele>160.92471313477</ele>
        <time>2016-04-13T14:47:49.000Z</time>
      </trkpt>
      <trkpt lat="47.21771" lon="2.95257">
        <ele>161.09370422363</ele>
        <time>2016-04-13T14:47:50.000Z</time>
      </trkpt>
      <trkpt lat="47.2177" lon="2.95255">
        <ele>161.26052856445</ele>
        <time>2016-04-13T14:47:51.000Z</time>
      </trkpt>
      <trkpt lat="47.21768" lon="2.95252">
        <ele>161.48207092285</ele>
        <time>2016-04-13T14:47:55.000Z</time>
      </trkpt>
      <trkpt lat="47.21766" lon="2.95248">
        <ele>161.68412780762</ele>
        <time>2016-04-13T14:47:56.000Z</time>
      </trkpt>
      <trkpt lat="47.21764" lon="2.95244">
        <ele>161.84945678711</ele>
        <time>2016-04-13T14:48:01.000Z</time>
      </trkpt>
      <trkpt lat="47.21762" lon="2.95241">
        <ele>162.01489257812</ele>
        <time>2016-04-13T14:48:01.000Z</time>
      </trkpt>
      <trkpt lat="47.21761" lon="2.95238">
        <ele>162.1722869873</ele>
        <time>2016-04-13T14:48:02.000Z</time>
      </trkpt>
      <trkpt lat="47.21758" lon="2.95233">
        <ele>162.3148651123</ele>
        <time>2016-04-13T14:48:05.000Z</time>
      </trkpt>
      <trkpt lat="47.21755" lon="2.95228">
        <ele>162.44412231445</ele>
        <time>2016-04-13T14:48:09.000Z</time>
      </trkpt>
      <trkpt lat="47.21753" lon="2.95223">
        <ele>162.57223510742</ele>
        <time>2016-04-13T14:48:11.000Z</time>
      </trkpt>
      <trkpt lat="47.21754" lon="2.9522">
        <ele>162.67102050781</ele>
        <time>2016-04-13T14:48:14.000Z</time>
      </trkpt>
      <trkpt lat="47.21754" lon="2.95219">
        <ele>162.74540710449</ele>
        <time>2016-04-13T14:48:34.000Z</time>
      </trkpt>
      <trkpt lat="47.21754" lon="2.95218">
        <ele>162.79769897461</ele>
        <time>2016-04-13T14:48:43.000Z</time>
      </trkpt>
      <trkpt lat="47.21753" lon="2.95218">
        <ele>162.82856750488</ele>
        <time>2016-04-13T14:48:56.000Z</time>
      </trkpt>
      <trkpt lat="47.21751" lon="2.95215">
        <ele>162.8563079834</ele>
        <time>2016-04-13T14:49:01.000Z</time>
      </trkpt>
      <trkpt lat="47.21749" lon="2.95214">
        <ele>162.8980255127</ele>
        <time>2016-04-13T14:49:03.000Z</time>
      </trkpt>
      <trkpt lat="47.21746" lon="2.95209">
        <ele>162.95472717285</ele>
        <time>2016-04-13T14:49:04.000Z</time>
      </trkpt>
      <trkpt lat="47.21743" lon="2.95202">
        <ele>163.01657104492</ele>
        <time>2016-04-13T14:49:08.000Z</time>
      </trkpt>
      <trkpt lat="47.2174" lon="2.95199">
        <ele>163.07731628418</ele>
        <time>2016-04-13T14:49:09.000Z</time>
      </trkpt>
      <trkpt lat="47.21737" lon="2.95192">
        <ele>163.13273620605</ele>
        <time>2016-04-13T14:49:12.000Z</time>
      </trkpt>
      <trkpt lat="47.21733" lon="2.95185">
        <ele>163.20286560059</ele>
        <time>2016-04-13T14:49:15.000Z</time>
      </trkpt>
      <trkpt lat="47.21729" lon="2.95179">
        <ele>163.28433227539</ele>
        <time>2016-04-13T14:49:19.000Z</time>
      </trkpt>
      <trkpt lat="47.21725" lon="2.95173">
        <ele>163.3712310791</ele>
        <time>2016-04-13T14:49:20.000Z</time>
      </trkpt>
      <trkpt lat="47.21722" lon="2.95168">
        <ele>163.46694946289</ele>
        <time>2016-04-13T14:49:22.000Z</time>
      </trkpt>
      <trkpt lat="47.21717" lon="2.95161">
        <ele>163.54838562012</ele>
        <time>2016-04-13T14:49:25.000Z</time>
      </trkpt>
      <trkpt lat="47.21713" lon="2.95156">
        <ele>163.60200500488</ele>
        <time>2016-04-13T14:49:27.000Z</time>
      </trkpt>
      <trkpt lat="47.21711" lon="2.95152">
        <ele>163.62124633789</ele>
        <time>2016-04-13T14:49:29.000Z</time>
      </trkpt>
      <trkpt lat="47.21709" lon="2.95148">
        <ele>163.61283874512</ele>
        <time>2016-04-13T14:49:31.000Z</time>
      </trkpt>
      <trkpt lat="47.21706" lon="2.95141">
        <ele>163.56799316406</ele>
        <time>2016-04-13T14:49:35.000Z</time>
      </trkpt>
      <trkpt lat="47.21702" lon="2.95135">
        <ele>163.51586914062</ele>
        <time>2016-04-13T14:49:37.000Z</time>
      </trkpt>
      <trkpt lat="47.21697" lon="2.9513">
        <ele>163.46716308594</ele>
        <time>2016-04-13T14:49:40.000Z</time>
      </trkpt>
      <trkpt lat="47.21695" lon="2.95127">
        <ele>163.42590332031</ele>
        <time>2016-04-13T14:49:42.000Z</time>
      </trkpt>
      <trkpt lat="47.21692" lon="2.95121">
        <ele>163.38171386719</ele>
        <time>2016-04-13T14:49:46.000Z</time>
      </trkpt>
      <trkpt lat="47.2169" lon="2.95119">
        <ele>163.35424804688</ele>
        <time>2016-04-13T14:49:47.000Z</time>
      </trkpt>
      <trkpt lat="47.21687" lon="2.9512">
        <ele>163.349609375</ele>
        <time>2016-04-13T14:49:50.000Z</time>
      </trkpt>
      <trkpt lat="47.21685" lon="2.95122">
        <ele>163.36694335938</ele>
        <time>2016-04-13T14:49:53.000Z</time>
      </trkpt>
      <trkpt lat="47.21683" lon="2.95125">
        <ele>163.41320800781</ele>
        <time>2016-04-13T14:49:57.000Z</time>
      </trkpt>
      <trkpt lat="47.21682" lon="2.95127">
        <ele>163.4873046875</ele>
        <time>2016-04-13T14:49:58.000Z</time>
      </trkpt>
      <trkpt lat="47.2168" lon="2.95129">
        <ele>163.58032226562</ele>
        <time>2016-04-13T14:50:00.000Z</time>
      </trkpt>
      <trkpt lat="47.21678" lon="2.95131">
        <ele>163.68115234375</ele>
        <time>2016-04-13T14:50:02.000Z</time>
      </trkpt>
      <trkpt lat="47.21673" lon="2.95135">
        <ele>163.80432128906</ele>
        <time>2016-04-13T14:50:05.000Z</time>
      </trkpt>
      <trkpt lat="47.21668" lon="2.95139">
        <ele>163.943359375</ele>
        <time>2016-04-13T14:50:08.000Z</time>
      </trkpt>
      <trkpt lat="47.21664" lon="2.95142">
        <ele>164.0969543457</ele>
        <time>2016-04-13T14:50:11.000Z</time>
      </trkpt>
      <trkpt lat="47.21661" lon="2.95145">
        <ele>164.25717163086</ele>
        <time>2016-04-13T14:50:14.000Z</time>
      </trkpt>
      <trkpt lat="47.21659" lon="2.95148">
        <ele>164.41212463379</ele>
        <time>2016-04-13T14:50:16.000Z</time>
      </trkpt>
      <trkpt lat="47.21657" lon="2.95152">
        <ele>164.55102539062</ele>
        <time>2016-04-13T14:50:20.000Z</time>
      </trkpt>
      <trkpt lat="47.21656" lon="2.95154">
        <ele>164.6623840332</ele>
        <time>2016-04-13T14:50:21.000Z</time>
      </trkpt>
      <trkpt lat="47.21654" lon="2.95156">
        <ele>164.75639343262</ele>
        <time>2016-04-13T14:50:23.000Z</time>
      </trkpt>
      <trkpt lat="47.2165" lon="2.95159">
        <ele>164.84982299805</ele>
        <time>2016-04-13T14:50:26.000Z</time>
      </trkpt>
      <trkpt lat="47.21648" lon="2.95162">
        <ele>164.94161987305</ele>
        <time>2016-04-13T14:50:28.000Z</time>
      </trkpt>
      <trkpt lat="47.21645" lon="2.95165">
        <ele>165.03067016602</ele>
        <time>2016-04-13T14:50:32.000Z</time>
      </trkpt>
      <trkpt lat="47.21642" lon="2.95167">
        <ele>165.11929321289</ele>
        <time>2016-04-13T14:50:33.000Z</time>
      </trkpt>
      <trkpt lat="47.2164" lon="2.95169">
        <ele>165.19602966309</ele>
        <time>2016-04-13T14:50:35.000Z</time>
      </trkpt>
      <trkpt lat="47.21637" lon="2.95173">
        <ele>165.25175476074</ele>
        <time>2016-04-13T14:50:38.000Z</time>
      </trkpt>
      <trkpt lat="47.21633" lon="2.95176">
        <ele>165.29653930664</ele>
        <time>2016-04-13T14:50:42.000Z</time>
      </trkpt>
      <trkpt lat="47.2163" lon="2.95178">
        <ele>165.32356262207</ele>
        <time>2016-04-13T14:50:43.000Z</time>
      </trkpt>
      <trkpt lat="47.21628" lon="2.9518">
        <ele>165.3404083252</ele>
        <time>2016-04-13T14:50:45.000Z</time>
      </trkpt>
      <trkpt lat="47.21625" lon="2.95183">
        <ele>165.36128234863</ele>
        <time>2016-04-13T14:50:48.000Z</time>
      </trkpt>
      <trkpt lat="47.21623" lon="2.95185">
        <ele>165.38273620605</ele>
        <time>2016-04-13T14:50:50.000Z</time>
      </trkpt>
      <trkpt lat="47.2162" lon="2.95187">
        <ele>165.40585327148</ele>
        <time>2016-04-13T14:50:53.000Z</time>
      </trkpt>
      <trkpt lat="47.21617" lon="2.95188">
        <ele>165.43081665039</ele>
        <time>2016-04-13T14:50:55.000Z</time>
      </trkpt>
      <trkpt lat="47.21613" lon="2.95192">
        <ele>165.46130371094</ele>
        <time>2016-04-13T14:50:59.000Z</time>
      </trkpt>
      <trkpt lat="47.21612" lon="2.95193">
        <ele>165.49040222168</ele>
        <time>2016-04-13T14:51:00.000Z</time>
      </trkpt>
      <trkpt lat="47.21611" lon="2.95195">
        <ele>165.51826477051</ele>
        <time>2016-04-13T14:51:02.000Z</time>
      </trkpt>
      <trkpt lat="47.21608" lon="2.952">
        <ele>165.54281616211</ele>
        <time>2016-04-13T14:51:05.000Z</time>
      </trkpt>
      <trkpt lat="47.21606" lon="2.95203">
        <ele>165.56550598145</ele>
        <time>2016-04-13T14:51:08.000Z</time>
      </trkpt>
      <trkpt lat="47.21604" lon="2.95207">
        <ele>165.58692932129</ele>
        <time>2016-04-13T14:51:11.000Z</time>
      </trkpt>
      <trkpt lat="47.21602" lon="2.95209">
        <ele>165.60958862305</ele>
        <time>2016-04-13T14:51:13.000Z</time>
      </trkpt>
      <trkpt lat="47.21599" lon="2.95211">
        <ele>165.63891601562</ele>
        <time>2016-04-13T14:51:16.000Z</time>
      </trkpt>
      <trkpt lat="47.21597" lon="2.95214">
        <ele>165.67300415039</ele>
        <time>2016-04-13T14:51:19.000Z</time>
      </trkpt>
      <trkpt lat="47.21594" lon="2.95216">
        <ele>165.71054077148</ele>
        <time>2016-04-13T14:51:21.000Z</time>
      </trkpt>
      <trkpt lat="47.21592" lon="2.95219">
        <ele>165.74971008301</ele>
        <time>2016-04-13T14:51:24.000Z</time>
      </trkpt>
      <trkpt lat="47.21589" lon="2.95221">
        <ele>165.79470825195</ele>
        <time>2016-04-13T14:51:27.000Z</time>
      </trkpt>
      <trkpt lat="47.21586" lon="2.95224">
        <ele>165.84153747559</ele>
        <time>2016-04-13T14:51:30.000Z</time>
      </trkpt>
      <trkpt lat="47.21585" lon="2.95227">
        <ele>165.88360595703</ele>
        <time>2016-04-13T14:51:33.000Z</time>
      </trkpt>
      <trkpt lat="47.21584" lon="2.95232">
        <ele>165.92224121094</ele>
        <time>2016-04-13T14:51:34.000Z</time>
      </trkpt>
      <trkpt lat="47.21584" lon="2.95237">
        <ele>165.95385742188</ele>
        <time>2016-04-13T14:51:38.000Z</time>
      </trkpt>
      <trkpt lat="47.21582" lon="2.9524">
        <ele>165.98013305664</ele>
        <time>2016-04-13T14:51:39.000Z</time>
      </trkpt>
      <trkpt lat="47.21582" lon="2.95244">
        <ele>165.99923706055</ele>
        <time>2016-04-13T14:51:41.000Z</time>
      </trkpt>
      <trkpt lat="47.21582" lon="2.95249">
        <ele>166.01354980469</ele>
        <time>2016-04-13T14:51:44.000Z</time>
      </trkpt>
      <trkpt lat="47.21583" lon="2.95253">
        <ele>166.01892089844</ele>
        <time>2016-04-13T14:51:47.000Z</time>
      </trkpt>
      <trkpt lat="47.21583" lon="2.95258">
        <ele>166.02238464355</ele>
        <time>2016-04-13T14:51:50.000Z</time>
      </trkpt>
      <trkpt lat="47.21582" lon="2.95261">
        <ele>166.02488708496</ele>
        <time>2016-04-13T14:51:53.000Z</time>
      </trkpt>
      <trkpt lat="47.21581" lon="2.95265">
        <ele>166.02719116211</ele>
        <time>2016-04-13T14:51:56.000Z</time>
      </trkpt>
      <trkpt lat="47.21579" lon="2.95271">
        <ele>166.03353881836</ele>
        <time>2016-04-13T14:51:58.000Z</time>
      </trkpt>
      <trkpt lat="47.21579" lon="2.95274">
        <ele>166.04370117188</ele>
        <time>2016-04-13T14:52:02.000Z</time>
      </trkpt>
      <trkpt lat="47.2158" lon="2.95278">
        <ele>166.05053710938</ele>
        <time>2016-04-13T14:52:03.000Z</time>
      </trkpt>
      <trkpt lat="47.21581" lon="2.95284">
        <ele>166.04948425293</ele>
        <time>2016-04-13T14:52:07.000Z</time>
      </trkpt>
      <trkpt lat="47.21581" lon="2.95287">
        <ele>166.04336547852</ele>
        <time>2016-04-13T14:52:08.000Z</time>
      </trkpt>
      <trkpt lat="47.21582" lon="2.95293">
        <ele>166.03225708008</ele>
        <time>2016-04-13T14:52:12.000Z</time>
      </trkpt>
      <trkpt lat="47.21582" lon="2.95296">
        <ele>166.02090454102</ele>
        <time>2016-04-13T14:52:13.000Z</time>
      </trkpt>
      <trkpt lat="47.21582" lon="2.95305">
        <ele>166.01205444336</ele>
        <time>2016-04-13T14:52:18.000Z</time>
      </trkpt>
      <trkpt lat="47.21582" lon="2.95311">
        <ele>166.00588989258</ele>
        <time>2016-04-13T14:52:19.000Z</time>
      </trkpt>
      <trkpt lat="47.21583" lon="2.95318">
        <ele>166.00131225586</ele>
        <time>2016-04-13T14:52:23.000Z</time>
      </trkpt>
      <trkpt lat="47.21583" lon="2.95325">
        <ele>165.9997253418</ele>
        <time>2016-04-13T14:52:30.000Z</time>
      </trkpt>
      <trkpt lat="47.21581" lon="2.95327">
        <ele>165.99314880371</ele>
        <time>2016-04-13T14:52:35.000Z</time>
      </trkpt>
      <trkpt lat="47.21575" lon="2.95327">
        <ele>165.9769744873</ele>
        <time>2016-04-13T14:52:47.000Z</time>
      </trkpt>
      <trkpt lat="47.21575" lon="2.95327">
        <ele>165.9769744873</ele>
        <time>2016-04-13T14:53:07.000Z</time>
      </trkpt>
      <trkpt lat="47.21575" lon="2.95327">
        <ele>165.9769744873</ele>
        <time>2016-04-13T14:53:11.000Z</time>
      </trkpt>
    </trkseg>
  </trk>
</gpx>